<?xml version="1.0" encoding="UTF-8" standalone="no" ?>
<gpx xmlns="http://www.topografix.com/GPX/1/1" xmlns:xsi="http://www.w3.org/2001/XMLSchema-instance" xsi:schemaLocation="http://www.topografix.com/GPX/1/1 http://www.topografix.com/GPX/1/1/gpx.xsd" version="1.1" creator="VisuGPX - https://www.visugpx.com">
  <metadata>
    <name>Dimanche 13 septembre 2020 (chasse) Sabot à 3</name>
    <desc><![CDATA[Beau temps pour un parcours classique, mais il a fallu faire demi-tour à cause des chasseurs.]]></desc>
  </metadata>
  <wpt lat="47.64435" lon="6.18318">
    <ele>230</ele>
    <name><![CDATA[0000072]]></name>
    <type><![CDATA[Point de départ]]></type>
  </wpt>
  <wpt lat="47.64434" lon="6.18304">
    <ele>230</ele>
    <name><![CDATA[0000073]]></name>
    <type><![CDATA[Point d'arrivée]]></type>
  </wpt>
  <trk>
    <name><![CDATA[2020-09-13 09:06]]></name>
    <desc><![CDATA[<p>Heure de départ: 09/13/2020 09:06<br/>Heure d'arrivée: 09/13/2020 11:02<br/>Distance: 20,8 km (01:55)<br/>Temps déplacement: 01:49<br/>Vitesse moyenne: 10,8 km/h<br/>Vitesse moyenne mouv.: 11,38 km/h<br/>Vitesse Max.: 40,63 km/h<br/>Altitude minimale: 219 m<br/>Altitude maximale: 372 m<br/>Vitesse de montée: 189,8 m/h<br/>Vitesse de descente: -317 m/h<br/>Gain d'altitude: 202 m<br/>Perte d'altitude: -200 m<br/>Temps de montée: 01:04<br/>Temps de descente: 00:37<br/></p><hr align="center" width="480" style="height: 2px; width: 517px"/>]]></desc>
    <trkseg>
      <trkpt lat="47.64435" lon="6.18318">
        <ele>230</ele>
        <time>2020-09-13T07:06:39Z</time>
      </trkpt>
      <trkpt lat="47.64436" lon="6.1831">
        <ele>230</ele>
        <time>2020-09-13T07:06:53Z</time>
      </trkpt>
      <trkpt lat="47.64436" lon="6.18292">
        <ele>230</ele>
        <time>2020-09-13T07:06:57Z</time>
      </trkpt>
      <trkpt lat="47.6444" lon="6.18297">
        <ele>230</ele>
        <time>2020-09-13T07:07:05Z</time>
      </trkpt>
      <trkpt lat="47.64445" lon="6.18297">
        <ele>231</ele>
        <time>2020-09-13T07:07:08Z</time>
      </trkpt>
      <trkpt lat="47.64442" lon="6.18291">
        <ele>230</ele>
        <time>2020-09-13T07:07:14Z</time>
      </trkpt>
      <trkpt lat="47.64437" lon="6.18291">
        <ele>230</ele>
        <time>2020-09-13T07:07:20Z</time>
      </trkpt>
      <trkpt lat="47.64432" lon="6.18293">
        <ele>230</ele>
        <time>2020-09-13T07:07:22Z</time>
      </trkpt>
      <trkpt lat="47.64428" lon="6.183">
        <ele>230</ele>
        <time>2020-09-13T07:07:24Z</time>
      </trkpt>
      <trkpt lat="47.64426" lon="6.18307">
        <ele>230</ele>
        <time>2020-09-13T07:07:26Z</time>
      </trkpt>
      <trkpt lat="47.64424" lon="6.18316">
        <ele>230</ele>
        <time>2020-09-13T07:07:27Z</time>
      </trkpt>
      <trkpt lat="47.6442" lon="6.18323">
        <ele>229</ele>
        <time>2020-09-13T07:07:29Z</time>
      </trkpt>
      <trkpt lat="47.64416" lon="6.18328">
        <ele>227</ele>
        <time>2020-09-13T07:07:32Z</time>
      </trkpt>
      <trkpt lat="47.64412" lon="6.18332">
        <ele>227</ele>
        <time>2020-09-13T07:07:33Z</time>
      </trkpt>
      <trkpt lat="47.64407" lon="6.18336">
        <ele>228</ele>
        <time>2020-09-13T07:07:36Z</time>
      </trkpt>
      <trkpt lat="47.64402" lon="6.18341">
        <ele>228</ele>
        <time>2020-09-13T07:07:39Z</time>
      </trkpt>
      <trkpt lat="47.64398" lon="6.18346">
        <ele>228</ele>
        <time>2020-09-13T07:07:41Z</time>
      </trkpt>
      <trkpt lat="47.64394" lon="6.18351">
        <ele>228</ele>
        <time>2020-09-13T07:07:42Z</time>
      </trkpt>
      <trkpt lat="47.6439" lon="6.18355">
        <ele>227</ele>
        <time>2020-09-13T07:07:45Z</time>
      </trkpt>
      <trkpt lat="47.64385" lon="6.18359">
        <ele>227</ele>
        <time>2020-09-13T07:07:47Z</time>
      </trkpt>
      <trkpt lat="47.64379" lon="6.18365">
        <ele>227</ele>
        <time>2020-09-13T07:07:48Z</time>
      </trkpt>
      <trkpt lat="47.64374" lon="6.18369">
        <ele>227</ele>
        <time>2020-09-13T07:07:51Z</time>
      </trkpt>
      <trkpt lat="47.6437" lon="6.18372">
        <ele>227</ele>
        <time>2020-09-13T07:07:51Z</time>
      </trkpt>
      <trkpt lat="47.64365" lon="6.18375">
        <ele>227</ele>
        <time>2020-09-13T07:07:53Z</time>
      </trkpt>
      <trkpt lat="47.6436" lon="6.18379">
        <ele>226</ele>
        <time>2020-09-13T07:07:57Z</time>
      </trkpt>
      <trkpt lat="47.64356" lon="6.18383">
        <ele>226</ele>
        <time>2020-09-13T07:07:59Z</time>
      </trkpt>
      <trkpt lat="47.64353" lon="6.18389">
        <ele>226</ele>
        <time>2020-09-13T07:08:01Z</time>
      </trkpt>
      <trkpt lat="47.6435" lon="6.18396">
        <ele>226</ele>
        <time>2020-09-13T07:08:03Z</time>
      </trkpt>
      <trkpt lat="47.64346" lon="6.18404">
        <ele>225</ele>
        <time>2020-09-13T07:08:05Z</time>
      </trkpt>
      <trkpt lat="47.64342" lon="6.1841">
        <ele>224</ele>
        <time>2020-09-13T07:08:08Z</time>
      </trkpt>
      <trkpt lat="47.64338" lon="6.18417">
        <ele>223</ele>
        <time>2020-09-13T07:08:10Z</time>
      </trkpt>
      <trkpt lat="47.64335" lon="6.18425">
        <ele>224</ele>
        <time>2020-09-13T07:08:12Z</time>
      </trkpt>
      <trkpt lat="47.64336" lon="6.18434">
        <ele>226</ele>
        <time>2020-09-13T07:08:14Z</time>
      </trkpt>
      <trkpt lat="47.64339" lon="6.18441">
        <ele>227</ele>
        <time>2020-09-13T07:08:16Z</time>
      </trkpt>
      <trkpt lat="47.64344" lon="6.18447">
        <ele>227</ele>
        <time>2020-09-13T07:08:18Z</time>
      </trkpt>
      <trkpt lat="47.64348" lon="6.1845">
        <ele>228</ele>
        <time>2020-09-13T07:08:18Z</time>
      </trkpt>
      <trkpt lat="47.64352" lon="6.18454">
        <ele>228</ele>
        <time>2020-09-13T07:08:21Z</time>
      </trkpt>
      <trkpt lat="47.64357" lon="6.18457">
        <ele>229</ele>
        <time>2020-09-13T07:08:27Z</time>
      </trkpt>
      <trkpt lat="47.64362" lon="6.18458">
        <ele>229</ele>
        <time>2020-09-13T07:08:31Z</time>
      </trkpt>
      <trkpt lat="47.64365" lon="6.18463">
        <ele>229</ele>
        <time>2020-09-13T07:08:35Z</time>
      </trkpt>
      <trkpt lat="47.6437" lon="6.18466">
        <ele>230</ele>
        <time>2020-09-13T07:08:39Z</time>
      </trkpt>
      <trkpt lat="47.64374" lon="6.18469">
        <ele>230</ele>
        <time>2020-09-13T07:08:40Z</time>
      </trkpt>
      <trkpt lat="47.64379" lon="6.1847">
        <ele>230</ele>
        <time>2020-09-13T07:08:45Z</time>
      </trkpt>
      <trkpt lat="47.64385" lon="6.1847">
        <ele>231</ele>
        <time>2020-09-13T07:08:47Z</time>
      </trkpt>
      <trkpt lat="47.6439" lon="6.1847">
        <ele>231</ele>
        <time>2020-09-13T07:08:51Z</time>
      </trkpt>
      <trkpt lat="47.64395" lon="6.18471">
        <ele>232</ele>
        <time>2020-09-13T07:08:58Z</time>
      </trkpt>
      <trkpt lat="47.64401" lon="6.18471">
        <ele>232</ele>
        <time>2020-09-13T07:09:02Z</time>
      </trkpt>
      <trkpt lat="47.64405" lon="6.18471">
        <ele>232</ele>
        <time>2020-09-13T07:09:05Z</time>
      </trkpt>
      <trkpt lat="47.64411" lon="6.18472">
        <ele>233</ele>
        <time>2020-09-13T07:09:09Z</time>
      </trkpt>
      <trkpt lat="47.64415" lon="6.18474">
        <ele>233</ele>
        <time>2020-09-13T07:09:13Z</time>
      </trkpt>
      <trkpt lat="47.6442" lon="6.18475">
        <ele>240</ele>
        <time>2020-09-13T07:09:17Z</time>
      </trkpt>
      <trkpt lat="47.64426" lon="6.18474">
        <ele>241</ele>
        <time>2020-09-13T07:09:21Z</time>
      </trkpt>
      <trkpt lat="47.64431" lon="6.18476">
        <ele>241</ele>
        <time>2020-09-13T07:09:24Z</time>
      </trkpt>
      <trkpt lat="47.64435" lon="6.18477">
        <ele>241</ele>
        <time>2020-09-13T07:09:27Z</time>
      </trkpt>
      <trkpt lat="47.6444" lon="6.1848">
        <ele>241</ele>
        <time>2020-09-13T07:09:29Z</time>
      </trkpt>
      <trkpt lat="47.64444" lon="6.18486">
        <ele>242</ele>
        <time>2020-09-13T07:09:31Z</time>
      </trkpt>
      <trkpt lat="47.64448" lon="6.18491">
        <ele>242</ele>
        <time>2020-09-13T07:09:32Z</time>
      </trkpt>
      <trkpt lat="47.64452" lon="6.18495">
        <ele>242</ele>
        <time>2020-09-13T07:09:34Z</time>
      </trkpt>
      <trkpt lat="47.64457" lon="6.185">
        <ele>243</ele>
        <time>2020-09-13T07:09:36Z</time>
      </trkpt>
      <trkpt lat="47.64463" lon="6.18504">
        <ele>239</ele>
        <time>2020-09-13T07:09:38Z</time>
      </trkpt>
      <trkpt lat="47.64467" lon="6.18508">
        <ele>239</ele>
        <time>2020-09-13T07:09:40Z</time>
      </trkpt>
      <trkpt lat="47.64472" lon="6.18511">
        <ele>240</ele>
        <time>2020-09-13T07:09:42Z</time>
      </trkpt>
      <trkpt lat="47.64477" lon="6.18515">
        <ele>240</ele>
        <time>2020-09-13T07:09:42Z</time>
      </trkpt>
      <trkpt lat="47.64482" lon="6.18519">
        <ele>240</ele>
        <time>2020-09-13T07:09:46Z</time>
      </trkpt>
      <trkpt lat="47.64486" lon="6.1852">
        <ele>241</ele>
        <time>2020-09-13T07:09:49Z</time>
      </trkpt>
      <trkpt lat="47.64491" lon="6.18522">
        <ele>241</ele>
        <time>2020-09-13T07:09:53Z</time>
      </trkpt>
      <trkpt lat="47.64496" lon="6.18522">
        <ele>241</ele>
        <time>2020-09-13T07:09:56Z</time>
      </trkpt>
      <trkpt lat="47.64501" lon="6.18524">
        <ele>245</ele>
        <time>2020-09-13T07:10:02Z</time>
      </trkpt>
      <trkpt lat="47.64505" lon="6.18528">
        <ele>244</ele>
        <time>2020-09-13T07:10:04Z</time>
      </trkpt>
      <trkpt lat="47.64512" lon="6.18529">
        <ele>244</ele>
        <time>2020-09-13T07:10:10Z</time>
      </trkpt>
      <trkpt lat="47.64516" lon="6.18533">
        <ele>244</ele>
        <time>2020-09-13T07:10:16Z</time>
      </trkpt>
      <trkpt lat="47.6452" lon="6.18537">
        <ele>244</ele>
        <time>2020-09-13T07:10:19Z</time>
      </trkpt>
      <trkpt lat="47.64524" lon="6.18541">
        <ele>243</ele>
        <time>2020-09-13T07:10:22Z</time>
      </trkpt>
      <trkpt lat="47.64528" lon="6.18545">
        <ele>243</ele>
        <time>2020-09-13T07:10:27Z</time>
      </trkpt>
      <trkpt lat="47.64533" lon="6.18548">
        <ele>243</ele>
        <time>2020-09-13T07:10:31Z</time>
      </trkpt>
      <trkpt lat="47.64538" lon="6.18551">
        <ele>243</ele>
        <time>2020-09-13T07:10:34Z</time>
      </trkpt>
      <trkpt lat="47.64543" lon="6.18554">
        <ele>243</ele>
        <time>2020-09-13T07:10:40Z</time>
      </trkpt>
      <trkpt lat="47.64548" lon="6.18557">
        <ele>243</ele>
        <time>2020-09-13T07:10:41Z</time>
      </trkpt>
      <trkpt lat="47.64553" lon="6.18559">
        <ele>243</ele>
        <time>2020-09-13T07:10:44Z</time>
      </trkpt>
      <trkpt lat="47.64558" lon="6.18562">
        <ele>243</ele>
        <time>2020-09-13T07:10:50Z</time>
      </trkpt>
      <trkpt lat="47.64563" lon="6.18565">
        <ele>243</ele>
        <time>2020-09-13T07:10:52Z</time>
      </trkpt>
      <trkpt lat="47.64567" lon="6.18567">
        <ele>243</ele>
        <time>2020-09-13T07:10:55Z</time>
      </trkpt>
      <trkpt lat="47.64573" lon="6.1857">
        <ele>243</ele>
        <time>2020-09-13T07:10:58Z</time>
      </trkpt>
      <trkpt lat="47.64578" lon="6.18572">
        <ele>243</ele>
        <time>2020-09-13T07:11:00Z</time>
      </trkpt>
      <trkpt lat="47.64583" lon="6.18575">
        <ele>243</ele>
        <time>2020-09-13T07:11:03Z</time>
      </trkpt>
      <trkpt lat="47.64588" lon="6.18578">
        <ele>244</ele>
        <time>2020-09-13T07:11:06Z</time>
      </trkpt>
      <trkpt lat="47.64593" lon="6.18581">
        <ele>245</ele>
        <time>2020-09-13T07:11:08Z</time>
      </trkpt>
      <trkpt lat="47.64597" lon="6.18584">
        <ele>242</ele>
        <time>2020-09-13T07:11:08Z</time>
      </trkpt>
      <trkpt lat="47.64603" lon="6.18587">
        <ele>242</ele>
        <time>2020-09-13T07:11:10Z</time>
      </trkpt>
      <trkpt lat="47.64607" lon="6.18588">
        <ele>242</ele>
        <time>2020-09-13T07:11:14Z</time>
      </trkpt>
      <trkpt lat="47.64612" lon="6.1859">
        <ele>242</ele>
        <time>2020-09-13T07:11:16Z</time>
      </trkpt>
      <trkpt lat="47.64618" lon="6.18591">
        <ele>242</ele>
        <time>2020-09-13T07:11:17Z</time>
      </trkpt>
      <trkpt lat="47.64623" lon="6.18591">
        <ele>243</ele>
        <time>2020-09-13T07:11:22Z</time>
      </trkpt>
      <trkpt lat="47.64628" lon="6.18591">
        <ele>243</ele>
        <time>2020-09-13T07:11:25Z</time>
      </trkpt>
      <trkpt lat="47.64634" lon="6.18591">
        <ele>243</ele>
        <time>2020-09-13T07:11:28Z</time>
      </trkpt>
      <trkpt lat="47.64638" lon="6.18592">
        <ele>243</ele>
        <time>2020-09-13T07:11:31Z</time>
      </trkpt>
      <trkpt lat="47.64643" lon="6.18595">
        <ele>244</ele>
        <time>2020-09-13T07:11:33Z</time>
      </trkpt>
      <trkpt lat="47.64647" lon="6.18598">
        <ele>244</ele>
        <time>2020-09-13T07:11:36Z</time>
      </trkpt>
      <trkpt lat="47.64652" lon="6.18601">
        <ele>244</ele>
        <time>2020-09-13T07:11:41Z</time>
      </trkpt>
      <trkpt lat="47.64657" lon="6.18605">
        <ele>244</ele>
        <time>2020-09-13T07:11:45Z</time>
      </trkpt>
      <trkpt lat="47.64661" lon="6.18609">
        <ele>244</ele>
        <time>2020-09-13T07:11:48Z</time>
      </trkpt>
      <trkpt lat="47.64665" lon="6.18612">
        <ele>243</ele>
        <time>2020-09-13T07:11:52Z</time>
      </trkpt>
      <trkpt lat="47.6467" lon="6.18616">
        <ele>248</ele>
        <time>2020-09-13T07:11:55Z</time>
      </trkpt>
      <trkpt lat="47.64674" lon="6.1862">
        <ele>248</ele>
        <time>2020-09-13T07:11:58Z</time>
      </trkpt>
      <trkpt lat="47.64678" lon="6.18625">
        <ele>248</ele>
        <time>2020-09-13T07:12:02Z</time>
      </trkpt>
      <trkpt lat="47.64682" lon="6.1863">
        <ele>248</ele>
        <time>2020-09-13T07:12:05Z</time>
      </trkpt>
      <trkpt lat="47.64686" lon="6.18636">
        <ele>248</ele>
        <time>2020-09-13T07:12:08Z</time>
      </trkpt>
      <trkpt lat="47.64691" lon="6.18641">
        <ele>248</ele>
        <time>2020-09-13T07:12:10Z</time>
      </trkpt>
      <trkpt lat="47.64696" lon="6.18645">
        <ele>248</ele>
        <time>2020-09-13T07:12:11Z</time>
      </trkpt>
      <trkpt lat="47.647" lon="6.18649">
        <ele>248</ele>
        <time>2020-09-13T07:12:15Z</time>
      </trkpt>
      <trkpt lat="47.64704" lon="6.18652">
        <ele>248</ele>
        <time>2020-09-13T07:12:15Z</time>
      </trkpt>
      <trkpt lat="47.64708" lon="6.18656">
        <ele>249</ele>
        <time>2020-09-13T07:12:21Z</time>
      </trkpt>
      <trkpt lat="47.64712" lon="6.1866">
        <ele>249</ele>
        <time>2020-09-13T07:12:26Z</time>
      </trkpt>
      <trkpt lat="47.64717" lon="6.18665">
        <ele>249</ele>
        <time>2020-09-13T07:12:29Z</time>
      </trkpt>
      <trkpt lat="47.64721" lon="6.1867">
        <ele>248</ele>
        <time>2020-09-13T07:12:35Z</time>
      </trkpt>
      <trkpt lat="47.64725" lon="6.18675">
        <ele>248</ele>
        <time>2020-09-13T07:12:38Z</time>
      </trkpt>
      <trkpt lat="47.64729" lon="6.1868">
        <ele>248</ele>
        <time>2020-09-13T07:12:43Z</time>
      </trkpt>
      <trkpt lat="47.64733" lon="6.18685">
        <ele>248</ele>
        <time>2020-09-13T07:12:47Z</time>
      </trkpt>
      <trkpt lat="47.64737" lon="6.1869">
        <ele>248</ele>
        <time>2020-09-13T07:12:49Z</time>
      </trkpt>
      <trkpt lat="47.64741" lon="6.18695">
        <ele>248</ele>
        <time>2020-09-13T07:12:55Z</time>
      </trkpt>
      <trkpt lat="47.64745" lon="6.187">
        <ele>248</ele>
        <time>2020-09-13T07:12:57Z</time>
      </trkpt>
      <trkpt lat="47.64749" lon="6.18706">
        <ele>248</ele>
        <time>2020-09-13T07:13:03Z</time>
      </trkpt>
      <trkpt lat="47.64754" lon="6.18711">
        <ele>254</ele>
        <time>2020-09-13T07:13:07Z</time>
      </trkpt>
      <trkpt lat="47.64759" lon="6.18717">
        <ele>254</ele>
        <time>2020-09-13T07:13:10Z</time>
      </trkpt>
      <trkpt lat="47.64762" lon="6.18721">
        <ele>254</ele>
        <time>2020-09-13T07:13:12Z</time>
      </trkpt>
      <trkpt lat="47.64765" lon="6.18727">
        <ele>254</ele>
        <time>2020-09-13T07:13:18Z</time>
      </trkpt>
      <trkpt lat="47.64769" lon="6.18732">
        <ele>254</ele>
        <time>2020-09-13T07:13:20Z</time>
      </trkpt>
      <trkpt lat="47.6477" lon="6.18739">
        <ele>254</ele>
        <time>2020-09-13T07:13:26Z</time>
      </trkpt>
      <trkpt lat="47.64772" lon="6.18745">
        <ele>254</ele>
        <time>2020-09-13T07:13:28Z</time>
      </trkpt>
      <trkpt lat="47.64775" lon="6.18752">
        <ele>254</ele>
        <time>2020-09-13T07:13:30Z</time>
      </trkpt>
      <trkpt lat="47.64776" lon="6.1876">
        <ele>254</ele>
        <time>2020-09-13T07:13:33Z</time>
      </trkpt>
      <trkpt lat="47.64778" lon="6.18767">
        <ele>255</ele>
        <time>2020-09-13T07:13:35Z</time>
      </trkpt>
      <trkpt lat="47.64779" lon="6.18775">
        <ele>255</ele>
        <time>2020-09-13T07:13:38Z</time>
      </trkpt>
      <trkpt lat="47.64781" lon="6.18782">
        <ele>255</ele>
        <time>2020-09-13T07:13:39Z</time>
      </trkpt>
      <trkpt lat="47.64783" lon="6.18789">
        <ele>255</ele>
        <time>2020-09-13T07:13:44Z</time>
      </trkpt>
      <trkpt lat="47.64785" lon="6.18797">
        <ele>255</ele>
        <time>2020-09-13T07:13:47Z</time>
      </trkpt>
      <trkpt lat="47.64787" lon="6.18803">
        <ele>255</ele>
        <time>2020-09-13T07:13:47Z</time>
      </trkpt>
      <trkpt lat="47.6479" lon="6.18809">
        <ele>255</ele>
        <time>2020-09-13T07:13:52Z</time>
      </trkpt>
      <trkpt lat="47.64793" lon="6.18816">
        <ele>255</ele>
        <time>2020-09-13T07:13:52Z</time>
      </trkpt>
      <trkpt lat="47.64795" lon="6.18823">
        <ele>255</ele>
        <time>2020-09-13T07:13:57Z</time>
      </trkpt>
      <trkpt lat="47.64797" lon="6.18831">
        <ele>256</ele>
        <time>2020-09-13T07:14:00Z</time>
      </trkpt>
      <trkpt lat="47.648" lon="6.18839">
        <ele>255</ele>
        <time>2020-09-13T07:14:03Z</time>
      </trkpt>
      <trkpt lat="47.64801" lon="6.18847">
        <ele>255</ele>
        <time>2020-09-13T07:14:05Z</time>
      </trkpt>
      <trkpt lat="47.64803" lon="6.18854">
        <ele>255</ele>
        <time>2020-09-13T07:14:07Z</time>
      </trkpt>
      <trkpt lat="47.64805" lon="6.18861">
        <ele>255</ele>
        <time>2020-09-13T07:14:10Z</time>
      </trkpt>
      <trkpt lat="47.64808" lon="6.18867">
        <ele>255</ele>
        <time>2020-09-13T07:14:12Z</time>
      </trkpt>
      <trkpt lat="47.64812" lon="6.18873">
        <ele>255</ele>
        <time>2020-09-13T07:14:15Z</time>
      </trkpt>
      <trkpt lat="47.64816" lon="6.18877">
        <ele>256</ele>
        <time>2020-09-13T07:14:18Z</time>
      </trkpt>
      <trkpt lat="47.64821" lon="6.18881">
        <ele>256</ele>
        <time>2020-09-13T07:14:18Z</time>
      </trkpt>
      <trkpt lat="47.64826" lon="6.18884">
        <ele>256</ele>
        <time>2020-09-13T07:14:20Z</time>
      </trkpt>
      <trkpt lat="47.64831" lon="6.18885">
        <ele>256</ele>
        <time>2020-09-13T07:14:25Z</time>
      </trkpt>
      <trkpt lat="47.64835" lon="6.18883">
        <ele>260</ele>
        <time>2020-09-13T07:14:25Z</time>
      </trkpt>
      <trkpt lat="47.6484" lon="6.1888">
        <ele>260</ele>
        <time>2020-09-13T07:14:28Z</time>
      </trkpt>
      <trkpt lat="47.64844" lon="6.18877">
        <ele>260</ele>
        <time>2020-09-13T07:14:33Z</time>
      </trkpt>
      <trkpt lat="47.64849" lon="6.18874">
        <ele>260</ele>
        <time>2020-09-13T07:14:34Z</time>
      </trkpt>
      <trkpt lat="47.64854" lon="6.18871">
        <ele>260</ele>
        <time>2020-09-13T07:14:39Z</time>
      </trkpt>
      <trkpt lat="47.64859" lon="6.18867">
        <ele>260</ele>
        <time>2020-09-13T07:14:42Z</time>
      </trkpt>
      <trkpt lat="47.64863" lon="6.18865">
        <ele>260</ele>
        <time>2020-09-13T07:14:46Z</time>
      </trkpt>
      <trkpt lat="47.64869" lon="6.18862">
        <ele>260</ele>
        <time>2020-09-13T07:14:48Z</time>
      </trkpt>
      <trkpt lat="47.64875" lon="6.18861">
        <ele>261</ele>
        <time>2020-09-13T07:14:49Z</time>
      </trkpt>
      <trkpt lat="47.64879" lon="6.18863">
        <ele>261</ele>
        <time>2020-09-13T07:14:54Z</time>
      </trkpt>
      <trkpt lat="47.6488" lon="6.1887">
        <ele>261</ele>
        <time>2020-09-13T07:14:56Z</time>
      </trkpt>
      <trkpt lat="47.64883" lon="6.18876">
        <ele>261</ele>
        <time>2020-09-13T07:15:01Z</time>
      </trkpt>
      <trkpt lat="47.64887" lon="6.18881">
        <ele>261</ele>
        <time>2020-09-13T07:15:20Z</time>
      </trkpt>
      <trkpt lat="47.6489" lon="6.18886">
        <ele>261</ele>
        <time>2020-09-13T07:15:23Z</time>
      </trkpt>
      <trkpt lat="47.64893" lon="6.18892">
        <ele>261</ele>
        <time>2020-09-13T07:15:27Z</time>
      </trkpt>
      <trkpt lat="47.64896" lon="6.18897">
        <ele>261</ele>
        <time>2020-09-13T07:15:32Z</time>
      </trkpt>
      <trkpt lat="47.64899" lon="6.18903">
        <ele>261</ele>
        <time>2020-09-13T07:15:34Z</time>
      </trkpt>
      <trkpt lat="47.64902" lon="6.18909">
        <ele>261</ele>
        <time>2020-09-13T07:15:38Z</time>
      </trkpt>
      <trkpt lat="47.64907" lon="6.18916">
        <ele>261</ele>
        <time>2020-09-13T07:15:40Z</time>
      </trkpt>
      <trkpt lat="47.64911" lon="6.18922">
        <ele>261</ele>
        <time>2020-09-13T07:15:41Z</time>
      </trkpt>
      <trkpt lat="47.64914" lon="6.18928">
        <ele>261</ele>
        <time>2020-09-13T07:15:43Z</time>
      </trkpt>
      <trkpt lat="47.64918" lon="6.18933">
        <ele>262</ele>
        <time>2020-09-13T07:15:46Z</time>
      </trkpt>
      <trkpt lat="47.64922" lon="6.18938">
        <ele>263</ele>
        <time>2020-09-13T07:15:48Z</time>
      </trkpt>
      <trkpt lat="47.64925" lon="6.18943">
        <ele>263</ele>
        <time>2020-09-13T07:15:52Z</time>
      </trkpt>
      <trkpt lat="47.64927" lon="6.18949">
        <ele>263</ele>
        <time>2020-09-13T07:16:14Z</time>
      </trkpt>
      <trkpt lat="47.6493" lon="6.18954">
        <ele>263</ele>
        <time>2020-09-13T07:16:20Z</time>
      </trkpt>
      <trkpt lat="47.64934" lon="6.1896">
        <ele>263</ele>
        <time>2020-09-13T07:16:25Z</time>
      </trkpt>
      <trkpt lat="47.64936" lon="6.18967">
        <ele>263</ele>
        <time>2020-09-13T07:16:45Z</time>
      </trkpt>
      <trkpt lat="47.64938" lon="6.18974">
        <ele>262</ele>
        <time>2020-09-13T07:16:50Z</time>
      </trkpt>
      <trkpt lat="47.64941" lon="6.1898">
        <ele>262</ele>
        <time>2020-09-13T07:16:50Z</time>
      </trkpt>
      <trkpt lat="47.64945" lon="6.18986">
        <ele>262</ele>
        <time>2020-09-13T07:16:56Z</time>
      </trkpt>
      <trkpt lat="47.64948" lon="6.18992">
        <ele>263</ele>
        <time>2020-09-13T07:16:58Z</time>
      </trkpt>
      <trkpt lat="47.64952" lon="6.18999">
        <ele>263</ele>
        <time>2020-09-13T07:16:58Z</time>
      </trkpt>
      <trkpt lat="47.64956" lon="6.19006">
        <ele>262</ele>
        <time>2020-09-13T07:17:00Z</time>
      </trkpt>
      <trkpt lat="47.6496" lon="6.19015">
        <ele>262</ele>
        <time>2020-09-13T07:17:03Z</time>
      </trkpt>
      <trkpt lat="47.64963" lon="6.19021">
        <ele>262</ele>
        <time>2020-09-13T07:17:05Z</time>
      </trkpt>
      <trkpt lat="47.64966" lon="6.19027">
        <ele>262</ele>
        <time>2020-09-13T07:17:10Z</time>
      </trkpt>
      <trkpt lat="47.64969" lon="6.19033">
        <ele>262</ele>
        <time>2020-09-13T07:17:12Z</time>
      </trkpt>
      <trkpt lat="47.64972" lon="6.19038">
        <ele>262</ele>
        <time>2020-09-13T07:17:14Z</time>
      </trkpt>
      <trkpt lat="47.64975" lon="6.19045">
        <ele>262</ele>
        <time>2020-09-13T07:17:17Z</time>
      </trkpt>
      <trkpt lat="47.64978" lon="6.1905">
        <ele>263</ele>
        <time>2020-09-13T07:17:19Z</time>
      </trkpt>
      <trkpt lat="47.64981" lon="6.19056">
        <ele>263</ele>
        <time>2020-09-13T07:17:21Z</time>
      </trkpt>
      <trkpt lat="47.64985" lon="6.19063">
        <ele>263</ele>
        <time>2020-09-13T07:17:23Z</time>
      </trkpt>
      <trkpt lat="47.64992" lon="6.19075">
        <ele>263</ele>
        <time>2020-09-13T07:17:26Z</time>
      </trkpt>
      <trkpt lat="47.64996" lon="6.19081">
        <ele>264</ele>
        <time>2020-09-13T07:17:28Z</time>
      </trkpt>
      <trkpt lat="47.64999" lon="6.19086">
        <ele>264</ele>
        <time>2020-09-13T07:17:30Z</time>
      </trkpt>
      <trkpt lat="47.65002" lon="6.19092">
        <ele>264</ele>
        <time>2020-09-13T07:17:32Z</time>
      </trkpt>
      <trkpt lat="47.65006" lon="6.19098">
        <ele>265</ele>
        <time>2020-09-13T07:17:34Z</time>
      </trkpt>
      <trkpt lat="47.6501" lon="6.19104">
        <ele>265</ele>
        <time>2020-09-13T07:17:36Z</time>
      </trkpt>
      <trkpt lat="47.65013" lon="6.19109">
        <ele>265</ele>
        <time>2020-09-13T07:17:38Z</time>
      </trkpt>
      <trkpt lat="47.65017" lon="6.19116">
        <ele>265</ele>
        <time>2020-09-13T07:17:38Z</time>
      </trkpt>
      <trkpt lat="47.6502" lon="6.19121">
        <ele>265</ele>
        <time>2020-09-13T07:17:40Z</time>
      </trkpt>
      <trkpt lat="47.65025" lon="6.19129">
        <ele>265</ele>
        <time>2020-09-13T07:17:45Z</time>
      </trkpt>
      <trkpt lat="47.65028" lon="6.19134">
        <ele>265</ele>
        <time>2020-09-13T07:17:47Z</time>
      </trkpt>
      <trkpt lat="47.65032" lon="6.19141">
        <ele>265</ele>
        <time>2020-09-13T07:17:49Z</time>
      </trkpt>
      <trkpt lat="47.65035" lon="6.19148">
        <ele>265</ele>
        <time>2020-09-13T07:17:52Z</time>
      </trkpt>
      <trkpt lat="47.65038" lon="6.19154">
        <ele>265</ele>
        <time>2020-09-13T07:17:54Z</time>
      </trkpt>
      <trkpt lat="47.65041" lon="6.1916">
        <ele>265</ele>
        <time>2020-09-13T07:17:56Z</time>
      </trkpt>
      <trkpt lat="47.65045" lon="6.19167">
        <ele>265</ele>
        <time>2020-09-13T07:17:59Z</time>
      </trkpt>
      <trkpt lat="47.65049" lon="6.19174">
        <ele>265</ele>
        <time>2020-09-13T07:17:59Z</time>
      </trkpt>
      <trkpt lat="47.65053" lon="6.1918">
        <ele>265</ele>
        <time>2020-09-13T07:18:01Z</time>
      </trkpt>
      <trkpt lat="47.65057" lon="6.19186">
        <ele>265</ele>
        <time>2020-09-13T07:18:06Z</time>
      </trkpt>
      <trkpt lat="47.65061" lon="6.19193">
        <ele>265</ele>
        <time>2020-09-13T07:18:08Z</time>
      </trkpt>
      <trkpt lat="47.65064" lon="6.19198">
        <ele>265</ele>
        <time>2020-09-13T07:18:10Z</time>
      </trkpt>
      <trkpt lat="47.65068" lon="6.19203">
        <ele>265</ele>
        <time>2020-09-13T07:18:10Z</time>
      </trkpt>
      <trkpt lat="47.65072" lon="6.19209">
        <ele>265</ele>
        <time>2020-09-13T07:18:15Z</time>
      </trkpt>
      <trkpt lat="47.65076" lon="6.19215">
        <ele>266</ele>
        <time>2020-09-13T07:18:17Z</time>
      </trkpt>
      <trkpt lat="47.65079" lon="6.19221">
        <ele>266</ele>
        <time>2020-09-13T07:18:19Z</time>
      </trkpt>
      <trkpt lat="47.65083" lon="6.19226">
        <ele>266</ele>
        <time>2020-09-13T07:18:21Z</time>
      </trkpt>
      <trkpt lat="47.65086" lon="6.19232">
        <ele>268</ele>
        <time>2020-09-13T07:18:23Z</time>
      </trkpt>
      <trkpt lat="47.6509" lon="6.19238">
        <ele>268</ele>
        <time>2020-09-13T07:18:23Z</time>
      </trkpt>
      <trkpt lat="47.65094" lon="6.19245">
        <ele>268</ele>
        <time>2020-09-13T07:18:26Z</time>
      </trkpt>
      <trkpt lat="47.65098" lon="6.1925">
        <ele>267</ele>
        <time>2020-09-13T07:18:30Z</time>
      </trkpt>
      <trkpt lat="47.65102" lon="6.19256">
        <ele>267</ele>
        <time>2020-09-13T07:18:33Z</time>
      </trkpt>
      <trkpt lat="47.65106" lon="6.19263">
        <ele>267</ele>
        <time>2020-09-13T07:18:35Z</time>
      </trkpt>
      <trkpt lat="47.6511" lon="6.19268">
        <ele>267</ele>
        <time>2020-09-13T07:18:35Z</time>
      </trkpt>
      <trkpt lat="47.65114" lon="6.19273">
        <ele>267</ele>
        <time>2020-09-13T07:18:37Z</time>
      </trkpt>
      <trkpt lat="47.65117" lon="6.19278">
        <ele>268</ele>
        <time>2020-09-13T07:18:41Z</time>
      </trkpt>
      <trkpt lat="47.65121" lon="6.19284">
        <ele>268</ele>
        <time>2020-09-13T07:18:44Z</time>
      </trkpt>
      <trkpt lat="47.65125" lon="6.19288">
        <ele>268</ele>
        <time>2020-09-13T07:18:46Z</time>
      </trkpt>
      <trkpt lat="47.65129" lon="6.1929">
        <ele>268</ele>
        <time>2020-09-13T07:18:48Z</time>
      </trkpt>
      <trkpt lat="47.65138" lon="6.19297">
        <ele>268</ele>
        <time>2020-09-13T07:18:51Z</time>
      </trkpt>
      <trkpt lat="47.65144" lon="6.19302">
        <ele>268</ele>
        <time>2020-09-13T07:18:51Z</time>
      </trkpt>
      <trkpt lat="47.65148" lon="6.19306">
        <ele>268</ele>
        <time>2020-09-13T07:18:55Z</time>
      </trkpt>
      <trkpt lat="47.65153" lon="6.1931">
        <ele>268</ele>
        <time>2020-09-13T07:18:55Z</time>
      </trkpt>
      <trkpt lat="47.65158" lon="6.19314">
        <ele>268</ele>
        <time>2020-09-13T07:18:57Z</time>
      </trkpt>
      <trkpt lat="47.65162" lon="6.19318">
        <ele>268</ele>
        <time>2020-09-13T07:19:01Z</time>
      </trkpt>
      <trkpt lat="47.65167" lon="6.19323">
        <ele>269</ele>
        <time>2020-09-13T07:19:01Z</time>
      </trkpt>
      <trkpt lat="47.65172" lon="6.19328">
        <ele>269</ele>
        <time>2020-09-13T07:19:03Z</time>
      </trkpt>
      <trkpt lat="47.65176" lon="6.19333">
        <ele>268</ele>
        <time>2020-09-13T07:19:07Z</time>
      </trkpt>
      <trkpt lat="47.65179" lon="6.19338">
        <ele>268</ele>
        <time>2020-09-13T07:19:09Z</time>
      </trkpt>
      <trkpt lat="47.65185" lon="6.19346">
        <ele>268</ele>
        <time>2020-09-13T07:19:09Z</time>
      </trkpt>
      <trkpt lat="47.65189" lon="6.19352">
        <ele>268</ele>
        <time>2020-09-13T07:19:13Z</time>
      </trkpt>
      <trkpt lat="47.65193" lon="6.19358">
        <ele>268</ele>
        <time>2020-09-13T07:19:15Z</time>
      </trkpt>
      <trkpt lat="47.65198" lon="6.19366">
        <ele>268</ele>
        <time>2020-09-13T07:19:16Z</time>
      </trkpt>
      <trkpt lat="47.65202" lon="6.19372">
        <ele>268</ele>
        <time>2020-09-13T07:19:18Z</time>
      </trkpt>
      <trkpt lat="47.65205" lon="6.19378">
        <ele>268</ele>
        <time>2020-09-13T07:19:19Z</time>
      </trkpt>
      <trkpt lat="47.65209" lon="6.19384">
        <ele>268</ele>
        <time>2020-09-13T07:19:21Z</time>
      </trkpt>
      <trkpt lat="47.65215" lon="6.19396">
        <ele>268</ele>
        <time>2020-09-13T07:19:24Z</time>
      </trkpt>
      <trkpt lat="47.65219" lon="6.19402">
        <ele>268</ele>
        <time>2020-09-13T07:19:25Z</time>
      </trkpt>
      <trkpt lat="47.65222" lon="6.19408">
        <ele>268</ele>
        <time>2020-09-13T07:19:26Z</time>
      </trkpt>
      <trkpt lat="47.65226" lon="6.19413">
        <ele>268</ele>
        <time>2020-09-13T07:19:28Z</time>
      </trkpt>
      <trkpt lat="47.65233" lon="6.19425">
        <ele>267</ele>
        <time>2020-09-13T07:19:31Z</time>
      </trkpt>
      <trkpt lat="47.65238" lon="6.19433">
        <ele>267</ele>
        <time>2020-09-13T07:19:33Z</time>
      </trkpt>
      <trkpt lat="47.65243" lon="6.19438">
        <ele>267</ele>
        <time>2020-09-13T07:19:35Z</time>
      </trkpt>
      <trkpt lat="47.65246" lon="6.19443">
        <ele>267</ele>
        <time>2020-09-13T07:19:37Z</time>
      </trkpt>
      <trkpt lat="47.65251" lon="6.19449">
        <ele>270</ele>
        <time>2020-09-13T07:19:37Z</time>
      </trkpt>
      <trkpt lat="47.65255" lon="6.19453">
        <ele>270</ele>
        <time>2020-09-13T07:19:39Z</time>
      </trkpt>
      <trkpt lat="47.65259" lon="6.19459">
        <ele>270</ele>
        <time>2020-09-13T07:19:41Z</time>
      </trkpt>
      <trkpt lat="47.65263" lon="6.19463">
        <ele>270</ele>
        <time>2020-09-13T07:19:45Z</time>
      </trkpt>
      <trkpt lat="47.65267" lon="6.19471">
        <ele>270</ele>
        <time>2020-09-13T07:19:48Z</time>
      </trkpt>
      <trkpt lat="47.65271" lon="6.19479">
        <ele>270</ele>
        <time>2020-09-13T07:19:48Z</time>
      </trkpt>
      <trkpt lat="47.65274" lon="6.19486">
        <ele>270</ele>
        <time>2020-09-13T07:19:52Z</time>
      </trkpt>
      <trkpt lat="47.65277" lon="6.19493">
        <ele>270</ele>
        <time>2020-09-13T07:19:54Z</time>
      </trkpt>
      <trkpt lat="47.6528" lon="6.19501">
        <ele>270</ele>
        <time>2020-09-13T07:19:56Z</time>
      </trkpt>
      <trkpt lat="47.65283" lon="6.19507">
        <ele>271</ele>
        <time>2020-09-13T07:19:58Z</time>
      </trkpt>
      <trkpt lat="47.65283" lon="6.19515">
        <ele>271</ele>
        <time>2020-09-13T07:20:00Z</time>
      </trkpt>
      <trkpt lat="47.65284" lon="6.19522">
        <ele>271</ele>
        <time>2020-09-13T07:20:02Z</time>
      </trkpt>
      <trkpt lat="47.65285" lon="6.1953">
        <ele>271</ele>
        <time>2020-09-13T07:20:02Z</time>
      </trkpt>
      <trkpt lat="47.65287" lon="6.19539">
        <ele>271</ele>
        <time>2020-09-13T07:20:06Z</time>
      </trkpt>
      <trkpt lat="47.6529" lon="6.19545">
        <ele>271</ele>
        <time>2020-09-13T07:20:08Z</time>
      </trkpt>
      <trkpt lat="47.65293" lon="6.19551">
        <ele>271</ele>
        <time>2020-09-13T07:20:08Z</time>
      </trkpt>
      <trkpt lat="47.65298" lon="6.19558">
        <ele>271</ele>
        <time>2020-09-13T07:20:12Z</time>
      </trkpt>
      <trkpt lat="47.65302" lon="6.19564">
        <ele>271</ele>
        <time>2020-09-13T07:20:13Z</time>
      </trkpt>
      <trkpt lat="47.65306" lon="6.19572">
        <ele>271</ele>
        <time>2020-09-13T07:20:15Z</time>
      </trkpt>
      <trkpt lat="47.6531" lon="6.19583">
        <ele>271</ele>
        <time>2020-09-13T07:20:17Z</time>
      </trkpt>
      <trkpt lat="47.65313" lon="6.19591">
        <ele>271</ele>
        <time>2020-09-13T07:20:18Z</time>
      </trkpt>
      <trkpt lat="47.65316" lon="6.19599">
        <ele>271</ele>
        <time>2020-09-13T07:20:19Z</time>
      </trkpt>
      <trkpt lat="47.6532" lon="6.19608">
        <ele>271</ele>
        <time>2020-09-13T07:20:21Z</time>
      </trkpt>
      <trkpt lat="47.65322" lon="6.19616">
        <ele>270</ele>
        <time>2020-09-13T07:20:22Z</time>
      </trkpt>
      <trkpt lat="47.65327" lon="6.19635">
        <ele>270</ele>
        <time>2020-09-13T07:20:25Z</time>
      </trkpt>
      <trkpt lat="47.65329" lon="6.19645">
        <ele>270</ele>
        <time>2020-09-13T07:20:26Z</time>
      </trkpt>
      <trkpt lat="47.65332" lon="6.19652">
        <ele>270</ele>
        <time>2020-09-13T07:20:26Z</time>
      </trkpt>
      <trkpt lat="47.65334" lon="6.1966">
        <ele>271</ele>
        <time>2020-09-13T07:20:30Z</time>
      </trkpt>
      <trkpt lat="47.65338" lon="6.19669">
        <ele>270</ele>
        <time>2020-09-13T07:20:32Z</time>
      </trkpt>
      <trkpt lat="47.6534" lon="6.19675">
        <ele>271</ele>
        <time>2020-09-13T07:20:34Z</time>
      </trkpt>
      <trkpt lat="47.65343" lon="6.19683">
        <ele>271</ele>
        <time>2020-09-13T07:20:35Z</time>
      </trkpt>
      <trkpt lat="47.65346" lon="6.19691">
        <ele>271</ele>
        <time>2020-09-13T07:20:37Z</time>
      </trkpt>
      <trkpt lat="47.65349" lon="6.19701">
        <ele>271</ele>
        <time>2020-09-13T07:20:38Z</time>
      </trkpt>
      <trkpt lat="47.65352" lon="6.1971">
        <ele>271</ele>
        <time>2020-09-13T07:20:41Z</time>
      </trkpt>
      <trkpt lat="47.65354" lon="6.19716">
        <ele>271</ele>
        <time>2020-09-13T07:20:42Z</time>
      </trkpt>
      <trkpt lat="47.65358" lon="6.19723">
        <ele>271</ele>
        <time>2020-09-13T07:20:43Z</time>
      </trkpt>
      <trkpt lat="47.65361" lon="6.19729">
        <ele>271</ele>
        <time>2020-09-13T07:20:46Z</time>
      </trkpt>
      <trkpt lat="47.65364" lon="6.19737">
        <ele>271</ele>
        <time>2020-09-13T07:20:48Z</time>
      </trkpt>
      <trkpt lat="47.65367" lon="6.19743">
        <ele>271</ele>
        <time>2020-09-13T07:20:49Z</time>
      </trkpt>
      <trkpt lat="47.65369" lon="6.1975">
        <ele>271</ele>
        <time>2020-09-13T07:20:50Z</time>
      </trkpt>
      <trkpt lat="47.65372" lon="6.19759">
        <ele>269</ele>
        <time>2020-09-13T07:20:53Z</time>
      </trkpt>
      <trkpt lat="47.65374" lon="6.19766">
        <ele>269</ele>
        <time>2020-09-13T07:20:56Z</time>
      </trkpt>
      <trkpt lat="47.65377" lon="6.19772">
        <ele>269</ele>
        <time>2020-09-13T07:20:57Z</time>
      </trkpt>
      <trkpt lat="47.65381" lon="6.19778">
        <ele>269</ele>
        <time>2020-09-13T07:21:00Z</time>
      </trkpt>
      <trkpt lat="47.65384" lon="6.19784">
        <ele>269</ele>
        <time>2020-09-13T07:21:01Z</time>
      </trkpt>
      <trkpt lat="47.65388" lon="6.1979">
        <ele>269</ele>
        <time>2020-09-13T07:21:04Z</time>
      </trkpt>
      <trkpt lat="47.65392" lon="6.19796">
        <ele>269</ele>
        <time>2020-09-13T07:21:06Z</time>
      </trkpt>
      <trkpt lat="47.65395" lon="6.19803">
        <ele>269</ele>
        <time>2020-09-13T07:21:08Z</time>
      </trkpt>
      <trkpt lat="47.65399" lon="6.19808">
        <ele>269</ele>
        <time>2020-09-13T07:21:10Z</time>
      </trkpt>
      <trkpt lat="47.65403" lon="6.19814">
        <ele>270</ele>
        <time>2020-09-13T07:21:12Z</time>
      </trkpt>
      <trkpt lat="47.65406" lon="6.1982">
        <ele>270</ele>
        <time>2020-09-13T07:21:14Z</time>
      </trkpt>
      <trkpt lat="47.65409" lon="6.19825">
        <ele>271</ele>
        <time>2020-09-13T07:21:16Z</time>
      </trkpt>
      <trkpt lat="47.65413" lon="6.19831">
        <ele>271</ele>
        <time>2020-09-13T07:21:18Z</time>
      </trkpt>
      <trkpt lat="47.65417" lon="6.19837">
        <ele>272</ele>
        <time>2020-09-13T07:21:21Z</time>
      </trkpt>
      <trkpt lat="47.6542" lon="6.19842">
        <ele>272</ele>
        <time>2020-09-13T07:21:23Z</time>
      </trkpt>
      <trkpt lat="47.65424" lon="6.19847">
        <ele>272</ele>
        <time>2020-09-13T07:21:24Z</time>
      </trkpt>
      <trkpt lat="47.65427" lon="6.19853">
        <ele>271</ele>
        <time>2020-09-13T07:21:27Z</time>
      </trkpt>
      <trkpt lat="47.65431" lon="6.19859">
        <ele>271</ele>
        <time>2020-09-13T07:21:29Z</time>
      </trkpt>
      <trkpt lat="47.65435" lon="6.19865">
        <ele>271</ele>
        <time>2020-09-13T07:21:32Z</time>
      </trkpt>
      <trkpt lat="47.65437" lon="6.19871">
        <ele>271</ele>
        <time>2020-09-13T07:21:34Z</time>
      </trkpt>
      <trkpt lat="47.65439" lon="6.19878">
        <ele>270</ele>
        <time>2020-09-13T07:21:36Z</time>
      </trkpt>
      <trkpt lat="47.65441" lon="6.19886">
        <ele>270</ele>
        <time>2020-09-13T07:21:37Z</time>
      </trkpt>
      <trkpt lat="47.65443" lon="6.19894">
        <ele>270</ele>
        <time>2020-09-13T07:21:40Z</time>
      </trkpt>
      <trkpt lat="47.6545" lon="6.19912">
        <ele>269</ele>
        <time>2020-09-13T07:21:42Z</time>
      </trkpt>
      <trkpt lat="47.65453" lon="6.1992">
        <ele>265</ele>
        <time>2020-09-13T07:21:44Z</time>
      </trkpt>
      <trkpt lat="47.65456" lon="6.19926">
        <ele>265</ele>
        <time>2020-09-13T07:21:46Z</time>
      </trkpt>
      <trkpt lat="47.65459" lon="6.19935">
        <ele>266</ele>
        <time>2020-09-13T07:21:47Z</time>
      </trkpt>
      <trkpt lat="47.65462" lon="6.19941">
        <ele>266</ele>
        <time>2020-09-13T07:21:48Z</time>
      </trkpt>
      <trkpt lat="47.65465" lon="6.19949">
        <ele>265</ele>
        <time>2020-09-13T07:21:50Z</time>
      </trkpt>
      <trkpt lat="47.65469" lon="6.19955">
        <ele>266</ele>
        <time>2020-09-13T07:21:52Z</time>
      </trkpt>
      <trkpt lat="47.65473" lon="6.19961">
        <ele>266</ele>
        <time>2020-09-13T07:21:55Z</time>
      </trkpt>
      <trkpt lat="47.65477" lon="6.19966">
        <ele>266</ele>
        <time>2020-09-13T07:21:56Z</time>
      </trkpt>
      <trkpt lat="47.65481" lon="6.19971">
        <ele>266</ele>
        <time>2020-09-13T07:21:59Z</time>
      </trkpt>
      <trkpt lat="47.65484" lon="6.19977">
        <ele>266</ele>
        <time>2020-09-13T07:22:01Z</time>
      </trkpt>
      <trkpt lat="47.65488" lon="6.19983">
        <ele>267</ele>
        <time>2020-09-13T07:22:02Z</time>
      </trkpt>
      <trkpt lat="47.65492" lon="6.19988">
        <ele>267</ele>
        <time>2020-09-13T07:22:05Z</time>
      </trkpt>
      <trkpt lat="47.65496" lon="6.19993">
        <ele>268</ele>
        <time>2020-09-13T07:22:07Z</time>
      </trkpt>
      <trkpt lat="47.655" lon="6.19998">
        <ele>269</ele>
        <time>2020-09-13T07:22:08Z</time>
      </trkpt>
      <trkpt lat="47.65504" lon="6.20004">
        <ele>269</ele>
        <time>2020-09-13T07:22:12Z</time>
      </trkpt>
      <trkpt lat="47.65508" lon="6.20008">
        <ele>269</ele>
        <time>2020-09-13T07:22:14Z</time>
      </trkpt>
      <trkpt lat="47.65512" lon="6.20014">
        <ele>270</ele>
        <time>2020-09-13T07:22:16Z</time>
      </trkpt>
      <trkpt lat="47.65515" lon="6.2002">
        <ele>270</ele>
        <time>2020-09-13T07:22:18Z</time>
      </trkpt>
      <trkpt lat="47.65519" lon="6.20025">
        <ele>270</ele>
        <time>2020-09-13T07:22:19Z</time>
      </trkpt>
      <trkpt lat="47.65522" lon="6.2003">
        <ele>270</ele>
        <time>2020-09-13T07:22:21Z</time>
      </trkpt>
      <trkpt lat="47.65527" lon="6.20036">
        <ele>270</ele>
        <time>2020-09-13T07:22:24Z</time>
      </trkpt>
      <trkpt lat="47.65531" lon="6.20042">
        <ele>270</ele>
        <time>2020-09-13T07:22:26Z</time>
      </trkpt>
      <trkpt lat="47.65535" lon="6.20047">
        <ele>270</ele>
        <time>2020-09-13T07:22:28Z</time>
      </trkpt>
      <trkpt lat="47.65539" lon="6.20052">
        <ele>270</ele>
        <time>2020-09-13T07:22:30Z</time>
      </trkpt>
      <trkpt lat="47.65544" lon="6.20057">
        <ele>270</ele>
        <time>2020-09-13T07:22:31Z</time>
      </trkpt>
      <trkpt lat="47.65548" lon="6.20062">
        <ele>270</ele>
        <time>2020-09-13T07:22:35Z</time>
      </trkpt>
      <trkpt lat="47.65552" lon="6.20067">
        <ele>270</ele>
        <time>2020-09-13T07:22:37Z</time>
      </trkpt>
      <trkpt lat="47.65556" lon="6.20072">
        <ele>271</ele>
        <time>2020-09-13T07:22:38Z</time>
      </trkpt>
      <trkpt lat="47.6556" lon="6.20076">
        <ele>271</ele>
        <time>2020-09-13T07:22:41Z</time>
      </trkpt>
      <trkpt lat="47.65565" lon="6.20082">
        <ele>271</ele>
        <time>2020-09-13T07:22:43Z</time>
      </trkpt>
      <trkpt lat="47.6557" lon="6.20087">
        <ele>269</ele>
        <time>2020-09-13T07:22:44Z</time>
      </trkpt>
      <trkpt lat="47.65573" lon="6.20091">
        <ele>270</ele>
        <time>2020-09-13T07:22:47Z</time>
      </trkpt>
      <trkpt lat="47.65579" lon="6.20097">
        <ele>269</ele>
        <time>2020-09-13T07:22:49Z</time>
      </trkpt>
      <trkpt lat="47.65582" lon="6.20101">
        <ele>269</ele>
        <time>2020-09-13T07:22:51Z</time>
      </trkpt>
      <trkpt lat="47.65586" lon="6.20104">
        <ele>273</ele>
        <time>2020-09-13T07:22:52Z</time>
      </trkpt>
      <trkpt lat="47.65591" lon="6.20109">
        <ele>273</ele>
        <time>2020-09-13T07:22:54Z</time>
      </trkpt>
      <trkpt lat="47.65595" lon="6.20113">
        <ele>273</ele>
        <time>2020-09-13T07:22:55Z</time>
      </trkpt>
      <trkpt lat="47.656" lon="6.20118">
        <ele>273</ele>
        <time>2020-09-13T07:22:58Z</time>
      </trkpt>
      <trkpt lat="47.65604" lon="6.20123">
        <ele>273</ele>
        <time>2020-09-13T07:23:01Z</time>
      </trkpt>
      <trkpt lat="47.65609" lon="6.20127">
        <ele>273</ele>
        <time>2020-09-13T07:23:03Z</time>
      </trkpt>
      <trkpt lat="47.65613" lon="6.20131">
        <ele>273</ele>
        <time>2020-09-13T07:23:06Z</time>
      </trkpt>
      <trkpt lat="47.65617" lon="6.20136">
        <ele>273</ele>
        <time>2020-09-13T07:23:07Z</time>
      </trkpt>
      <trkpt lat="47.65622" lon="6.20142">
        <ele>273</ele>
        <time>2020-09-13T07:23:11Z</time>
      </trkpt>
      <trkpt lat="47.65625" lon="6.20147">
        <ele>273</ele>
        <time>2020-09-13T07:23:13Z</time>
      </trkpt>
      <trkpt lat="47.65629" lon="6.20151">
        <ele>273</ele>
        <time>2020-09-13T07:23:16Z</time>
      </trkpt>
      <trkpt lat="47.65633" lon="6.20156">
        <ele>273</ele>
        <time>2020-09-13T07:23:19Z</time>
      </trkpt>
      <trkpt lat="47.65638" lon="6.2016">
        <ele>273</ele>
        <time>2020-09-13T07:23:22Z</time>
      </trkpt>
      <trkpt lat="47.65642" lon="6.20165">
        <ele>273</ele>
        <time>2020-09-13T07:23:25Z</time>
      </trkpt>
      <trkpt lat="47.65646" lon="6.2017">
        <ele>271</ele>
        <time>2020-09-13T07:23:27Z</time>
      </trkpt>
      <trkpt lat="47.6565" lon="6.20175">
        <ele>271</ele>
        <time>2020-09-13T07:23:31Z</time>
      </trkpt>
      <trkpt lat="47.65654" lon="6.20182">
        <ele>271</ele>
        <time>2020-09-13T07:23:33Z</time>
      </trkpt>
      <trkpt lat="47.65658" lon="6.20187">
        <ele>271</ele>
        <time>2020-09-13T07:23:36Z</time>
      </trkpt>
      <trkpt lat="47.65661" lon="6.20191">
        <ele>271</ele>
        <time>2020-09-13T07:23:38Z</time>
      </trkpt>
      <trkpt lat="47.65667" lon="6.20198">
        <ele>275</ele>
        <time>2020-09-13T07:23:40Z</time>
      </trkpt>
      <trkpt lat="47.65672" lon="6.20205">
        <ele>275</ele>
        <time>2020-09-13T07:23:42Z</time>
      </trkpt>
      <trkpt lat="47.65676" lon="6.2021">
        <ele>275</ele>
        <time>2020-09-13T07:23:43Z</time>
      </trkpt>
      <trkpt lat="47.65685" lon="6.2022">
        <ele>275</ele>
        <time>2020-09-13T07:23:46Z</time>
      </trkpt>
      <trkpt lat="47.65689" lon="6.20225">
        <ele>275</ele>
        <time>2020-09-13T07:23:47Z</time>
      </trkpt>
      <trkpt lat="47.65692" lon="6.2023">
        <ele>275</ele>
        <time>2020-09-13T07:23:49Z</time>
      </trkpt>
      <trkpt lat="47.65697" lon="6.20236">
        <ele>275</ele>
        <time>2020-09-13T07:23:51Z</time>
      </trkpt>
      <trkpt lat="47.65702" lon="6.20242">
        <ele>276</ele>
        <time>2020-09-13T07:23:53Z</time>
      </trkpt>
      <trkpt lat="47.65708" lon="6.20249">
        <ele>276</ele>
        <time>2020-09-13T07:23:56Z</time>
      </trkpt>
      <trkpt lat="47.65712" lon="6.20254">
        <ele>270</ele>
        <time>2020-09-13T07:23:58Z</time>
      </trkpt>
      <trkpt lat="47.65716" lon="6.20258">
        <ele>270</ele>
        <time>2020-09-13T07:24:00Z</time>
      </trkpt>
      <trkpt lat="47.6572" lon="6.20263">
        <ele>270</ele>
        <time>2020-09-13T07:24:02Z</time>
      </trkpt>
      <trkpt lat="47.65725" lon="6.20269">
        <ele>270</ele>
        <time>2020-09-13T07:24:04Z</time>
      </trkpt>
      <trkpt lat="47.6573" lon="6.20276">
        <ele>270</ele>
        <time>2020-09-13T07:24:06Z</time>
      </trkpt>
      <trkpt lat="47.65735" lon="6.20284">
        <ele>269</ele>
        <time>2020-09-13T07:24:08Z</time>
      </trkpt>
      <trkpt lat="47.65742" lon="6.20291">
        <ele>269</ele>
        <time>2020-09-13T07:24:10Z</time>
      </trkpt>
      <trkpt lat="47.65754" lon="6.20304">
        <ele>271</ele>
        <time>2020-09-13T07:24:13Z</time>
      </trkpt>
      <trkpt lat="47.65761" lon="6.20312">
        <ele>270</ele>
        <time>2020-09-13T07:24:14Z</time>
      </trkpt>
      <trkpt lat="47.6577" lon="6.20321">
        <ele>270</ele>
        <time>2020-09-13T07:24:16Z</time>
      </trkpt>
      <trkpt lat="47.65784" lon="6.20335">
        <ele>263</ele>
        <time>2020-09-13T07:24:17Z</time>
      </trkpt>
      <trkpt lat="47.65789" lon="6.20339">
        <ele>263</ele>
        <time>2020-09-13T07:24:18Z</time>
      </trkpt>
      <trkpt lat="47.65793" lon="6.20344">
        <ele>264</ele>
        <time>2020-09-13T07:24:19Z</time>
      </trkpt>
      <trkpt lat="47.65798" lon="6.20348">
        <ele>264</ele>
        <time>2020-09-13T07:24:20Z</time>
      </trkpt>
      <trkpt lat="47.65803" lon="6.20353">
        <ele>264</ele>
        <time>2020-09-13T07:24:21Z</time>
      </trkpt>
      <trkpt lat="47.65807" lon="6.20358">
        <ele>264</ele>
        <time>2020-09-13T07:24:22Z</time>
      </trkpt>
      <trkpt lat="47.65812" lon="6.20363">
        <ele>264</ele>
        <time>2020-09-13T07:24:23Z</time>
      </trkpt>
      <trkpt lat="47.65817" lon="6.20368">
        <ele>264</ele>
        <time>2020-09-13T07:24:24Z</time>
      </trkpt>
      <trkpt lat="47.65821" lon="6.20373">
        <ele>263</ele>
        <time>2020-09-13T07:24:25Z</time>
      </trkpt>
      <trkpt lat="47.65826" lon="6.20377">
        <ele>263</ele>
        <time>2020-09-13T07:24:26Z</time>
      </trkpt>
      <trkpt lat="47.6583" lon="6.20382">
        <ele>263</ele>
        <time>2020-09-13T07:24:27Z</time>
      </trkpt>
      <trkpt lat="47.65835" lon="6.20386">
        <ele>268</ele>
        <time>2020-09-13T07:24:28Z</time>
      </trkpt>
      <trkpt lat="47.65839" lon="6.20391">
        <ele>268</ele>
        <time>2020-09-13T07:24:29Z</time>
      </trkpt>
      <trkpt lat="47.65843" lon="6.20395">
        <ele>267</ele>
        <time>2020-09-13T07:24:30Z</time>
      </trkpt>
      <trkpt lat="47.65846" lon="6.20399">
        <ele>267</ele>
        <time>2020-09-13T07:24:31Z</time>
      </trkpt>
      <trkpt lat="47.65853" lon="6.20406">
        <ele>267</ele>
        <time>2020-09-13T07:24:33Z</time>
      </trkpt>
      <trkpt lat="47.65859" lon="6.20411">
        <ele>268</ele>
        <time>2020-09-13T07:24:35Z</time>
      </trkpt>
      <trkpt lat="47.65864" lon="6.20416">
        <ele>268</ele>
        <time>2020-09-13T07:24:37Z</time>
      </trkpt>
      <trkpt lat="47.6587" lon="6.20421">
        <ele>263</ele>
        <time>2020-09-13T07:24:39Z</time>
      </trkpt>
      <trkpt lat="47.65875" lon="6.20426">
        <ele>263</ele>
        <time>2020-09-13T07:24:41Z</time>
      </trkpt>
      <trkpt lat="47.65881" lon="6.2043">
        <ele>263</ele>
        <time>2020-09-13T07:24:43Z</time>
      </trkpt>
      <trkpt lat="47.65885" lon="6.20435">
        <ele>263</ele>
        <time>2020-09-13T07:24:45Z</time>
      </trkpt>
      <trkpt lat="47.6589" lon="6.20439">
        <ele>263</ele>
        <time>2020-09-13T07:24:47Z</time>
      </trkpt>
      <trkpt lat="47.65894" lon="6.20443">
        <ele>263</ele>
        <time>2020-09-13T07:24:50Z</time>
      </trkpt>
      <trkpt lat="47.65901" lon="6.20451">
        <ele>263</ele>
        <time>2020-09-13T07:24:53Z</time>
      </trkpt>
      <trkpt lat="47.65906" lon="6.20457">
        <ele>263</ele>
        <time>2020-09-13T07:24:55Z</time>
      </trkpt>
      <trkpt lat="47.65912" lon="6.20463">
        <ele>262</ele>
        <time>2020-09-13T07:24:57Z</time>
      </trkpt>
      <trkpt lat="47.65917" lon="6.20467">
        <ele>267</ele>
        <time>2020-09-13T07:24:58Z</time>
      </trkpt>
      <trkpt lat="47.65922" lon="6.20471">
        <ele>267</ele>
        <time>2020-09-13T07:24:59Z</time>
      </trkpt>
      <trkpt lat="47.65927" lon="6.20475">
        <ele>267</ele>
        <time>2020-09-13T07:25:02Z</time>
      </trkpt>
      <trkpt lat="47.65932" lon="6.20479">
        <ele>266</ele>
        <time>2020-09-13T07:25:04Z</time>
      </trkpt>
      <trkpt lat="47.65941" lon="6.20485">
        <ele>267</ele>
        <time>2020-09-13T07:25:07Z</time>
      </trkpt>
      <trkpt lat="47.65945" lon="6.20487">
        <ele>267</ele>
        <time>2020-09-13T07:25:09Z</time>
      </trkpt>
      <trkpt lat="47.65949" lon="6.2049">
        <ele>267</ele>
        <time>2020-09-13T07:25:11Z</time>
      </trkpt>
      <trkpt lat="47.65955" lon="6.20494">
        <ele>267</ele>
        <time>2020-09-13T07:25:13Z</time>
      </trkpt>
      <trkpt lat="47.65959" lon="6.20497">
        <ele>267</ele>
        <time>2020-09-13T07:25:15Z</time>
      </trkpt>
      <trkpt lat="47.65964" lon="6.20501">
        <ele>260</ele>
        <time>2020-09-13T07:25:17Z</time>
      </trkpt>
      <trkpt lat="47.65969" lon="6.20504">
        <ele>260</ele>
        <time>2020-09-13T07:25:19Z</time>
      </trkpt>
      <trkpt lat="47.65975" lon="6.20508">
        <ele>261</ele>
        <time>2020-09-13T07:25:20Z</time>
      </trkpt>
      <trkpt lat="47.6598" lon="6.20512">
        <ele>261</ele>
        <time>2020-09-13T07:25:22Z</time>
      </trkpt>
      <trkpt lat="47.65985" lon="6.20515">
        <ele>261</ele>
        <time>2020-09-13T07:25:24Z</time>
      </trkpt>
      <trkpt lat="47.65991" lon="6.20518">
        <ele>262</ele>
        <time>2020-09-13T07:25:26Z</time>
      </trkpt>
      <trkpt lat="47.65995" lon="6.2052">
        <ele>262</ele>
        <time>2020-09-13T07:25:29Z</time>
      </trkpt>
      <trkpt lat="47.66001" lon="6.20523">
        <ele>266</ele>
        <time>2020-09-13T07:25:30Z</time>
      </trkpt>
      <trkpt lat="47.66006" lon="6.20525">
        <ele>266</ele>
        <time>2020-09-13T07:25:33Z</time>
      </trkpt>
      <trkpt lat="47.66012" lon="6.20527">
        <ele>265</ele>
        <time>2020-09-13T07:25:35Z</time>
      </trkpt>
      <trkpt lat="47.66017" lon="6.2053">
        <ele>265</ele>
        <time>2020-09-13T07:25:37Z</time>
      </trkpt>
      <trkpt lat="47.66022" lon="6.20532">
        <ele>265</ele>
        <time>2020-09-13T07:25:38Z</time>
      </trkpt>
      <trkpt lat="47.66029" lon="6.20535">
        <ele>265</ele>
        <time>2020-09-13T07:25:40Z</time>
      </trkpt>
      <trkpt lat="47.66033" lon="6.20537">
        <ele>266</ele>
        <time>2020-09-13T07:25:42Z</time>
      </trkpt>
      <trkpt lat="47.66037" lon="6.2054">
        <ele>266</ele>
        <time>2020-09-13T07:25:45Z</time>
      </trkpt>
      <trkpt lat="47.66042" lon="6.20543">
        <ele>266</ele>
        <time>2020-09-13T07:25:47Z</time>
      </trkpt>
      <trkpt lat="47.66047" lon="6.20546">
        <ele>266</ele>
        <time>2020-09-13T07:25:48Z</time>
      </trkpt>
      <trkpt lat="47.66051" lon="6.20549">
        <ele>266</ele>
        <time>2020-09-13T07:25:50Z</time>
      </trkpt>
      <trkpt lat="47.66055" lon="6.20551">
        <ele>266</ele>
        <time>2020-09-13T07:25:52Z</time>
      </trkpt>
      <trkpt lat="47.66061" lon="6.20554">
        <ele>266</ele>
        <time>2020-09-13T07:25:56Z</time>
      </trkpt>
      <trkpt lat="47.66066" lon="6.20556">
        <ele>266</ele>
        <time>2020-09-13T07:25:58Z</time>
      </trkpt>
      <trkpt lat="47.6607" lon="6.20559">
        <ele>265</ele>
        <time>2020-09-13T07:25:59Z</time>
      </trkpt>
      <trkpt lat="47.66077" lon="6.20563">
        <ele>265</ele>
        <time>2020-09-13T07:26:03Z</time>
      </trkpt>
      <trkpt lat="47.66083" lon="6.20566">
        <ele>265</ele>
        <time>2020-09-13T07:26:04Z</time>
      </trkpt>
      <trkpt lat="47.66088" lon="6.20569">
        <ele>269</ele>
        <time>2020-09-13T07:26:06Z</time>
      </trkpt>
      <trkpt lat="47.66094" lon="6.20573">
        <ele>269</ele>
        <time>2020-09-13T07:26:10Z</time>
      </trkpt>
      <trkpt lat="47.66101" lon="6.20576">
        <ele>269</ele>
        <time>2020-09-13T07:26:11Z</time>
      </trkpt>
      <trkpt lat="47.66105" lon="6.20579">
        <ele>270</ele>
        <time>2020-09-13T07:26:14Z</time>
      </trkpt>
      <trkpt lat="47.66109" lon="6.20581">
        <ele>271</ele>
        <time>2020-09-13T07:26:16Z</time>
      </trkpt>
      <trkpt lat="47.66114" lon="6.20584">
        <ele>262</ele>
        <time>2020-09-13T07:26:18Z</time>
      </trkpt>
      <trkpt lat="47.66119" lon="6.20587">
        <ele>262</ele>
        <time>2020-09-13T07:26:20Z</time>
      </trkpt>
      <trkpt lat="47.66125" lon="6.2059">
        <ele>262</ele>
        <time>2020-09-13T07:26:23Z</time>
      </trkpt>
      <trkpt lat="47.66129" lon="6.20593">
        <ele>263</ele>
        <time>2020-09-13T07:26:25Z</time>
      </trkpt>
      <trkpt lat="47.66135" lon="6.20595">
        <ele>263</ele>
        <time>2020-09-13T07:26:26Z</time>
      </trkpt>
      <trkpt lat="47.6614" lon="6.20598">
        <ele>263</ele>
        <time>2020-09-13T07:26:30Z</time>
      </trkpt>
      <trkpt lat="47.66145" lon="6.20601">
        <ele>264</ele>
        <time>2020-09-13T07:26:32Z</time>
      </trkpt>
      <trkpt lat="47.66151" lon="6.20604">
        <ele>264</ele>
        <time>2020-09-13T07:26:33Z</time>
      </trkpt>
      <trkpt lat="47.66158" lon="6.20607">
        <ele>264</ele>
        <time>2020-09-13T07:26:37Z</time>
      </trkpt>
      <trkpt lat="47.66164" lon="6.2061">
        <ele>264</ele>
        <time>2020-09-13T07:26:39Z</time>
      </trkpt>
      <trkpt lat="47.66168" lon="6.20613">
        <ele>265</ele>
        <time>2020-09-13T07:26:41Z</time>
      </trkpt>
      <trkpt lat="47.66174" lon="6.20617">
        <ele>264</ele>
        <time>2020-09-13T07:26:43Z</time>
      </trkpt>
      <trkpt lat="47.66178" lon="6.2062">
        <ele>264</ele>
        <time>2020-09-13T07:26:45Z</time>
      </trkpt>
      <trkpt lat="47.66185" lon="6.20624">
        <ele>263</ele>
        <time>2020-09-13T07:26:47Z</time>
      </trkpt>
      <trkpt lat="47.6619" lon="6.20627">
        <ele>263</ele>
        <time>2020-09-13T07:26:48Z</time>
      </trkpt>
      <trkpt lat="47.66196" lon="6.20631">
        <ele>262</ele>
        <time>2020-09-13T07:26:49Z</time>
      </trkpt>
      <trkpt lat="47.66201" lon="6.20635">
        <ele>262</ele>
        <time>2020-09-13T07:26:52Z</time>
      </trkpt>
      <trkpt lat="47.66206" lon="6.20638">
        <ele>262</ele>
        <time>2020-09-13T07:26:53Z</time>
      </trkpt>
      <trkpt lat="47.66211" lon="6.20644">
        <ele>261</ele>
        <time>2020-09-13T07:26:55Z</time>
      </trkpt>
      <trkpt lat="47.66214" lon="6.20649">
        <ele>261</ele>
        <time>2020-09-13T07:26:56Z</time>
      </trkpt>
      <trkpt lat="47.66218" lon="6.20655">
        <ele>260</ele>
        <time>2020-09-13T07:26:58Z</time>
      </trkpt>
      <trkpt lat="47.66223" lon="6.20666">
        <ele>260</ele>
        <time>2020-09-13T07:27:00Z</time>
      </trkpt>
      <trkpt lat="47.6623" lon="6.20679">
        <ele>252</ele>
        <time>2020-09-13T07:27:02Z</time>
      </trkpt>
      <trkpt lat="47.66234" lon="6.20684">
        <ele>252</ele>
        <time>2020-09-13T07:27:04Z</time>
      </trkpt>
      <trkpt lat="47.66239" lon="6.2069">
        <ele>251</ele>
        <time>2020-09-13T07:27:06Z</time>
      </trkpt>
      <trkpt lat="47.66248" lon="6.20699">
        <ele>250</ele>
        <time>2020-09-13T07:27:09Z</time>
      </trkpt>
      <trkpt lat="47.66253" lon="6.20704">
        <ele>250</ele>
        <time>2020-09-13T07:27:10Z</time>
      </trkpt>
      <trkpt lat="47.66258" lon="6.20711">
        <ele>249</ele>
        <time>2020-09-13T07:27:12Z</time>
      </trkpt>
      <trkpt lat="47.66264" lon="6.20715">
        <ele>249</ele>
        <time>2020-09-13T07:27:14Z</time>
      </trkpt>
      <trkpt lat="47.66269" lon="6.20719">
        <ele>248</ele>
        <time>2020-09-13T07:27:15Z</time>
      </trkpt>
      <trkpt lat="47.66274" lon="6.20722">
        <ele>248</ele>
        <time>2020-09-13T07:27:18Z</time>
      </trkpt>
      <trkpt lat="47.6628" lon="6.20724">
        <ele>248</ele>
        <time>2020-09-13T07:27:20Z</time>
      </trkpt>
      <trkpt lat="47.66284" lon="6.20725">
        <ele>248</ele>
        <time>2020-09-13T07:27:21Z</time>
      </trkpt>
      <trkpt lat="47.6629" lon="6.20726">
        <ele>248</ele>
        <time>2020-09-13T07:27:22Z</time>
      </trkpt>
      <trkpt lat="47.66296" lon="6.20727">
        <ele>248</ele>
        <time>2020-09-13T07:27:25Z</time>
      </trkpt>
      <trkpt lat="47.66301" lon="6.20728">
        <ele>248</ele>
        <time>2020-09-13T07:27:27Z</time>
      </trkpt>
      <trkpt lat="47.66306" lon="6.20729">
        <ele>248</ele>
        <time>2020-09-13T07:27:28Z</time>
      </trkpt>
      <trkpt lat="47.66315" lon="6.20731">
        <ele>248</ele>
        <time>2020-09-13T07:27:31Z</time>
      </trkpt>
      <trkpt lat="47.66321" lon="6.20732">
        <ele>247</ele>
        <time>2020-09-13T07:27:33Z</time>
      </trkpt>
      <trkpt lat="47.66326" lon="6.20734">
        <ele>247</ele>
        <time>2020-09-13T07:27:36Z</time>
      </trkpt>
      <trkpt lat="47.6633" lon="6.20735">
        <ele>247</ele>
        <time>2020-09-13T07:27:37Z</time>
      </trkpt>
      <trkpt lat="47.66335" lon="6.20738">
        <ele>248</ele>
        <time>2020-09-13T07:27:39Z</time>
      </trkpt>
      <trkpt lat="47.6634" lon="6.20742">
        <ele>247</ele>
        <time>2020-09-13T07:27:42Z</time>
      </trkpt>
      <trkpt lat="47.66344" lon="6.20749">
        <ele>247</ele>
        <time>2020-09-13T07:27:43Z</time>
      </trkpt>
      <trkpt lat="47.66347" lon="6.20757">
        <ele>245</ele>
        <time>2020-09-13T07:27:45Z</time>
      </trkpt>
      <trkpt lat="47.6635" lon="6.20764">
        <ele>245</ele>
        <time>2020-09-13T07:27:48Z</time>
      </trkpt>
      <trkpt lat="47.66353" lon="6.20773">
        <ele>245</ele>
        <time>2020-09-13T07:27:50Z</time>
      </trkpt>
      <trkpt lat="47.66356" lon="6.20782">
        <ele>245</ele>
        <time>2020-09-13T07:27:52Z</time>
      </trkpt>
      <trkpt lat="47.66359" lon="6.2079">
        <ele>245</ele>
        <time>2020-09-13T07:27:54Z</time>
      </trkpt>
      <trkpt lat="47.66362" lon="6.20798">
        <ele>245</ele>
        <time>2020-09-13T07:27:55Z</time>
      </trkpt>
      <trkpt lat="47.66365" lon="6.20807">
        <ele>244</ele>
        <time>2020-09-13T07:27:57Z</time>
      </trkpt>
      <trkpt lat="47.66369" lon="6.20815">
        <ele>244</ele>
        <time>2020-09-13T07:27:59Z</time>
      </trkpt>
      <trkpt lat="47.66372" lon="6.20821">
        <ele>244</ele>
        <time>2020-09-13T07:28:00Z</time>
      </trkpt>
      <trkpt lat="47.66375" lon="6.2083">
        <ele>244</ele>
        <time>2020-09-13T07:28:03Z</time>
      </trkpt>
      <trkpt lat="47.66376" lon="6.20843">
        <ele>242</ele>
        <time>2020-09-13T07:28:05Z</time>
      </trkpt>
      <trkpt lat="47.66378" lon="6.20851">
        <ele>242</ele>
        <time>2020-09-13T07:28:07Z</time>
      </trkpt>
      <trkpt lat="47.66378" lon="6.20858">
        <ele>242</ele>
        <time>2020-09-13T07:28:09Z</time>
      </trkpt>
      <trkpt lat="47.6638" lon="6.20874">
        <ele>242</ele>
        <time>2020-09-13T07:28:11Z</time>
      </trkpt>
      <trkpt lat="47.66381" lon="6.20883">
        <ele>242</ele>
        <time>2020-09-13T07:28:13Z</time>
      </trkpt>
      <trkpt lat="47.66383" lon="6.2089">
        <ele>242</ele>
        <time>2020-09-13T07:28:16Z</time>
      </trkpt>
      <trkpt lat="47.66385" lon="6.20899">
        <ele>242</ele>
        <time>2020-09-13T07:28:17Z</time>
      </trkpt>
      <trkpt lat="47.66387" lon="6.20907">
        <ele>242</ele>
        <time>2020-09-13T07:28:19Z</time>
      </trkpt>
      <trkpt lat="47.66388" lon="6.20915">
        <ele>242</ele>
        <time>2020-09-13T07:28:21Z</time>
      </trkpt>
      <trkpt lat="47.66391" lon="6.20926">
        <ele>241</ele>
        <time>2020-09-13T07:28:24Z</time>
      </trkpt>
      <trkpt lat="47.66394" lon="6.20936">
        <ele>241</ele>
        <time>2020-09-13T07:28:27Z</time>
      </trkpt>
      <trkpt lat="47.66395" lon="6.20943">
        <ele>241</ele>
        <time>2020-09-13T07:28:29Z</time>
      </trkpt>
      <trkpt lat="47.66396" lon="6.20954">
        <ele>241</ele>
        <time>2020-09-13T07:28:31Z</time>
      </trkpt>
      <trkpt lat="47.66396" lon="6.20962">
        <ele>240</ele>
        <time>2020-09-13T07:28:32Z</time>
      </trkpt>
      <trkpt lat="47.6639" lon="6.20968">
        <ele>240</ele>
        <time>2020-09-13T07:28:36Z</time>
      </trkpt>
      <trkpt lat="47.66388" lon="6.20976">
        <ele>240</ele>
        <time>2020-09-13T07:28:37Z</time>
      </trkpt>
      <trkpt lat="47.66389" lon="6.20985">
        <ele>240</ele>
        <time>2020-09-13T07:28:39Z</time>
      </trkpt>
      <trkpt lat="47.66389" lon="6.20994">
        <ele>240</ele>
        <time>2020-09-13T07:28:42Z</time>
      </trkpt>
      <trkpt lat="47.6639" lon="6.21003">
        <ele>238</ele>
        <time>2020-09-13T07:28:43Z</time>
      </trkpt>
      <trkpt lat="47.66391" lon="6.21011">
        <ele>237</ele>
        <time>2020-09-13T07:28:45Z</time>
      </trkpt>
      <trkpt lat="47.66391" lon="6.21018">
        <ele>237</ele>
        <time>2020-09-13T07:28:48Z</time>
      </trkpt>
      <trkpt lat="47.66392" lon="6.21026">
        <ele>237</ele>
        <time>2020-09-13T07:28:49Z</time>
      </trkpt>
      <trkpt lat="47.66392" lon="6.21037">
        <ele>236</ele>
        <time>2020-09-13T07:28:51Z</time>
      </trkpt>
      <trkpt lat="47.66392" lon="6.21046">
        <ele>236</ele>
        <time>2020-09-13T07:28:53Z</time>
      </trkpt>
      <trkpt lat="47.66393" lon="6.21056">
        <ele>236</ele>
        <time>2020-09-13T07:28:56Z</time>
      </trkpt>
      <trkpt lat="47.66393" lon="6.21066">
        <ele>235</ele>
        <time>2020-09-13T07:28:58Z</time>
      </trkpt>
      <trkpt lat="47.66394" lon="6.21084">
        <ele>233</ele>
        <time>2020-09-13T07:29:00Z</time>
      </trkpt>
      <trkpt lat="47.66395" lon="6.21094">
        <ele>232</ele>
        <time>2020-09-13T07:29:03Z</time>
      </trkpt>
      <trkpt lat="47.66395" lon="6.21104">
        <ele>232</ele>
        <time>2020-09-13T07:29:05Z</time>
      </trkpt>
      <trkpt lat="47.66395" lon="6.21121">
        <ele>231</ele>
        <time>2020-09-13T07:29:07Z</time>
      </trkpt>
      <trkpt lat="47.66395" lon="6.21132">
        <ele>231</ele>
        <time>2020-09-13T07:29:09Z</time>
      </trkpt>
      <trkpt lat="47.66395" lon="6.21139">
        <ele>231</ele>
        <time>2020-09-13T07:29:12Z</time>
      </trkpt>
      <trkpt lat="47.66394" lon="6.21149">
        <ele>231</ele>
        <time>2020-09-13T07:29:14Z</time>
      </trkpt>
      <trkpt lat="47.66392" lon="6.21158">
        <ele>231</ele>
        <time>2020-09-13T07:29:15Z</time>
      </trkpt>
      <trkpt lat="47.6639" lon="6.21167">
        <ele>229</ele>
        <time>2020-09-13T07:29:17Z</time>
      </trkpt>
      <trkpt lat="47.66385" lon="6.21179">
        <ele>229</ele>
        <time>2020-09-13T07:29:19Z</time>
      </trkpt>
      <trkpt lat="47.66381" lon="6.21188">
        <ele>229</ele>
        <time>2020-09-13T07:29:20Z</time>
      </trkpt>
      <trkpt lat="47.66378" lon="6.21195">
        <ele>229</ele>
        <time>2020-09-13T07:29:21Z</time>
      </trkpt>
      <trkpt lat="47.66365" lon="6.21224">
        <ele>228</ele>
        <time>2020-09-13T07:29:22Z</time>
      </trkpt>
      <trkpt lat="47.66361" lon="6.21232">
        <ele>228</ele>
        <time>2020-09-13T07:29:23Z</time>
      </trkpt>
      <trkpt lat="47.66357" lon="6.2124">
        <ele>228</ele>
        <time>2020-09-13T07:29:24Z</time>
      </trkpt>
      <trkpt lat="47.66353" lon="6.21247">
        <ele>228</ele>
        <time>2020-09-13T07:29:25Z</time>
      </trkpt>
      <trkpt lat="47.6635" lon="6.21255">
        <ele>227</ele>
        <time>2020-09-13T07:29:26Z</time>
      </trkpt>
      <trkpt lat="47.66347" lon="6.21262">
        <ele>227</ele>
        <time>2020-09-13T07:29:27Z</time>
      </trkpt>
      <trkpt lat="47.66343" lon="6.2127">
        <ele>227</ele>
        <time>2020-09-13T07:29:28Z</time>
      </trkpt>
      <trkpt lat="47.6634" lon="6.21277">
        <ele>227</ele>
        <time>2020-09-13T07:29:29Z</time>
      </trkpt>
      <trkpt lat="47.66337" lon="6.21284">
        <ele>227</ele>
        <time>2020-09-13T07:29:30Z</time>
      </trkpt>
      <trkpt lat="47.66335" lon="6.21291">
        <ele>227</ele>
        <time>2020-09-13T07:29:31Z</time>
      </trkpt>
      <trkpt lat="47.66333" lon="6.21298">
        <ele>226</ele>
        <time>2020-09-13T07:29:32Z</time>
      </trkpt>
      <trkpt lat="47.66331" lon="6.21305">
        <ele>226</ele>
        <time>2020-09-13T07:29:33Z</time>
      </trkpt>
      <trkpt lat="47.66327" lon="6.21316">
        <ele>226</ele>
        <time>2020-09-13T07:29:35Z</time>
      </trkpt>
      <trkpt lat="47.66324" lon="6.21327">
        <ele>226</ele>
        <time>2020-09-13T07:29:37Z</time>
      </trkpt>
      <trkpt lat="47.66322" lon="6.21338">
        <ele>226</ele>
        <time>2020-09-13T07:29:39Z</time>
      </trkpt>
      <trkpt lat="47.6632" lon="6.21349">
        <ele>226</ele>
        <time>2020-09-13T07:29:41Z</time>
      </trkpt>
      <trkpt lat="47.66318" lon="6.21357">
        <ele>227</ele>
        <time>2020-09-13T07:29:43Z</time>
      </trkpt>
      <trkpt lat="47.66316" lon="6.21367">
        <ele>227</ele>
        <time>2020-09-13T07:29:45Z</time>
      </trkpt>
      <trkpt lat="47.66313" lon="6.21376">
        <ele>227</ele>
        <time>2020-09-13T07:29:47Z</time>
      </trkpt>
      <trkpt lat="47.66309" lon="6.21384">
        <ele>227</ele>
        <time>2020-09-13T07:29:49Z</time>
      </trkpt>
      <trkpt lat="47.66305" lon="6.21393">
        <ele>227</ele>
        <time>2020-09-13T07:29:52Z</time>
      </trkpt>
      <trkpt lat="47.66302" lon="6.21398">
        <ele>228</ele>
        <time>2020-09-13T07:29:54Z</time>
      </trkpt>
      <trkpt lat="47.66299" lon="6.21405">
        <ele>228</ele>
        <time>2020-09-13T07:29:57Z</time>
      </trkpt>
      <trkpt lat="47.66297" lon="6.21413">
        <ele>228</ele>
        <time>2020-09-13T07:29:59Z</time>
      </trkpt>
      <trkpt lat="47.66297" lon="6.2142">
        <ele>229</ele>
        <time>2020-09-13T07:30:00Z</time>
      </trkpt>
      <trkpt lat="47.66296" lon="6.21436">
        <ele>229</ele>
        <time>2020-09-13T07:30:01Z</time>
      </trkpt>
      <trkpt lat="47.66295" lon="6.21449">
        <ele>230</ele>
        <time>2020-09-13T07:30:04Z</time>
      </trkpt>
      <trkpt lat="47.66294" lon="6.21456">
        <ele>230</ele>
        <time>2020-09-13T07:30:05Z</time>
      </trkpt>
      <trkpt lat="47.66293" lon="6.21469">
        <ele>230</ele>
        <time>2020-09-13T07:30:07Z</time>
      </trkpt>
      <trkpt lat="47.66291" lon="6.21488">
        <ele>230</ele>
        <time>2020-09-13T07:30:09Z</time>
      </trkpt>
      <trkpt lat="47.6629" lon="6.21497">
        <ele>230</ele>
        <time>2020-09-13T07:30:12Z</time>
      </trkpt>
      <trkpt lat="47.66289" lon="6.21506">
        <ele>232</ele>
        <time>2020-09-13T07:30:14Z</time>
      </trkpt>
      <trkpt lat="47.66288" lon="6.21516">
        <ele>232</ele>
        <time>2020-09-13T07:30:16Z</time>
      </trkpt>
      <trkpt lat="47.66289" lon="6.21524">
        <ele>233</ele>
        <time>2020-09-13T07:30:17Z</time>
      </trkpt>
      <trkpt lat="47.66289" lon="6.21531">
        <ele>233</ele>
        <time>2020-09-13T07:30:20Z</time>
      </trkpt>
      <trkpt lat="47.6629" lon="6.21538">
        <ele>233</ele>
        <time>2020-09-13T07:30:21Z</time>
      </trkpt>
      <trkpt lat="47.66291" lon="6.21546">
        <ele>233</ele>
        <time>2020-09-13T07:30:23Z</time>
      </trkpt>
      <trkpt lat="47.66293" lon="6.21553">
        <ele>233</ele>
        <time>2020-09-13T07:30:25Z</time>
      </trkpt>
      <trkpt lat="47.66294" lon="6.21563">
        <ele>233</ele>
        <time>2020-09-13T07:30:28Z</time>
      </trkpt>
      <trkpt lat="47.66295" lon="6.21573">
        <ele>233</ele>
        <time>2020-09-13T07:30:31Z</time>
      </trkpt>
      <trkpt lat="47.66297" lon="6.2158">
        <ele>233</ele>
        <time>2020-09-13T07:30:33Z</time>
      </trkpt>
      <trkpt lat="47.66298" lon="6.21586">
        <ele>234</ele>
        <time>2020-09-13T07:30:35Z</time>
      </trkpt>
      <trkpt lat="47.663" lon="6.21593">
        <ele>234</ele>
        <time>2020-09-13T07:30:37Z</time>
      </trkpt>
      <trkpt lat="47.66301" lon="6.216">
        <ele>234</ele>
        <time>2020-09-13T07:30:39Z</time>
      </trkpt>
      <trkpt lat="47.66303" lon="6.21611">
        <ele>234</ele>
        <time>2020-09-13T07:30:42Z</time>
      </trkpt>
      <trkpt lat="47.66303" lon="6.21617">
        <ele>234</ele>
        <time>2020-09-13T07:30:44Z</time>
      </trkpt>
      <trkpt lat="47.66304" lon="6.21626">
        <ele>234</ele>
        <time>2020-09-13T07:30:46Z</time>
      </trkpt>
      <trkpt lat="47.66305" lon="6.21633">
        <ele>234</ele>
        <time>2020-09-13T07:30:49Z</time>
      </trkpt>
      <trkpt lat="47.66306" lon="6.2164">
        <ele>234</ele>
        <time>2020-09-13T07:30:50Z</time>
      </trkpt>
      <trkpt lat="47.66307" lon="6.21649">
        <ele>234</ele>
        <time>2020-09-13T07:30:53Z</time>
      </trkpt>
      <trkpt lat="47.66308" lon="6.21657">
        <ele>233</ele>
        <time>2020-09-13T07:30:55Z</time>
      </trkpt>
      <trkpt lat="47.66309" lon="6.21666">
        <ele>233</ele>
        <time>2020-09-13T07:30:57Z</time>
      </trkpt>
      <trkpt lat="47.66309" lon="6.21673">
        <ele>233</ele>
        <time>2020-09-13T07:30:59Z</time>
      </trkpt>
      <trkpt lat="47.6631" lon="6.21681">
        <ele>233</ele>
        <time>2020-09-13T07:31:01Z</time>
      </trkpt>
      <trkpt lat="47.6631" lon="6.21689">
        <ele>233</ele>
        <time>2020-09-13T07:31:03Z</time>
      </trkpt>
      <trkpt lat="47.66309" lon="6.21696">
        <ele>233</ele>
        <time>2020-09-13T07:31:05Z</time>
      </trkpt>
      <trkpt lat="47.66308" lon="6.21707">
        <ele>233</ele>
        <time>2020-09-13T07:31:09Z</time>
      </trkpt>
      <trkpt lat="47.66307" lon="6.21716">
        <ele>233</ele>
        <time>2020-09-13T07:31:10Z</time>
      </trkpt>
      <trkpt lat="47.66306" lon="6.21724">
        <ele>233</ele>
        <time>2020-09-13T07:31:12Z</time>
      </trkpt>
      <trkpt lat="47.66305" lon="6.21735">
        <ele>233</ele>
        <time>2020-09-13T07:31:15Z</time>
      </trkpt>
      <trkpt lat="47.66303" lon="6.21743">
        <ele>233</ele>
        <time>2020-09-13T07:31:17Z</time>
      </trkpt>
      <trkpt lat="47.66302" lon="6.2175">
        <ele>233</ele>
        <time>2020-09-13T07:31:20Z</time>
      </trkpt>
      <trkpt lat="47.663" lon="6.21758">
        <ele>233</ele>
        <time>2020-09-13T07:31:21Z</time>
      </trkpt>
      <trkpt lat="47.66298" lon="6.21766">
        <ele>233</ele>
        <time>2020-09-13T07:31:24Z</time>
      </trkpt>
      <trkpt lat="47.66296" lon="6.21773">
        <ele>234</ele>
        <time>2020-09-13T07:31:25Z</time>
      </trkpt>
      <trkpt lat="47.66292" lon="6.21784">
        <ele>234</ele>
        <time>2020-09-13T07:31:28Z</time>
      </trkpt>
      <trkpt lat="47.6629" lon="6.2179">
        <ele>234</ele>
        <time>2020-09-13T07:31:30Z</time>
      </trkpt>
      <trkpt lat="47.66286" lon="6.21798">
        <ele>234</ele>
        <time>2020-09-13T07:31:33Z</time>
      </trkpt>
      <trkpt lat="47.66282" lon="6.21804">
        <ele>235</ele>
        <time>2020-09-13T07:31:35Z</time>
      </trkpt>
      <trkpt lat="47.66278" lon="6.21811">
        <ele>235</ele>
        <time>2020-09-13T07:31:38Z</time>
      </trkpt>
      <trkpt lat="47.66273" lon="6.21817">
        <ele>236</ele>
        <time>2020-09-13T07:31:41Z</time>
      </trkpt>
      <trkpt lat="47.6627" lon="6.21822">
        <ele>237</ele>
        <time>2020-09-13T07:31:44Z</time>
      </trkpt>
      <trkpt lat="47.66264" lon="6.21832">
        <ele>238</ele>
        <time>2020-09-13T07:31:46Z</time>
      </trkpt>
      <trkpt lat="47.66261" lon="6.21838">
        <ele>239</ele>
        <time>2020-09-13T07:31:49Z</time>
      </trkpt>
      <trkpt lat="47.66256" lon="6.2185">
        <ele>238</ele>
        <time>2020-09-13T07:31:51Z</time>
      </trkpt>
      <trkpt lat="47.66255" lon="6.21859">
        <ele>238</ele>
        <time>2020-09-13T07:31:53Z</time>
      </trkpt>
      <trkpt lat="47.66255" lon="6.21865">
        <ele>237</ele>
        <time>2020-09-13T07:31:55Z</time>
      </trkpt>
      <trkpt lat="47.66255" lon="6.21872">
        <ele>237</ele>
        <time>2020-09-13T07:31:57Z</time>
      </trkpt>
      <trkpt lat="47.66254" lon="6.21881">
        <ele>237</ele>
        <time>2020-09-13T07:32:00Z</time>
      </trkpt>
      <trkpt lat="47.66254" lon="6.21888">
        <ele>238</ele>
        <time>2020-09-13T07:32:03Z</time>
      </trkpt>
      <trkpt lat="47.6625" lon="6.21894">
        <ele>244</ele>
        <time>2020-09-13T07:32:08Z</time>
      </trkpt>
      <trkpt lat="47.66245" lon="6.21901">
        <ele>244</ele>
        <time>2020-09-13T07:32:10Z</time>
      </trkpt>
      <trkpt lat="47.66241" lon="6.21907">
        <ele>244</ele>
        <time>2020-09-13T07:32:14Z</time>
      </trkpt>
      <trkpt lat="47.66236" lon="6.21913">
        <ele>244</ele>
        <time>2020-09-13T07:32:16Z</time>
      </trkpt>
      <trkpt lat="47.66231" lon="6.21919">
        <ele>243</ele>
        <time>2020-09-13T07:32:19Z</time>
      </trkpt>
      <trkpt lat="47.66227" lon="6.21924">
        <ele>243</ele>
        <time>2020-09-13T07:32:21Z</time>
      </trkpt>
      <trkpt lat="47.66221" lon="6.2193">
        <ele>243</ele>
        <time>2020-09-13T07:32:24Z</time>
      </trkpt>
      <trkpt lat="47.66217" lon="6.21934">
        <ele>243</ele>
        <time>2020-09-13T07:32:26Z</time>
      </trkpt>
      <trkpt lat="47.66212" lon="6.21939">
        <ele>243</ele>
        <time>2020-09-13T07:32:29Z</time>
      </trkpt>
      <trkpt lat="47.66207" lon="6.21943">
        <ele>243</ele>
        <time>2020-09-13T07:32:33Z</time>
      </trkpt>
      <trkpt lat="47.66203" lon="6.21947">
        <ele>243</ele>
        <time>2020-09-13T07:32:37Z</time>
      </trkpt>
      <trkpt lat="47.66198" lon="6.2195">
        <ele>243</ele>
        <time>2020-09-13T07:32:41Z</time>
      </trkpt>
      <trkpt lat="47.66194" lon="6.21953">
        <ele>243</ele>
        <time>2020-09-13T07:32:45Z</time>
      </trkpt>
      <trkpt lat="47.66189" lon="6.21956">
        <ele>243</ele>
        <time>2020-09-13T07:32:50Z</time>
      </trkpt>
      <trkpt lat="47.66185" lon="6.21962">
        <ele>243</ele>
        <time>2020-09-13T07:32:55Z</time>
      </trkpt>
      <trkpt lat="47.6618" lon="6.21961">
        <ele>243</ele>
        <time>2020-09-13T07:33:02Z</time>
      </trkpt>
      <trkpt lat="47.66176" lon="6.21958">
        <ele>244</ele>
        <time>2020-09-13T07:33:06Z</time>
      </trkpt>
      <trkpt lat="47.66171" lon="6.21961">
        <ele>244</ele>
        <time>2020-09-13T07:33:10Z</time>
      </trkpt>
      <trkpt lat="47.66166" lon="6.21961">
        <ele>246</ele>
        <time>2020-09-13T07:33:14Z</time>
      </trkpt>
      <trkpt lat="47.66161" lon="6.21956">
        <ele>247</ele>
        <time>2020-09-13T07:33:18Z</time>
      </trkpt>
      <trkpt lat="47.66157" lon="6.21952">
        <ele>247</ele>
        <time>2020-09-13T07:33:22Z</time>
      </trkpt>
      <trkpt lat="47.66155" lon="6.21945">
        <ele>248</ele>
        <time>2020-09-13T07:33:25Z</time>
      </trkpt>
      <trkpt lat="47.66153" lon="6.21939">
        <ele>248</ele>
        <time>2020-09-13T07:33:28Z</time>
      </trkpt>
      <trkpt lat="47.66149" lon="6.21935">
        <ele>248</ele>
        <time>2020-09-13T07:33:32Z</time>
      </trkpt>
      <trkpt lat="47.66147" lon="6.21928">
        <ele>248</ele>
        <time>2020-09-13T07:33:35Z</time>
      </trkpt>
      <trkpt lat="47.66143" lon="6.21923">
        <ele>248</ele>
        <time>2020-09-13T07:33:38Z</time>
      </trkpt>
      <trkpt lat="47.66139" lon="6.21918">
        <ele>248</ele>
        <time>2020-09-13T07:33:43Z</time>
      </trkpt>
      <trkpt lat="47.66134" lon="6.21916">
        <ele>253</ele>
        <time>2020-09-13T07:33:47Z</time>
      </trkpt>
      <trkpt lat="47.66131" lon="6.21911">
        <ele>253</ele>
        <time>2020-09-13T07:33:51Z</time>
      </trkpt>
      <trkpt lat="47.66129" lon="6.21904">
        <ele>253</ele>
        <time>2020-09-13T07:33:55Z</time>
      </trkpt>
      <trkpt lat="47.66126" lon="6.21898">
        <ele>253</ele>
        <time>2020-09-13T07:33:58Z</time>
      </trkpt>
      <trkpt lat="47.66122" lon="6.21892">
        <ele>254</ele>
        <time>2020-09-13T07:34:04Z</time>
      </trkpt>
      <trkpt lat="47.66118" lon="6.21887">
        <ele>254</ele>
        <time>2020-09-13T07:34:08Z</time>
      </trkpt>
      <trkpt lat="47.66114" lon="6.21882">
        <ele>254</ele>
        <time>2020-09-13T07:34:13Z</time>
      </trkpt>
      <trkpt lat="47.6611" lon="6.21875">
        <ele>255</ele>
        <time>2020-09-13T07:34:18Z</time>
      </trkpt>
      <trkpt lat="47.66106" lon="6.21871">
        <ele>255</ele>
        <time>2020-09-13T07:34:23Z</time>
      </trkpt>
      <trkpt lat="47.66101" lon="6.21867">
        <ele>255</ele>
        <time>2020-09-13T07:34:27Z</time>
      </trkpt>
      <trkpt lat="47.66097" lon="6.21863">
        <ele>256</ele>
        <time>2020-09-13T07:34:33Z</time>
      </trkpt>
      <trkpt lat="47.66096" lon="6.21856">
        <ele>256</ele>
        <time>2020-09-13T07:34:35Z</time>
      </trkpt>
      <trkpt lat="47.66093" lon="6.21851">
        <ele>257</ele>
        <time>2020-09-13T07:34:39Z</time>
      </trkpt>
      <trkpt lat="47.66087" lon="6.21848">
        <ele>257</ele>
        <time>2020-09-13T07:34:43Z</time>
      </trkpt>
      <trkpt lat="47.66085" lon="6.21841">
        <ele>258</ele>
        <time>2020-09-13T07:34:48Z</time>
      </trkpt>
      <trkpt lat="47.66082" lon="6.21835">
        <ele>260</ele>
        <time>2020-09-13T07:34:52Z</time>
      </trkpt>
      <trkpt lat="47.66077" lon="6.21832">
        <ele>261</ele>
        <time>2020-09-13T07:34:56Z</time>
      </trkpt>
      <trkpt lat="47.66075" lon="6.21825">
        <ele>262</ele>
        <time>2020-09-13T07:35:00Z</time>
      </trkpt>
      <trkpt lat="47.6607" lon="6.21819">
        <ele>264</ele>
        <time>2020-09-13T07:35:04Z</time>
      </trkpt>
      <trkpt lat="47.66065" lon="6.21818">
        <ele>264</ele>
        <time>2020-09-13T07:35:09Z</time>
      </trkpt>
      <trkpt lat="47.66064" lon="6.21811">
        <ele>265</ele>
        <time>2020-09-13T07:35:13Z</time>
      </trkpt>
      <trkpt lat="47.66061" lon="6.21805">
        <ele>265</ele>
        <time>2020-09-13T07:35:16Z</time>
      </trkpt>
      <trkpt lat="47.66056" lon="6.218">
        <ele>266</ele>
        <time>2020-09-13T07:35:20Z</time>
      </trkpt>
      <trkpt lat="47.66052" lon="6.21795">
        <ele>266</ele>
        <time>2020-09-13T07:35:23Z</time>
      </trkpt>
      <trkpt lat="47.66048" lon="6.21792">
        <ele>266</ele>
        <time>2020-09-13T07:35:31Z</time>
      </trkpt>
      <trkpt lat="47.66044" lon="6.21784">
        <ele>267</ele>
        <time>2020-09-13T07:35:33Z</time>
      </trkpt>
      <trkpt lat="47.66041" lon="6.21777">
        <ele>267</ele>
        <time>2020-09-13T07:35:35Z</time>
      </trkpt>
      <trkpt lat="47.66037" lon="6.21772">
        <ele>267</ele>
        <time>2020-09-13T07:35:37Z</time>
      </trkpt>
      <trkpt lat="47.66033" lon="6.21766">
        <ele>268</ele>
        <time>2020-09-13T07:35:40Z</time>
      </trkpt>
      <trkpt lat="47.6603" lon="6.21762">
        <ele>268</ele>
        <time>2020-09-13T07:35:43Z</time>
      </trkpt>
      <trkpt lat="47.66027" lon="6.21757">
        <ele>268</ele>
        <time>2020-09-13T07:35:46Z</time>
      </trkpt>
      <trkpt lat="47.66023" lon="6.21752">
        <ele>269</ele>
        <time>2020-09-13T07:35:49Z</time>
      </trkpt>
      <trkpt lat="47.66018" lon="6.21748">
        <ele>271</ele>
        <time>2020-09-13T07:35:52Z</time>
      </trkpt>
      <trkpt lat="47.66012" lon="6.21743">
        <ele>272</ele>
        <time>2020-09-13T07:35:56Z</time>
      </trkpt>
      <trkpt lat="47.66007" lon="6.2174">
        <ele>272</ele>
        <time>2020-09-13T07:35:59Z</time>
      </trkpt>
      <trkpt lat="47.66003" lon="6.21739">
        <ele>272</ele>
        <time>2020-09-13T07:36:02Z</time>
      </trkpt>
      <trkpt lat="47.65997" lon="6.21737">
        <ele>273</ele>
        <time>2020-09-13T07:36:06Z</time>
      </trkpt>
      <trkpt lat="47.65992" lon="6.21738">
        <ele>273</ele>
        <time>2020-09-13T07:36:10Z</time>
      </trkpt>
      <trkpt lat="47.65986" lon="6.21739">
        <ele>273</ele>
        <time>2020-09-13T07:36:14Z</time>
      </trkpt>
      <trkpt lat="47.6598" lon="6.2174">
        <ele>273</ele>
        <time>2020-09-13T07:36:18Z</time>
      </trkpt>
      <trkpt lat="47.65975" lon="6.2174">
        <ele>273</ele>
        <time>2020-09-13T07:36:21Z</time>
      </trkpt>
      <trkpt lat="47.6597" lon="6.21742">
        <ele>273</ele>
        <time>2020-09-13T07:36:25Z</time>
      </trkpt>
      <trkpt lat="47.65965" lon="6.21743">
        <ele>274</ele>
        <time>2020-09-13T07:36:29Z</time>
      </trkpt>
      <trkpt lat="47.65959" lon="6.21744">
        <ele>274</ele>
        <time>2020-09-13T07:36:33Z</time>
      </trkpt>
      <trkpt lat="47.65954" lon="6.21746">
        <ele>274</ele>
        <time>2020-09-13T07:36:36Z</time>
      </trkpt>
      <trkpt lat="47.65949" lon="6.21748">
        <ele>274</ele>
        <time>2020-09-13T07:36:40Z</time>
      </trkpt>
      <trkpt lat="47.65944" lon="6.21751">
        <ele>274</ele>
        <time>2020-09-13T07:36:44Z</time>
      </trkpt>
      <trkpt lat="47.6594" lon="6.21753">
        <ele>274</ele>
        <time>2020-09-13T07:36:47Z</time>
      </trkpt>
      <trkpt lat="47.65935" lon="6.21751">
        <ele>274</ele>
        <time>2020-09-13T07:36:51Z</time>
      </trkpt>
      <trkpt lat="47.6593" lon="6.21747">
        <ele>275</ele>
        <time>2020-09-13T07:36:55Z</time>
      </trkpt>
      <trkpt lat="47.65925" lon="6.21744">
        <ele>275</ele>
        <time>2020-09-13T07:36:59Z</time>
      </trkpt>
      <trkpt lat="47.65919" lon="6.21747">
        <ele>276</ele>
        <time>2020-09-13T07:37:03Z</time>
      </trkpt>
      <trkpt lat="47.65915" lon="6.21742">
        <ele>277</ele>
        <time>2020-09-13T07:37:07Z</time>
      </trkpt>
      <trkpt lat="47.65909" lon="6.21741">
        <ele>277</ele>
        <time>2020-09-13T07:37:33Z</time>
      </trkpt>
      <trkpt lat="47.65903" lon="6.21741">
        <ele>277</ele>
        <time>2020-09-13T07:37:35Z</time>
      </trkpt>
      <trkpt lat="47.65898" lon="6.2174">
        <ele>278</ele>
        <time>2020-09-13T07:37:37Z</time>
      </trkpt>
      <trkpt lat="47.65893" lon="6.21736">
        <ele>278</ele>
        <time>2020-09-13T07:37:43Z</time>
      </trkpt>
      <trkpt lat="47.65887" lon="6.21733">
        <ele>278</ele>
        <time>2020-09-13T07:37:45Z</time>
      </trkpt>
      <trkpt lat="47.65882" lon="6.21731">
        <ele>279</ele>
        <time>2020-09-13T07:37:47Z</time>
      </trkpt>
      <trkpt lat="47.65878" lon="6.21729">
        <ele>279</ele>
        <time>2020-09-13T07:37:49Z</time>
      </trkpt>
      <trkpt lat="47.65871" lon="6.21726">
        <ele>279</ele>
        <time>2020-09-13T07:37:51Z</time>
      </trkpt>
      <trkpt lat="47.65866" lon="6.21724">
        <ele>279</ele>
        <time>2020-09-13T07:37:53Z</time>
      </trkpt>
      <trkpt lat="47.6586" lon="6.21721">
        <ele>280</ele>
        <time>2020-09-13T07:37:56Z</time>
      </trkpt>
      <trkpt lat="47.65854" lon="6.21719">
        <ele>280</ele>
        <time>2020-09-13T07:37:59Z</time>
      </trkpt>
      <trkpt lat="47.65849" lon="6.21715">
        <ele>280</ele>
        <time>2020-09-13T07:38:02Z</time>
      </trkpt>
      <trkpt lat="47.65843" lon="6.21712">
        <ele>280</ele>
        <time>2020-09-13T07:38:05Z</time>
      </trkpt>
      <trkpt lat="47.65837" lon="6.2171">
        <ele>280</ele>
        <time>2020-09-13T07:38:08Z</time>
      </trkpt>
      <trkpt lat="47.65832" lon="6.21708">
        <ele>286</ele>
        <time>2020-09-13T07:38:10Z</time>
      </trkpt>
      <trkpt lat="47.65827" lon="6.21705">
        <ele>286</ele>
        <time>2020-09-13T07:38:14Z</time>
      </trkpt>
      <trkpt lat="47.65821" lon="6.21704">
        <ele>286</ele>
        <time>2020-09-13T07:38:17Z</time>
      </trkpt>
      <trkpt lat="47.65815" lon="6.217">
        <ele>286</ele>
        <time>2020-09-13T07:38:20Z</time>
      </trkpt>
      <trkpt lat="47.6581" lon="6.21698">
        <ele>286</ele>
        <time>2020-09-13T07:38:24Z</time>
      </trkpt>
      <trkpt lat="47.65805" lon="6.21696">
        <ele>286</ele>
        <time>2020-09-13T07:38:27Z</time>
      </trkpt>
      <trkpt lat="47.65799" lon="6.21693">
        <ele>287</ele>
        <time>2020-09-13T07:38:30Z</time>
      </trkpt>
      <trkpt lat="47.65793" lon="6.21692">
        <ele>287</ele>
        <time>2020-09-13T07:38:34Z</time>
      </trkpt>
      <trkpt lat="47.65788" lon="6.21691">
        <ele>288</ele>
        <time>2020-09-13T07:38:37Z</time>
      </trkpt>
      <trkpt lat="47.65783" lon="6.21692">
        <ele>288</ele>
        <time>2020-09-13T07:38:41Z</time>
      </trkpt>
      <trkpt lat="47.65778" lon="6.21688">
        <ele>288</ele>
        <time>2020-09-13T07:38:46Z</time>
      </trkpt>
      <trkpt lat="47.65774" lon="6.21685">
        <ele>288</ele>
        <time>2020-09-13T07:38:52Z</time>
      </trkpt>
      <trkpt lat="47.65769" lon="6.21684">
        <ele>289</ele>
        <time>2020-09-13T07:38:54Z</time>
      </trkpt>
      <trkpt lat="47.65763" lon="6.21682">
        <ele>289</ele>
        <time>2020-09-13T07:38:58Z</time>
      </trkpt>
      <trkpt lat="47.65759" lon="6.2168">
        <ele>289</ele>
        <time>2020-09-13T07:39:02Z</time>
      </trkpt>
      <trkpt lat="47.65754" lon="6.21678">
        <ele>289</ele>
        <time>2020-09-13T07:39:06Z</time>
      </trkpt>
      <trkpt lat="47.65748" lon="6.21676">
        <ele>292</ele>
        <time>2020-09-13T07:39:11Z</time>
      </trkpt>
      <trkpt lat="47.65743" lon="6.21675">
        <ele>292</ele>
        <time>2020-09-13T07:39:14Z</time>
      </trkpt>
      <trkpt lat="47.65738" lon="6.21674">
        <ele>293</ele>
        <time>2020-09-13T07:39:18Z</time>
      </trkpt>
      <trkpt lat="47.65733" lon="6.21674">
        <ele>293</ele>
        <time>2020-09-13T07:39:21Z</time>
      </trkpt>
      <trkpt lat="47.65727" lon="6.21673">
        <ele>294</ele>
        <time>2020-09-13T07:39:24Z</time>
      </trkpt>
      <trkpt lat="47.65722" lon="6.21673">
        <ele>294</ele>
        <time>2020-09-13T07:39:28Z</time>
      </trkpt>
      <trkpt lat="47.65717" lon="6.21674">
        <ele>295</ele>
        <time>2020-09-13T07:39:31Z</time>
      </trkpt>
      <trkpt lat="47.65712" lon="6.21675">
        <ele>295</ele>
        <time>2020-09-13T07:39:35Z</time>
      </trkpt>
      <trkpt lat="47.65706" lon="6.21676">
        <ele>295</ele>
        <time>2020-09-13T07:39:39Z</time>
      </trkpt>
      <trkpt lat="47.657" lon="6.21678">
        <ele>296</ele>
        <time>2020-09-13T07:39:43Z</time>
      </trkpt>
      <trkpt lat="47.65695" lon="6.21681">
        <ele>296</ele>
        <time>2020-09-13T07:39:47Z</time>
      </trkpt>
      <trkpt lat="47.65689" lon="6.21683">
        <ele>296</ele>
        <time>2020-09-13T07:39:51Z</time>
      </trkpt>
      <trkpt lat="47.65683" lon="6.21684">
        <ele>296</ele>
        <time>2020-09-13T07:39:55Z</time>
      </trkpt>
      <trkpt lat="47.65679" lon="6.21686">
        <ele>296</ele>
        <time>2020-09-13T07:39:58Z</time>
      </trkpt>
      <trkpt lat="47.65674" lon="6.21688">
        <ele>296</ele>
        <time>2020-09-13T07:40:01Z</time>
      </trkpt>
      <trkpt lat="47.65669" lon="6.21689">
        <ele>296</ele>
        <time>2020-09-13T07:40:05Z</time>
      </trkpt>
      <trkpt lat="47.65663" lon="6.21692">
        <ele>299</ele>
        <time>2020-09-13T07:40:09Z</time>
      </trkpt>
      <trkpt lat="47.65659" lon="6.21694">
        <ele>300</ele>
        <time>2020-09-13T07:40:12Z</time>
      </trkpt>
      <trkpt lat="47.65654" lon="6.21696">
        <ele>300</ele>
        <time>2020-09-13T07:40:16Z</time>
      </trkpt>
      <trkpt lat="47.65647" lon="6.21696">
        <ele>300</ele>
        <time>2020-09-13T07:40:20Z</time>
      </trkpt>
      <trkpt lat="47.65641" lon="6.21698">
        <ele>301</ele>
        <time>2020-09-13T07:40:25Z</time>
      </trkpt>
      <trkpt lat="47.65637" lon="6.21701">
        <ele>301</ele>
        <time>2020-09-13T07:40:28Z</time>
      </trkpt>
      <trkpt lat="47.65633" lon="6.21704">
        <ele>301</ele>
        <time>2020-09-13T07:40:31Z</time>
      </trkpt>
      <trkpt lat="47.65628" lon="6.21706">
        <ele>302</ele>
        <time>2020-09-13T07:40:34Z</time>
      </trkpt>
      <trkpt lat="47.65623" lon="6.21707">
        <ele>302</ele>
        <time>2020-09-13T07:40:37Z</time>
      </trkpt>
      <trkpt lat="47.65618" lon="6.21707">
        <ele>302</ele>
        <time>2020-09-13T07:40:41Z</time>
      </trkpt>
      <trkpt lat="47.65613" lon="6.2171">
        <ele>302</ele>
        <time>2020-09-13T07:40:45Z</time>
      </trkpt>
      <trkpt lat="47.65607" lon="6.21712">
        <ele>302</ele>
        <time>2020-09-13T07:40:49Z</time>
      </trkpt>
      <trkpt lat="47.65602" lon="6.21713">
        <ele>303</ele>
        <time>2020-09-13T07:40:53Z</time>
      </trkpt>
      <trkpt lat="47.65597" lon="6.21714">
        <ele>303</ele>
        <time>2020-09-13T07:40:57Z</time>
      </trkpt>
      <trkpt lat="47.65592" lon="6.21716">
        <ele>303</ele>
        <time>2020-09-13T07:41:01Z</time>
      </trkpt>
      <trkpt lat="47.65587" lon="6.21718">
        <ele>303</ele>
        <time>2020-09-13T07:41:05Z</time>
      </trkpt>
      <trkpt lat="47.65582" lon="6.2172">
        <ele>306</ele>
        <time>2020-09-13T07:41:08Z</time>
      </trkpt>
      <trkpt lat="47.65577" lon="6.21724">
        <ele>307</ele>
        <time>2020-09-13T07:41:13Z</time>
      </trkpt>
      <trkpt lat="47.65572" lon="6.21727">
        <ele>307</ele>
        <time>2020-09-13T07:41:17Z</time>
      </trkpt>
      <trkpt lat="47.65568" lon="6.21733">
        <ele>307</ele>
        <time>2020-09-13T07:41:27Z</time>
      </trkpt>
      <trkpt lat="47.65565" lon="6.21738">
        <ele>307</ele>
        <time>2020-09-13T07:41:29Z</time>
      </trkpt>
      <trkpt lat="47.65561" lon="6.21743">
        <ele>307</ele>
        <time>2020-09-13T07:41:30Z</time>
      </trkpt>
      <trkpt lat="47.65557" lon="6.21749">
        <ele>307</ele>
        <time>2020-09-13T07:41:31Z</time>
      </trkpt>
      <trkpt lat="47.65554" lon="6.21755">
        <ele>309</ele>
        <time>2020-09-13T07:41:34Z</time>
      </trkpt>
      <trkpt lat="47.65554" lon="6.21763">
        <ele>309</ele>
        <time>2020-09-13T07:41:39Z</time>
      </trkpt>
      <trkpt lat="47.65555" lon="6.2177">
        <ele>310</ele>
        <time>2020-09-13T07:41:47Z</time>
      </trkpt>
      <trkpt lat="47.65556" lon="6.21777">
        <ele>310</ele>
        <time>2020-09-13T07:41:54Z</time>
      </trkpt>
      <trkpt lat="47.65559" lon="6.21785">
        <ele>310</ele>
        <time>2020-09-13T07:41:56Z</time>
      </trkpt>
      <trkpt lat="47.65561" lon="6.21792">
        <ele>310</ele>
        <time>2020-09-13T07:42:00Z</time>
      </trkpt>
      <trkpt lat="47.65564" lon="6.21803">
        <ele>311</ele>
        <time>2020-09-13T07:42:04Z</time>
      </trkpt>
      <trkpt lat="47.65567" lon="6.21809">
        <ele>311</ele>
        <time>2020-09-13T07:42:06Z</time>
      </trkpt>
      <trkpt lat="47.65569" lon="6.21815">
        <ele>311</ele>
        <time>2020-09-13T07:42:08Z</time>
      </trkpt>
      <trkpt lat="47.65573" lon="6.21821">
        <ele>312</ele>
        <time>2020-09-13T07:42:11Z</time>
      </trkpt>
      <trkpt lat="47.65576" lon="6.21825">
        <ele>312</ele>
        <time>2020-09-13T07:42:14Z</time>
      </trkpt>
      <trkpt lat="47.65579" lon="6.2183">
        <ele>312</ele>
        <time>2020-09-13T07:42:16Z</time>
      </trkpt>
      <trkpt lat="47.65582" lon="6.21836">
        <ele>313</ele>
        <time>2020-09-13T07:42:20Z</time>
      </trkpt>
      <trkpt lat="47.65586" lon="6.21843">
        <ele>313</ele>
        <time>2020-09-13T07:42:24Z</time>
      </trkpt>
      <trkpt lat="47.6559" lon="6.2185">
        <ele>314</ele>
        <time>2020-09-13T07:42:28Z</time>
      </trkpt>
      <trkpt lat="47.65594" lon="6.21854">
        <ele>314</ele>
        <time>2020-09-13T07:42:31Z</time>
      </trkpt>
      <trkpt lat="47.65597" lon="6.21859">
        <ele>314</ele>
        <time>2020-09-13T07:42:36Z</time>
      </trkpt>
      <trkpt lat="47.65601" lon="6.21865">
        <ele>314</ele>
        <time>2020-09-13T07:42:39Z</time>
      </trkpt>
      <trkpt lat="47.65606" lon="6.21872">
        <ele>314</ele>
        <time>2020-09-13T07:42:40Z</time>
      </trkpt>
      <trkpt lat="47.6561" lon="6.21877">
        <ele>315</ele>
        <time>2020-09-13T07:42:45Z</time>
      </trkpt>
      <trkpt lat="47.65614" lon="6.21882">
        <ele>315</ele>
        <time>2020-09-13T07:42:46Z</time>
      </trkpt>
      <trkpt lat="47.65618" lon="6.21888">
        <ele>315</ele>
        <time>2020-09-13T07:42:51Z</time>
      </trkpt>
      <trkpt lat="47.65622" lon="6.21893">
        <ele>315</ele>
        <time>2020-09-13T07:42:51Z</time>
      </trkpt>
      <trkpt lat="47.65626" lon="6.21898">
        <ele>315</ele>
        <time>2020-09-13T07:42:56Z</time>
      </trkpt>
      <trkpt lat="47.6563" lon="6.21904">
        <ele>315</ele>
        <time>2020-09-13T07:42:57Z</time>
      </trkpt>
      <trkpt lat="47.65634" lon="6.2191">
        <ele>315</ele>
        <time>2020-09-13T07:43:02Z</time>
      </trkpt>
      <trkpt lat="47.65638" lon="6.21916">
        <ele>315</ele>
        <time>2020-09-13T07:43:03Z</time>
      </trkpt>
      <trkpt lat="47.65641" lon="6.21922">
        <ele>319</ele>
        <time>2020-09-13T07:43:06Z</time>
      </trkpt>
      <trkpt lat="47.65643" lon="6.21929">
        <ele>319</ele>
        <time>2020-09-13T07:43:09Z</time>
      </trkpt>
      <trkpt lat="47.65645" lon="6.21935">
        <ele>319</ele>
        <time>2020-09-13T07:43:12Z</time>
      </trkpt>
      <trkpt lat="47.65646" lon="6.21944">
        <ele>320</ele>
        <time>2020-09-13T07:43:16Z</time>
      </trkpt>
      <trkpt lat="47.65647" lon="6.21951">
        <ele>320</ele>
        <time>2020-09-13T07:43:20Z</time>
      </trkpt>
      <trkpt lat="47.65647" lon="6.2196">
        <ele>320</ele>
        <time>2020-09-13T07:43:24Z</time>
      </trkpt>
      <trkpt lat="47.65644" lon="6.21966">
        <ele>321</ele>
        <time>2020-09-13T07:43:27Z</time>
      </trkpt>
      <trkpt lat="47.65641" lon="6.21973">
        <ele>321</ele>
        <time>2020-09-13T07:43:31Z</time>
      </trkpt>
      <trkpt lat="47.65638" lon="6.2198">
        <ele>321</ele>
        <time>2020-09-13T07:43:35Z</time>
      </trkpt>
      <trkpt lat="47.65635" lon="6.21985">
        <ele>321</ele>
        <time>2020-09-13T07:43:38Z</time>
      </trkpt>
      <trkpt lat="47.6563" lon="6.2199">
        <ele>321</ele>
        <time>2020-09-13T07:43:42Z</time>
      </trkpt>
      <trkpt lat="47.65625" lon="6.21996">
        <ele>322</ele>
        <time>2020-09-13T07:43:46Z</time>
      </trkpt>
      <trkpt lat="47.65622" lon="6.22">
        <ele>326</ele>
        <time>2020-09-13T07:43:49Z</time>
      </trkpt>
      <trkpt lat="47.65618" lon="6.22005">
        <ele>326</ele>
        <time>2020-09-13T07:43:52Z</time>
      </trkpt>
      <trkpt lat="47.65614" lon="6.22011">
        <ele>326</ele>
        <time>2020-09-13T07:43:55Z</time>
      </trkpt>
      <trkpt lat="47.6561" lon="6.22016">
        <ele>326</ele>
        <time>2020-09-13T07:43:58Z</time>
      </trkpt>
      <trkpt lat="47.65606" lon="6.22021">
        <ele>326</ele>
        <time>2020-09-13T07:44:01Z</time>
      </trkpt>
      <trkpt lat="47.65602" lon="6.22026">
        <ele>326</ele>
        <time>2020-09-13T07:44:04Z</time>
      </trkpt>
      <trkpt lat="47.65598" lon="6.22032">
        <ele>326</ele>
        <time>2020-09-13T07:44:08Z</time>
      </trkpt>
      <trkpt lat="47.65594" lon="6.22037">
        <ele>327</ele>
        <time>2020-09-13T07:44:12Z</time>
      </trkpt>
      <trkpt lat="47.65591" lon="6.22042">
        <ele>327</ele>
        <time>2020-09-13T07:44:15Z</time>
      </trkpt>
      <trkpt lat="47.65587" lon="6.22047">
        <ele>327</ele>
        <time>2020-09-13T07:44:19Z</time>
      </trkpt>
      <trkpt lat="47.65583" lon="6.22053">
        <ele>328</ele>
        <time>2020-09-13T07:44:22Z</time>
      </trkpt>
      <trkpt lat="47.65579" lon="6.22058">
        <ele>328</ele>
        <time>2020-09-13T07:44:25Z</time>
      </trkpt>
      <trkpt lat="47.65575" lon="6.22063">
        <ele>328</ele>
        <time>2020-09-13T07:44:28Z</time>
      </trkpt>
      <trkpt lat="47.65571" lon="6.22068">
        <ele>328</ele>
        <time>2020-09-13T07:44:31Z</time>
      </trkpt>
      <trkpt lat="47.65567" lon="6.22074">
        <ele>328</ele>
        <time>2020-09-13T07:44:36Z</time>
      </trkpt>
      <trkpt lat="47.65564" lon="6.2208">
        <ele>328</ele>
        <time>2020-09-13T07:44:39Z</time>
      </trkpt>
      <trkpt lat="47.6556" lon="6.22086">
        <ele>331</ele>
        <time>2020-09-13T07:44:40Z</time>
      </trkpt>
      <trkpt lat="47.65556" lon="6.22092">
        <ele>332</ele>
        <time>2020-09-13T07:44:43Z</time>
      </trkpt>
      <trkpt lat="47.65552" lon="6.22098">
        <ele>332</ele>
        <time>2020-09-13T07:44:46Z</time>
      </trkpt>
      <trkpt lat="47.65547" lon="6.22105">
        <ele>332</ele>
        <time>2020-09-13T07:44:50Z</time>
      </trkpt>
      <trkpt lat="47.65542" lon="6.22111">
        <ele>332</ele>
        <time>2020-09-13T07:44:53Z</time>
      </trkpt>
      <trkpt lat="47.65537" lon="6.22117">
        <ele>332</ele>
        <time>2020-09-13T07:44:56Z</time>
      </trkpt>
      <trkpt lat="47.65534" lon="6.22122">
        <ele>332</ele>
        <time>2020-09-13T07:44:58Z</time>
      </trkpt>
      <trkpt lat="47.65531" lon="6.22127">
        <ele>333</ele>
        <time>2020-09-13T07:45:00Z</time>
      </trkpt>
      <trkpt lat="47.65527" lon="6.22133">
        <ele>333</ele>
        <time>2020-09-13T07:45:02Z</time>
      </trkpt>
      <trkpt lat="47.65523" lon="6.22138">
        <ele>333</ele>
        <time>2020-09-13T07:45:06Z</time>
      </trkpt>
      <trkpt lat="47.65519" lon="6.22144">
        <ele>333</ele>
        <time>2020-09-13T07:45:09Z</time>
      </trkpt>
      <trkpt lat="47.65515" lon="6.2215">
        <ele>333</ele>
        <time>2020-09-13T07:45:11Z</time>
      </trkpt>
      <trkpt lat="47.65512" lon="6.22157">
        <ele>333</ele>
        <time>2020-09-13T07:45:11Z</time>
      </trkpt>
      <trkpt lat="47.65509" lon="6.22163">
        <ele>333</ele>
        <time>2020-09-13T07:45:13Z</time>
      </trkpt>
      <trkpt lat="47.65506" lon="6.22171">
        <ele>334</ele>
        <time>2020-09-13T07:45:15Z</time>
      </trkpt>
      <trkpt lat="47.65503" lon="6.22177">
        <ele>335</ele>
        <time>2020-09-13T07:45:18Z</time>
      </trkpt>
      <trkpt lat="47.655" lon="6.22183">
        <ele>336</ele>
        <time>2020-09-13T07:45:20Z</time>
      </trkpt>
      <trkpt lat="47.65497" lon="6.22189">
        <ele>333</ele>
        <time>2020-09-13T07:45:21Z</time>
      </trkpt>
      <trkpt lat="47.65494" lon="6.22195">
        <ele>333</ele>
        <time>2020-09-13T07:45:23Z</time>
      </trkpt>
      <trkpt lat="47.65491" lon="6.22203">
        <ele>333</ele>
        <time>2020-09-13T07:45:25Z</time>
      </trkpt>
      <trkpt lat="47.65488" lon="6.22213">
        <ele>333</ele>
        <time>2020-09-13T07:45:27Z</time>
      </trkpt>
      <trkpt lat="47.65486" lon="6.2222">
        <ele>334</ele>
        <time>2020-09-13T07:45:29Z</time>
      </trkpt>
      <trkpt lat="47.65482" lon="6.22229">
        <ele>334</ele>
        <time>2020-09-13T07:45:30Z</time>
      </trkpt>
      <trkpt lat="47.65481" lon="6.22237">
        <ele>334</ele>
        <time>2020-09-13T07:45:33Z</time>
      </trkpt>
      <trkpt lat="47.65478" lon="6.22244">
        <ele>334</ele>
        <time>2020-09-13T07:45:37Z</time>
      </trkpt>
      <trkpt lat="47.65479" lon="6.22251">
        <ele>335</ele>
        <time>2020-09-13T07:46:25Z</time>
      </trkpt>
      <trkpt lat="47.6548" lon="6.22258">
        <ele>335</ele>
        <time>2020-09-13T07:47:02Z</time>
      </trkpt>
      <trkpt lat="47.65481" lon="6.22265">
        <ele>335</ele>
        <time>2020-09-13T07:47:05Z</time>
      </trkpt>
      <trkpt lat="47.65479" lon="6.22274">
        <ele>335</ele>
        <time>2020-09-13T07:47:08Z</time>
      </trkpt>
      <trkpt lat="47.6548" lon="6.22287">
        <ele>334</ele>
        <time>2020-09-13T07:47:16Z</time>
      </trkpt>
      <trkpt lat="47.65479" lon="6.22296">
        <ele>334</ele>
        <time>2020-09-13T07:47:17Z</time>
      </trkpt>
      <trkpt lat="47.65476" lon="6.2232">
        <ele>335</ele>
        <time>2020-09-13T07:47:19Z</time>
      </trkpt>
      <trkpt lat="47.65474" lon="6.22338">
        <ele>335</ele>
        <time>2020-09-13T07:47:22Z</time>
      </trkpt>
      <trkpt lat="47.65473" lon="6.22348">
        <ele>334</ele>
        <time>2020-09-13T07:47:23Z</time>
      </trkpt>
      <trkpt lat="47.65474" lon="6.22367">
        <ele>334</ele>
        <time>2020-09-13T07:47:24Z</time>
      </trkpt>
      <trkpt lat="47.65474" lon="6.22375">
        <ele>334</ele>
        <time>2020-09-13T07:47:25Z</time>
      </trkpt>
      <trkpt lat="47.65474" lon="6.22382">
        <ele>334</ele>
        <time>2020-09-13T07:47:26Z</time>
      </trkpt>
      <trkpt lat="47.65474" lon="6.22389">
        <ele>334</ele>
        <time>2020-09-13T07:47:27Z</time>
      </trkpt>
      <trkpt lat="47.65475" lon="6.22396">
        <ele>334</ele>
        <time>2020-09-13T07:47:28Z</time>
      </trkpt>
      <trkpt lat="47.65475" lon="6.22403">
        <ele>334</ele>
        <time>2020-09-13T07:47:29Z</time>
      </trkpt>
      <trkpt lat="47.65475" lon="6.22411">
        <ele>334</ele>
        <time>2020-09-13T07:47:30Z</time>
      </trkpt>
      <trkpt lat="47.65475" lon="6.22418">
        <ele>333</ele>
        <time>2020-09-13T07:47:31Z</time>
      </trkpt>
      <trkpt lat="47.65475" lon="6.22426">
        <ele>333</ele>
        <time>2020-09-13T07:47:32Z</time>
      </trkpt>
      <trkpt lat="47.65475" lon="6.22433">
        <ele>333</ele>
        <time>2020-09-13T07:47:33Z</time>
      </trkpt>
      <trkpt lat="47.65475" lon="6.22441">
        <ele>333</ele>
        <time>2020-09-13T07:47:34Z</time>
      </trkpt>
      <trkpt lat="47.65475" lon="6.22449">
        <ele>333</ele>
        <time>2020-09-13T07:47:35Z</time>
      </trkpt>
      <trkpt lat="47.65476" lon="6.22457">
        <ele>333</ele>
        <time>2020-09-13T07:47:36Z</time>
      </trkpt>
      <trkpt lat="47.65476" lon="6.22465">
        <ele>333</ele>
        <time>2020-09-13T07:47:37Z</time>
      </trkpt>
      <trkpt lat="47.65476" lon="6.22472">
        <ele>333</ele>
        <time>2020-09-13T07:47:38Z</time>
      </trkpt>
      <trkpt lat="47.65477" lon="6.2248">
        <ele>333</ele>
        <time>2020-09-13T07:47:39Z</time>
      </trkpt>
      <trkpt lat="47.65477" lon="6.22487">
        <ele>333</ele>
        <time>2020-09-13T07:47:40Z</time>
      </trkpt>
      <trkpt lat="47.65477" lon="6.22494">
        <ele>333</ele>
        <time>2020-09-13T07:47:41Z</time>
      </trkpt>
      <trkpt lat="47.65477" lon="6.22501">
        <ele>333</ele>
        <time>2020-09-13T07:47:42Z</time>
      </trkpt>
      <trkpt lat="47.65477" lon="6.22508">
        <ele>332</ele>
        <time>2020-09-13T07:47:43Z</time>
      </trkpt>
      <trkpt lat="47.65477" lon="6.22515">
        <ele>332</ele>
        <time>2020-09-13T07:47:44Z</time>
      </trkpt>
      <trkpt lat="47.65477" lon="6.22522">
        <ele>332</ele>
        <time>2020-09-13T07:47:45Z</time>
      </trkpt>
      <trkpt lat="47.65477" lon="6.22529">
        <ele>332</ele>
        <time>2020-09-13T07:47:46Z</time>
      </trkpt>
      <trkpt lat="47.65476" lon="6.22537">
        <ele>332</ele>
        <time>2020-09-13T07:47:47Z</time>
      </trkpt>
      <trkpt lat="47.65475" lon="6.22544">
        <ele>332</ele>
        <time>2020-09-13T07:47:48Z</time>
      </trkpt>
      <trkpt lat="47.65474" lon="6.22551">
        <ele>332</ele>
        <time>2020-09-13T07:47:49Z</time>
      </trkpt>
      <trkpt lat="47.65473" lon="6.22558">
        <ele>332</ele>
        <time>2020-09-13T07:47:50Z</time>
      </trkpt>
      <trkpt lat="47.65472" lon="6.22565">
        <ele>332</ele>
        <time>2020-09-13T07:47:51Z</time>
      </trkpt>
      <trkpt lat="47.65471" lon="6.22573">
        <ele>332</ele>
        <time>2020-09-13T07:47:52Z</time>
      </trkpt>
      <trkpt lat="47.65469" lon="6.22581">
        <ele>332</ele>
        <time>2020-09-13T07:47:53Z</time>
      </trkpt>
      <trkpt lat="47.65468" lon="6.22589">
        <ele>332</ele>
        <time>2020-09-13T07:47:54Z</time>
      </trkpt>
      <trkpt lat="47.65467" lon="6.22597">
        <ele>332</ele>
        <time>2020-09-13T07:47:55Z</time>
      </trkpt>
      <trkpt lat="47.65466" lon="6.22605">
        <ele>332</ele>
        <time>2020-09-13T07:47:56Z</time>
      </trkpt>
      <trkpt lat="47.65465" lon="6.22613">
        <ele>332</ele>
        <time>2020-09-13T07:47:57Z</time>
      </trkpt>
      <trkpt lat="47.65464" lon="6.2262">
        <ele>332</ele>
        <time>2020-09-13T07:47:58Z</time>
      </trkpt>
      <trkpt lat="47.65463" lon="6.22627">
        <ele>332</ele>
        <time>2020-09-13T07:47:59Z</time>
      </trkpt>
      <trkpt lat="47.65463" lon="6.22634">
        <ele>332</ele>
        <time>2020-09-13T07:48:00Z</time>
      </trkpt>
      <trkpt lat="47.65462" lon="6.22641">
        <ele>332</ele>
        <time>2020-09-13T07:48:01Z</time>
      </trkpt>
      <trkpt lat="47.65462" lon="6.22648">
        <ele>332</ele>
        <time>2020-09-13T07:48:02Z</time>
      </trkpt>
      <trkpt lat="47.65461" lon="6.22655">
        <ele>332</ele>
        <time>2020-09-13T07:48:03Z</time>
      </trkpt>
      <trkpt lat="47.65461" lon="6.22662">
        <ele>332</ele>
        <time>2020-09-13T07:48:04Z</time>
      </trkpt>
      <trkpt lat="47.65461" lon="6.22669">
        <ele>332</ele>
        <time>2020-09-13T07:48:05Z</time>
      </trkpt>
      <trkpt lat="47.65462" lon="6.22676">
        <ele>332</ele>
        <time>2020-09-13T07:48:06Z</time>
      </trkpt>
      <trkpt lat="47.65462" lon="6.22683">
        <ele>332</ele>
        <time>2020-09-13T07:48:07Z</time>
      </trkpt>
      <trkpt lat="47.65462" lon="6.2269">
        <ele>332</ele>
        <time>2020-09-13T07:48:08Z</time>
      </trkpt>
      <trkpt lat="47.65463" lon="6.22701">
        <ele>332</ele>
        <time>2020-09-13T07:48:10Z</time>
      </trkpt>
      <trkpt lat="47.65465" lon="6.22713">
        <ele>332</ele>
        <time>2020-09-13T07:48:12Z</time>
      </trkpt>
      <trkpt lat="47.65467" lon="6.22724">
        <ele>332</ele>
        <time>2020-09-13T07:48:14Z</time>
      </trkpt>
      <trkpt lat="47.65469" lon="6.22736">
        <ele>332</ele>
        <time>2020-09-13T07:48:16Z</time>
      </trkpt>
      <trkpt lat="47.65477" lon="6.22745">
        <ele>332</ele>
        <time>2020-09-13T07:48:18Z</time>
      </trkpt>
      <trkpt lat="47.65476" lon="6.22753">
        <ele>332</ele>
        <time>2020-09-13T07:48:19Z</time>
      </trkpt>
      <trkpt lat="47.65475" lon="6.22761">
        <ele>332</ele>
        <time>2020-09-13T07:48:22Z</time>
      </trkpt>
      <trkpt lat="47.65475" lon="6.22781">
        <ele>332</ele>
        <time>2020-09-13T07:48:25Z</time>
      </trkpt>
      <trkpt lat="47.65476" lon="6.22798">
        <ele>332</ele>
        <time>2020-09-13T07:48:28Z</time>
      </trkpt>
      <trkpt lat="47.65475" lon="6.22815">
        <ele>332</ele>
        <time>2020-09-13T07:48:31Z</time>
      </trkpt>
      <trkpt lat="47.65478" lon="6.22819">
        <ele>331</ele>
        <time>2020-09-13T07:48:54Z</time>
      </trkpt>
      <trkpt lat="47.65481" lon="6.22829">
        <ele>331</ele>
        <time>2020-09-13T07:48:57Z</time>
      </trkpt>
      <trkpt lat="47.65482" lon="6.22838">
        <ele>331</ele>
        <time>2020-09-13T07:49:02Z</time>
      </trkpt>
      <trkpt lat="47.65481" lon="6.22848">
        <ele>331</ele>
        <time>2020-09-13T07:49:04Z</time>
      </trkpt>
      <trkpt lat="47.6548" lon="6.22872">
        <ele>330</ele>
        <time>2020-09-13T07:49:06Z</time>
      </trkpt>
      <trkpt lat="47.65479" lon="6.22884">
        <ele>330</ele>
        <time>2020-09-13T07:49:07Z</time>
      </trkpt>
      <trkpt lat="47.6548" lon="6.22896">
        <ele>330</ele>
        <time>2020-09-13T07:49:09Z</time>
      </trkpt>
      <trkpt lat="47.65481" lon="6.22909">
        <ele>330</ele>
        <time>2020-09-13T07:49:10Z</time>
      </trkpt>
      <trkpt lat="47.65481" lon="6.22917">
        <ele>330</ele>
        <time>2020-09-13T07:49:11Z</time>
      </trkpt>
      <trkpt lat="47.65482" lon="6.22924">
        <ele>330</ele>
        <time>2020-09-13T07:49:12Z</time>
      </trkpt>
      <trkpt lat="47.65485" lon="6.22935">
        <ele>330</ele>
        <time>2020-09-13T07:49:14Z</time>
      </trkpt>
      <trkpt lat="47.65487" lon="6.22946">
        <ele>330</ele>
        <time>2020-09-13T07:49:17Z</time>
      </trkpt>
      <trkpt lat="47.65489" lon="6.22955">
        <ele>330</ele>
        <time>2020-09-13T07:49:18Z</time>
      </trkpt>
      <trkpt lat="47.65491" lon="6.22962">
        <ele>330</ele>
        <time>2020-09-13T07:49:20Z</time>
      </trkpt>
      <trkpt lat="47.65494" lon="6.22971">
        <ele>330</ele>
        <time>2020-09-13T07:49:21Z</time>
      </trkpt>
      <trkpt lat="47.65496" lon="6.22981">
        <ele>330</ele>
        <time>2020-09-13T07:49:23Z</time>
      </trkpt>
      <trkpt lat="47.65499" lon="6.23001">
        <ele>330</ele>
        <time>2020-09-13T07:49:26Z</time>
      </trkpt>
      <trkpt lat="47.655" lon="6.23019">
        <ele>328</ele>
        <time>2020-09-13T07:49:27Z</time>
      </trkpt>
      <trkpt lat="47.65501" lon="6.2303">
        <ele>327</ele>
        <time>2020-09-13T07:49:30Z</time>
      </trkpt>
      <trkpt lat="47.655" lon="6.23047">
        <ele>327</ele>
        <time>2020-09-13T07:49:33Z</time>
      </trkpt>
      <trkpt lat="47.655" lon="6.23056">
        <ele>327</ele>
        <time>2020-09-13T07:49:34Z</time>
      </trkpt>
      <trkpt lat="47.65499" lon="6.23066">
        <ele>330</ele>
        <time>2020-09-13T07:49:36Z</time>
      </trkpt>
      <trkpt lat="47.655" lon="6.23074">
        <ele>330</ele>
        <time>2020-09-13T07:49:37Z</time>
      </trkpt>
      <trkpt lat="47.65499" lon="6.23087">
        <ele>329</ele>
        <time>2020-09-13T07:49:39Z</time>
      </trkpt>
      <trkpt lat="47.65498" lon="6.23099">
        <ele>329</ele>
        <time>2020-09-13T07:49:41Z</time>
      </trkpt>
      <trkpt lat="47.65497" lon="6.23109">
        <ele>328</ele>
        <time>2020-09-13T07:49:43Z</time>
      </trkpt>
      <trkpt lat="47.65496" lon="6.23131">
        <ele>328</ele>
        <time>2020-09-13T07:49:44Z</time>
      </trkpt>
      <trkpt lat="47.65497" lon="6.2314">
        <ele>327</ele>
        <time>2020-09-13T07:49:45Z</time>
      </trkpt>
      <trkpt lat="47.65497" lon="6.23149">
        <ele>327</ele>
        <time>2020-09-13T07:49:46Z</time>
      </trkpt>
      <trkpt lat="47.65498" lon="6.23159">
        <ele>326</ele>
        <time>2020-09-13T07:49:47Z</time>
      </trkpt>
      <trkpt lat="47.65498" lon="6.23169">
        <ele>325</ele>
        <time>2020-09-13T07:49:48Z</time>
      </trkpt>
      <trkpt lat="47.65498" lon="6.23179">
        <ele>325</ele>
        <time>2020-09-13T07:49:49Z</time>
      </trkpt>
      <trkpt lat="47.65498" lon="6.23189">
        <ele>324</ele>
        <time>2020-09-13T07:49:50Z</time>
      </trkpt>
      <trkpt lat="47.65498" lon="6.232">
        <ele>324</ele>
        <time>2020-09-13T07:49:51Z</time>
      </trkpt>
      <trkpt lat="47.65499" lon="6.23211">
        <ele>324</ele>
        <time>2020-09-13T07:49:52Z</time>
      </trkpt>
      <trkpt lat="47.65501" lon="6.2322">
        <ele>321</ele>
        <time>2020-09-13T07:49:53Z</time>
      </trkpt>
      <trkpt lat="47.65503" lon="6.23229">
        <ele>321</ele>
        <time>2020-09-13T07:49:54Z</time>
      </trkpt>
      <trkpt lat="47.65504" lon="6.23236">
        <ele>322</ele>
        <time>2020-09-13T07:49:55Z</time>
      </trkpt>
      <trkpt lat="47.65504" lon="6.23248">
        <ele>322</ele>
        <time>2020-09-13T07:49:57Z</time>
      </trkpt>
      <trkpt lat="47.65502" lon="6.23256">
        <ele>323</ele>
        <time>2020-09-13T07:49:59Z</time>
      </trkpt>
      <trkpt lat="47.65497" lon="6.23259">
        <ele>324</ele>
        <time>2020-09-13T07:50:01Z</time>
      </trkpt>
      <trkpt lat="47.65492" lon="6.2326">
        <ele>324</ele>
        <time>2020-09-13T07:50:05Z</time>
      </trkpt>
      <trkpt lat="47.65487" lon="6.23259">
        <ele>324</ele>
        <time>2020-09-13T07:50:08Z</time>
      </trkpt>
      <trkpt lat="47.65481" lon="6.23259">
        <ele>324</ele>
        <time>2020-09-13T07:50:10Z</time>
      </trkpt>
      <trkpt lat="47.65475" lon="6.2326">
        <ele>324</ele>
        <time>2020-09-13T07:50:13Z</time>
      </trkpt>
      <trkpt lat="47.6547" lon="6.23262">
        <ele>324</ele>
        <time>2020-09-13T07:50:15Z</time>
      </trkpt>
      <trkpt lat="47.65465" lon="6.23264">
        <ele>324</ele>
        <time>2020-09-13T07:50:17Z</time>
      </trkpt>
      <trkpt lat="47.6546" lon="6.23267">
        <ele>325</ele>
        <time>2020-09-13T07:50:19Z</time>
      </trkpt>
      <trkpt lat="47.65454" lon="6.23269">
        <ele>325</ele>
        <time>2020-09-13T07:50:21Z</time>
      </trkpt>
      <trkpt lat="47.65449" lon="6.23272">
        <ele>325</ele>
        <time>2020-09-13T07:50:23Z</time>
      </trkpt>
      <trkpt lat="47.65443" lon="6.23274">
        <ele>325</ele>
        <time>2020-09-13T07:50:26Z</time>
      </trkpt>
      <trkpt lat="47.65438" lon="6.23276">
        <ele>325</ele>
        <time>2020-09-13T07:50:29Z</time>
      </trkpt>
      <trkpt lat="47.65432" lon="6.23276">
        <ele>325</ele>
        <time>2020-09-13T07:50:30Z</time>
      </trkpt>
      <trkpt lat="47.65425" lon="6.23276">
        <ele>324</ele>
        <time>2020-09-13T07:50:34Z</time>
      </trkpt>
      <trkpt lat="47.6542" lon="6.23274">
        <ele>324</ele>
        <time>2020-09-13T07:50:35Z</time>
      </trkpt>
      <trkpt lat="47.65413" lon="6.23272">
        <ele>323</ele>
        <time>2020-09-13T07:50:37Z</time>
      </trkpt>
      <trkpt lat="47.65406" lon="6.2327">
        <ele>323</ele>
        <time>2020-09-13T07:50:39Z</time>
      </trkpt>
      <trkpt lat="47.65401" lon="6.23267">
        <ele>323</ele>
        <time>2020-09-13T07:50:41Z</time>
      </trkpt>
      <trkpt lat="47.65392" lon="6.23263">
        <ele>323</ele>
        <time>2020-09-13T07:50:43Z</time>
      </trkpt>
      <trkpt lat="47.65387" lon="6.23261">
        <ele>323</ele>
        <time>2020-09-13T07:50:44Z</time>
      </trkpt>
      <trkpt lat="47.6538" lon="6.23259">
        <ele>323</ele>
        <time>2020-09-13T07:50:45Z</time>
      </trkpt>
      <trkpt lat="47.65372" lon="6.23255">
        <ele>323</ele>
        <time>2020-09-13T07:50:47Z</time>
      </trkpt>
      <trkpt lat="47.65363" lon="6.2325">
        <ele>322</ele>
        <time>2020-09-13T07:50:49Z</time>
      </trkpt>
      <trkpt lat="47.65356" lon="6.23244">
        <ele>322</ele>
        <time>2020-09-13T07:50:51Z</time>
      </trkpt>
      <trkpt lat="47.65346" lon="6.23232">
        <ele>322</ele>
        <time>2020-09-13T07:50:53Z</time>
      </trkpt>
      <trkpt lat="47.65341" lon="6.23225">
        <ele>322</ele>
        <time>2020-09-13T07:50:55Z</time>
      </trkpt>
      <trkpt lat="47.65338" lon="6.23219">
        <ele>322</ele>
        <time>2020-09-13T07:50:57Z</time>
      </trkpt>
      <trkpt lat="47.65334" lon="6.2321">
        <ele>323</ele>
        <time>2020-09-13T07:50:59Z</time>
      </trkpt>
      <trkpt lat="47.65328" lon="6.23197">
        <ele>320</ele>
        <time>2020-09-13T07:51:01Z</time>
      </trkpt>
      <trkpt lat="47.65324" lon="6.23191">
        <ele>320</ele>
        <time>2020-09-13T07:51:03Z</time>
      </trkpt>
      <trkpt lat="47.65315" lon="6.2318">
        <ele>320</ele>
        <time>2020-09-13T07:51:04Z</time>
      </trkpt>
      <trkpt lat="47.65311" lon="6.23176">
        <ele>320</ele>
        <time>2020-09-13T07:51:06Z</time>
      </trkpt>
      <trkpt lat="47.65306" lon="6.2317">
        <ele>320</ele>
        <time>2020-09-13T07:51:07Z</time>
      </trkpt>
      <trkpt lat="47.65299" lon="6.23163">
        <ele>323</ele>
        <time>2020-09-13T07:51:08Z</time>
      </trkpt>
      <trkpt lat="47.65291" lon="6.23159">
        <ele>322</ele>
        <time>2020-09-13T07:51:10Z</time>
      </trkpt>
      <trkpt lat="47.65286" lon="6.23156">
        <ele>322</ele>
        <time>2020-09-13T07:51:11Z</time>
      </trkpt>
      <trkpt lat="47.65268" lon="6.23148">
        <ele>321</ele>
        <time>2020-09-13T07:51:12Z</time>
      </trkpt>
      <trkpt lat="47.65262" lon="6.23145">
        <ele>321</ele>
        <time>2020-09-13T07:51:13Z</time>
      </trkpt>
      <trkpt lat="47.65256" lon="6.23143">
        <ele>321</ele>
        <time>2020-09-13T07:51:14Z</time>
      </trkpt>
      <trkpt lat="47.6525" lon="6.2314">
        <ele>321</ele>
        <time>2020-09-13T07:51:15Z</time>
      </trkpt>
      <trkpt lat="47.65244" lon="6.23138">
        <ele>318</ele>
        <time>2020-09-13T07:51:16Z</time>
      </trkpt>
      <trkpt lat="47.65238" lon="6.23135">
        <ele>318</ele>
        <time>2020-09-13T07:51:17Z</time>
      </trkpt>
      <trkpt lat="47.65232" lon="6.23133">
        <ele>318</ele>
        <time>2020-09-13T07:51:18Z</time>
      </trkpt>
      <trkpt lat="47.65226" lon="6.23131">
        <ele>318</ele>
        <time>2020-09-13T07:51:19Z</time>
      </trkpt>
      <trkpt lat="47.6522" lon="6.23129">
        <ele>318</ele>
        <time>2020-09-13T07:51:20Z</time>
      </trkpt>
      <trkpt lat="47.65214" lon="6.23127">
        <ele>318</ele>
        <time>2020-09-13T07:51:21Z</time>
      </trkpt>
      <trkpt lat="47.65209" lon="6.23124">
        <ele>318</ele>
        <time>2020-09-13T07:51:22Z</time>
      </trkpt>
      <trkpt lat="47.65203" lon="6.23121">
        <ele>318</ele>
        <time>2020-09-13T07:51:23Z</time>
      </trkpt>
      <trkpt lat="47.65198" lon="6.23119">
        <ele>318</ele>
        <time>2020-09-13T07:51:24Z</time>
      </trkpt>
      <trkpt lat="47.65193" lon="6.23116">
        <ele>318</ele>
        <time>2020-09-13T07:51:25Z</time>
      </trkpt>
      <trkpt lat="47.65187" lon="6.23112">
        <ele>317</ele>
        <time>2020-09-13T07:51:26Z</time>
      </trkpt>
      <trkpt lat="47.65182" lon="6.23109">
        <ele>317</ele>
        <time>2020-09-13T07:51:27Z</time>
      </trkpt>
      <trkpt lat="47.65177" lon="6.23105">
        <ele>317</ele>
        <time>2020-09-13T07:51:28Z</time>
      </trkpt>
      <trkpt lat="47.65171" lon="6.23101">
        <ele>317</ele>
        <time>2020-09-13T07:51:29Z</time>
      </trkpt>
      <trkpt lat="47.65167" lon="6.23098">
        <ele>317</ele>
        <time>2020-09-13T07:51:30Z</time>
      </trkpt>
      <trkpt lat="47.65162" lon="6.23093">
        <ele>316</ele>
        <time>2020-09-13T07:51:31Z</time>
      </trkpt>
      <trkpt lat="47.65157" lon="6.23089">
        <ele>316</ele>
        <time>2020-09-13T07:51:32Z</time>
      </trkpt>
      <trkpt lat="47.65152" lon="6.23085">
        <ele>315</ele>
        <time>2020-09-13T07:51:33Z</time>
      </trkpt>
      <trkpt lat="47.65148" lon="6.23081">
        <ele>317</ele>
        <time>2020-09-13T07:51:34Z</time>
      </trkpt>
      <trkpt lat="47.65143" lon="6.23077">
        <ele>316</ele>
        <time>2020-09-13T07:51:35Z</time>
      </trkpt>
      <trkpt lat="47.65139" lon="6.23073">
        <ele>316</ele>
        <time>2020-09-13T07:51:36Z</time>
      </trkpt>
      <trkpt lat="47.65134" lon="6.23069">
        <ele>316</ele>
        <time>2020-09-13T07:51:37Z</time>
      </trkpt>
      <trkpt lat="47.6513" lon="6.23065">
        <ele>316</ele>
        <time>2020-09-13T07:51:38Z</time>
      </trkpt>
      <trkpt lat="47.65125" lon="6.23061">
        <ele>316</ele>
        <time>2020-09-13T07:51:39Z</time>
      </trkpt>
      <trkpt lat="47.6512" lon="6.23057">
        <ele>316</ele>
        <time>2020-09-13T07:51:40Z</time>
      </trkpt>
      <trkpt lat="47.65116" lon="6.23054">
        <ele>316</ele>
        <time>2020-09-13T07:51:41Z</time>
      </trkpt>
      <trkpt lat="47.65111" lon="6.2305">
        <ele>316</ele>
        <time>2020-09-13T07:51:42Z</time>
      </trkpt>
      <trkpt lat="47.65108" lon="6.23046">
        <ele>316</ele>
        <time>2020-09-13T07:51:43Z</time>
      </trkpt>
      <trkpt lat="47.65102" lon="6.23037">
        <ele>316</ele>
        <time>2020-09-13T07:51:45Z</time>
      </trkpt>
      <trkpt lat="47.65098" lon="6.23032">
        <ele>317</ele>
        <time>2020-09-13T07:51:47Z</time>
      </trkpt>
      <trkpt lat="47.65094" lon="6.23027">
        <ele>317</ele>
        <time>2020-09-13T07:51:49Z</time>
      </trkpt>
      <trkpt lat="47.6509" lon="6.23022">
        <ele>317</ele>
        <time>2020-09-13T07:51:52Z</time>
      </trkpt>
      <trkpt lat="47.65084" lon="6.23017">
        <ele>317</ele>
        <time>2020-09-13T07:51:57Z</time>
      </trkpt>
      <trkpt lat="47.65081" lon="6.2301">
        <ele>317</ele>
        <time>2020-09-13T07:52:00Z</time>
      </trkpt>
      <trkpt lat="47.65076" lon="6.23004">
        <ele>317</ele>
        <time>2020-09-13T07:52:03Z</time>
      </trkpt>
      <trkpt lat="47.65071" lon="6.22997">
        <ele>319</ele>
        <time>2020-09-13T07:52:06Z</time>
      </trkpt>
      <trkpt lat="47.65067" lon="6.22993">
        <ele>320</ele>
        <time>2020-09-13T07:52:09Z</time>
      </trkpt>
      <trkpt lat="47.65062" lon="6.22992">
        <ele>320</ele>
        <time>2020-09-13T07:52:12Z</time>
      </trkpt>
      <trkpt lat="47.65057" lon="6.22994">
        <ele>320</ele>
        <time>2020-09-13T07:52:34Z</time>
      </trkpt>
      <trkpt lat="47.65049" lon="6.22995">
        <ele>320</ele>
        <time>2020-09-13T07:52:37Z</time>
      </trkpt>
      <trkpt lat="47.6505" lon="6.23002">
        <ele>317</ele>
        <time>2020-09-13T07:52:44Z</time>
      </trkpt>
      <trkpt lat="47.65056" lon="6.22996">
        <ele>320</ele>
        <time>2020-09-13T07:53:11Z</time>
      </trkpt>
      <trkpt lat="47.6506" lon="6.2299">
        <ele>320</ele>
        <time>2020-09-13T07:53:17Z</time>
      </trkpt>
      <trkpt lat="47.6506" lon="6.22983">
        <ele>320</ele>
        <time>2020-09-13T07:53:22Z</time>
      </trkpt>
      <trkpt lat="47.65059" lon="6.22975">
        <ele>320</ele>
        <time>2020-09-13T07:53:40Z</time>
      </trkpt>
      <trkpt lat="47.65057" lon="6.22969">
        <ele>321</ele>
        <time>2020-09-13T07:53:48Z</time>
      </trkpt>
      <trkpt lat="47.65055" lon="6.22963">
        <ele>321</ele>
        <time>2020-09-13T07:53:50Z</time>
      </trkpt>
      <trkpt lat="47.65053" lon="6.22956">
        <ele>321</ele>
        <time>2020-09-13T07:53:52Z</time>
      </trkpt>
      <trkpt lat="47.65052" lon="6.2295">
        <ele>321</ele>
        <time>2020-09-13T07:53:56Z</time>
      </trkpt>
      <trkpt lat="47.65049" lon="6.22943">
        <ele>321</ele>
        <time>2020-09-13T07:53:58Z</time>
      </trkpt>
      <trkpt lat="47.65045" lon="6.22933">
        <ele>322</ele>
        <time>2020-09-13T07:53:59Z</time>
      </trkpt>
      <trkpt lat="47.65042" lon="6.22925">
        <ele>322</ele>
        <time>2020-09-13T07:54:02Z</time>
      </trkpt>
      <trkpt lat="47.65039" lon="6.22917">
        <ele>322</ele>
        <time>2020-09-13T07:54:04Z</time>
      </trkpt>
      <trkpt lat="47.65037" lon="6.2291">
        <ele>323</ele>
        <time>2020-09-13T07:54:05Z</time>
      </trkpt>
      <trkpt lat="47.65035" lon="6.22901">
        <ele>324</ele>
        <time>2020-09-13T07:54:08Z</time>
      </trkpt>
      <trkpt lat="47.65032" lon="6.22895">
        <ele>324</ele>
        <time>2020-09-13T07:54:09Z</time>
      </trkpt>
      <trkpt lat="47.6503" lon="6.22888">
        <ele>324</ele>
        <time>2020-09-13T07:54:10Z</time>
      </trkpt>
      <trkpt lat="47.65028" lon="6.2288">
        <ele>324</ele>
        <time>2020-09-13T07:54:13Z</time>
      </trkpt>
      <trkpt lat="47.65026" lon="6.22874">
        <ele>324</ele>
        <time>2020-09-13T07:54:15Z</time>
      </trkpt>
      <trkpt lat="47.65024" lon="6.22866">
        <ele>324</ele>
        <time>2020-09-13T07:54:17Z</time>
      </trkpt>
      <trkpt lat="47.65023" lon="6.22857">
        <ele>324</ele>
        <time>2020-09-13T07:54:19Z</time>
      </trkpt>
      <trkpt lat="47.6502" lon="6.22851">
        <ele>324</ele>
        <time>2020-09-13T07:54:20Z</time>
      </trkpt>
      <trkpt lat="47.65018" lon="6.22844">
        <ele>324</ele>
        <time>2020-09-13T07:54:23Z</time>
      </trkpt>
      <trkpt lat="47.65016" lon="6.22837">
        <ele>323</ele>
        <time>2020-09-13T07:54:25Z</time>
      </trkpt>
      <trkpt lat="47.65014" lon="6.22829">
        <ele>324</ele>
        <time>2020-09-13T07:54:27Z</time>
      </trkpt>
      <trkpt lat="47.65012" lon="6.22822">
        <ele>324</ele>
        <time>2020-09-13T07:54:29Z</time>
      </trkpt>
      <trkpt lat="47.6501" lon="6.22815">
        <ele>324</ele>
        <time>2020-09-13T07:54:31Z</time>
      </trkpt>
      <trkpt lat="47.65008" lon="6.22807">
        <ele>324</ele>
        <time>2020-09-13T07:54:33Z</time>
      </trkpt>
      <trkpt lat="47.65005" lon="6.22802">
        <ele>324</ele>
        <time>2020-09-13T07:54:36Z</time>
      </trkpt>
      <trkpt lat="47.65004" lon="6.22795">
        <ele>324</ele>
        <time>2020-09-13T07:54:39Z</time>
      </trkpt>
      <trkpt lat="47.65004" lon="6.22803">
        <ele>324</ele>
        <time>2020-09-13T07:54:56Z</time>
      </trkpt>
      <trkpt lat="47.65006" lon="6.2281">
        <ele>324</ele>
        <time>2020-09-13T07:54:59Z</time>
      </trkpt>
      <trkpt lat="47.65008" lon="6.22817">
        <ele>324</ele>
        <time>2020-09-13T07:55:00Z</time>
      </trkpt>
      <trkpt lat="47.65009" lon="6.22825">
        <ele>324</ele>
        <time>2020-09-13T07:55:05Z</time>
      </trkpt>
      <trkpt lat="47.65012" lon="6.22836">
        <ele>323</ele>
        <time>2020-09-13T07:55:06Z</time>
      </trkpt>
      <trkpt lat="47.65014" lon="6.22843">
        <ele>323</ele>
        <time>2020-09-13T07:55:09Z</time>
      </trkpt>
      <trkpt lat="47.65017" lon="6.22853">
        <ele>324</ele>
        <time>2020-09-13T07:55:12Z</time>
      </trkpt>
      <trkpt lat="47.6502" lon="6.2286">
        <ele>324</ele>
        <time>2020-09-13T07:55:14Z</time>
      </trkpt>
      <trkpt lat="47.65022" lon="6.22868">
        <ele>324</ele>
        <time>2020-09-13T07:55:16Z</time>
      </trkpt>
      <trkpt lat="47.65025" lon="6.22875">
        <ele>324</ele>
        <time>2020-09-13T07:55:17Z</time>
      </trkpt>
      <trkpt lat="47.65026" lon="6.22881">
        <ele>324</ele>
        <time>2020-09-13T07:55:20Z</time>
      </trkpt>
      <trkpt lat="47.65028" lon="6.22888">
        <ele>324</ele>
        <time>2020-09-13T07:55:22Z</time>
      </trkpt>
      <trkpt lat="47.65031" lon="6.22897">
        <ele>324</ele>
        <time>2020-09-13T07:55:23Z</time>
      </trkpt>
      <trkpt lat="47.65033" lon="6.22905">
        <ele>323</ele>
        <time>2020-09-13T07:55:26Z</time>
      </trkpt>
      <trkpt lat="47.65035" lon="6.22913">
        <ele>323</ele>
        <time>2020-09-13T07:55:28Z</time>
      </trkpt>
      <trkpt lat="47.65039" lon="6.22926">
        <ele>322</ele>
        <time>2020-09-13T07:55:31Z</time>
      </trkpt>
      <trkpt lat="47.65042" lon="6.22934">
        <ele>322</ele>
        <time>2020-09-13T07:55:33Z</time>
      </trkpt>
      <trkpt lat="47.65044" lon="6.22942">
        <ele>321</ele>
        <time>2020-09-13T07:55:35Z</time>
      </trkpt>
      <trkpt lat="47.65047" lon="6.22953">
        <ele>321</ele>
        <time>2020-09-13T07:55:36Z</time>
      </trkpt>
      <trkpt lat="47.65049" lon="6.2296">
        <ele>321</ele>
        <time>2020-09-13T07:55:39Z</time>
      </trkpt>
      <trkpt lat="47.65053" lon="6.2297">
        <ele>321</ele>
        <time>2020-09-13T07:55:41Z</time>
      </trkpt>
      <trkpt lat="47.65057" lon="6.22979">
        <ele>320</ele>
        <time>2020-09-13T07:55:43Z</time>
      </trkpt>
      <trkpt lat="47.65062" lon="6.22989">
        <ele>320</ele>
        <time>2020-09-13T07:55:45Z</time>
      </trkpt>
      <trkpt lat="47.65066" lon="6.22999">
        <ele>319</ele>
        <time>2020-09-13T07:55:47Z</time>
      </trkpt>
      <trkpt lat="47.65076" lon="6.23014">
        <ele>317</ele>
        <time>2020-09-13T07:55:50Z</time>
      </trkpt>
      <trkpt lat="47.65079" lon="6.23019">
        <ele>317</ele>
        <time>2020-09-13T07:55:51Z</time>
      </trkpt>
      <trkpt lat="47.65088" lon="6.23031">
        <ele>317</ele>
        <time>2020-09-13T07:55:52Z</time>
      </trkpt>
      <trkpt lat="47.65091" lon="6.23035">
        <ele>316</ele>
        <time>2020-09-13T07:55:53Z</time>
      </trkpt>
      <trkpt lat="47.65098" lon="6.23044">
        <ele>316</ele>
        <time>2020-09-13T07:55:56Z</time>
      </trkpt>
      <trkpt lat="47.65112" lon="6.2306">
        <ele>316</ele>
        <time>2020-09-13T07:55:57Z</time>
      </trkpt>
      <trkpt lat="47.65116" lon="6.23064">
        <ele>316</ele>
        <time>2020-09-13T07:55:58Z</time>
      </trkpt>
      <trkpt lat="47.65121" lon="6.23068">
        <ele>316</ele>
        <time>2020-09-13T07:55:59Z</time>
      </trkpt>
      <trkpt lat="47.65125" lon="6.23072">
        <ele>316</ele>
        <time>2020-09-13T07:56:00Z</time>
      </trkpt>
      <trkpt lat="47.65129" lon="6.23075">
        <ele>316</ele>
        <time>2020-09-13T07:56:01Z</time>
      </trkpt>
      <trkpt lat="47.65136" lon="6.2308">
        <ele>316</ele>
        <time>2020-09-13T07:56:03Z</time>
      </trkpt>
      <trkpt lat="47.65142" lon="6.23083">
        <ele>316</ele>
        <time>2020-09-13T07:56:06Z</time>
      </trkpt>
      <trkpt lat="47.65143" lon="6.23092">
        <ele>314</ele>
        <time>2020-09-13T07:56:08Z</time>
      </trkpt>
      <trkpt lat="47.6515" lon="6.23097">
        <ele>315</ele>
        <time>2020-09-13T07:56:10Z</time>
      </trkpt>
      <trkpt lat="47.65155" lon="6.23099">
        <ele>315</ele>
        <time>2020-09-13T07:56:11Z</time>
      </trkpt>
      <trkpt lat="47.65161" lon="6.23102">
        <ele>315</ele>
        <time>2020-09-13T07:56:13Z</time>
      </trkpt>
      <trkpt lat="47.65168" lon="6.23106">
        <ele>317</ele>
        <time>2020-09-13T07:56:15Z</time>
      </trkpt>
      <trkpt lat="47.65173" lon="6.23111">
        <ele>317</ele>
        <time>2020-09-13T07:56:17Z</time>
      </trkpt>
      <trkpt lat="47.65179" lon="6.23114">
        <ele>317</ele>
        <time>2020-09-13T07:56:18Z</time>
      </trkpt>
      <trkpt lat="47.65186" lon="6.23119">
        <ele>317</ele>
        <time>2020-09-13T07:56:21Z</time>
      </trkpt>
      <trkpt lat="47.65191" lon="6.23122">
        <ele>317</ele>
        <time>2020-09-13T07:56:23Z</time>
      </trkpt>
      <trkpt lat="47.65198" lon="6.23125">
        <ele>317</ele>
        <time>2020-09-13T07:56:25Z</time>
      </trkpt>
      <trkpt lat="47.65205" lon="6.23128">
        <ele>318</ele>
        <time>2020-09-13T07:56:26Z</time>
      </trkpt>
      <trkpt lat="47.65209" lon="6.23131">
        <ele>318</ele>
        <time>2020-09-13T07:56:29Z</time>
      </trkpt>
      <trkpt lat="47.65214" lon="6.23133">
        <ele>318</ele>
        <time>2020-09-13T07:56:31Z</time>
      </trkpt>
      <trkpt lat="47.65219" lon="6.23135">
        <ele>318</ele>
        <time>2020-09-13T07:56:33Z</time>
      </trkpt>
      <trkpt lat="47.65225" lon="6.23137">
        <ele>318</ele>
        <time>2020-09-13T07:56:36Z</time>
      </trkpt>
      <trkpt lat="47.65231" lon="6.23138">
        <ele>318</ele>
        <time>2020-09-13T07:56:38Z</time>
      </trkpt>
      <trkpt lat="47.65237" lon="6.2314">
        <ele>318</ele>
        <time>2020-09-13T07:56:41Z</time>
      </trkpt>
      <trkpt lat="47.65244" lon="6.23143">
        <ele>318</ele>
        <time>2020-09-13T07:56:44Z</time>
      </trkpt>
      <trkpt lat="47.6525" lon="6.23145">
        <ele>321</ele>
        <time>2020-09-13T07:56:47Z</time>
      </trkpt>
      <trkpt lat="47.65255" lon="6.23147">
        <ele>321</ele>
        <time>2020-09-13T07:56:49Z</time>
      </trkpt>
      <trkpt lat="47.65259" lon="6.2315">
        <ele>321</ele>
        <time>2020-09-13T07:56:51Z</time>
      </trkpt>
      <trkpt lat="47.65264" lon="6.23152">
        <ele>321</ele>
        <time>2020-09-13T07:56:53Z</time>
      </trkpt>
      <trkpt lat="47.65269" lon="6.23155">
        <ele>321</ele>
        <time>2020-09-13T07:56:54Z</time>
      </trkpt>
      <trkpt lat="47.65275" lon="6.23159">
        <ele>321</ele>
        <time>2020-09-13T07:56:58Z</time>
      </trkpt>
      <trkpt lat="47.65279" lon="6.23162">
        <ele>322</ele>
        <time>2020-09-13T07:57:00Z</time>
      </trkpt>
      <trkpt lat="47.65284" lon="6.23166">
        <ele>322</ele>
        <time>2020-09-13T07:57:02Z</time>
      </trkpt>
      <trkpt lat="47.65288" lon="6.23169">
        <ele>319</ele>
        <time>2020-09-13T07:57:04Z</time>
      </trkpt>
      <trkpt lat="47.65294" lon="6.23174">
        <ele>319</ele>
        <time>2020-09-13T07:57:05Z</time>
      </trkpt>
      <trkpt lat="47.65298" lon="6.23178">
        <ele>319</ele>
        <time>2020-09-13T07:57:07Z</time>
      </trkpt>
      <trkpt lat="47.65303" lon="6.23184">
        <ele>319</ele>
        <time>2020-09-13T07:57:11Z</time>
      </trkpt>
      <trkpt lat="47.65308" lon="6.23191">
        <ele>319</ele>
        <time>2020-09-13T07:57:13Z</time>
      </trkpt>
      <trkpt lat="47.65312" lon="6.23196">
        <ele>319</ele>
        <time>2020-09-13T07:57:15Z</time>
      </trkpt>
      <trkpt lat="47.65318" lon="6.23205">
        <ele>319</ele>
        <time>2020-09-13T07:57:17Z</time>
      </trkpt>
      <trkpt lat="47.65322" lon="6.2321">
        <ele>319</ele>
        <time>2020-09-13T07:57:19Z</time>
      </trkpt>
      <trkpt lat="47.65327" lon="6.23217">
        <ele>319</ele>
        <time>2020-09-13T07:57:21Z</time>
      </trkpt>
      <trkpt lat="47.65331" lon="6.23222">
        <ele>319</ele>
        <time>2020-09-13T07:57:22Z</time>
      </trkpt>
      <trkpt lat="47.65335" lon="6.23226">
        <ele>322</ele>
        <time>2020-09-13T07:57:23Z</time>
      </trkpt>
      <trkpt lat="47.65339" lon="6.23232">
        <ele>322</ele>
        <time>2020-09-13T07:57:26Z</time>
      </trkpt>
      <trkpt lat="47.65343" lon="6.23239">
        <ele>321</ele>
        <time>2020-09-13T07:57:28Z</time>
      </trkpt>
      <trkpt lat="47.65346" lon="6.23243">
        <ele>321</ele>
        <time>2020-09-13T07:57:30Z</time>
      </trkpt>
      <trkpt lat="47.65352" lon="6.23249">
        <ele>321</ele>
        <time>2020-09-13T07:57:33Z</time>
      </trkpt>
      <trkpt lat="47.65357" lon="6.23252">
        <ele>322</ele>
        <time>2020-09-13T07:57:36Z</time>
      </trkpt>
      <trkpt lat="47.65364" lon="6.23255">
        <ele>322</ele>
        <time>2020-09-13T07:57:39Z</time>
      </trkpt>
      <trkpt lat="47.65371" lon="6.23259">
        <ele>323</ele>
        <time>2020-09-13T07:57:42Z</time>
      </trkpt>
      <trkpt lat="47.65375" lon="6.23261">
        <ele>323</ele>
        <time>2020-09-13T07:57:43Z</time>
      </trkpt>
      <trkpt lat="47.65381" lon="6.23264">
        <ele>323</ele>
        <time>2020-09-13T07:57:45Z</time>
      </trkpt>
      <trkpt lat="47.65387" lon="6.23267">
        <ele>323</ele>
        <time>2020-09-13T07:57:47Z</time>
      </trkpt>
      <trkpt lat="47.65393" lon="6.23271">
        <ele>323</ele>
        <time>2020-09-13T07:57:49Z</time>
      </trkpt>
      <trkpt lat="47.65398" lon="6.23273">
        <ele>323</ele>
        <time>2020-09-13T07:57:51Z</time>
      </trkpt>
      <trkpt lat="47.65402" lon="6.23274">
        <ele>324</ele>
        <time>2020-09-13T07:57:53Z</time>
      </trkpt>
      <trkpt lat="47.6541" lon="6.23276">
        <ele>324</ele>
        <time>2020-09-13T07:57:55Z</time>
      </trkpt>
      <trkpt lat="47.65416" lon="6.23276">
        <ele>324</ele>
        <time>2020-09-13T07:57:57Z</time>
      </trkpt>
      <trkpt lat="47.65421" lon="6.23276">
        <ele>324</ele>
        <time>2020-09-13T07:57:59Z</time>
      </trkpt>
      <trkpt lat="47.65428" lon="6.23275">
        <ele>324</ele>
        <time>2020-09-13T07:58:02Z</time>
      </trkpt>
      <trkpt lat="47.65435" lon="6.23275">
        <ele>325</ele>
        <time>2020-09-13T07:58:04Z</time>
      </trkpt>
      <trkpt lat="47.65442" lon="6.23275">
        <ele>325</ele>
        <time>2020-09-13T07:58:05Z</time>
      </trkpt>
      <trkpt lat="47.65449" lon="6.23275">
        <ele>325</ele>
        <time>2020-09-13T07:58:07Z</time>
      </trkpt>
      <trkpt lat="47.65461" lon="6.23271">
        <ele>325</ele>
        <time>2020-09-13T07:58:10Z</time>
      </trkpt>
      <trkpt lat="47.65468" lon="6.23269">
        <ele>325</ele>
        <time>2020-09-13T07:58:11Z</time>
      </trkpt>
      <trkpt lat="47.65473" lon="6.23268">
        <ele>324</ele>
        <time>2020-09-13T07:58:12Z</time>
      </trkpt>
      <trkpt lat="47.65489" lon="6.23265">
        <ele>324</ele>
        <time>2020-09-13T07:58:15Z</time>
      </trkpt>
      <trkpt lat="47.65493" lon="6.23263">
        <ele>324</ele>
        <time>2020-09-13T07:58:16Z</time>
      </trkpt>
      <trkpt lat="47.65505" lon="6.23247">
        <ele>322</ele>
        <time>2020-09-13T07:58:19Z</time>
      </trkpt>
      <trkpt lat="47.65507" lon="6.23236">
        <ele>321</ele>
        <time>2020-09-13T07:58:21Z</time>
      </trkpt>
      <trkpt lat="47.65505" lon="6.23218">
        <ele>321</ele>
        <time>2020-09-13T07:58:23Z</time>
      </trkpt>
      <trkpt lat="47.65504" lon="6.23209">
        <ele>321</ele>
        <time>2020-09-13T07:58:25Z</time>
      </trkpt>
      <trkpt lat="47.65503" lon="6.23202">
        <ele>321</ele>
        <time>2020-09-13T07:58:28Z</time>
      </trkpt>
      <trkpt lat="47.65501" lon="6.23196">
        <ele>321</ele>
        <time>2020-09-13T07:58:30Z</time>
      </trkpt>
      <trkpt lat="47.65501" lon="6.23189">
        <ele>322</ele>
        <time>2020-09-13T07:58:32Z</time>
      </trkpt>
      <trkpt lat="47.65502" lon="6.2318">
        <ele>323</ele>
        <time>2020-09-13T07:58:33Z</time>
      </trkpt>
      <trkpt lat="47.65502" lon="6.23171">
        <ele>324</ele>
        <time>2020-09-13T07:58:38Z</time>
      </trkpt>
      <trkpt lat="47.65501" lon="6.23163">
        <ele>324</ele>
        <time>2020-09-13T07:58:39Z</time>
      </trkpt>
      <trkpt lat="47.65501" lon="6.23153">
        <ele>324</ele>
        <time>2020-09-13T07:58:42Z</time>
      </trkpt>
      <trkpt lat="47.65501" lon="6.23146">
        <ele>323</ele>
        <time>2020-09-13T07:58:45Z</time>
      </trkpt>
      <trkpt lat="47.65501" lon="6.23139">
        <ele>323</ele>
        <time>2020-09-13T07:58:48Z</time>
      </trkpt>
      <trkpt lat="47.65502" lon="6.23132">
        <ele>323</ele>
        <time>2020-09-13T07:58:51Z</time>
      </trkpt>
      <trkpt lat="47.65504" lon="6.23123">
        <ele>323</ele>
        <time>2020-09-13T07:58:55Z</time>
      </trkpt>
      <trkpt lat="47.65505" lon="6.23115">
        <ele>324</ele>
        <time>2020-09-13T07:58:59Z</time>
      </trkpt>
      <trkpt lat="47.65507" lon="6.23108">
        <ele>324</ele>
        <time>2020-09-13T07:59:05Z</time>
      </trkpt>
      <trkpt lat="47.65508" lon="6.23101">
        <ele>325</ele>
        <time>2020-09-13T07:59:06Z</time>
      </trkpt>
      <trkpt lat="47.65509" lon="6.23093">
        <ele>326</ele>
        <time>2020-09-13T07:59:09Z</time>
      </trkpt>
      <trkpt lat="47.6551" lon="6.23084">
        <ele>326</ele>
        <time>2020-09-13T07:59:14Z</time>
      </trkpt>
      <trkpt lat="47.6551" lon="6.23077">
        <ele>327</ele>
        <time>2020-09-13T07:59:14Z</time>
      </trkpt>
      <trkpt lat="47.65511" lon="6.2307">
        <ele>327</ele>
        <time>2020-09-13T07:59:18Z</time>
      </trkpt>
      <trkpt lat="47.65512" lon="6.23063">
        <ele>327</ele>
        <time>2020-09-13T07:59:20Z</time>
      </trkpt>
      <trkpt lat="47.65512" lon="6.23053">
        <ele>327</ele>
        <time>2020-09-13T07:59:20Z</time>
      </trkpt>
      <trkpt lat="47.65513" lon="6.23046">
        <ele>327</ele>
        <time>2020-09-13T07:59:22Z</time>
      </trkpt>
      <trkpt lat="47.65513" lon="6.23037">
        <ele>327</ele>
        <time>2020-09-13T07:59:24Z</time>
      </trkpt>
      <trkpt lat="47.65514" lon="6.23029">
        <ele>327</ele>
        <time>2020-09-13T07:59:26Z</time>
      </trkpt>
      <trkpt lat="47.65515" lon="6.23022">
        <ele>327</ele>
        <time>2020-09-13T07:59:30Z</time>
      </trkpt>
      <trkpt lat="47.65514" lon="6.23013">
        <ele>328</ele>
        <time>2020-09-13T07:59:30Z</time>
      </trkpt>
      <trkpt lat="47.65513" lon="6.23004">
        <ele>328</ele>
        <time>2020-09-13T07:59:34Z</time>
      </trkpt>
      <trkpt lat="47.65513" lon="6.22997">
        <ele>329</ele>
        <time>2020-09-13T07:59:36Z</time>
      </trkpt>
      <trkpt lat="47.65511" lon="6.2299">
        <ele>329</ele>
        <time>2020-09-13T07:59:38Z</time>
      </trkpt>
      <trkpt lat="47.6551" lon="6.22981">
        <ele>329</ele>
        <time>2020-09-13T07:59:40Z</time>
      </trkpt>
      <trkpt lat="47.65507" lon="6.22972">
        <ele>329</ele>
        <time>2020-09-13T07:59:42Z</time>
      </trkpt>
      <trkpt lat="47.65504" lon="6.22963">
        <ele>328</ele>
        <time>2020-09-13T07:59:42Z</time>
      </trkpt>
      <trkpt lat="47.65503" lon="6.22956">
        <ele>328</ele>
        <time>2020-09-13T07:59:46Z</time>
      </trkpt>
      <trkpt lat="47.655" lon="6.22947">
        <ele>328</ele>
        <time>2020-09-13T07:59:48Z</time>
      </trkpt>
      <trkpt lat="47.65498" lon="6.22938">
        <ele>330</ele>
        <time>2020-09-13T07:59:48Z</time>
      </trkpt>
      <trkpt lat="47.65497" lon="6.22931">
        <ele>330</ele>
        <time>2020-09-13T07:59:51Z</time>
      </trkpt>
      <trkpt lat="47.65495" lon="6.22921">
        <ele>329</ele>
        <time>2020-09-13T07:59:53Z</time>
      </trkpt>
      <trkpt lat="47.65494" lon="6.22913">
        <ele>329</ele>
        <time>2020-09-13T07:59:53Z</time>
      </trkpt>
      <trkpt lat="47.65493" lon="6.22905">
        <ele>330</ele>
        <time>2020-09-13T07:59:57Z</time>
      </trkpt>
      <trkpt lat="47.65493" lon="6.22896">
        <ele>330</ele>
        <time>2020-09-13T07:59:57Z</time>
      </trkpt>
      <trkpt lat="47.65491" lon="6.22888">
        <ele>330</ele>
        <time>2020-09-13T08:00:01Z</time>
      </trkpt>
      <trkpt lat="47.6549" lon="6.22879">
        <ele>330</ele>
        <time>2020-09-13T08:00:01Z</time>
      </trkpt>
      <trkpt lat="47.6549" lon="6.22871">
        <ele>330</ele>
        <time>2020-09-13T08:00:03Z</time>
      </trkpt>
      <trkpt lat="47.6549" lon="6.22861">
        <ele>331</ele>
        <time>2020-09-13T08:00:05Z</time>
      </trkpt>
      <trkpt lat="47.6549" lon="6.22852">
        <ele>331</ele>
        <time>2020-09-13T08:00:07Z</time>
      </trkpt>
      <trkpt lat="47.65489" lon="6.22846">
        <ele>331</ele>
        <time>2020-09-13T08:00:11Z</time>
      </trkpt>
      <trkpt lat="47.65487" lon="6.22837">
        <ele>331</ele>
        <time>2020-09-13T08:00:13Z</time>
      </trkpt>
      <trkpt lat="47.65485" lon="6.22831">
        <ele>331</ele>
        <time>2020-09-13T08:00:15Z</time>
      </trkpt>
      <trkpt lat="47.65483" lon="6.22823">
        <ele>331</ele>
        <time>2020-09-13T08:00:18Z</time>
      </trkpt>
      <trkpt lat="47.6548" lon="6.22816">
        <ele>331</ele>
        <time>2020-09-13T08:00:18Z</time>
      </trkpt>
      <trkpt lat="47.65476" lon="6.22807">
        <ele>332</ele>
        <time>2020-09-13T08:00:23Z</time>
      </trkpt>
      <trkpt lat="47.65474" lon="6.22799">
        <ele>332</ele>
        <time>2020-09-13T08:00:25Z</time>
      </trkpt>
      <trkpt lat="47.65471" lon="6.22792">
        <ele>332</ele>
        <time>2020-09-13T08:00:27Z</time>
      </trkpt>
      <trkpt lat="47.65469" lon="6.22785">
        <ele>332</ele>
        <time>2020-09-13T08:00:29Z</time>
      </trkpt>
      <trkpt lat="47.65465" lon="6.22777">
        <ele>332</ele>
        <time>2020-09-13T08:00:31Z</time>
      </trkpt>
      <trkpt lat="47.65463" lon="6.22771">
        <ele>332</ele>
        <time>2020-09-13T08:00:32Z</time>
      </trkpt>
      <trkpt lat="47.6546" lon="6.22765">
        <ele>332</ele>
        <time>2020-09-13T08:00:32Z</time>
      </trkpt>
      <trkpt lat="47.65456" lon="6.22759">
        <ele>332</ele>
        <time>2020-09-13T08:00:34Z</time>
      </trkpt>
      <trkpt lat="47.65453" lon="6.22754">
        <ele>332</ele>
        <time>2020-09-13T08:00:38Z</time>
      </trkpt>
      <trkpt lat="47.6545" lon="6.22748">
        <ele>332</ele>
        <time>2020-09-13T08:00:40Z</time>
      </trkpt>
      <trkpt lat="47.65446" lon="6.22741">
        <ele>332</ele>
        <time>2020-09-13T08:00:42Z</time>
      </trkpt>
      <trkpt lat="47.65442" lon="6.22735">
        <ele>332</ele>
        <time>2020-09-13T08:00:44Z</time>
      </trkpt>
      <trkpt lat="47.65438" lon="6.22727">
        <ele>332</ele>
        <time>2020-09-13T08:00:46Z</time>
      </trkpt>
      <trkpt lat="47.65434" lon="6.22722">
        <ele>332</ele>
        <time>2020-09-13T08:00:48Z</time>
      </trkpt>
      <trkpt lat="47.6543" lon="6.22714">
        <ele>332</ele>
        <time>2020-09-13T08:00:50Z</time>
      </trkpt>
      <trkpt lat="47.65427" lon="6.22708">
        <ele>332</ele>
        <time>2020-09-13T08:00:52Z</time>
      </trkpt>
      <trkpt lat="47.65424" lon="6.22701">
        <ele>332</ele>
        <time>2020-09-13T08:00:54Z</time>
      </trkpt>
      <trkpt lat="47.65421" lon="6.22694">
        <ele>332</ele>
        <time>2020-09-13T08:00:56Z</time>
      </trkpt>
      <trkpt lat="47.65418" lon="6.22686">
        <ele>332</ele>
        <time>2020-09-13T08:00:58Z</time>
      </trkpt>
      <trkpt lat="47.65415" lon="6.22679">
        <ele>332</ele>
        <time>2020-09-13T08:00:59Z</time>
      </trkpt>
      <trkpt lat="47.65412" lon="6.22673">
        <ele>332</ele>
        <time>2020-09-13T08:00:59Z</time>
      </trkpt>
      <trkpt lat="47.6541" lon="6.22666">
        <ele>332</ele>
        <time>2020-09-13T08:01:03Z</time>
      </trkpt>
      <trkpt lat="47.65407" lon="6.22659">
        <ele>332</ele>
        <time>2020-09-13T08:01:05Z</time>
      </trkpt>
      <trkpt lat="47.65405" lon="6.22652">
        <ele>332</ele>
        <time>2020-09-13T08:01:07Z</time>
      </trkpt>
      <trkpt lat="47.65402" lon="6.22645">
        <ele>332</ele>
        <time>2020-09-13T08:01:09Z</time>
      </trkpt>
      <trkpt lat="47.65399" lon="6.22637">
        <ele>332</ele>
        <time>2020-09-13T08:01:11Z</time>
      </trkpt>
      <trkpt lat="47.65396" lon="6.2263">
        <ele>332</ele>
        <time>2020-09-13T08:01:13Z</time>
      </trkpt>
      <trkpt lat="47.65393" lon="6.22622">
        <ele>332</ele>
        <time>2020-09-13T08:01:13Z</time>
      </trkpt>
      <trkpt lat="47.6539" lon="6.22615">
        <ele>332</ele>
        <time>2020-09-13T08:01:15Z</time>
      </trkpt>
      <trkpt lat="47.65387" lon="6.22609">
        <ele>332</ele>
        <time>2020-09-13T08:01:19Z</time>
      </trkpt>
      <trkpt lat="47.65384" lon="6.226">
        <ele>332</ele>
        <time>2020-09-13T08:01:21Z</time>
      </trkpt>
      <trkpt lat="47.6538" lon="6.22592">
        <ele>332</ele>
        <time>2020-09-13T08:01:23Z</time>
      </trkpt>
      <trkpt lat="47.65376" lon="6.22584">
        <ele>332</ele>
        <time>2020-09-13T08:01:25Z</time>
      </trkpt>
      <trkpt lat="47.65373" lon="6.22578">
        <ele>332</ele>
        <time>2020-09-13T08:01:27Z</time>
      </trkpt>
      <trkpt lat="47.65369" lon="6.22569">
        <ele>332</ele>
        <time>2020-09-13T08:01:29Z</time>
      </trkpt>
      <trkpt lat="47.65365" lon="6.22562">
        <ele>332</ele>
        <time>2020-09-13T08:01:31Z</time>
      </trkpt>
      <trkpt lat="47.6536" lon="6.22555">
        <ele>332</ele>
        <time>2020-09-13T08:01:33Z</time>
      </trkpt>
      <trkpt lat="47.65356" lon="6.22548">
        <ele>332</ele>
        <time>2020-09-13T08:01:35Z</time>
      </trkpt>
      <trkpt lat="47.65352" lon="6.2254">
        <ele>332</ele>
        <time>2020-09-13T08:01:37Z</time>
      </trkpt>
      <trkpt lat="47.65349" lon="6.22533">
        <ele>332</ele>
        <time>2020-09-13T08:01:39Z</time>
      </trkpt>
      <trkpt lat="47.65345" lon="6.22525">
        <ele>332</ele>
        <time>2020-09-13T08:01:41Z</time>
      </trkpt>
      <trkpt lat="47.65341" lon="6.22518">
        <ele>333</ele>
        <time>2020-09-13T08:01:43Z</time>
      </trkpt>
      <trkpt lat="47.65336" lon="6.22509">
        <ele>333</ele>
        <time>2020-09-13T08:01:45Z</time>
      </trkpt>
      <trkpt lat="47.65333" lon="6.22504">
        <ele>334</ele>
        <time>2020-09-13T08:01:47Z</time>
      </trkpt>
      <trkpt lat="47.6533" lon="6.22497">
        <ele>333</ele>
        <time>2020-09-13T08:01:48Z</time>
      </trkpt>
      <trkpt lat="47.65327" lon="6.22492">
        <ele>334</ele>
        <time>2020-09-13T08:01:48Z</time>
      </trkpt>
      <trkpt lat="47.65324" lon="6.22485">
        <ele>334</ele>
        <time>2020-09-13T08:01:52Z</time>
      </trkpt>
      <trkpt lat="47.65321" lon="6.22477">
        <ele>335</ele>
        <time>2020-09-13T08:01:54Z</time>
      </trkpt>
      <trkpt lat="47.65317" lon="6.2247">
        <ele>335</ele>
        <time>2020-09-13T08:01:56Z</time>
      </trkpt>
      <trkpt lat="47.65314" lon="6.22462">
        <ele>335</ele>
        <time>2020-09-13T08:01:58Z</time>
      </trkpt>
      <trkpt lat="47.6531" lon="6.22455">
        <ele>335</ele>
        <time>2020-09-13T08:01:59Z</time>
      </trkpt>
      <trkpt lat="47.65307" lon="6.22448">
        <ele>335</ele>
        <time>2020-09-13T08:01:59Z</time>
      </trkpt>
      <trkpt lat="47.65305" lon="6.22442">
        <ele>335</ele>
        <time>2020-09-13T08:02:03Z</time>
      </trkpt>
      <trkpt lat="47.65301" lon="6.22434">
        <ele>335</ele>
        <time>2020-09-13T08:02:05Z</time>
      </trkpt>
      <trkpt lat="47.65298" lon="6.22428">
        <ele>335</ele>
        <time>2020-09-13T08:02:06Z</time>
      </trkpt>
      <trkpt lat="47.65293" lon="6.22418">
        <ele>335</ele>
        <time>2020-09-13T08:02:09Z</time>
      </trkpt>
      <trkpt lat="47.6529" lon="6.22411">
        <ele>333</ele>
        <time>2020-09-13T08:02:11Z</time>
      </trkpt>
      <trkpt lat="47.65286" lon="6.22404">
        <ele>334</ele>
        <time>2020-09-13T08:02:13Z</time>
      </trkpt>
      <trkpt lat="47.65282" lon="6.22396">
        <ele>334</ele>
        <time>2020-09-13T08:02:15Z</time>
      </trkpt>
      <trkpt lat="47.65277" lon="6.22388">
        <ele>334</ele>
        <time>2020-09-13T08:02:17Z</time>
      </trkpt>
      <trkpt lat="47.65273" lon="6.22381">
        <ele>334</ele>
        <time>2020-09-13T08:02:18Z</time>
      </trkpt>
      <trkpt lat="47.6527" lon="6.22374">
        <ele>333</ele>
        <time>2020-09-13T08:02:18Z</time>
      </trkpt>
      <trkpt lat="47.65265" lon="6.22365">
        <ele>333</ele>
        <time>2020-09-13T08:02:20Z</time>
      </trkpt>
      <trkpt lat="47.65261" lon="6.22359">
        <ele>333</ele>
        <time>2020-09-13T08:02:24Z</time>
      </trkpt>
      <trkpt lat="47.65257" lon="6.22353">
        <ele>333</ele>
        <time>2020-09-13T08:02:25Z</time>
      </trkpt>
      <trkpt lat="47.65254" lon="6.22347">
        <ele>333</ele>
        <time>2020-09-13T08:02:27Z</time>
      </trkpt>
      <trkpt lat="47.65249" lon="6.2234">
        <ele>335</ele>
        <time>2020-09-13T08:02:29Z</time>
      </trkpt>
      <trkpt lat="47.65244" lon="6.2233">
        <ele>334</ele>
        <time>2020-09-13T08:02:31Z</time>
      </trkpt>
      <trkpt lat="47.6524" lon="6.22325">
        <ele>333</ele>
        <time>2020-09-13T08:02:33Z</time>
      </trkpt>
      <trkpt lat="47.65236" lon="6.22319">
        <ele>333</ele>
        <time>2020-09-13T08:02:35Z</time>
      </trkpt>
      <trkpt lat="47.65233" lon="6.22313">
        <ele>333</ele>
        <time>2020-09-13T08:02:36Z</time>
      </trkpt>
      <trkpt lat="47.65229" lon="6.22308">
        <ele>333</ele>
        <time>2020-09-13T08:02:39Z</time>
      </trkpt>
      <trkpt lat="47.65225" lon="6.22304">
        <ele>333</ele>
        <time>2020-09-13T08:02:41Z</time>
      </trkpt>
      <trkpt lat="47.65221" lon="6.22299">
        <ele>333</ele>
        <time>2020-09-13T08:02:45Z</time>
      </trkpt>
      <trkpt lat="47.65218" lon="6.22293">
        <ele>332</ele>
        <time>2020-09-13T08:02:45Z</time>
      </trkpt>
      <trkpt lat="47.65212" lon="6.22286">
        <ele>332</ele>
        <time>2020-09-13T08:02:50Z</time>
      </trkpt>
      <trkpt lat="47.65207" lon="6.22277">
        <ele>332</ele>
        <time>2020-09-13T08:02:50Z</time>
      </trkpt>
      <trkpt lat="47.65202" lon="6.22271">
        <ele>332</ele>
        <time>2020-09-13T08:02:54Z</time>
      </trkpt>
      <trkpt lat="47.65197" lon="6.22262">
        <ele>332</ele>
        <time>2020-09-13T08:02:56Z</time>
      </trkpt>
      <trkpt lat="47.6519" lon="6.22251">
        <ele>332</ele>
        <time>2020-09-13T08:02:59Z</time>
      </trkpt>
      <trkpt lat="47.65187" lon="6.22245">
        <ele>330</ele>
        <time>2020-09-13T08:03:01Z</time>
      </trkpt>
      <trkpt lat="47.65184" lon="6.2224">
        <ele>330</ele>
        <time>2020-09-13T08:03:03Z</time>
      </trkpt>
      <trkpt lat="47.65181" lon="6.22235">
        <ele>330</ele>
        <time>2020-09-13T08:03:03Z</time>
      </trkpt>
      <trkpt lat="47.65178" lon="6.22229">
        <ele>330</ele>
        <time>2020-09-13T08:03:07Z</time>
      </trkpt>
      <trkpt lat="47.65174" lon="6.22221">
        <ele>330</ele>
        <time>2020-09-13T08:03:10Z</time>
      </trkpt>
      <trkpt lat="47.65169" lon="6.22213">
        <ele>330</ele>
        <time>2020-09-13T08:03:13Z</time>
      </trkpt>
      <trkpt lat="47.65166" lon="6.22206">
        <ele>328</ele>
        <time>2020-09-13T08:03:15Z</time>
      </trkpt>
      <trkpt lat="47.65162" lon="6.22199">
        <ele>327</ele>
        <time>2020-09-13T08:03:16Z</time>
      </trkpt>
      <trkpt lat="47.65158" lon="6.22192">
        <ele>327</ele>
        <time>2020-09-13T08:03:19Z</time>
      </trkpt>
      <trkpt lat="47.65155" lon="6.22187">
        <ele>327</ele>
        <time>2020-09-13T08:03:25Z</time>
      </trkpt>
      <trkpt lat="47.6515" lon="6.22182">
        <ele>327</ele>
        <time>2020-09-13T08:03:28Z</time>
      </trkpt>
      <trkpt lat="47.65147" lon="6.22177">
        <ele>327</ele>
        <time>2020-09-13T08:03:30Z</time>
      </trkpt>
      <trkpt lat="47.65142" lon="6.22169">
        <ele>327</ele>
        <time>2020-09-13T08:03:32Z</time>
      </trkpt>
      <trkpt lat="47.65138" lon="6.22163">
        <ele>326</ele>
        <time>2020-09-13T08:03:33Z</time>
      </trkpt>
      <trkpt lat="47.65131" lon="6.22154">
        <ele>325</ele>
        <time>2020-09-13T08:03:35Z</time>
      </trkpt>
      <trkpt lat="47.65128" lon="6.22149">
        <ele>325</ele>
        <time>2020-09-13T08:03:36Z</time>
      </trkpt>
      <trkpt lat="47.65124" lon="6.22143">
        <ele>325</ele>
        <time>2020-09-13T08:03:37Z</time>
      </trkpt>
      <trkpt lat="47.6512" lon="6.22136">
        <ele>325</ele>
        <time>2020-09-13T08:03:38Z</time>
      </trkpt>
      <trkpt lat="47.65117" lon="6.2213">
        <ele>325</ele>
        <time>2020-09-13T08:03:39Z</time>
      </trkpt>
      <trkpt lat="47.65112" lon="6.22122">
        <ele>325</ele>
        <time>2020-09-13T08:03:40Z</time>
      </trkpt>
      <trkpt lat="47.65108" lon="6.22114">
        <ele>325</ele>
        <time>2020-09-13T08:03:41Z</time>
      </trkpt>
      <trkpt lat="47.65095" lon="6.22092">
        <ele>324</ele>
        <time>2020-09-13T08:03:41Z</time>
      </trkpt>
      <trkpt lat="47.65091" lon="6.22085">
        <ele>323</ele>
        <time>2020-09-13T08:03:42Z</time>
      </trkpt>
      <trkpt lat="47.65088" lon="6.22078">
        <ele>324</ele>
        <time>2020-09-13T08:03:43Z</time>
      </trkpt>
      <trkpt lat="47.65084" lon="6.22071">
        <ele>325</ele>
        <time>2020-09-13T08:03:44Z</time>
      </trkpt>
      <trkpt lat="47.65081" lon="6.22065">
        <ele>321</ele>
        <time>2020-09-13T08:03:45Z</time>
      </trkpt>
      <trkpt lat="47.65079" lon="6.22058">
        <ele>321</ele>
        <time>2020-09-13T08:03:46Z</time>
      </trkpt>
      <trkpt lat="47.65076" lon="6.22052">
        <ele>321</ele>
        <time>2020-09-13T08:03:47Z</time>
      </trkpt>
      <trkpt lat="47.65074" lon="6.22045">
        <ele>321</ele>
        <time>2020-09-13T08:03:48Z</time>
      </trkpt>
      <trkpt lat="47.65072" lon="6.22039">
        <ele>322</ele>
        <time>2020-09-13T08:03:49Z</time>
      </trkpt>
      <trkpt lat="47.65068" lon="6.22028">
        <ele>322</ele>
        <time>2020-09-13T08:03:51Z</time>
      </trkpt>
      <trkpt lat="47.65065" lon="6.22017">
        <ele>323</ele>
        <time>2020-09-13T08:03:53Z</time>
      </trkpt>
      <trkpt lat="47.65061" lon="6.22009">
        <ele>323</ele>
        <time>2020-09-13T08:03:55Z</time>
      </trkpt>
      <trkpt lat="47.65059" lon="6.22002">
        <ele>323</ele>
        <time>2020-09-13T08:03:57Z</time>
      </trkpt>
      <trkpt lat="47.65055" lon="6.21995">
        <ele>326</ele>
        <time>2020-09-13T08:03:59Z</time>
      </trkpt>
      <trkpt lat="47.65051" lon="6.21988">
        <ele>325</ele>
        <time>2020-09-13T08:04:01Z</time>
      </trkpt>
      <trkpt lat="47.65055" lon="6.21976">
        <ele>326</ele>
        <time>2020-09-13T08:04:06Z</time>
      </trkpt>
      <trkpt lat="47.65043" lon="6.21968">
        <ele>325</ele>
        <time>2020-09-13T08:04:08Z</time>
      </trkpt>
      <trkpt lat="47.65039" lon="6.21962">
        <ele>325</ele>
        <time>2020-09-13T08:04:08Z</time>
      </trkpt>
      <trkpt lat="47.65034" lon="6.21953">
        <ele>325</ele>
        <time>2020-09-13T08:04:12Z</time>
      </trkpt>
      <trkpt lat="47.65029" lon="6.21942">
        <ele>325</ele>
        <time>2020-09-13T08:04:14Z</time>
      </trkpt>
      <trkpt lat="47.65022" lon="6.21929">
        <ele>324</ele>
        <time>2020-09-13T08:04:14Z</time>
      </trkpt>
      <trkpt lat="47.65018" lon="6.21921">
        <ele>324</ele>
        <time>2020-09-13T08:04:18Z</time>
      </trkpt>
      <trkpt lat="47.6501" lon="6.21905">
        <ele>326</ele>
        <time>2020-09-13T08:04:21Z</time>
      </trkpt>
      <trkpt lat="47.65001" lon="6.21891">
        <ele>328</ele>
        <time>2020-09-13T08:04:24Z</time>
      </trkpt>
      <trkpt lat="47.64993" lon="6.21878">
        <ele>324</ele>
        <time>2020-09-13T08:04:27Z</time>
      </trkpt>
      <trkpt lat="47.64991" lon="6.21872">
        <ele>324</ele>
        <time>2020-09-13T08:04:28Z</time>
      </trkpt>
      <trkpt lat="47.64988" lon="6.21867">
        <ele>324</ele>
        <time>2020-09-13T08:04:29Z</time>
      </trkpt>
      <trkpt lat="47.64983" lon="6.21859">
        <ele>325</ele>
        <time>2020-09-13T08:04:31Z</time>
      </trkpt>
      <trkpt lat="47.64979" lon="6.21852">
        <ele>325</ele>
        <time>2020-09-13T08:04:33Z</time>
      </trkpt>
      <trkpt lat="47.64974" lon="6.21845">
        <ele>325</ele>
        <time>2020-09-13T08:04:35Z</time>
      </trkpt>
      <trkpt lat="47.64971" lon="6.21836">
        <ele>325</ele>
        <time>2020-09-13T08:04:35Z</time>
      </trkpt>
      <trkpt lat="47.64967" lon="6.21829">
        <ele>329</ele>
        <time>2020-09-13T08:04:37Z</time>
      </trkpt>
      <trkpt lat="47.64965" lon="6.21823">
        <ele>329</ele>
        <time>2020-09-13T08:04:39Z</time>
      </trkpt>
      <trkpt lat="47.64963" lon="6.21816">
        <ele>329</ele>
        <time>2020-09-13T08:04:43Z</time>
      </trkpt>
      <trkpt lat="47.6496" lon="6.21807">
        <ele>329</ele>
        <time>2020-09-13T08:04:46Z</time>
      </trkpt>
      <trkpt lat="47.64959" lon="6.218">
        <ele>329</ele>
        <time>2020-09-13T08:04:48Z</time>
      </trkpt>
      <trkpt lat="47.64959" lon="6.21791">
        <ele>329</ele>
        <time>2020-09-13T08:04:51Z</time>
      </trkpt>
      <trkpt lat="47.6496" lon="6.21783">
        <ele>329</ele>
        <time>2020-09-13T08:04:54Z</time>
      </trkpt>
      <trkpt lat="47.64959" lon="6.21776">
        <ele>329</ele>
        <time>2020-09-13T08:04:57Z</time>
      </trkpt>
      <trkpt lat="47.64959" lon="6.21769">
        <ele>330</ele>
        <time>2020-09-13T08:05:00Z</time>
      </trkpt>
      <trkpt lat="47.64958" lon="6.21759">
        <ele>330</ele>
        <time>2020-09-13T08:05:04Z</time>
      </trkpt>
      <trkpt lat="47.64956" lon="6.2175">
        <ele>330</ele>
        <time>2020-09-13T08:05:07Z</time>
      </trkpt>
      <trkpt lat="47.64955" lon="6.21741">
        <ele>332</ele>
        <time>2020-09-13T08:05:10Z</time>
      </trkpt>
      <trkpt lat="47.64953" lon="6.21733">
        <ele>332</ele>
        <time>2020-09-13T08:05:10Z</time>
      </trkpt>
      <trkpt lat="47.64951" lon="6.21726">
        <ele>333</ele>
        <time>2020-09-13T08:05:12Z</time>
      </trkpt>
      <trkpt lat="47.64951" lon="6.21719">
        <ele>333</ele>
        <time>2020-09-13T08:05:16Z</time>
      </trkpt>
      <trkpt lat="47.6495" lon="6.21712">
        <ele>333</ele>
        <time>2020-09-13T08:05:18Z</time>
      </trkpt>
      <trkpt lat="47.6495" lon="6.21704">
        <ele>333</ele>
        <time>2020-09-13T08:05:20Z</time>
      </trkpt>
      <trkpt lat="47.64949" lon="6.21697">
        <ele>333</ele>
        <time>2020-09-13T08:05:22Z</time>
      </trkpt>
      <trkpt lat="47.64948" lon="6.2169">
        <ele>333</ele>
        <time>2020-09-13T08:05:22Z</time>
      </trkpt>
      <trkpt lat="47.64948" lon="6.21681">
        <ele>333</ele>
        <time>2020-09-13T08:05:26Z</time>
      </trkpt>
      <trkpt lat="47.64946" lon="6.21672">
        <ele>333</ele>
        <time>2020-09-13T08:05:26Z</time>
      </trkpt>
      <trkpt lat="47.64944" lon="6.21663">
        <ele>334</ele>
        <time>2020-09-13T08:05:30Z</time>
      </trkpt>
      <trkpt lat="47.64942" lon="6.21656">
        <ele>334</ele>
        <time>2020-09-13T08:05:31Z</time>
      </trkpt>
      <trkpt lat="47.64941" lon="6.21649">
        <ele>334</ele>
        <time>2020-09-13T08:05:32Z</time>
      </trkpt>
      <trkpt lat="47.64937" lon="6.21629">
        <ele>334</ele>
        <time>2020-09-13T08:05:33Z</time>
      </trkpt>
      <trkpt lat="47.64935" lon="6.2162">
        <ele>334</ele>
        <time>2020-09-13T08:05:37Z</time>
      </trkpt>
      <trkpt lat="47.64931" lon="6.21605">
        <ele>334</ele>
        <time>2020-09-13T08:05:40Z</time>
      </trkpt>
      <trkpt lat="47.64929" lon="6.21598">
        <ele>334</ele>
        <time>2020-09-13T08:05:41Z</time>
      </trkpt>
      <trkpt lat="47.64927" lon="6.21591">
        <ele>334</ele>
        <time>2020-09-13T08:05:42Z</time>
      </trkpt>
      <trkpt lat="47.64925" lon="6.21584">
        <ele>334</ele>
        <time>2020-09-13T08:05:44Z</time>
      </trkpt>
      <trkpt lat="47.64923" lon="6.21576">
        <ele>333</ele>
        <time>2020-09-13T08:05:46Z</time>
      </trkpt>
      <trkpt lat="47.6492" lon="6.21566">
        <ele>333</ele>
        <time>2020-09-13T08:05:48Z</time>
      </trkpt>
      <trkpt lat="47.64917" lon="6.21556">
        <ele>333</ele>
        <time>2020-09-13T08:05:50Z</time>
      </trkpt>
      <trkpt lat="47.64912" lon="6.2154">
        <ele>331</ele>
        <time>2020-09-13T08:05:53Z</time>
      </trkpt>
      <trkpt lat="47.64908" lon="6.21524">
        <ele>331</ele>
        <time>2020-09-13T08:05:56Z</time>
      </trkpt>
      <trkpt lat="47.64903" lon="6.21511">
        <ele>330</ele>
        <time>2020-09-13T08:05:59Z</time>
      </trkpt>
      <trkpt lat="47.64901" lon="6.21502">
        <ele>330</ele>
        <time>2020-09-13T08:06:01Z</time>
      </trkpt>
      <trkpt lat="47.64899" lon="6.21494">
        <ele>330</ele>
        <time>2020-09-13T08:06:03Z</time>
      </trkpt>
      <trkpt lat="47.64898" lon="6.21487">
        <ele>330</ele>
        <time>2020-09-13T08:06:03Z</time>
      </trkpt>
      <trkpt lat="47.64895" lon="6.2148">
        <ele>330</ele>
        <time>2020-09-13T08:06:07Z</time>
      </trkpt>
      <trkpt lat="47.64892" lon="6.21469">
        <ele>329</ele>
        <time>2020-09-13T08:06:09Z</time>
      </trkpt>
      <trkpt lat="47.64888" lon="6.21459">
        <ele>329</ele>
        <time>2020-09-13T08:06:09Z</time>
      </trkpt>
      <trkpt lat="47.64885" lon="6.21453">
        <ele>329</ele>
        <time>2020-09-13T08:06:12Z</time>
      </trkpt>
      <trkpt lat="47.64883" lon="6.21447">
        <ele>329</ele>
        <time>2020-09-13T08:06:13Z</time>
      </trkpt>
      <trkpt lat="47.64878" lon="6.21437">
        <ele>329</ele>
        <time>2020-09-13T08:06:14Z</time>
      </trkpt>
      <trkpt lat="47.64873" lon="6.21424">
        <ele>329</ele>
        <time>2020-09-13T08:06:16Z</time>
      </trkpt>
      <trkpt lat="47.6487" lon="6.21417">
        <ele>329</ele>
        <time>2020-09-13T08:06:17Z</time>
      </trkpt>
      <trkpt lat="47.64867" lon="6.2141">
        <ele>329</ele>
        <time>2020-09-13T08:06:18Z</time>
      </trkpt>
      <trkpt lat="47.64865" lon="6.21403">
        <ele>328</ele>
        <time>2020-09-13T08:06:19Z</time>
      </trkpt>
      <trkpt lat="47.64862" lon="6.21395">
        <ele>328</ele>
        <time>2020-09-13T08:06:20Z</time>
      </trkpt>
      <trkpt lat="47.6486" lon="6.21388">
        <ele>328</ele>
        <time>2020-09-13T08:06:22Z</time>
      </trkpt>
      <trkpt lat="47.64857" lon="6.21379">
        <ele>328</ele>
        <time>2020-09-13T08:06:24Z</time>
      </trkpt>
      <trkpt lat="47.64854" lon="6.2137">
        <ele>328</ele>
        <time>2020-09-13T08:06:25Z</time>
      </trkpt>
      <trkpt lat="47.64852" lon="6.21361">
        <ele>328</ele>
        <time>2020-09-13T08:06:28Z</time>
      </trkpt>
      <trkpt lat="47.64851" lon="6.21353">
        <ele>328</ele>
        <time>2020-09-13T08:06:29Z</time>
      </trkpt>
      <trkpt lat="47.64851" lon="6.21345">
        <ele>328</ele>
        <time>2020-09-13T08:06:29Z</time>
      </trkpt>
      <trkpt lat="47.64851" lon="6.21338">
        <ele>328</ele>
        <time>2020-09-13T08:06:33Z</time>
      </trkpt>
      <trkpt lat="47.64851" lon="6.21328">
        <ele>327</ele>
        <time>2020-09-13T08:06:35Z</time>
      </trkpt>
      <trkpt lat="47.64851" lon="6.21321">
        <ele>327</ele>
        <time>2020-09-13T08:06:37Z</time>
      </trkpt>
      <trkpt lat="47.64851" lon="6.21313">
        <ele>327</ele>
        <time>2020-09-13T08:06:39Z</time>
      </trkpt>
      <trkpt lat="47.6485" lon="6.21301">
        <ele>326</ele>
        <time>2020-09-13T08:06:42Z</time>
      </trkpt>
      <trkpt lat="47.64848" lon="6.21293">
        <ele>326</ele>
        <time>2020-09-13T08:06:44Z</time>
      </trkpt>
      <trkpt lat="47.64848" lon="6.21284">
        <ele>326</ele>
        <time>2020-09-13T08:06:46Z</time>
      </trkpt>
      <trkpt lat="47.64847" lon="6.21278">
        <ele>326</ele>
        <time>2020-09-13T08:06:48Z</time>
      </trkpt>
      <trkpt lat="47.64845" lon="6.21267">
        <ele>325</ele>
        <time>2020-09-13T08:06:50Z</time>
      </trkpt>
      <trkpt lat="47.64844" lon="6.21259">
        <ele>325</ele>
        <time>2020-09-13T08:06:51Z</time>
      </trkpt>
      <trkpt lat="47.64842" lon="6.21249">
        <ele>324</ele>
        <time>2020-09-13T08:06:53Z</time>
      </trkpt>
      <trkpt lat="47.64839" lon="6.21234">
        <ele>324</ele>
        <time>2020-09-13T08:06:56Z</time>
      </trkpt>
      <trkpt lat="47.64837" lon="6.21226">
        <ele>325</ele>
        <time>2020-09-13T08:06:58Z</time>
      </trkpt>
      <trkpt lat="47.64834" lon="6.21218">
        <ele>325</ele>
        <time>2020-09-13T08:07:00Z</time>
      </trkpt>
      <trkpt lat="47.64829" lon="6.2121">
        <ele>326</ele>
        <time>2020-09-13T08:07:00Z</time>
      </trkpt>
      <trkpt lat="47.64825" lon="6.21204">
        <ele>326</ele>
        <time>2020-09-13T08:07:04Z</time>
      </trkpt>
      <trkpt lat="47.64821" lon="6.21198">
        <ele>326</ele>
        <time>2020-09-13T08:07:04Z</time>
      </trkpt>
      <trkpt lat="47.64817" lon="6.2119">
        <ele>326</ele>
        <time>2020-09-13T08:07:08Z</time>
      </trkpt>
      <trkpt lat="47.64813" lon="6.21183">
        <ele>326</ele>
        <time>2020-09-13T08:07:10Z</time>
      </trkpt>
      <trkpt lat="47.6481" lon="6.21176">
        <ele>326</ele>
        <time>2020-09-13T08:07:11Z</time>
      </trkpt>
      <trkpt lat="47.64807" lon="6.21169">
        <ele>326</ele>
        <time>2020-09-13T08:07:11Z</time>
      </trkpt>
      <trkpt lat="47.64804" lon="6.21163">
        <ele>325</ele>
        <time>2020-09-13T08:07:14Z</time>
      </trkpt>
      <trkpt lat="47.64801" lon="6.21156">
        <ele>325</ele>
        <time>2020-09-13T08:07:16Z</time>
      </trkpt>
      <trkpt lat="47.64798" lon="6.21148">
        <ele>325</ele>
        <time>2020-09-13T08:07:18Z</time>
      </trkpt>
      <trkpt lat="47.64795" lon="6.21138">
        <ele>325</ele>
        <time>2020-09-13T08:07:20Z</time>
      </trkpt>
      <trkpt lat="47.6479" lon="6.21122">
        <ele>325</ele>
        <time>2020-09-13T08:07:23Z</time>
      </trkpt>
      <trkpt lat="47.64786" lon="6.21104">
        <ele>325</ele>
        <time>2020-09-13T08:07:26Z</time>
      </trkpt>
      <trkpt lat="47.64782" lon="6.21089">
        <ele>325</ele>
        <time>2020-09-13T08:07:29Z</time>
      </trkpt>
      <trkpt lat="47.64779" lon="6.21082">
        <ele>324</ele>
        <time>2020-09-13T08:07:30Z</time>
      </trkpt>
      <trkpt lat="47.64777" lon="6.21075">
        <ele>324</ele>
        <time>2020-09-13T08:07:31Z</time>
      </trkpt>
      <trkpt lat="47.64774" lon="6.21065">
        <ele>324</ele>
        <time>2020-09-13T08:07:33Z</time>
      </trkpt>
      <trkpt lat="47.64771" lon="6.21054">
        <ele>324</ele>
        <time>2020-09-13T08:07:35Z</time>
      </trkpt>
      <trkpt lat="47.64768" lon="6.21042">
        <ele>324</ele>
        <time>2020-09-13T08:07:37Z</time>
      </trkpt>
      <trkpt lat="47.64765" lon="6.21033">
        <ele>323</ele>
        <time>2020-09-13T08:07:39Z</time>
      </trkpt>
      <trkpt lat="47.64764" lon="6.21025">
        <ele>323</ele>
        <time>2020-09-13T08:07:39Z</time>
      </trkpt>
      <trkpt lat="47.64761" lon="6.21019">
        <ele>323</ele>
        <time>2020-09-13T08:07:57Z</time>
      </trkpt>
      <trkpt lat="47.64759" lon="6.21012">
        <ele>324</ele>
        <time>2020-09-13T08:08:16Z</time>
      </trkpt>
      <trkpt lat="47.64759" lon="6.21019">
        <ele>324</ele>
        <time>2020-09-13T08:08:39Z</time>
      </trkpt>
      <trkpt lat="47.64758" lon="6.21026">
        <ele>324</ele>
        <time>2020-09-13T08:08:42Z</time>
      </trkpt>
      <trkpt lat="47.64755" lon="6.21032">
        <ele>324</ele>
        <time>2020-09-13T08:08:44Z</time>
      </trkpt>
      <trkpt lat="47.64753" lon="6.21039">
        <ele>324</ele>
        <time>2020-09-13T08:08:45Z</time>
      </trkpt>
      <trkpt lat="47.64751" lon="6.21045">
        <ele>324</ele>
        <time>2020-09-13T08:08:50Z</time>
      </trkpt>
      <trkpt lat="47.64749" lon="6.21051">
        <ele>327</ele>
        <time>2020-09-13T08:08:52Z</time>
      </trkpt>
      <trkpt lat="47.64746" lon="6.21058">
        <ele>327</ele>
        <time>2020-09-13T08:08:53Z</time>
      </trkpt>
      <trkpt lat="47.64743" lon="6.21065">
        <ele>327</ele>
        <time>2020-09-13T08:08:55Z</time>
      </trkpt>
      <trkpt lat="47.64739" lon="6.21072">
        <ele>327</ele>
        <time>2020-09-13T08:08:55Z</time>
      </trkpt>
      <trkpt lat="47.64736" lon="6.2108">
        <ele>327</ele>
        <time>2020-09-13T08:08:58Z</time>
      </trkpt>
      <trkpt lat="47.64732" lon="6.21087">
        <ele>328</ele>
        <time>2020-09-13T08:09:01Z</time>
      </trkpt>
      <trkpt lat="47.64729" lon="6.21094">
        <ele>328</ele>
        <time>2020-09-13T08:09:04Z</time>
      </trkpt>
      <trkpt lat="47.64727" lon="6.211">
        <ele>328</ele>
        <time>2020-09-13T08:09:09Z</time>
      </trkpt>
      <trkpt lat="47.64724" lon="6.21106">
        <ele>329</ele>
        <time>2020-09-13T08:09:10Z</time>
      </trkpt>
      <trkpt lat="47.6472" lon="6.21112">
        <ele>329</ele>
        <time>2020-09-13T08:09:13Z</time>
      </trkpt>
      <trkpt lat="47.64716" lon="6.21118">
        <ele>329</ele>
        <time>2020-09-13T08:09:18Z</time>
      </trkpt>
      <trkpt lat="47.64713" lon="6.21125">
        <ele>329</ele>
        <time>2020-09-13T08:09:19Z</time>
      </trkpt>
      <trkpt lat="47.6471" lon="6.21131">
        <ele>330</ele>
        <time>2020-09-13T08:09:24Z</time>
      </trkpt>
      <trkpt lat="47.64707" lon="6.21138">
        <ele>330</ele>
        <time>2020-09-13T08:09:25Z</time>
      </trkpt>
      <trkpt lat="47.64704" lon="6.21143">
        <ele>330</ele>
        <time>2020-09-13T08:09:31Z</time>
      </trkpt>
      <trkpt lat="47.64701" lon="6.21148">
        <ele>330</ele>
        <time>2020-09-13T08:09:34Z</time>
      </trkpt>
      <trkpt lat="47.64698" lon="6.21154">
        <ele>330</ele>
        <time>2020-09-13T08:09:36Z</time>
      </trkpt>
      <trkpt lat="47.64698" lon="6.21162">
        <ele>330</ele>
        <time>2020-09-13T08:09:40Z</time>
      </trkpt>
      <trkpt lat="47.64697" lon="6.21168">
        <ele>332</ele>
        <time>2020-09-13T08:09:42Z</time>
      </trkpt>
      <trkpt lat="47.64696" lon="6.21175">
        <ele>332</ele>
        <time>2020-09-13T08:09:47Z</time>
      </trkpt>
      <trkpt lat="47.64694" lon="6.21183">
        <ele>332</ele>
        <time>2020-09-13T08:09:50Z</time>
      </trkpt>
      <trkpt lat="47.6469" lon="6.21189">
        <ele>332</ele>
        <time>2020-09-13T08:09:55Z</time>
      </trkpt>
      <trkpt lat="47.64688" lon="6.21195">
        <ele>332</ele>
        <time>2020-09-13T08:09:58Z</time>
      </trkpt>
      <trkpt lat="47.64684" lon="6.21202">
        <ele>332</ele>
        <time>2020-09-13T08:10:01Z</time>
      </trkpt>
      <trkpt lat="47.64677" lon="6.21212">
        <ele>333</ele>
        <time>2020-09-13T08:10:05Z</time>
      </trkpt>
      <trkpt lat="47.64673" lon="6.21217">
        <ele>333</ele>
        <time>2020-09-13T08:10:07Z</time>
      </trkpt>
      <trkpt lat="47.64669" lon="6.21224">
        <ele>333</ele>
        <time>2020-09-13T08:10:09Z</time>
      </trkpt>
      <trkpt lat="47.64666" lon="6.21229">
        <ele>335</ele>
        <time>2020-09-13T08:10:12Z</time>
      </trkpt>
      <trkpt lat="47.64662" lon="6.21235">
        <ele>335</ele>
        <time>2020-09-13T08:10:17Z</time>
      </trkpt>
      <trkpt lat="47.64659" lon="6.21241">
        <ele>335</ele>
        <time>2020-09-13T08:10:23Z</time>
      </trkpt>
      <trkpt lat="47.64654" lon="6.21245">
        <ele>335</ele>
        <time>2020-09-13T08:10:25Z</time>
      </trkpt>
      <trkpt lat="47.64651" lon="6.21251">
        <ele>336</ele>
        <time>2020-09-13T08:10:30Z</time>
      </trkpt>
      <trkpt lat="47.64647" lon="6.21259">
        <ele>336</ele>
        <time>2020-09-13T08:10:33Z</time>
      </trkpt>
      <trkpt lat="47.64644" lon="6.21265">
        <ele>336</ele>
        <time>2020-09-13T08:10:37Z</time>
      </trkpt>
      <trkpt lat="47.64642" lon="6.21271">
        <ele>336</ele>
        <time>2020-09-13T08:10:38Z</time>
      </trkpt>
      <trkpt lat="47.6464" lon="6.21278">
        <ele>336</ele>
        <time>2020-09-13T08:10:41Z</time>
      </trkpt>
      <trkpt lat="47.64638" lon="6.21287">
        <ele>337</ele>
        <time>2020-09-13T08:10:47Z</time>
      </trkpt>
      <trkpt lat="47.64636" lon="6.21293">
        <ele>337</ele>
        <time>2020-09-13T08:10:50Z</time>
      </trkpt>
      <trkpt lat="47.64633" lon="6.213">
        <ele>337</ele>
        <time>2020-09-13T08:10:54Z</time>
      </trkpt>
      <trkpt lat="47.6463" lon="6.21306">
        <ele>337</ele>
        <time>2020-09-13T08:10:58Z</time>
      </trkpt>
      <trkpt lat="47.64628" lon="6.21312">
        <ele>337</ele>
        <time>2020-09-13T08:11:01Z</time>
      </trkpt>
      <trkpt lat="47.64623" lon="6.2132">
        <ele>337</ele>
        <time>2020-09-13T08:11:02Z</time>
      </trkpt>
      <trkpt lat="47.6462" lon="6.21325">
        <ele>337</ele>
        <time>2020-09-13T08:11:06Z</time>
      </trkpt>
      <trkpt lat="47.64617" lon="6.21334">
        <ele>338</ele>
        <time>2020-09-13T08:11:08Z</time>
      </trkpt>
      <trkpt lat="47.64613" lon="6.21341">
        <ele>338</ele>
        <time>2020-09-13T08:11:11Z</time>
      </trkpt>
      <trkpt lat="47.6461" lon="6.21348">
        <ele>338</ele>
        <time>2020-09-13T08:11:13Z</time>
      </trkpt>
      <trkpt lat="47.64607" lon="6.21354">
        <ele>338</ele>
        <time>2020-09-13T08:11:14Z</time>
      </trkpt>
      <trkpt lat="47.64602" lon="6.21362">
        <ele>338</ele>
        <time>2020-09-13T08:11:17Z</time>
      </trkpt>
      <trkpt lat="47.64597" lon="6.2137">
        <ele>338</ele>
        <time>2020-09-13T08:11:19Z</time>
      </trkpt>
      <trkpt lat="47.64593" lon="6.21375">
        <ele>338</ele>
        <time>2020-09-13T08:11:23Z</time>
      </trkpt>
      <trkpt lat="47.64589" lon="6.21381">
        <ele>338</ele>
        <time>2020-09-13T08:11:26Z</time>
      </trkpt>
      <trkpt lat="47.64585" lon="6.21385">
        <ele>338</ele>
        <time>2020-09-13T08:11:29Z</time>
      </trkpt>
      <trkpt lat="47.64581" lon="6.21389">
        <ele>343</ele>
        <time>2020-09-13T08:11:31Z</time>
      </trkpt>
      <trkpt lat="47.64576" lon="6.21394">
        <ele>343</ele>
        <time>2020-09-13T08:11:36Z</time>
      </trkpt>
      <trkpt lat="47.64571" lon="6.21398">
        <ele>343</ele>
        <time>2020-09-13T08:11:39Z</time>
      </trkpt>
      <trkpt lat="47.64567" lon="6.21403">
        <ele>343</ele>
        <time>2020-09-13T08:11:43Z</time>
      </trkpt>
      <trkpt lat="47.64563" lon="6.21406">
        <ele>343</ele>
        <time>2020-09-13T08:11:45Z</time>
      </trkpt>
      <trkpt lat="47.64558" lon="6.2141">
        <ele>343</ele>
        <time>2020-09-13T08:11:49Z</time>
      </trkpt>
      <trkpt lat="47.64555" lon="6.21416">
        <ele>344</ele>
        <time>2020-09-13T08:11:59Z</time>
      </trkpt>
      <trkpt lat="47.64552" lon="6.21422">
        <ele>345</ele>
        <time>2020-09-13T08:12:04Z</time>
      </trkpt>
      <trkpt lat="47.64548" lon="6.21425">
        <ele>346</ele>
        <time>2020-09-13T08:12:09Z</time>
      </trkpt>
      <trkpt lat="47.64544" lon="6.2143">
        <ele>346</ele>
        <time>2020-09-13T08:12:15Z</time>
      </trkpt>
      <trkpt lat="47.64539" lon="6.21432">
        <ele>347</ele>
        <time>2020-09-13T08:12:20Z</time>
      </trkpt>
      <trkpt lat="47.64535" lon="6.21434">
        <ele>348</ele>
        <time>2020-09-13T08:12:22Z</time>
      </trkpt>
      <trkpt lat="47.64529" lon="6.21435">
        <ele>348</ele>
        <time>2020-09-13T08:12:28Z</time>
      </trkpt>
      <trkpt lat="47.64524" lon="6.21437">
        <ele>349</ele>
        <time>2020-09-13T08:12:33Z</time>
      </trkpt>
      <trkpt lat="47.64519" lon="6.21439">
        <ele>349</ele>
        <time>2020-09-13T08:12:35Z</time>
      </trkpt>
      <trkpt lat="47.64514" lon="6.21442">
        <ele>349</ele>
        <time>2020-09-13T08:12:39Z</time>
      </trkpt>
      <trkpt lat="47.6451" lon="6.21444">
        <ele>349</ele>
        <time>2020-09-13T08:12:43Z</time>
      </trkpt>
      <trkpt lat="47.64504" lon="6.21446">
        <ele>350</ele>
        <time>2020-09-13T08:12:49Z</time>
      </trkpt>
      <trkpt lat="47.645" lon="6.21448">
        <ele>356</ele>
        <time>2020-09-13T08:12:53Z</time>
      </trkpt>
      <trkpt lat="47.64494" lon="6.21449">
        <ele>356</ele>
        <time>2020-09-13T08:12:57Z</time>
      </trkpt>
      <trkpt lat="47.64489" lon="6.2145">
        <ele>357</ele>
        <time>2020-09-13T08:12:59Z</time>
      </trkpt>
      <trkpt lat="47.64485" lon="6.21454">
        <ele>357</ele>
        <time>2020-09-13T08:13:02Z</time>
      </trkpt>
      <trkpt lat="47.64481" lon="6.21459">
        <ele>357</ele>
        <time>2020-09-13T08:13:05Z</time>
      </trkpt>
      <trkpt lat="47.64477" lon="6.21466">
        <ele>357</ele>
        <time>2020-09-13T08:13:08Z</time>
      </trkpt>
      <trkpt lat="47.64473" lon="6.21471">
        <ele>358</ele>
        <time>2020-09-13T08:13:13Z</time>
      </trkpt>
      <trkpt lat="47.6447" lon="6.21477">
        <ele>358</ele>
        <time>2020-09-13T08:13:19Z</time>
      </trkpt>
      <trkpt lat="47.64467" lon="6.21482">
        <ele>358</ele>
        <time>2020-09-13T08:13:23Z</time>
      </trkpt>
      <trkpt lat="47.64463" lon="6.21489">
        <ele>358</ele>
        <time>2020-09-13T08:13:27Z</time>
      </trkpt>
      <trkpt lat="47.6446" lon="6.21494">
        <ele>358</ele>
        <time>2020-09-13T08:13:29Z</time>
      </trkpt>
      <trkpt lat="47.64455" lon="6.21499">
        <ele>359</ele>
        <time>2020-09-13T08:13:34Z</time>
      </trkpt>
      <trkpt lat="47.64452" lon="6.21504">
        <ele>359</ele>
        <time>2020-09-13T08:13:37Z</time>
      </trkpt>
      <trkpt lat="47.64448" lon="6.2151">
        <ele>359</ele>
        <time>2020-09-13T08:13:39Z</time>
      </trkpt>
      <trkpt lat="47.64445" lon="6.21515">
        <ele>359</ele>
        <time>2020-09-13T08:13:43Z</time>
      </trkpt>
      <trkpt lat="47.64442" lon="6.2152">
        <ele>360</ele>
        <time>2020-09-13T08:13:46Z</time>
      </trkpt>
      <trkpt lat="47.64436" lon="6.21527">
        <ele>360</ele>
        <time>2020-09-13T08:13:48Z</time>
      </trkpt>
      <trkpt lat="47.64432" lon="6.2153">
        <ele>360</ele>
        <time>2020-09-13T08:13:53Z</time>
      </trkpt>
      <trkpt lat="47.64427" lon="6.21534">
        <ele>360</ele>
        <time>2020-09-13T08:13:55Z</time>
      </trkpt>
      <trkpt lat="47.6442" lon="6.21538">
        <ele>360</ele>
        <time>2020-09-13T08:13:59Z</time>
      </trkpt>
      <trkpt lat="47.64415" lon="6.21543">
        <ele>364</ele>
        <time>2020-09-13T08:14:02Z</time>
      </trkpt>
      <trkpt lat="47.64411" lon="6.21547">
        <ele>364</ele>
        <time>2020-09-13T08:14:06Z</time>
      </trkpt>
      <trkpt lat="47.64407" lon="6.21552">
        <ele>364</ele>
        <time>2020-09-13T08:14:13Z</time>
      </trkpt>
      <trkpt lat="47.64402" lon="6.21556">
        <ele>364</ele>
        <time>2020-09-13T08:14:16Z</time>
      </trkpt>
      <trkpt lat="47.64397" lon="6.21557">
        <ele>365</ele>
        <time>2020-09-13T08:14:20Z</time>
      </trkpt>
      <trkpt lat="47.64392" lon="6.21557">
        <ele>365</ele>
        <time>2020-09-13T08:14:23Z</time>
      </trkpt>
      <trkpt lat="47.64387" lon="6.21558">
        <ele>365</ele>
        <time>2020-09-13T08:14:27Z</time>
      </trkpt>
      <trkpt lat="47.6438" lon="6.2156">
        <ele>365</ele>
        <time>2020-09-13T08:14:30Z</time>
      </trkpt>
      <trkpt lat="47.64375" lon="6.21563">
        <ele>366</ele>
        <time>2020-09-13T08:14:35Z</time>
      </trkpt>
      <trkpt lat="47.6437" lon="6.21565">
        <ele>366</ele>
        <time>2020-09-13T08:14:38Z</time>
      </trkpt>
      <trkpt lat="47.64364" lon="6.21567">
        <ele>367</ele>
        <time>2020-09-13T08:14:39Z</time>
      </trkpt>
      <trkpt lat="47.64359" lon="6.21568">
        <ele>367</ele>
        <time>2020-09-13T08:14:43Z</time>
      </trkpt>
      <trkpt lat="47.64354" lon="6.21568">
        <ele>367</ele>
        <time>2020-09-13T08:14:48Z</time>
      </trkpt>
      <trkpt lat="47.64349" lon="6.21567">
        <ele>368</ele>
        <time>2020-09-13T08:14:51Z</time>
      </trkpt>
      <trkpt lat="47.64344" lon="6.21565">
        <ele>368</ele>
        <time>2020-09-13T08:14:54Z</time>
      </trkpt>
      <trkpt lat="47.6434" lon="6.21563">
        <ele>368</ele>
        <time>2020-09-13T08:14:56Z</time>
      </trkpt>
      <trkpt lat="47.64334" lon="6.21561">
        <ele>368</ele>
        <time>2020-09-13T08:15:00Z</time>
      </trkpt>
      <trkpt lat="47.6433" lon="6.2156">
        <ele>369</ele>
        <time>2020-09-13T08:15:03Z</time>
      </trkpt>
      <trkpt lat="47.64325" lon="6.21559">
        <ele>369</ele>
        <time>2020-09-13T08:15:06Z</time>
      </trkpt>
      <trkpt lat="47.64319" lon="6.21559">
        <ele>369</ele>
        <time>2020-09-13T08:15:10Z</time>
      </trkpt>
      <trkpt lat="47.64315" lon="6.2156">
        <ele>369</ele>
        <time>2020-09-13T08:15:12Z</time>
      </trkpt>
      <trkpt lat="47.64309" lon="6.21562">
        <ele>369</ele>
        <time>2020-09-13T08:15:18Z</time>
      </trkpt>
      <trkpt lat="47.64303" lon="6.21564">
        <ele>369</ele>
        <time>2020-09-13T08:15:21Z</time>
      </trkpt>
      <trkpt lat="47.64298" lon="6.21565">
        <ele>369</ele>
        <time>2020-09-13T08:15:26Z</time>
      </trkpt>
      <trkpt lat="47.64292" lon="6.21567">
        <ele>369</ele>
        <time>2020-09-13T08:15:31Z</time>
      </trkpt>
      <trkpt lat="47.64287" lon="6.21567">
        <ele>369</ele>
        <time>2020-09-13T08:15:36Z</time>
      </trkpt>
      <trkpt lat="47.64282" lon="6.21568">
        <ele>369</ele>
        <time>2020-09-13T08:15:40Z</time>
      </trkpt>
      <trkpt lat="47.64277" lon="6.21568">
        <ele>369</ele>
        <time>2020-09-13T08:15:43Z</time>
      </trkpt>
      <trkpt lat="47.64272" lon="6.2157">
        <ele>368</ele>
        <time>2020-09-13T08:15:46Z</time>
      </trkpt>
      <trkpt lat="47.64267" lon="6.21571">
        <ele>368</ele>
        <time>2020-09-13T08:15:49Z</time>
      </trkpt>
      <trkpt lat="47.6426" lon="6.21573">
        <ele>368</ele>
        <time>2020-09-13T08:15:52Z</time>
      </trkpt>
      <trkpt lat="47.64254" lon="6.21575">
        <ele>368</ele>
        <time>2020-09-13T08:15:55Z</time>
      </trkpt>
      <trkpt lat="47.64246" lon="6.21575">
        <ele>368</ele>
        <time>2020-09-13T08:15:57Z</time>
      </trkpt>
      <trkpt lat="47.64239" lon="6.21575">
        <ele>368</ele>
        <time>2020-09-13T08:15:58Z</time>
      </trkpt>
      <trkpt lat="47.64234" lon="6.21573">
        <ele>368</ele>
        <time>2020-09-13T08:16:01Z</time>
      </trkpt>
      <trkpt lat="47.64228" lon="6.21567">
        <ele>368</ele>
        <time>2020-09-13T08:16:04Z</time>
      </trkpt>
      <trkpt lat="47.64226" lon="6.21561">
        <ele>368</ele>
        <time>2020-09-13T08:16:07Z</time>
      </trkpt>
      <trkpt lat="47.64224" lon="6.21553">
        <ele>368</ele>
        <time>2020-09-13T08:16:10Z</time>
      </trkpt>
      <trkpt lat="47.64222" lon="6.21546">
        <ele>368</ele>
        <time>2020-09-13T08:16:12Z</time>
      </trkpt>
      <trkpt lat="47.64222" lon="6.21537">
        <ele>368</ele>
        <time>2020-09-13T08:16:15Z</time>
      </trkpt>
      <trkpt lat="47.64222" lon="6.21529">
        <ele>368</ele>
        <time>2020-09-13T08:16:17Z</time>
      </trkpt>
      <trkpt lat="47.64222" lon="6.2152">
        <ele>368</ele>
        <time>2020-09-13T08:16:20Z</time>
      </trkpt>
      <trkpt lat="47.64221" lon="6.21512">
        <ele>368</ele>
        <time>2020-09-13T08:16:23Z</time>
      </trkpt>
      <trkpt lat="47.6422" lon="6.21503">
        <ele>368</ele>
        <time>2020-09-13T08:16:25Z</time>
      </trkpt>
      <trkpt lat="47.6422" lon="6.21493">
        <ele>368</ele>
        <time>2020-09-13T08:16:28Z</time>
      </trkpt>
      <trkpt lat="47.6422" lon="6.21485">
        <ele>368</ele>
        <time>2020-09-13T08:16:31Z</time>
      </trkpt>
      <trkpt lat="47.6422" lon="6.21477">
        <ele>368</ele>
        <time>2020-09-13T08:16:35Z</time>
      </trkpt>
      <trkpt lat="47.6422" lon="6.2147">
        <ele>368</ele>
        <time>2020-09-13T08:16:37Z</time>
      </trkpt>
      <trkpt lat="47.6422" lon="6.21462">
        <ele>368</ele>
        <time>2020-09-13T08:16:40Z</time>
      </trkpt>
      <trkpt lat="47.6422" lon="6.21453">
        <ele>368</ele>
        <time>2020-09-13T08:16:43Z</time>
      </trkpt>
      <trkpt lat="47.6422" lon="6.21447">
        <ele>368</ele>
        <time>2020-09-13T08:16:45Z</time>
      </trkpt>
      <trkpt lat="47.64219" lon="6.21439">
        <ele>368</ele>
        <time>2020-09-13T08:16:46Z</time>
      </trkpt>
      <trkpt lat="47.64219" lon="6.21431">
        <ele>368</ele>
        <time>2020-09-13T08:16:49Z</time>
      </trkpt>
      <trkpt lat="47.64218" lon="6.21425">
        <ele>367</ele>
        <time>2020-09-13T08:16:51Z</time>
      </trkpt>
      <trkpt lat="47.64218" lon="6.21417">
        <ele>367</ele>
        <time>2020-09-13T08:16:52Z</time>
      </trkpt>
      <trkpt lat="47.64217" lon="6.21409">
        <ele>366</ele>
        <time>2020-09-13T08:16:54Z</time>
      </trkpt>
      <trkpt lat="47.64216" lon="6.21401">
        <ele>366</ele>
        <time>2020-09-13T08:16:57Z</time>
      </trkpt>
      <trkpt lat="47.64212" lon="6.21396">
        <ele>366</ele>
        <time>2020-09-13T08:17:00Z</time>
      </trkpt>
      <trkpt lat="47.64207" lon="6.21395">
        <ele>366</ele>
        <time>2020-09-13T08:17:03Z</time>
      </trkpt>
      <trkpt lat="47.64202" lon="6.21397">
        <ele>366</ele>
        <time>2020-09-13T08:17:05Z</time>
      </trkpt>
      <trkpt lat="47.64198" lon="6.21398">
        <ele>366</ele>
        <time>2020-09-13T08:17:08Z</time>
      </trkpt>
      <trkpt lat="47.64192" lon="6.21399">
        <ele>366</ele>
        <time>2020-09-13T08:17:10Z</time>
      </trkpt>
      <trkpt lat="47.64184" lon="6.21399">
        <ele>366</ele>
        <time>2020-09-13T08:17:12Z</time>
      </trkpt>
      <trkpt lat="47.64177" lon="6.21395">
        <ele>366</ele>
        <time>2020-09-13T08:17:13Z</time>
      </trkpt>
      <trkpt lat="47.64171" lon="6.21397">
        <ele>366</ele>
        <time>2020-09-13T08:17:14Z</time>
      </trkpt>
      <trkpt lat="47.64165" lon="6.21399">
        <ele>367</ele>
        <time>2020-09-13T08:17:16Z</time>
      </trkpt>
      <trkpt lat="47.6416" lon="6.21402">
        <ele>367</ele>
        <time>2020-09-13T08:17:17Z</time>
      </trkpt>
      <trkpt lat="47.64149" lon="6.21409">
        <ele>367</ele>
        <time>2020-09-13T08:17:20Z</time>
      </trkpt>
      <trkpt lat="47.64144" lon="6.21412">
        <ele>367</ele>
        <time>2020-09-13T08:17:22Z</time>
      </trkpt>
      <trkpt lat="47.6414" lon="6.21414">
        <ele>367</ele>
        <time>2020-09-13T08:17:23Z</time>
      </trkpt>
      <trkpt lat="47.64135" lon="6.21416">
        <ele>367</ele>
        <time>2020-09-13T08:17:26Z</time>
      </trkpt>
      <trkpt lat="47.6413" lon="6.21419">
        <ele>368</ele>
        <time>2020-09-13T08:17:27Z</time>
      </trkpt>
      <trkpt lat="47.64124" lon="6.21422">
        <ele>368</ele>
        <time>2020-09-13T08:17:30Z</time>
      </trkpt>
      <trkpt lat="47.64118" lon="6.21427">
        <ele>368</ele>
        <time>2020-09-13T08:17:31Z</time>
      </trkpt>
      <trkpt lat="47.64112" lon="6.21431">
        <ele>368</ele>
        <time>2020-09-13T08:17:33Z</time>
      </trkpt>
      <trkpt lat="47.64108" lon="6.21434">
        <ele>368</ele>
        <time>2020-09-13T08:17:36Z</time>
      </trkpt>
      <trkpt lat="47.64102" lon="6.21436">
        <ele>368</ele>
        <time>2020-09-13T08:17:37Z</time>
      </trkpt>
      <trkpt lat="47.64098" lon="6.21438">
        <ele>368</ele>
        <time>2020-09-13T08:17:41Z</time>
      </trkpt>
      <trkpt lat="47.64092" lon="6.2144">
        <ele>368</ele>
        <time>2020-09-13T08:17:43Z</time>
      </trkpt>
      <trkpt lat="47.64088" lon="6.21444">
        <ele>368</ele>
        <time>2020-09-13T08:17:47Z</time>
      </trkpt>
      <trkpt lat="47.64083" lon="6.21447">
        <ele>369</ele>
        <time>2020-09-13T08:17:49Z</time>
      </trkpt>
      <trkpt lat="47.64077" lon="6.2145">
        <ele>369</ele>
        <time>2020-09-13T08:17:54Z</time>
      </trkpt>
      <trkpt lat="47.64073" lon="6.21454">
        <ele>369</ele>
        <time>2020-09-13T08:17:57Z</time>
      </trkpt>
      <trkpt lat="47.64067" lon="6.21457">
        <ele>369</ele>
        <time>2020-09-13T08:17:59Z</time>
      </trkpt>
      <trkpt lat="47.64063" lon="6.21459">
        <ele>369</ele>
        <time>2020-09-13T08:18:03Z</time>
      </trkpt>
      <trkpt lat="47.64058" lon="6.21462">
        <ele>369</ele>
        <time>2020-09-13T08:18:05Z</time>
      </trkpt>
      <trkpt lat="47.64053" lon="6.21462">
        <ele>369</ele>
        <time>2020-09-13T08:18:08Z</time>
      </trkpt>
      <trkpt lat="47.64047" lon="6.21464">
        <ele>369</ele>
        <time>2020-09-13T08:18:10Z</time>
      </trkpt>
      <trkpt lat="47.64042" lon="6.2147">
        <ele>369</ele>
        <time>2020-09-13T08:18:13Z</time>
      </trkpt>
      <trkpt lat="47.64037" lon="6.21474">
        <ele>369</ele>
        <time>2020-09-13T08:18:17Z</time>
      </trkpt>
      <trkpt lat="47.64031" lon="6.21474">
        <ele>369</ele>
        <time>2020-09-13T08:18:19Z</time>
      </trkpt>
      <trkpt lat="47.64026" lon="6.21476">
        <ele>369</ele>
        <time>2020-09-13T08:18:21Z</time>
      </trkpt>
      <trkpt lat="47.6402" lon="6.21477">
        <ele>369</ele>
        <time>2020-09-13T08:18:24Z</time>
      </trkpt>
      <trkpt lat="47.64016" lon="6.2148">
        <ele>369</ele>
        <time>2020-09-13T08:18:27Z</time>
      </trkpt>
      <trkpt lat="47.64011" lon="6.21482">
        <ele>368</ele>
        <time>2020-09-13T08:18:45Z</time>
      </trkpt>
      <trkpt lat="47.64006" lon="6.21484">
        <ele>368</ele>
        <time>2020-09-13T08:18:48Z</time>
      </trkpt>
      <trkpt lat="47.64" lon="6.21485">
        <ele>368</ele>
        <time>2020-09-13T08:18:52Z</time>
      </trkpt>
      <trkpt lat="47.63993" lon="6.21489">
        <ele>369</ele>
        <time>2020-09-13T08:18:55Z</time>
      </trkpt>
      <trkpt lat="47.63989" lon="6.21493">
        <ele>369</ele>
        <time>2020-09-13T08:18:56Z</time>
      </trkpt>
      <trkpt lat="47.63984" lon="6.21498">
        <ele>369</ele>
        <time>2020-09-13T08:18:58Z</time>
      </trkpt>
      <trkpt lat="47.6398" lon="6.21501">
        <ele>366</ele>
        <time>2020-09-13T08:19:00Z</time>
      </trkpt>
      <trkpt lat="47.63975" lon="6.21503">
        <ele>366</ele>
        <time>2020-09-13T08:19:01Z</time>
      </trkpt>
      <trkpt lat="47.63969" lon="6.21506">
        <ele>366</ele>
        <time>2020-09-13T08:19:04Z</time>
      </trkpt>
      <trkpt lat="47.63965" lon="6.21509">
        <ele>366</ele>
        <time>2020-09-13T08:19:07Z</time>
      </trkpt>
      <trkpt lat="47.63959" lon="6.21513">
        <ele>366</ele>
        <time>2020-09-13T08:19:08Z</time>
      </trkpt>
      <trkpt lat="47.63955" lon="6.21517">
        <ele>366</ele>
        <time>2020-09-13T08:19:11Z</time>
      </trkpt>
      <trkpt lat="47.63951" lon="6.2152">
        <ele>366</ele>
        <time>2020-09-13T08:19:13Z</time>
      </trkpt>
      <trkpt lat="47.63946" lon="6.21523">
        <ele>366</ele>
        <time>2020-09-13T08:19:14Z</time>
      </trkpt>
      <trkpt lat="47.6394" lon="6.21527">
        <ele>367</ele>
        <time>2020-09-13T08:19:17Z</time>
      </trkpt>
      <trkpt lat="47.63935" lon="6.2153">
        <ele>367</ele>
        <time>2020-09-13T08:19:19Z</time>
      </trkpt>
      <trkpt lat="47.63928" lon="6.21533">
        <ele>367</ele>
        <time>2020-09-13T08:19:20Z</time>
      </trkpt>
      <trkpt lat="47.63922" lon="6.21533">
        <ele>367</ele>
        <time>2020-09-13T08:19:24Z</time>
      </trkpt>
      <trkpt lat="47.63915" lon="6.21531">
        <ele>371</ele>
        <time>2020-09-13T08:19:25Z</time>
      </trkpt>
      <trkpt lat="47.6391" lon="6.21529">
        <ele>371</ele>
        <time>2020-09-13T08:19:29Z</time>
      </trkpt>
      <trkpt lat="47.63903" lon="6.21528">
        <ele>371</ele>
        <time>2020-09-13T08:19:31Z</time>
      </trkpt>
      <trkpt lat="47.63899" lon="6.21527">
        <ele>371</ele>
        <time>2020-09-13T08:19:33Z</time>
      </trkpt>
      <trkpt lat="47.63893" lon="6.21525">
        <ele>372</ele>
        <time>2020-09-13T08:19:37Z</time>
      </trkpt>
      <trkpt lat="47.63888" lon="6.21524">
        <ele>372</ele>
        <time>2020-09-13T08:19:39Z</time>
      </trkpt>
      <trkpt lat="47.63881" lon="6.21523">
        <ele>372</ele>
        <time>2020-09-13T08:19:41Z</time>
      </trkpt>
      <trkpt lat="47.63876" lon="6.21522">
        <ele>373</ele>
        <time>2020-09-13T08:19:45Z</time>
      </trkpt>
      <trkpt lat="47.63871" lon="6.21523">
        <ele>373</ele>
        <time>2020-09-13T08:19:47Z</time>
      </trkpt>
      <trkpt lat="47.63866" lon="6.21526">
        <ele>373</ele>
        <time>2020-09-13T08:19:49Z</time>
      </trkpt>
      <trkpt lat="47.63861" lon="6.21526">
        <ele>374</ele>
        <time>2020-09-13T08:19:51Z</time>
      </trkpt>
      <trkpt lat="47.63856" lon="6.21526">
        <ele>374</ele>
        <time>2020-09-13T08:19:53Z</time>
      </trkpt>
      <trkpt lat="47.63849" lon="6.21526">
        <ele>374</ele>
        <time>2020-09-13T08:19:54Z</time>
      </trkpt>
      <trkpt lat="47.63843" lon="6.21524">
        <ele>375</ele>
        <time>2020-09-13T08:19:57Z</time>
      </trkpt>
      <trkpt lat="47.63838" lon="6.21525">
        <ele>375</ele>
        <time>2020-09-13T08:19:58Z</time>
      </trkpt>
      <trkpt lat="47.63832" lon="6.21525">
        <ele>377</ele>
        <time>2020-09-13T08:20:01Z</time>
      </trkpt>
      <trkpt lat="47.63826" lon="6.21525">
        <ele>377</ele>
        <time>2020-09-13T08:20:04Z</time>
      </trkpt>
      <trkpt lat="47.63821" lon="6.21527">
        <ele>377</ele>
        <time>2020-09-13T08:20:06Z</time>
      </trkpt>
      <trkpt lat="47.63814" lon="6.21529">
        <ele>377</ele>
        <time>2020-09-13T08:20:07Z</time>
      </trkpt>
      <trkpt lat="47.63808" lon="6.2153">
        <ele>377</ele>
        <time>2020-09-13T08:20:10Z</time>
      </trkpt>
      <trkpt lat="47.63803" lon="6.2153">
        <ele>377</ele>
        <time>2020-09-13T08:20:11Z</time>
      </trkpt>
      <trkpt lat="47.63798" lon="6.2153">
        <ele>377</ele>
        <time>2020-09-13T08:20:13Z</time>
      </trkpt>
      <trkpt lat="47.6379" lon="6.2153">
        <ele>377</ele>
        <time>2020-09-13T08:20:15Z</time>
      </trkpt>
      <trkpt lat="47.63784" lon="6.21531">
        <ele>377</ele>
        <time>2020-09-13T08:20:16Z</time>
      </trkpt>
      <trkpt lat="47.63778" lon="6.21529">
        <ele>377</ele>
        <time>2020-09-13T08:20:18Z</time>
      </trkpt>
      <trkpt lat="47.63772" lon="6.21528">
        <ele>377</ele>
        <time>2020-09-13T08:20:20Z</time>
      </trkpt>
      <trkpt lat="47.63766" lon="6.21526">
        <ele>377</ele>
        <time>2020-09-13T08:20:21Z</time>
      </trkpt>
      <trkpt lat="47.63761" lon="6.21523">
        <ele>377</ele>
        <time>2020-09-13T08:20:24Z</time>
      </trkpt>
      <trkpt lat="47.63753" lon="6.21517">
        <ele>377</ele>
        <time>2020-09-13T08:20:26Z</time>
      </trkpt>
      <trkpt lat="47.63749" lon="6.21514">
        <ele>377</ele>
        <time>2020-09-13T08:20:28Z</time>
      </trkpt>
      <trkpt lat="47.63744" lon="6.2151">
        <ele>377</ele>
        <time>2020-09-13T08:20:30Z</time>
      </trkpt>
      <trkpt lat="47.63739" lon="6.21506">
        <ele>377</ele>
        <time>2020-09-13T08:20:31Z</time>
      </trkpt>
      <trkpt lat="47.63735" lon="6.21501">
        <ele>377</ele>
        <time>2020-09-13T08:20:35Z</time>
      </trkpt>
      <trkpt lat="47.63732" lon="6.21496">
        <ele>378</ele>
        <time>2020-09-13T08:20:37Z</time>
      </trkpt>
      <trkpt lat="47.6373" lon="6.2149">
        <ele>378</ele>
        <time>2020-09-13T08:20:39Z</time>
      </trkpt>
      <trkpt lat="47.63726" lon="6.2148">
        <ele>378</ele>
        <time>2020-09-13T08:20:42Z</time>
      </trkpt>
      <trkpt lat="47.63725" lon="6.21472">
        <ele>378</ele>
        <time>2020-09-13T08:20:44Z</time>
      </trkpt>
      <trkpt lat="47.63723" lon="6.21463">
        <ele>378</ele>
        <time>2020-09-13T08:20:47Z</time>
      </trkpt>
      <trkpt lat="47.63719" lon="6.21454">
        <ele>378</ele>
        <time>2020-09-13T08:20:51Z</time>
      </trkpt>
      <trkpt lat="47.63717" lon="6.21447">
        <ele>378</ele>
        <time>2020-09-13T08:20:53Z</time>
      </trkpt>
      <trkpt lat="47.63714" lon="6.21441">
        <ele>378</ele>
        <time>2020-09-13T08:20:56Z</time>
      </trkpt>
      <trkpt lat="47.63711" lon="6.21435">
        <ele>378</ele>
        <time>2020-09-13T08:20:57Z</time>
      </trkpt>
      <trkpt lat="47.63708" lon="6.21429">
        <ele>378</ele>
        <time>2020-09-13T08:21:00Z</time>
      </trkpt>
      <trkpt lat="47.63707" lon="6.21422">
        <ele>378</ele>
        <time>2020-09-13T08:21:04Z</time>
      </trkpt>
      <trkpt lat="47.63704" lon="6.21417">
        <ele>378</ele>
        <time>2020-09-13T08:21:06Z</time>
      </trkpt>
      <trkpt lat="47.637" lon="6.21411">
        <ele>378</ele>
        <time>2020-09-13T08:21:09Z</time>
      </trkpt>
      <trkpt lat="47.63697" lon="6.21405">
        <ele>378</ele>
        <time>2020-09-13T08:21:10Z</time>
      </trkpt>
      <trkpt lat="47.63694" lon="6.214">
        <ele>378</ele>
        <time>2020-09-13T08:21:13Z</time>
      </trkpt>
      <trkpt lat="47.6369" lon="6.21393">
        <ele>378</ele>
        <time>2020-09-13T08:21:16Z</time>
      </trkpt>
      <trkpt lat="47.63683" lon="6.21385">
        <ele>378</ele>
        <time>2020-09-13T08:21:18Z</time>
      </trkpt>
      <trkpt lat="47.63677" lon="6.21374">
        <ele>378</ele>
        <time>2020-09-13T08:21:20Z</time>
      </trkpt>
      <trkpt lat="47.63674" lon="6.21368">
        <ele>378</ele>
        <time>2020-09-13T08:21:21Z</time>
      </trkpt>
      <trkpt lat="47.63671" lon="6.21361">
        <ele>378</ele>
        <time>2020-09-13T08:21:22Z</time>
      </trkpt>
      <trkpt lat="47.63667" lon="6.21354">
        <ele>378</ele>
        <time>2020-09-13T08:21:25Z</time>
      </trkpt>
      <trkpt lat="47.63664" lon="6.21347">
        <ele>378</ele>
        <time>2020-09-13T08:21:27Z</time>
      </trkpt>
      <trkpt lat="47.63661" lon="6.21341">
        <ele>378</ele>
        <time>2020-09-13T08:21:29Z</time>
      </trkpt>
      <trkpt lat="47.63659" lon="6.21334">
        <ele>378</ele>
        <time>2020-09-13T08:21:31Z</time>
      </trkpt>
      <trkpt lat="47.63656" lon="6.21326">
        <ele>377</ele>
        <time>2020-09-13T08:21:35Z</time>
      </trkpt>
      <trkpt lat="47.63654" lon="6.2132">
        <ele>377</ele>
        <time>2020-09-13T08:21:37Z</time>
      </trkpt>
      <trkpt lat="47.6365" lon="6.21314">
        <ele>376</ele>
        <time>2020-09-13T08:21:41Z</time>
      </trkpt>
      <trkpt lat="47.63646" lon="6.21308">
        <ele>376</ele>
        <time>2020-09-13T08:21:43Z</time>
      </trkpt>
      <trkpt lat="47.63643" lon="6.21304">
        <ele>376</ele>
        <time>2020-09-13T08:21:44Z</time>
      </trkpt>
      <trkpt lat="47.63637" lon="6.21303">
        <ele>376</ele>
        <time>2020-09-13T08:21:48Z</time>
      </trkpt>
      <trkpt lat="47.63631" lon="6.21302">
        <ele>376</ele>
        <time>2020-09-13T08:21:50Z</time>
      </trkpt>
      <trkpt lat="47.63626" lon="6.21304">
        <ele>376</ele>
        <time>2020-09-13T08:21:53Z</time>
      </trkpt>
      <trkpt lat="47.63621" lon="6.21306">
        <ele>376</ele>
        <time>2020-09-13T08:21:57Z</time>
      </trkpt>
      <trkpt lat="47.63616" lon="6.21309">
        <ele>376</ele>
        <time>2020-09-13T08:22:00Z</time>
      </trkpt>
      <trkpt lat="47.63612" lon="6.21312">
        <ele>376</ele>
        <time>2020-09-13T08:22:03Z</time>
      </trkpt>
      <trkpt lat="47.63607" lon="6.21318">
        <ele>376</ele>
        <time>2020-09-13T08:22:06Z</time>
      </trkpt>
      <trkpt lat="47.63602" lon="6.21323">
        <ele>376</ele>
        <time>2020-09-13T08:22:09Z</time>
      </trkpt>
      <trkpt lat="47.63599" lon="6.21328">
        <ele>375</ele>
        <time>2020-09-13T08:22:11Z</time>
      </trkpt>
      <trkpt lat="47.63595" lon="6.21334">
        <ele>376</ele>
        <time>2020-09-13T08:22:14Z</time>
      </trkpt>
      <trkpt lat="47.63592" lon="6.21339">
        <ele>376</ele>
        <time>2020-09-13T08:22:15Z</time>
      </trkpt>
      <trkpt lat="47.63588" lon="6.21347">
        <ele>376</ele>
        <time>2020-09-13T08:22:19Z</time>
      </trkpt>
      <trkpt lat="47.63585" lon="6.21354">
        <ele>376</ele>
        <time>2020-09-13T08:22:20Z</time>
      </trkpt>
      <trkpt lat="47.63581" lon="6.21365">
        <ele>374</ele>
        <time>2020-09-13T08:22:21Z</time>
      </trkpt>
      <trkpt lat="47.63579" lon="6.21372">
        <ele>374</ele>
        <time>2020-09-13T08:22:23Z</time>
      </trkpt>
      <trkpt lat="47.63575" lon="6.21381">
        <ele>374</ele>
        <time>2020-09-13T08:22:24Z</time>
      </trkpt>
      <trkpt lat="47.63572" lon="6.2139">
        <ele>374</ele>
        <time>2020-09-13T08:22:26Z</time>
      </trkpt>
      <trkpt lat="47.63567" lon="6.21401">
        <ele>374</ele>
        <time>2020-09-13T08:22:28Z</time>
      </trkpt>
      <trkpt lat="47.63563" lon="6.2141">
        <ele>374</ele>
        <time>2020-09-13T08:22:32Z</time>
      </trkpt>
      <trkpt lat="47.6356" lon="6.21417">
        <ele>373</ele>
        <time>2020-09-13T08:22:34Z</time>
      </trkpt>
      <trkpt lat="47.63556" lon="6.21425">
        <ele>372</ele>
        <time>2020-09-13T08:22:36Z</time>
      </trkpt>
      <trkpt lat="47.63553" lon="6.21432">
        <ele>372</ele>
        <time>2020-09-13T08:22:38Z</time>
      </trkpt>
      <trkpt lat="47.6355" lon="6.21439">
        <ele>371</ele>
        <time>2020-09-13T08:22:39Z</time>
      </trkpt>
      <trkpt lat="47.63546" lon="6.21447">
        <ele>371</ele>
        <time>2020-09-13T08:22:40Z</time>
      </trkpt>
      <trkpt lat="47.6354" lon="6.21458">
        <ele>370</ele>
        <time>2020-09-13T08:22:42Z</time>
      </trkpt>
      <trkpt lat="47.63537" lon="6.21466">
        <ele>370</ele>
        <time>2020-09-13T08:22:43Z</time>
      </trkpt>
      <trkpt lat="47.63531" lon="6.2148">
        <ele>369</ele>
        <time>2020-09-13T08:22:45Z</time>
      </trkpt>
      <trkpt lat="47.63523" lon="6.21497">
        <ele>368</ele>
        <time>2020-09-13T08:22:47Z</time>
      </trkpt>
      <trkpt lat="47.6352" lon="6.21503">
        <ele>365</ele>
        <time>2020-09-13T08:22:49Z</time>
      </trkpt>
      <trkpt lat="47.63517" lon="6.21512">
        <ele>365</ele>
        <time>2020-09-13T08:22:51Z</time>
      </trkpt>
      <trkpt lat="47.63514" lon="6.21521">
        <ele>365</ele>
        <time>2020-09-13T08:22:52Z</time>
      </trkpt>
      <trkpt lat="47.63511" lon="6.21527">
        <ele>365</ele>
        <time>2020-09-13T08:22:54Z</time>
      </trkpt>
      <trkpt lat="47.63508" lon="6.21535">
        <ele>364</ele>
        <time>2020-09-13T08:22:55Z</time>
      </trkpt>
      <trkpt lat="47.63504" lon="6.21542">
        <ele>364</ele>
        <time>2020-09-13T08:22:57Z</time>
      </trkpt>
      <trkpt lat="47.635" lon="6.21552">
        <ele>359</ele>
        <time>2020-09-13T08:22:59Z</time>
      </trkpt>
      <trkpt lat="47.63496" lon="6.21562">
        <ele>359</ele>
        <time>2020-09-13T08:23:02Z</time>
      </trkpt>
      <trkpt lat="47.63492" lon="6.2157">
        <ele>359</ele>
        <time>2020-09-13T08:23:04Z</time>
      </trkpt>
      <trkpt lat="47.63488" lon="6.21579">
        <ele>359</ele>
        <time>2020-09-13T08:23:05Z</time>
      </trkpt>
      <trkpt lat="47.63485" lon="6.21585">
        <ele>356</ele>
        <time>2020-09-13T08:23:08Z</time>
      </trkpt>
      <trkpt lat="47.6348" lon="6.21596">
        <ele>355</ele>
        <time>2020-09-13T08:23:09Z</time>
      </trkpt>
      <trkpt lat="47.63477" lon="6.21603">
        <ele>354</ele>
        <time>2020-09-13T08:23:12Z</time>
      </trkpt>
      <trkpt lat="47.63473" lon="6.21612">
        <ele>353</ele>
        <time>2020-09-13T08:23:14Z</time>
      </trkpt>
      <trkpt lat="47.63468" lon="6.21622">
        <ele>352</ele>
        <time>2020-09-13T08:23:16Z</time>
      </trkpt>
      <trkpt lat="47.63461" lon="6.21634">
        <ele>352</ele>
        <time>2020-09-13T08:23:19Z</time>
      </trkpt>
      <trkpt lat="47.63455" lon="6.21646">
        <ele>351</ele>
        <time>2020-09-13T08:23:21Z</time>
      </trkpt>
      <trkpt lat="47.63453" lon="6.21653">
        <ele>351</ele>
        <time>2020-09-13T08:23:21Z</time>
      </trkpt>
      <trkpt lat="47.6345" lon="6.2166">
        <ele>350</ele>
        <time>2020-09-13T08:23:23Z</time>
      </trkpt>
      <trkpt lat="47.63446" lon="6.21666">
        <ele>350</ele>
        <time>2020-09-13T08:23:27Z</time>
      </trkpt>
      <trkpt lat="47.63443" lon="6.2167">
        <ele>346</ele>
        <time>2020-09-13T08:23:30Z</time>
      </trkpt>
      <trkpt lat="47.63437" lon="6.21668">
        <ele>346</ele>
        <time>2020-09-13T08:23:33Z</time>
      </trkpt>
      <trkpt lat="47.63431" lon="6.21665">
        <ele>349</ele>
        <time>2020-09-13T08:23:35Z</time>
      </trkpt>
      <trkpt lat="47.63426" lon="6.21663">
        <ele>348</ele>
        <time>2020-09-13T08:23:36Z</time>
      </trkpt>
      <trkpt lat="47.63419" lon="6.21657">
        <ele>348</ele>
        <time>2020-09-13T08:23:38Z</time>
      </trkpt>
      <trkpt lat="47.6341" lon="6.21647">
        <ele>345</ele>
        <time>2020-09-13T08:23:41Z</time>
      </trkpt>
      <trkpt lat="47.63401" lon="6.21638">
        <ele>345</ele>
        <time>2020-09-13T08:23:44Z</time>
      </trkpt>
      <trkpt lat="47.63396" lon="6.21635">
        <ele>345</ele>
        <time>2020-09-13T08:23:45Z</time>
      </trkpt>
      <trkpt lat="47.63391" lon="6.21633">
        <ele>345</ele>
        <time>2020-09-13T08:23:45Z</time>
      </trkpt>
      <trkpt lat="47.63384" lon="6.21631">
        <ele>345</ele>
        <time>2020-09-13T08:23:50Z</time>
      </trkpt>
      <trkpt lat="47.63379" lon="6.21627">
        <ele>345</ele>
        <time>2020-09-13T08:23:52Z</time>
      </trkpt>
      <trkpt lat="47.63373" lon="6.21627">
        <ele>344</ele>
        <time>2020-09-13T08:23:52Z</time>
      </trkpt>
      <trkpt lat="47.63365" lon="6.21627">
        <ele>344</ele>
        <time>2020-09-13T08:23:54Z</time>
      </trkpt>
      <trkpt lat="47.63359" lon="6.21626">
        <ele>344</ele>
        <time>2020-09-13T08:23:58Z</time>
      </trkpt>
      <trkpt lat="47.63354" lon="6.21622">
        <ele>344</ele>
        <time>2020-09-13T08:24:00Z</time>
      </trkpt>
      <trkpt lat="47.63348" lon="6.21615">
        <ele>344</ele>
        <time>2020-09-13T08:24:02Z</time>
      </trkpt>
      <trkpt lat="47.63344" lon="6.21609">
        <ele>344</ele>
        <time>2020-09-13T08:24:04Z</time>
      </trkpt>
      <trkpt lat="47.63338" lon="6.21601">
        <ele>344</ele>
        <time>2020-09-13T08:24:06Z</time>
      </trkpt>
      <trkpt lat="47.63334" lon="6.21594">
        <ele>343</ele>
        <time>2020-09-13T08:24:07Z</time>
      </trkpt>
      <trkpt lat="47.6333" lon="6.21587">
        <ele>342</ele>
        <time>2020-09-13T08:24:09Z</time>
      </trkpt>
      <trkpt lat="47.63326" lon="6.2158">
        <ele>343</ele>
        <time>2020-09-13T08:24:10Z</time>
      </trkpt>
      <trkpt lat="47.63317" lon="6.21566">
        <ele>342</ele>
        <time>2020-09-13T08:24:12Z</time>
      </trkpt>
      <trkpt lat="47.63312" lon="6.21558">
        <ele>342</ele>
        <time>2020-09-13T08:24:14Z</time>
      </trkpt>
      <trkpt lat="47.63308" lon="6.21551">
        <ele>342</ele>
        <time>2020-09-13T08:24:16Z</time>
      </trkpt>
      <trkpt lat="47.63302" lon="6.21545">
        <ele>342</ele>
        <time>2020-09-13T08:24:16Z</time>
      </trkpt>
      <trkpt lat="47.63299" lon="6.2154">
        <ele>342</ele>
        <time>2020-09-13T08:24:20Z</time>
      </trkpt>
      <trkpt lat="47.63294" lon="6.21535">
        <ele>342</ele>
        <time>2020-09-13T08:24:22Z</time>
      </trkpt>
      <trkpt lat="47.63289" lon="6.21529">
        <ele>342</ele>
        <time>2020-09-13T08:24:23Z</time>
      </trkpt>
      <trkpt lat="47.63283" lon="6.21523">
        <ele>341</ele>
        <time>2020-09-13T08:24:28Z</time>
      </trkpt>
      <trkpt lat="47.63279" lon="6.21517">
        <ele>341</ele>
        <time>2020-09-13T08:24:28Z</time>
      </trkpt>
      <trkpt lat="47.63273" lon="6.21511">
        <ele>341</ele>
        <time>2020-09-13T08:24:30Z</time>
      </trkpt>
      <trkpt lat="47.63267" lon="6.21505">
        <ele>340</ele>
        <time>2020-09-13T08:24:34Z</time>
      </trkpt>
      <trkpt lat="47.63263" lon="6.21501">
        <ele>340</ele>
        <time>2020-09-13T08:24:35Z</time>
      </trkpt>
      <trkpt lat="47.63259" lon="6.21495">
        <ele>341</ele>
        <time>2020-09-13T08:24:36Z</time>
      </trkpt>
      <trkpt lat="47.63253" lon="6.21487">
        <ele>342</ele>
        <time>2020-09-13T08:24:38Z</time>
      </trkpt>
      <trkpt lat="47.63248" lon="6.21482">
        <ele>338</ele>
        <time>2020-09-13T08:24:40Z</time>
      </trkpt>
      <trkpt lat="47.63244" lon="6.21476">
        <ele>337</ele>
        <time>2020-09-13T08:24:41Z</time>
      </trkpt>
      <trkpt lat="47.63239" lon="6.2147">
        <ele>337</ele>
        <time>2020-09-13T08:24:43Z</time>
      </trkpt>
      <trkpt lat="47.63236" lon="6.21464">
        <ele>337</ele>
        <time>2020-09-13T08:24:45Z</time>
      </trkpt>
      <trkpt lat="47.63232" lon="6.21458">
        <ele>337</ele>
        <time>2020-09-13T08:24:47Z</time>
      </trkpt>
      <trkpt lat="47.63227" lon="6.21452">
        <ele>337</ele>
        <time>2020-09-13T08:24:49Z</time>
      </trkpt>
      <trkpt lat="47.63223" lon="6.21446">
        <ele>337</ele>
        <time>2020-09-13T08:24:51Z</time>
      </trkpt>
      <trkpt lat="47.63218" lon="6.21442">
        <ele>337</ele>
        <time>2020-09-13T08:24:53Z</time>
      </trkpt>
      <trkpt lat="47.63215" lon="6.21436">
        <ele>337</ele>
        <time>2020-09-13T08:24:55Z</time>
      </trkpt>
      <trkpt lat="47.63211" lon="6.2143">
        <ele>337</ele>
        <time>2020-09-13T08:24:57Z</time>
      </trkpt>
      <trkpt lat="47.63205" lon="6.21423">
        <ele>336</ele>
        <time>2020-09-13T08:24:57Z</time>
      </trkpt>
      <trkpt lat="47.63201" lon="6.21418">
        <ele>336</ele>
        <time>2020-09-13T08:25:01Z</time>
      </trkpt>
      <trkpt lat="47.63196" lon="6.21412">
        <ele>338</ele>
        <time>2020-09-13T08:25:03Z</time>
      </trkpt>
      <trkpt lat="47.63191" lon="6.21406">
        <ele>338</ele>
        <time>2020-09-13T08:25:05Z</time>
      </trkpt>
      <trkpt lat="47.63187" lon="6.21402">
        <ele>337</ele>
        <time>2020-09-13T08:25:06Z</time>
      </trkpt>
      <trkpt lat="47.63181" lon="6.21395">
        <ele>337</ele>
        <time>2020-09-13T08:25:08Z</time>
      </trkpt>
      <trkpt lat="47.63177" lon="6.2139">
        <ele>338</ele>
        <time>2020-09-13T08:25:09Z</time>
      </trkpt>
      <trkpt lat="47.63172" lon="6.21385">
        <ele>338</ele>
        <time>2020-09-13T08:25:10Z</time>
      </trkpt>
      <trkpt lat="47.63168" lon="6.2138">
        <ele>338</ele>
        <time>2020-09-13T08:25:11Z</time>
      </trkpt>
      <trkpt lat="47.63163" lon="6.21371">
        <ele>331</ele>
        <time>2020-09-13T08:25:13Z</time>
      </trkpt>
      <trkpt lat="47.63154" lon="6.2136">
        <ele>331</ele>
        <time>2020-09-13T08:25:16Z</time>
      </trkpt>
      <trkpt lat="47.63152" lon="6.21354">
        <ele>332</ele>
        <time>2020-09-13T08:25:19Z</time>
      </trkpt>
      <trkpt lat="47.63149" lon="6.21346">
        <ele>332</ele>
        <time>2020-09-13T08:25:22Z</time>
      </trkpt>
      <trkpt lat="47.63143" lon="6.21338">
        <ele>332</ele>
        <time>2020-09-13T08:25:23Z</time>
      </trkpt>
      <trkpt lat="47.63138" lon="6.2133">
        <ele>332</ele>
        <time>2020-09-13T08:25:27Z</time>
      </trkpt>
      <trkpt lat="47.63134" lon="6.21326">
        <ele>332</ele>
        <time>2020-09-13T08:25:29Z</time>
      </trkpt>
      <trkpt lat="47.63128" lon="6.2132">
        <ele>331</ele>
        <time>2020-09-13T08:25:31Z</time>
      </trkpt>
      <trkpt lat="47.63123" lon="6.21316">
        <ele>331</ele>
        <time>2020-09-13T08:25:32Z</time>
      </trkpt>
      <trkpt lat="47.63118" lon="6.21309">
        <ele>331</ele>
        <time>2020-09-13T08:25:34Z</time>
      </trkpt>
      <trkpt lat="47.63107" lon="6.21296">
        <ele>330</ele>
        <time>2020-09-13T08:25:34Z</time>
      </trkpt>
      <trkpt lat="47.63101" lon="6.2129">
        <ele>330</ele>
        <time>2020-09-13T08:25:38Z</time>
      </trkpt>
      <trkpt lat="47.63096" lon="6.21285">
        <ele>330</ele>
        <time>2020-09-13T08:25:39Z</time>
      </trkpt>
      <trkpt lat="47.6309" lon="6.21281">
        <ele>330</ele>
        <time>2020-09-13T08:25:44Z</time>
      </trkpt>
      <trkpt lat="47.63084" lon="6.21277">
        <ele>330</ele>
        <time>2020-09-13T08:25:45Z</time>
      </trkpt>
      <trkpt lat="47.63079" lon="6.21273">
        <ele>324</ele>
        <time>2020-09-13T08:25:50Z</time>
      </trkpt>
      <trkpt lat="47.63073" lon="6.21268">
        <ele>324</ele>
        <time>2020-09-13T08:25:50Z</time>
      </trkpt>
      <trkpt lat="47.63069" lon="6.21263">
        <ele>324</ele>
        <time>2020-09-13T08:25:55Z</time>
      </trkpt>
      <trkpt lat="47.63065" lon="6.2126">
        <ele>324</ele>
        <time>2020-09-13T08:25:57Z</time>
      </trkpt>
      <trkpt lat="47.6306" lon="6.21255">
        <ele>323</ele>
        <time>2020-09-13T08:25:59Z</time>
      </trkpt>
      <trkpt lat="47.63055" lon="6.21247">
        <ele>325</ele>
        <time>2020-09-13T08:26:01Z</time>
      </trkpt>
      <trkpt lat="47.63041" lon="6.21228">
        <ele>324</ele>
        <time>2020-09-13T08:26:03Z</time>
      </trkpt>
      <trkpt lat="47.63038" lon="6.21223">
        <ele>323</ele>
        <time>2020-09-13T08:26:04Z</time>
      </trkpt>
      <trkpt lat="47.63033" lon="6.21216">
        <ele>323</ele>
        <time>2020-09-13T08:26:05Z</time>
      </trkpt>
      <trkpt lat="47.63028" lon="6.21209">
        <ele>323</ele>
        <time>2020-09-13T08:26:07Z</time>
      </trkpt>
      <trkpt lat="47.63023" lon="6.21203">
        <ele>323</ele>
        <time>2020-09-13T08:26:09Z</time>
      </trkpt>
      <trkpt lat="47.63018" lon="6.21198">
        <ele>323</ele>
        <time>2020-09-13T08:26:12Z</time>
      </trkpt>
      <trkpt lat="47.63014" lon="6.21195">
        <ele>323</ele>
        <time>2020-09-13T08:26:15Z</time>
      </trkpt>
      <trkpt lat="47.6301" lon="6.2119">
        <ele>323</ele>
        <time>2020-09-13T08:26:18Z</time>
      </trkpt>
      <trkpt lat="47.63006" lon="6.21186">
        <ele>322</ele>
        <time>2020-09-13T08:26:21Z</time>
      </trkpt>
      <trkpt lat="47.63003" lon="6.21182">
        <ele>322</ele>
        <time>2020-09-13T08:26:25Z</time>
      </trkpt>
      <trkpt lat="47.62998" lon="6.21175">
        <ele>319</ele>
        <time>2020-09-13T08:26:28Z</time>
      </trkpt>
      <trkpt lat="47.62994" lon="6.21171">
        <ele>319</ele>
        <time>2020-09-13T08:26:30Z</time>
      </trkpt>
      <trkpt lat="47.6299" lon="6.21166">
        <ele>320</ele>
        <time>2020-09-13T08:26:31Z</time>
      </trkpt>
      <trkpt lat="47.62986" lon="6.21161">
        <ele>320</ele>
        <time>2020-09-13T08:26:35Z</time>
      </trkpt>
      <trkpt lat="47.62976" lon="6.21147">
        <ele>319</ele>
        <time>2020-09-13T08:26:37Z</time>
      </trkpt>
      <trkpt lat="47.62972" lon="6.21142">
        <ele>319</ele>
        <time>2020-09-13T08:26:38Z</time>
      </trkpt>
      <trkpt lat="47.62966" lon="6.21135">
        <ele>319</ele>
        <time>2020-09-13T08:26:40Z</time>
      </trkpt>
      <trkpt lat="47.62962" lon="6.21129">
        <ele>319</ele>
        <time>2020-09-13T08:26:41Z</time>
      </trkpt>
      <trkpt lat="47.62956" lon="6.21122">
        <ele>319</ele>
        <time>2020-09-13T08:26:44Z</time>
      </trkpt>
      <trkpt lat="47.62952" lon="6.21118">
        <ele>319</ele>
        <time>2020-09-13T08:26:46Z</time>
      </trkpt>
      <trkpt lat="47.62948" lon="6.21113">
        <ele>319</ele>
        <time>2020-09-13T08:26:47Z</time>
      </trkpt>
      <trkpt lat="47.62944" lon="6.21109">
        <ele>319</ele>
        <time>2020-09-13T08:26:47Z</time>
      </trkpt>
      <trkpt lat="47.62938" lon="6.21103">
        <ele>318</ele>
        <time>2020-09-13T08:26:52Z</time>
      </trkpt>
      <trkpt lat="47.62933" lon="6.21097">
        <ele>318</ele>
        <time>2020-09-13T08:26:54Z</time>
      </trkpt>
      <trkpt lat="47.6293" lon="6.21093">
        <ele>318</ele>
        <time>2020-09-13T08:26:56Z</time>
      </trkpt>
      <trkpt lat="47.62926" lon="6.21086">
        <ele>318</ele>
        <time>2020-09-13T08:26:58Z</time>
      </trkpt>
      <trkpt lat="47.62919" lon="6.2108">
        <ele>318</ele>
        <time>2020-09-13T08:27:00Z</time>
      </trkpt>
      <trkpt lat="47.62914" lon="6.21075">
        <ele>316</ele>
        <time>2020-09-13T08:27:02Z</time>
      </trkpt>
      <trkpt lat="47.6291" lon="6.2107">
        <ele>316</ele>
        <time>2020-09-13T08:27:04Z</time>
      </trkpt>
      <trkpt lat="47.62906" lon="6.21065">
        <ele>315</ele>
        <time>2020-09-13T08:27:06Z</time>
      </trkpt>
      <trkpt lat="47.62903" lon="6.21059">
        <ele>315</ele>
        <time>2020-09-13T08:27:08Z</time>
      </trkpt>
      <trkpt lat="47.62903" lon="6.21052">
        <ele>315</ele>
        <time>2020-09-13T08:27:10Z</time>
      </trkpt>
      <trkpt lat="47.62906" lon="6.21046">
        <ele>315</ele>
        <time>2020-09-13T08:27:11Z</time>
      </trkpt>
      <trkpt lat="47.62909" lon="6.2104">
        <ele>315</ele>
        <time>2020-09-13T08:27:15Z</time>
      </trkpt>
      <trkpt lat="47.62913" lon="6.21036">
        <ele>316</ele>
        <time>2020-09-13T08:27:22Z</time>
      </trkpt>
      <trkpt lat="47.62917" lon="6.21031">
        <ele>321</ele>
        <time>2020-09-13T08:27:26Z</time>
      </trkpt>
      <trkpt lat="47.6292" lon="6.21024">
        <ele>321</ele>
        <time>2020-09-13T08:27:31Z</time>
      </trkpt>
      <trkpt lat="47.62924" lon="6.21017">
        <ele>321</ele>
        <time>2020-09-13T08:27:36Z</time>
      </trkpt>
      <trkpt lat="47.62926" lon="6.21009">
        <ele>320</ele>
        <time>2020-09-13T08:27:39Z</time>
      </trkpt>
      <trkpt lat="47.62928" lon="6.21">
        <ele>320</ele>
        <time>2020-09-13T08:27:45Z</time>
      </trkpt>
      <trkpt lat="47.6293" lon="6.20993">
        <ele>322</ele>
        <time>2020-09-13T08:27:45Z</time>
      </trkpt>
      <trkpt lat="47.62931" lon="6.20985">
        <ele>322</ele>
        <time>2020-09-13T08:27:51Z</time>
      </trkpt>
      <trkpt lat="47.62932" lon="6.20976">
        <ele>323</ele>
        <time>2020-09-13T08:27:55Z</time>
      </trkpt>
      <trkpt lat="47.62933" lon="6.20968">
        <ele>323</ele>
        <time>2020-09-13T08:27:59Z</time>
      </trkpt>
      <trkpt lat="47.62935" lon="6.20961">
        <ele>323</ele>
        <time>2020-09-13T08:28:04Z</time>
      </trkpt>
      <trkpt lat="47.62937" lon="6.20955">
        <ele>324</ele>
        <time>2020-09-13T08:28:08Z</time>
      </trkpt>
      <trkpt lat="47.62939" lon="6.20948">
        <ele>324</ele>
        <time>2020-09-13T08:28:13Z</time>
      </trkpt>
      <trkpt lat="47.62941" lon="6.20942">
        <ele>324</ele>
        <time>2020-09-13T08:28:16Z</time>
      </trkpt>
      <trkpt lat="47.62945" lon="6.20936">
        <ele>324</ele>
        <time>2020-09-13T08:28:20Z</time>
      </trkpt>
      <trkpt lat="47.62948" lon="6.2093">
        <ele>324</ele>
        <time>2020-09-13T08:28:26Z</time>
      </trkpt>
      <trkpt lat="47.62951" lon="6.20924">
        <ele>324</ele>
        <time>2020-09-13T08:28:27Z</time>
      </trkpt>
      <trkpt lat="47.62954" lon="6.20919">
        <ele>325</ele>
        <time>2020-09-13T08:28:31Z</time>
      </trkpt>
      <trkpt lat="47.62959" lon="6.20914">
        <ele>325</ele>
        <time>2020-09-13T08:28:37Z</time>
      </trkpt>
      <trkpt lat="47.62962" lon="6.2091">
        <ele>326</ele>
        <time>2020-09-13T08:28:38Z</time>
      </trkpt>
      <trkpt lat="47.62966" lon="6.20905">
        <ele>326</ele>
        <time>2020-09-13T08:28:44Z</time>
      </trkpt>
      <trkpt lat="47.6297" lon="6.20899">
        <ele>326</ele>
        <time>2020-09-13T08:28:46Z</time>
      </trkpt>
      <trkpt lat="47.62972" lon="6.20892">
        <ele>326</ele>
        <time>2020-09-13T08:28:50Z</time>
      </trkpt>
      <trkpt lat="47.62975" lon="6.20886">
        <ele>326</ele>
        <time>2020-09-13T08:28:53Z</time>
      </trkpt>
      <trkpt lat="47.62979" lon="6.20879">
        <ele>326</ele>
        <time>2020-09-13T08:28:56Z</time>
      </trkpt>
      <trkpt lat="47.62982" lon="6.20874">
        <ele>326</ele>
        <time>2020-09-13T08:28:57Z</time>
      </trkpt>
      <trkpt lat="47.62985" lon="6.20869">
        <ele>326</ele>
        <time>2020-09-13T08:29:03Z</time>
      </trkpt>
      <trkpt lat="47.6299" lon="6.20861">
        <ele>327</ele>
        <time>2020-09-13T08:29:06Z</time>
      </trkpt>
      <trkpt lat="47.62992" lon="6.20855">
        <ele>327</ele>
        <time>2020-09-13T08:29:09Z</time>
      </trkpt>
      <trkpt lat="47.62995" lon="6.20849">
        <ele>327</ele>
        <time>2020-09-13T08:29:09Z</time>
      </trkpt>
      <trkpt lat="47.62998" lon="6.20843">
        <ele>328</ele>
        <time>2020-09-13T08:29:14Z</time>
      </trkpt>
      <trkpt lat="47.63001" lon="6.20837">
        <ele>330</ele>
        <time>2020-09-13T08:29:14Z</time>
      </trkpt>
      <trkpt lat="47.63005" lon="6.20832">
        <ele>329</ele>
        <time>2020-09-13T08:29:18Z</time>
      </trkpt>
      <trkpt lat="47.63008" lon="6.20827">
        <ele>330</ele>
        <time>2020-09-13T08:29:21Z</time>
      </trkpt>
      <trkpt lat="47.63012" lon="6.2082">
        <ele>330</ele>
        <time>2020-09-13T08:29:22Z</time>
      </trkpt>
      <trkpt lat="47.63016" lon="6.20814">
        <ele>331</ele>
        <time>2020-09-13T08:29:26Z</time>
      </trkpt>
      <trkpt lat="47.63019" lon="6.20807">
        <ele>331</ele>
        <time>2020-09-13T08:29:26Z</time>
      </trkpt>
      <trkpt lat="47.63023" lon="6.20801">
        <ele>331</ele>
        <time>2020-09-13T08:29:29Z</time>
      </trkpt>
      <trkpt lat="47.63026" lon="6.20796">
        <ele>331</ele>
        <time>2020-09-13T08:29:32Z</time>
      </trkpt>
      <trkpt lat="47.63028" lon="6.20789">
        <ele>331</ele>
        <time>2020-09-13T08:29:37Z</time>
      </trkpt>
      <trkpt lat="47.6303" lon="6.20783">
        <ele>331</ele>
        <time>2020-09-13T08:29:41Z</time>
      </trkpt>
      <trkpt lat="47.63032" lon="6.20777">
        <ele>331</ele>
        <time>2020-09-13T08:29:44Z</time>
      </trkpt>
      <trkpt lat="47.63035" lon="6.20771">
        <ele>331</ele>
        <time>2020-09-13T08:29:45Z</time>
      </trkpt>
      <trkpt lat="47.63037" lon="6.20765">
        <ele>331</ele>
        <time>2020-09-13T08:29:50Z</time>
      </trkpt>
      <trkpt lat="47.6304" lon="6.20758">
        <ele>331</ele>
        <time>2020-09-13T08:29:53Z</time>
      </trkpt>
      <trkpt lat="47.63043" lon="6.20752">
        <ele>331</ele>
        <time>2020-09-13T08:29:55Z</time>
      </trkpt>
      <trkpt lat="47.63047" lon="6.20745">
        <ele>330</ele>
        <time>2020-09-13T08:29:58Z</time>
      </trkpt>
      <trkpt lat="47.6305" lon="6.2074">
        <ele>330</ele>
        <time>2020-09-13T08:30:01Z</time>
      </trkpt>
      <trkpt lat="47.63055" lon="6.20732">
        <ele>330</ele>
        <time>2020-09-13T08:30:01Z</time>
      </trkpt>
      <trkpt lat="47.63058" lon="6.20726">
        <ele>330</ele>
        <time>2020-09-13T08:30:05Z</time>
      </trkpt>
      <trkpt lat="47.63062" lon="6.20718">
        <ele>330</ele>
        <time>2020-09-13T08:30:08Z</time>
      </trkpt>
      <trkpt lat="47.63066" lon="6.20711">
        <ele>330</ele>
        <time>2020-09-13T08:30:10Z</time>
      </trkpt>
      <trkpt lat="47.63069" lon="6.20703">
        <ele>330</ele>
        <time>2020-09-13T08:30:10Z</time>
      </trkpt>
      <trkpt lat="47.63072" lon="6.20697">
        <ele>330</ele>
        <time>2020-09-13T08:30:14Z</time>
      </trkpt>
      <trkpt lat="47.63075" lon="6.20692">
        <ele>330</ele>
        <time>2020-09-13T08:30:15Z</time>
      </trkpt>
      <trkpt lat="47.63079" lon="6.20685">
        <ele>330</ele>
        <time>2020-09-13T08:30:18Z</time>
      </trkpt>
      <trkpt lat="47.63083" lon="6.20677">
        <ele>330</ele>
        <time>2020-09-13T08:30:20Z</time>
      </trkpt>
      <trkpt lat="47.63086" lon="6.20669">
        <ele>332</ele>
        <time>2020-09-13T08:30:22Z</time>
      </trkpt>
      <trkpt lat="47.63088" lon="6.20662">
        <ele>331</ele>
        <time>2020-09-13T08:30:24Z</time>
      </trkpt>
      <trkpt lat="47.6309" lon="6.20653">
        <ele>332</ele>
        <time>2020-09-13T08:30:24Z</time>
      </trkpt>
      <trkpt lat="47.63091" lon="6.20645">
        <ele>332</ele>
        <time>2020-09-13T08:30:26Z</time>
      </trkpt>
      <trkpt lat="47.63092" lon="6.20638">
        <ele>332</ele>
        <time>2020-09-13T08:30:30Z</time>
      </trkpt>
      <trkpt lat="47.63093" lon="6.20629">
        <ele>332</ele>
        <time>2020-09-13T08:30:33Z</time>
      </trkpt>
      <trkpt lat="47.63094" lon="6.20622">
        <ele>331</ele>
        <time>2020-09-13T08:30:36Z</time>
      </trkpt>
      <trkpt lat="47.63096" lon="6.20616">
        <ele>331</ele>
        <time>2020-09-13T08:30:38Z</time>
      </trkpt>
      <trkpt lat="47.63098" lon="6.20608">
        <ele>331</ele>
        <time>2020-09-13T08:30:38Z</time>
      </trkpt>
      <trkpt lat="47.631" lon="6.206">
        <ele>331</ele>
        <time>2020-09-13T08:30:43Z</time>
      </trkpt>
      <trkpt lat="47.63101" lon="6.20594">
        <ele>331</ele>
        <time>2020-09-13T08:30:45Z</time>
      </trkpt>
      <trkpt lat="47.631" lon="6.20586">
        <ele>330</ele>
        <time>2020-09-13T08:30:48Z</time>
      </trkpt>
      <trkpt lat="47.63096" lon="6.20579">
        <ele>328</ele>
        <time>2020-09-13T08:30:52Z</time>
      </trkpt>
      <trkpt lat="47.63094" lon="6.20573">
        <ele>328</ele>
        <time>2020-09-13T08:30:56Z</time>
      </trkpt>
      <trkpt lat="47.63092" lon="6.20566">
        <ele>328</ele>
        <time>2020-09-13T08:31:01Z</time>
      </trkpt>
      <trkpt lat="47.6309" lon="6.2056">
        <ele>328</ele>
        <time>2020-09-13T08:31:01Z</time>
      </trkpt>
      <trkpt lat="47.63086" lon="6.20553">
        <ele>328</ele>
        <time>2020-09-13T08:31:06Z</time>
      </trkpt>
      <trkpt lat="47.63083" lon="6.20546">
        <ele>323</ele>
        <time>2020-09-13T08:31:08Z</time>
      </trkpt>
      <trkpt lat="47.63079" lon="6.2054">
        <ele>323</ele>
        <time>2020-09-13T08:31:10Z</time>
      </trkpt>
      <trkpt lat="47.63071" lon="6.20529">
        <ele>322</ele>
        <time>2020-09-13T08:31:12Z</time>
      </trkpt>
      <trkpt lat="47.63062" lon="6.20516">
        <ele>322</ele>
        <time>2020-09-13T08:31:15Z</time>
      </trkpt>
      <trkpt lat="47.6306" lon="6.20509">
        <ele>322</ele>
        <time>2020-09-13T08:31:18Z</time>
      </trkpt>
      <trkpt lat="47.63059" lon="6.20502">
        <ele>322</ele>
        <time>2020-09-13T08:31:19Z</time>
      </trkpt>
      <trkpt lat="47.63057" lon="6.20491">
        <ele>319</ele>
        <time>2020-09-13T08:31:24Z</time>
      </trkpt>
      <trkpt lat="47.63054" lon="6.20485">
        <ele>319</ele>
        <time>2020-09-13T08:31:28Z</time>
      </trkpt>
      <trkpt lat="47.63052" lon="6.20479">
        <ele>318</ele>
        <time>2020-09-13T08:31:28Z</time>
      </trkpt>
      <trkpt lat="47.63049" lon="6.20473">
        <ele>318</ele>
        <time>2020-09-13T08:31:32Z</time>
      </trkpt>
      <trkpt lat="47.63047" lon="6.20466">
        <ele>318</ele>
        <time>2020-09-13T08:31:32Z</time>
      </trkpt>
      <trkpt lat="47.63043" lon="6.20456">
        <ele>317</ele>
        <time>2020-09-13T08:31:34Z</time>
      </trkpt>
      <trkpt lat="47.63041" lon="6.20449">
        <ele>317</ele>
        <time>2020-09-13T08:31:38Z</time>
      </trkpt>
      <trkpt lat="47.63039" lon="6.20442">
        <ele>317</ele>
        <time>2020-09-13T08:31:40Z</time>
      </trkpt>
      <trkpt lat="47.63036" lon="6.20434">
        <ele>316</ele>
        <time>2020-09-13T08:31:41Z</time>
      </trkpt>
      <trkpt lat="47.63033" lon="6.20428">
        <ele>316</ele>
        <time>2020-09-13T08:31:43Z</time>
      </trkpt>
      <trkpt lat="47.6303" lon="6.20415">
        <ele>314</ele>
        <time>2020-09-13T08:31:44Z</time>
      </trkpt>
      <trkpt lat="47.63027" lon="6.20404">
        <ele>314</ele>
        <time>2020-09-13T08:31:45Z</time>
      </trkpt>
      <trkpt lat="47.63024" lon="6.20393">
        <ele>313</ele>
        <time>2020-09-13T08:31:46Z</time>
      </trkpt>
      <trkpt lat="47.63023" lon="6.20384">
        <ele>313</ele>
        <time>2020-09-13T08:31:48Z</time>
      </trkpt>
      <trkpt lat="47.63023" lon="6.20376">
        <ele>313</ele>
        <time>2020-09-13T08:31:50Z</time>
      </trkpt>
      <trkpt lat="47.63023" lon="6.20369">
        <ele>313</ele>
        <time>2020-09-13T08:31:52Z</time>
      </trkpt>
      <trkpt lat="47.63022" lon="6.20358">
        <ele>313</ele>
        <time>2020-09-13T08:31:54Z</time>
      </trkpt>
      <trkpt lat="47.6302" lon="6.20344">
        <ele>312</ele>
        <time>2020-09-13T08:31:57Z</time>
      </trkpt>
      <trkpt lat="47.63019" lon="6.20336">
        <ele>312</ele>
        <time>2020-09-13T08:31:58Z</time>
      </trkpt>
      <trkpt lat="47.63012" lon="6.20297">
        <ele>310</ele>
        <time>2020-09-13T08:31:58Z</time>
      </trkpt>
      <trkpt lat="47.63011" lon="6.20285">
        <ele>309</ele>
        <time>2020-09-13T08:32:00Z</time>
      </trkpt>
      <trkpt lat="47.6301" lon="6.20273">
        <ele>309</ele>
        <time>2020-09-13T08:32:02Z</time>
      </trkpt>
      <trkpt lat="47.63013" lon="6.20262">
        <ele>308</ele>
        <time>2020-09-13T08:32:04Z</time>
      </trkpt>
      <trkpt lat="47.63013" lon="6.20253">
        <ele>307</ele>
        <time>2020-09-13T08:32:09Z</time>
      </trkpt>
      <trkpt lat="47.63017" lon="6.20247">
        <ele>306</ele>
        <time>2020-09-13T08:32:11Z</time>
      </trkpt>
      <trkpt lat="47.63022" lon="6.20242">
        <ele>306</ele>
        <time>2020-09-13T08:32:11Z</time>
      </trkpt>
      <trkpt lat="47.63026" lon="6.20237">
        <ele>306</ele>
        <time>2020-09-13T08:32:15Z</time>
      </trkpt>
      <trkpt lat="47.6303" lon="6.20231">
        <ele>306</ele>
        <time>2020-09-13T08:32:15Z</time>
      </trkpt>
      <trkpt lat="47.63034" lon="6.20227">
        <ele>306</ele>
        <time>2020-09-13T08:32:17Z</time>
      </trkpt>
      <trkpt lat="47.63038" lon="6.20224">
        <ele>306</ele>
        <time>2020-09-13T08:32:21Z</time>
      </trkpt>
      <trkpt lat="47.63042" lon="6.20221">
        <ele>306</ele>
        <time>2020-09-13T08:32:23Z</time>
      </trkpt>
      <trkpt lat="47.63045" lon="6.20215">
        <ele>306</ele>
        <time>2020-09-13T08:32:25Z</time>
      </trkpt>
      <trkpt lat="47.63049" lon="6.20209">
        <ele>306</ele>
        <time>2020-09-13T08:32:28Z</time>
      </trkpt>
      <trkpt lat="47.63054" lon="6.20205">
        <ele>306</ele>
        <time>2020-09-13T08:32:30Z</time>
      </trkpt>
      <trkpt lat="47.63058" lon="6.20202">
        <ele>306</ele>
        <time>2020-09-13T08:32:32Z</time>
      </trkpt>
      <trkpt lat="47.63062" lon="6.20198">
        <ele>306</ele>
        <time>2020-09-13T08:32:34Z</time>
      </trkpt>
      <trkpt lat="47.63063" lon="6.20191">
        <ele>306</ele>
        <time>2020-09-13T08:32:35Z</time>
      </trkpt>
      <trkpt lat="47.63068" lon="6.20187">
        <ele>306</ele>
        <time>2020-09-13T08:33:15Z</time>
      </trkpt>
      <trkpt lat="47.63068" lon="6.20179">
        <ele>306</ele>
        <time>2020-09-13T08:33:29Z</time>
      </trkpt>
      <trkpt lat="47.63065" lon="6.20172">
        <ele>306</ele>
        <time>2020-09-13T08:33:31Z</time>
      </trkpt>
      <trkpt lat="47.6306" lon="6.20172">
        <ele>306</ele>
        <time>2020-09-13T08:33:33Z</time>
      </trkpt>
      <trkpt lat="47.6306" lon="6.20165">
        <ele>303</ele>
        <time>2020-09-13T08:33:39Z</time>
      </trkpt>
      <trkpt lat="47.63055" lon="6.20157">
        <ele>303</ele>
        <time>2020-09-13T08:33:42Z</time>
      </trkpt>
      <trkpt lat="47.63044" lon="6.20121">
        <ele>301</ele>
        <time>2020-09-13T08:33:42Z</time>
      </trkpt>
      <trkpt lat="47.63041" lon="6.20113">
        <ele>301</ele>
        <time>2020-09-13T08:33:43Z</time>
      </trkpt>
      <trkpt lat="47.63038" lon="6.20106">
        <ele>300</ele>
        <time>2020-09-13T08:33:44Z</time>
      </trkpt>
      <trkpt lat="47.63035" lon="6.20098">
        <ele>300</ele>
        <time>2020-09-13T08:33:45Z</time>
      </trkpt>
      <trkpt lat="47.63031" lon="6.20091">
        <ele>300</ele>
        <time>2020-09-13T08:33:46Z</time>
      </trkpt>
      <trkpt lat="47.63028" lon="6.20084">
        <ele>299</ele>
        <time>2020-09-13T08:33:47Z</time>
      </trkpt>
      <trkpt lat="47.63024" lon="6.20076">
        <ele>298</ele>
        <time>2020-09-13T08:33:48Z</time>
      </trkpt>
      <trkpt lat="47.63021" lon="6.20068">
        <ele>298</ele>
        <time>2020-09-13T08:33:49Z</time>
      </trkpt>
      <trkpt lat="47.63017" lon="6.20061">
        <ele>298</ele>
        <time>2020-09-13T08:33:50Z</time>
      </trkpt>
      <trkpt lat="47.63014" lon="6.20053">
        <ele>298</ele>
        <time>2020-09-13T08:33:51Z</time>
      </trkpt>
      <trkpt lat="47.6301" lon="6.20045">
        <ele>298</ele>
        <time>2020-09-13T08:33:52Z</time>
      </trkpt>
      <trkpt lat="47.63006" lon="6.20037">
        <ele>298</ele>
        <time>2020-09-13T08:33:53Z</time>
      </trkpt>
      <trkpt lat="47.63003" lon="6.20029">
        <ele>298</ele>
        <time>2020-09-13T08:33:54Z</time>
      </trkpt>
      <trkpt lat="47.62999" lon="6.20022">
        <ele>295</ele>
        <time>2020-09-13T08:33:55Z</time>
      </trkpt>
      <trkpt lat="47.62995" lon="6.20014">
        <ele>296</ele>
        <time>2020-09-13T08:33:56Z</time>
      </trkpt>
      <trkpt lat="47.62991" lon="6.20007">
        <ele>296</ele>
        <time>2020-09-13T08:33:57Z</time>
      </trkpt>
      <trkpt lat="47.62988" lon="6.19999">
        <ele>296</ele>
        <time>2020-09-13T08:33:58Z</time>
      </trkpt>
      <trkpt lat="47.62984" lon="6.19991">
        <ele>296</ele>
        <time>2020-09-13T08:33:59Z</time>
      </trkpt>
      <trkpt lat="47.6298" lon="6.19983">
        <ele>295</ele>
        <time>2020-09-13T08:34:00Z</time>
      </trkpt>
      <trkpt lat="47.62976" lon="6.19975">
        <ele>295</ele>
        <time>2020-09-13T08:34:01Z</time>
      </trkpt>
      <trkpt lat="47.62972" lon="6.19967">
        <ele>295</ele>
        <time>2020-09-13T08:34:02Z</time>
      </trkpt>
      <trkpt lat="47.62968" lon="6.19959">
        <ele>295</ele>
        <time>2020-09-13T08:34:03Z</time>
      </trkpt>
      <trkpt lat="47.62963" lon="6.1995">
        <ele>295</ele>
        <time>2020-09-13T08:34:04Z</time>
      </trkpt>
      <trkpt lat="47.62959" lon="6.19941">
        <ele>295</ele>
        <time>2020-09-13T08:34:05Z</time>
      </trkpt>
      <trkpt lat="47.62954" lon="6.19933">
        <ele>295</ele>
        <time>2020-09-13T08:34:06Z</time>
      </trkpt>
      <trkpt lat="47.62949" lon="6.19924">
        <ele>295</ele>
        <time>2020-09-13T08:34:07Z</time>
      </trkpt>
      <trkpt lat="47.62945" lon="6.19914">
        <ele>294</ele>
        <time>2020-09-13T08:34:08Z</time>
      </trkpt>
      <trkpt lat="47.62941" lon="6.19905">
        <ele>294</ele>
        <time>2020-09-13T08:34:09Z</time>
      </trkpt>
      <trkpt lat="47.62936" lon="6.19895">
        <ele>294</ele>
        <time>2020-09-13T08:34:10Z</time>
      </trkpt>
      <trkpt lat="47.62932" lon="6.19886">
        <ele>294</ele>
        <time>2020-09-13T08:34:11Z</time>
      </trkpt>
      <trkpt lat="47.62928" lon="6.19876">
        <ele>294</ele>
        <time>2020-09-13T08:34:12Z</time>
      </trkpt>
      <trkpt lat="47.62923" lon="6.19866">
        <ele>294</ele>
        <time>2020-09-13T08:34:13Z</time>
      </trkpt>
      <trkpt lat="47.62919" lon="6.19856">
        <ele>294</ele>
        <time>2020-09-13T08:34:14Z</time>
      </trkpt>
      <trkpt lat="47.62914" lon="6.19847">
        <ele>292</ele>
        <time>2020-09-13T08:34:15Z</time>
      </trkpt>
      <trkpt lat="47.62909" lon="6.19837">
        <ele>292</ele>
        <time>2020-09-13T08:34:16Z</time>
      </trkpt>
      <trkpt lat="47.62904" lon="6.19827">
        <ele>291</ele>
        <time>2020-09-13T08:34:17Z</time>
      </trkpt>
      <trkpt lat="47.62899" lon="6.19817">
        <ele>290</ele>
        <time>2020-09-13T08:34:18Z</time>
      </trkpt>
      <trkpt lat="47.62894" lon="6.19807">
        <ele>290</ele>
        <time>2020-09-13T08:34:19Z</time>
      </trkpt>
      <trkpt lat="47.62889" lon="6.19797">
        <ele>289</ele>
        <time>2020-09-13T08:34:20Z</time>
      </trkpt>
      <trkpt lat="47.62883" lon="6.19787">
        <ele>289</ele>
        <time>2020-09-13T08:34:21Z</time>
      </trkpt>
      <trkpt lat="47.62878" lon="6.19776">
        <ele>289</ele>
        <time>2020-09-13T08:34:22Z</time>
      </trkpt>
      <trkpt lat="47.62873" lon="6.19765">
        <ele>288</ele>
        <time>2020-09-13T08:34:23Z</time>
      </trkpt>
      <trkpt lat="47.62868" lon="6.19754">
        <ele>288</ele>
        <time>2020-09-13T08:34:24Z</time>
      </trkpt>
      <trkpt lat="47.62863" lon="6.19743">
        <ele>286</ele>
        <time>2020-09-13T08:34:25Z</time>
      </trkpt>
      <trkpt lat="47.62858" lon="6.19732">
        <ele>286</ele>
        <time>2020-09-13T08:34:26Z</time>
      </trkpt>
      <trkpt lat="47.62853" lon="6.19721">
        <ele>285</ele>
        <time>2020-09-13T08:34:27Z</time>
      </trkpt>
      <trkpt lat="47.62848" lon="6.1971">
        <ele>285</ele>
        <time>2020-09-13T08:34:28Z</time>
      </trkpt>
      <trkpt lat="47.62842" lon="6.197">
        <ele>285</ele>
        <time>2020-09-13T08:34:29Z</time>
      </trkpt>
      <trkpt lat="47.62837" lon="6.1969">
        <ele>284</ele>
        <time>2020-09-13T08:34:30Z</time>
      </trkpt>
      <trkpt lat="47.62831" lon="6.1968">
        <ele>283</ele>
        <time>2020-09-13T08:34:31Z</time>
      </trkpt>
      <trkpt lat="47.62826" lon="6.1967">
        <ele>283</ele>
        <time>2020-09-13T08:34:32Z</time>
      </trkpt>
      <trkpt lat="47.62821" lon="6.1966">
        <ele>282</ele>
        <time>2020-09-13T08:34:33Z</time>
      </trkpt>
      <trkpt lat="47.62816" lon="6.1965">
        <ele>281</ele>
        <time>2020-09-13T08:34:34Z</time>
      </trkpt>
      <trkpt lat="47.62811" lon="6.19639">
        <ele>281</ele>
        <time>2020-09-13T08:34:35Z</time>
      </trkpt>
      <trkpt lat="47.62806" lon="6.19628">
        <ele>281</ele>
        <time>2020-09-13T08:34:36Z</time>
      </trkpt>
      <trkpt lat="47.62801" lon="6.19617">
        <ele>280</ele>
        <time>2020-09-13T08:34:37Z</time>
      </trkpt>
      <trkpt lat="47.62796" lon="6.19606">
        <ele>280</ele>
        <time>2020-09-13T08:34:38Z</time>
      </trkpt>
      <trkpt lat="47.62791" lon="6.19594">
        <ele>280</ele>
        <time>2020-09-13T08:34:39Z</time>
      </trkpt>
      <trkpt lat="47.62786" lon="6.19583">
        <ele>279</ele>
        <time>2020-09-13T08:34:40Z</time>
      </trkpt>
      <trkpt lat="47.62781" lon="6.19571">
        <ele>279</ele>
        <time>2020-09-13T08:34:41Z</time>
      </trkpt>
      <trkpt lat="47.62776" lon="6.19559">
        <ele>279</ele>
        <time>2020-09-13T08:34:42Z</time>
      </trkpt>
      <trkpt lat="47.62772" lon="6.19547">
        <ele>278</ele>
        <time>2020-09-13T08:34:43Z</time>
      </trkpt>
      <trkpt lat="47.62767" lon="6.19535">
        <ele>278</ele>
        <time>2020-09-13T08:34:44Z</time>
      </trkpt>
      <trkpt lat="47.62763" lon="6.19523">
        <ele>278</ele>
        <time>2020-09-13T08:34:45Z</time>
      </trkpt>
      <trkpt lat="47.62758" lon="6.19511">
        <ele>278</ele>
        <time>2020-09-13T08:34:46Z</time>
      </trkpt>
      <trkpt lat="47.62753" lon="6.19498">
        <ele>277</ele>
        <time>2020-09-13T08:34:47Z</time>
      </trkpt>
      <trkpt lat="47.62748" lon="6.19486">
        <ele>275</ele>
        <time>2020-09-13T08:34:48Z</time>
      </trkpt>
      <trkpt lat="47.62743" lon="6.19474">
        <ele>275</ele>
        <time>2020-09-13T08:34:49Z</time>
      </trkpt>
      <trkpt lat="47.62739" lon="6.19461">
        <ele>274</ele>
        <time>2020-09-13T08:34:50Z</time>
      </trkpt>
      <trkpt lat="47.62734" lon="6.19448">
        <ele>274</ele>
        <time>2020-09-13T08:34:51Z</time>
      </trkpt>
      <trkpt lat="47.62729" lon="6.19436">
        <ele>273</ele>
        <time>2020-09-13T08:34:52Z</time>
      </trkpt>
      <trkpt lat="47.62724" lon="6.19423">
        <ele>273</ele>
        <time>2020-09-13T08:34:53Z</time>
      </trkpt>
      <trkpt lat="47.62718" lon="6.1941">
        <ele>271</ele>
        <time>2020-09-13T08:34:54Z</time>
      </trkpt>
      <trkpt lat="47.62713" lon="6.19397">
        <ele>271</ele>
        <time>2020-09-13T08:34:55Z</time>
      </trkpt>
      <trkpt lat="47.62708" lon="6.19383">
        <ele>270</ele>
        <time>2020-09-13T08:34:56Z</time>
      </trkpt>
      <trkpt lat="47.62703" lon="6.1937">
        <ele>270</ele>
        <time>2020-09-13T08:34:57Z</time>
      </trkpt>
      <trkpt lat="47.62698" lon="6.19358">
        <ele>270</ele>
        <time>2020-09-13T08:34:58Z</time>
      </trkpt>
      <trkpt lat="47.62692" lon="6.19345">
        <ele>269</ele>
        <time>2020-09-13T08:34:59Z</time>
      </trkpt>
      <trkpt lat="47.62687" lon="6.19334">
        <ele>269</ele>
        <time>2020-09-13T08:35:00Z</time>
      </trkpt>
      <trkpt lat="47.6268" lon="6.19323">
        <ele>268</ele>
        <time>2020-09-13T08:35:01Z</time>
      </trkpt>
      <trkpt lat="47.62672" lon="6.19314">
        <ele>267</ele>
        <time>2020-09-13T08:35:02Z</time>
      </trkpt>
      <trkpt lat="47.62664" lon="6.19305">
        <ele>266</ele>
        <time>2020-09-13T08:35:03Z</time>
      </trkpt>
      <trkpt lat="47.62656" lon="6.19297">
        <ele>265</ele>
        <time>2020-09-13T08:35:04Z</time>
      </trkpt>
      <trkpt lat="47.62648" lon="6.19288">
        <ele>265</ele>
        <time>2020-09-13T08:35:05Z</time>
      </trkpt>
      <trkpt lat="47.6264" lon="6.19279">
        <ele>265</ele>
        <time>2020-09-13T08:35:06Z</time>
      </trkpt>
      <trkpt lat="47.62632" lon="6.19269">
        <ele>265</ele>
        <time>2020-09-13T08:35:07Z</time>
      </trkpt>
      <trkpt lat="47.62624" lon="6.1926">
        <ele>264</ele>
        <time>2020-09-13T08:35:08Z</time>
      </trkpt>
      <trkpt lat="47.62616" lon="6.1925">
        <ele>263</ele>
        <time>2020-09-13T08:35:09Z</time>
      </trkpt>
      <trkpt lat="47.62609" lon="6.19239">
        <ele>262</ele>
        <time>2020-09-13T08:35:10Z</time>
      </trkpt>
      <trkpt lat="47.62601" lon="6.19228">
        <ele>262</ele>
        <time>2020-09-13T08:35:11Z</time>
      </trkpt>
      <trkpt lat="47.62594" lon="6.19218">
        <ele>262</ele>
        <time>2020-09-13T08:35:12Z</time>
      </trkpt>
      <trkpt lat="47.62588" lon="6.19208">
        <ele>262</ele>
        <time>2020-09-13T08:35:13Z</time>
      </trkpt>
      <trkpt lat="47.62581" lon="6.19199">
        <ele>260</ele>
        <time>2020-09-13T08:35:14Z</time>
      </trkpt>
      <trkpt lat="47.62574" lon="6.1919">
        <ele>260</ele>
        <time>2020-09-13T08:35:15Z</time>
      </trkpt>
      <trkpt lat="47.62567" lon="6.19181">
        <ele>260</ele>
        <time>2020-09-13T08:35:16Z</time>
      </trkpt>
      <trkpt lat="47.6256" lon="6.19171">
        <ele>260</ele>
        <time>2020-09-13T08:35:17Z</time>
      </trkpt>
      <trkpt lat="47.62553" lon="6.19162">
        <ele>259</ele>
        <time>2020-09-13T08:35:18Z</time>
      </trkpt>
      <trkpt lat="47.62546" lon="6.19152">
        <ele>259</ele>
        <time>2020-09-13T08:35:19Z</time>
      </trkpt>
      <trkpt lat="47.62539" lon="6.19143">
        <ele>259</ele>
        <time>2020-09-13T08:35:20Z</time>
      </trkpt>
      <trkpt lat="47.62533" lon="6.19133">
        <ele>259</ele>
        <time>2020-09-13T08:35:21Z</time>
      </trkpt>
      <trkpt lat="47.62526" lon="6.19124">
        <ele>259</ele>
        <time>2020-09-13T08:35:22Z</time>
      </trkpt>
      <trkpt lat="47.6252" lon="6.19114">
        <ele>258</ele>
        <time>2020-09-13T08:35:23Z</time>
      </trkpt>
      <trkpt lat="47.62513" lon="6.19105">
        <ele>258</ele>
        <time>2020-09-13T08:35:24Z</time>
      </trkpt>
      <trkpt lat="47.62507" lon="6.19097">
        <ele>258</ele>
        <time>2020-09-13T08:35:25Z</time>
      </trkpt>
      <trkpt lat="47.62502" lon="6.19089">
        <ele>257</ele>
        <time>2020-09-13T08:35:26Z</time>
      </trkpt>
      <trkpt lat="47.62497" lon="6.19082">
        <ele>257</ele>
        <time>2020-09-13T08:35:27Z</time>
      </trkpt>
      <trkpt lat="47.62492" lon="6.19075">
        <ele>257</ele>
        <time>2020-09-13T08:35:28Z</time>
      </trkpt>
      <trkpt lat="47.62488" lon="6.19069">
        <ele>256</ele>
        <time>2020-09-13T08:35:29Z</time>
      </trkpt>
      <trkpt lat="47.62484" lon="6.19063">
        <ele>256</ele>
        <time>2020-09-13T08:35:30Z</time>
      </trkpt>
      <trkpt lat="47.6248" lon="6.19057">
        <ele>256</ele>
        <time>2020-09-13T08:35:31Z</time>
      </trkpt>
      <trkpt lat="47.62476" lon="6.19051">
        <ele>256</ele>
        <time>2020-09-13T08:35:32Z</time>
      </trkpt>
      <trkpt lat="47.62471" lon="6.19045">
        <ele>256</ele>
        <time>2020-09-13T08:35:33Z</time>
      </trkpt>
      <trkpt lat="47.62467" lon="6.19039">
        <ele>256</ele>
        <time>2020-09-13T08:35:34Z</time>
      </trkpt>
      <trkpt lat="47.62462" lon="6.19033">
        <ele>256</ele>
        <time>2020-09-13T08:35:36Z</time>
      </trkpt>
      <trkpt lat="47.62459" lon="6.19026">
        <ele>256</ele>
        <time>2020-09-13T08:35:37Z</time>
      </trkpt>
      <trkpt lat="47.62456" lon="6.1902">
        <ele>256</ele>
        <time>2020-09-13T08:35:38Z</time>
      </trkpt>
      <trkpt lat="47.62453" lon="6.19013">
        <ele>256</ele>
        <time>2020-09-13T08:35:39Z</time>
      </trkpt>
      <trkpt lat="47.6245" lon="6.19006">
        <ele>256</ele>
        <time>2020-09-13T08:35:40Z</time>
      </trkpt>
      <trkpt lat="47.62447" lon="6.19">
        <ele>255</ele>
        <time>2020-09-13T08:35:41Z</time>
      </trkpt>
      <trkpt lat="47.62443" lon="6.18993">
        <ele>255</ele>
        <time>2020-09-13T08:35:42Z</time>
      </trkpt>
      <trkpt lat="47.62439" lon="6.18987">
        <ele>255</ele>
        <time>2020-09-13T08:35:43Z</time>
      </trkpt>
      <trkpt lat="47.62436" lon="6.18981">
        <ele>255</ele>
        <time>2020-09-13T08:35:44Z</time>
      </trkpt>
      <trkpt lat="47.62434" lon="6.18974">
        <ele>255</ele>
        <time>2020-09-13T08:35:45Z</time>
      </trkpt>
      <trkpt lat="47.6243" lon="6.18964">
        <ele>256</ele>
        <time>2020-09-13T08:35:47Z</time>
      </trkpt>
      <trkpt lat="47.62426" lon="6.18958">
        <ele>256</ele>
        <time>2020-09-13T08:35:49Z</time>
      </trkpt>
      <trkpt lat="47.62421" lon="6.18953">
        <ele>255</ele>
        <time>2020-09-13T08:35:51Z</time>
      </trkpt>
      <trkpt lat="47.62417" lon="6.18946">
        <ele>255</ele>
        <time>2020-09-13T08:35:53Z</time>
      </trkpt>
      <trkpt lat="47.62412" lon="6.18947">
        <ele>255</ele>
        <time>2020-09-13T08:35:58Z</time>
      </trkpt>
      <trkpt lat="47.6241" lon="6.18941">
        <ele>255</ele>
        <time>2020-09-13T08:35:59Z</time>
      </trkpt>
      <trkpt lat="47.62407" lon="6.18932">
        <ele>255</ele>
        <time>2020-09-13T08:36:02Z</time>
      </trkpt>
      <trkpt lat="47.6239" lon="6.18906">
        <ele>254</ele>
        <time>2020-09-13T08:36:03Z</time>
      </trkpt>
      <trkpt lat="47.62385" lon="6.18897">
        <ele>254</ele>
        <time>2020-09-13T08:36:04Z</time>
      </trkpt>
      <trkpt lat="47.6238" lon="6.18887">
        <ele>254</ele>
        <time>2020-09-13T08:36:05Z</time>
      </trkpt>
      <trkpt lat="47.62376" lon="6.18878">
        <ele>254</ele>
        <time>2020-09-13T08:36:06Z</time>
      </trkpt>
      <trkpt lat="47.62372" lon="6.18867">
        <ele>253</ele>
        <time>2020-09-13T08:36:07Z</time>
      </trkpt>
      <trkpt lat="47.62368" lon="6.18859">
        <ele>253</ele>
        <time>2020-09-13T08:36:08Z</time>
      </trkpt>
      <trkpt lat="47.62365" lon="6.18851">
        <ele>253</ele>
        <time>2020-09-13T08:36:09Z</time>
      </trkpt>
      <trkpt lat="47.62362" lon="6.18844">
        <ele>253</ele>
        <time>2020-09-13T08:36:10Z</time>
      </trkpt>
      <trkpt lat="47.62359" lon="6.18838">
        <ele>252</ele>
        <time>2020-09-13T08:36:11Z</time>
      </trkpt>
      <trkpt lat="47.62357" lon="6.18831">
        <ele>251</ele>
        <time>2020-09-13T08:36:12Z</time>
      </trkpt>
      <trkpt lat="47.62355" lon="6.18825">
        <ele>251</ele>
        <time>2020-09-13T08:36:13Z</time>
      </trkpt>
      <trkpt lat="47.62351" lon="6.18815">
        <ele>251</ele>
        <time>2020-09-13T08:36:15Z</time>
      </trkpt>
      <trkpt lat="47.62348" lon="6.18806">
        <ele>251</ele>
        <time>2020-09-13T08:36:17Z</time>
      </trkpt>
      <trkpt lat="47.62343" lon="6.18793">
        <ele>251</ele>
        <time>2020-09-13T08:36:19Z</time>
      </trkpt>
      <trkpt lat="47.6234" lon="6.18787">
        <ele>251</ele>
        <time>2020-09-13T08:36:20Z</time>
      </trkpt>
      <trkpt lat="47.62337" lon="6.18781">
        <ele>250</ele>
        <time>2020-09-13T08:36:21Z</time>
      </trkpt>
      <trkpt lat="47.62333" lon="6.18774">
        <ele>248</ele>
        <time>2020-09-13T08:36:22Z</time>
      </trkpt>
      <trkpt lat="47.6233" lon="6.18769">
        <ele>248</ele>
        <time>2020-09-13T08:36:23Z</time>
      </trkpt>
      <trkpt lat="47.62327" lon="6.18764">
        <ele>247</ele>
        <time>2020-09-13T08:36:24Z</time>
      </trkpt>
      <trkpt lat="47.62322" lon="6.18754">
        <ele>247</ele>
        <time>2020-09-13T08:36:26Z</time>
      </trkpt>
      <trkpt lat="47.62317" lon="6.18745">
        <ele>246</ele>
        <time>2020-09-13T08:36:28Z</time>
      </trkpt>
      <trkpt lat="47.6231" lon="6.18737">
        <ele>246</ele>
        <time>2020-09-13T08:36:30Z</time>
      </trkpt>
      <trkpt lat="47.62304" lon="6.18734">
        <ele>246</ele>
        <time>2020-09-13T08:36:32Z</time>
      </trkpt>
      <trkpt lat="47.62299" lon="6.18732">
        <ele>245</ele>
        <time>2020-09-13T08:36:34Z</time>
      </trkpt>
      <trkpt lat="47.62296" lon="6.18728">
        <ele>245</ele>
        <time>2020-09-13T08:36:49Z</time>
      </trkpt>
      <trkpt lat="47.62293" lon="6.18721">
        <ele>245</ele>
        <time>2020-09-13T08:36:55Z</time>
      </trkpt>
      <trkpt lat="47.62293" lon="6.18714">
        <ele>245</ele>
        <time>2020-09-13T08:36:59Z</time>
      </trkpt>
      <trkpt lat="47.62291" lon="6.18707">
        <ele>245</ele>
        <time>2020-09-13T08:37:00Z</time>
      </trkpt>
      <trkpt lat="47.62288" lon="6.18701">
        <ele>245</ele>
        <time>2020-09-13T08:37:03Z</time>
      </trkpt>
      <trkpt lat="47.62283" lon="6.18687">
        <ele>244</ele>
        <time>2020-09-13T08:37:05Z</time>
      </trkpt>
      <trkpt lat="47.62279" lon="6.1868">
        <ele>244</ele>
        <time>2020-09-13T08:37:05Z</time>
      </trkpt>
      <trkpt lat="47.62273" lon="6.18672">
        <ele>244</ele>
        <time>2020-09-13T08:37:07Z</time>
      </trkpt>
      <trkpt lat="47.62264" lon="6.1867">
        <ele>243</ele>
        <time>2020-09-13T08:37:08Z</time>
      </trkpt>
      <trkpt lat="47.62259" lon="6.18673">
        <ele>242</ele>
        <time>2020-09-13T08:37:10Z</time>
      </trkpt>
      <trkpt lat="47.62255" lon="6.18676">
        <ele>242</ele>
        <time>2020-09-13T08:37:12Z</time>
      </trkpt>
      <trkpt lat="47.6225" lon="6.1868">
        <ele>243</ele>
        <time>2020-09-13T08:37:16Z</time>
      </trkpt>
      <trkpt lat="47.62246" lon="6.18684">
        <ele>243</ele>
        <time>2020-09-13T08:37:22Z</time>
      </trkpt>
      <trkpt lat="47.62241" lon="6.18688">
        <ele>243</ele>
        <time>2020-09-13T08:37:27Z</time>
      </trkpt>
      <trkpt lat="47.62237" lon="6.18693">
        <ele>244</ele>
        <time>2020-09-13T08:37:31Z</time>
      </trkpt>
      <trkpt lat="47.62233" lon="6.18697">
        <ele>244</ele>
        <time>2020-09-13T08:37:35Z</time>
      </trkpt>
      <trkpt lat="47.62229" lon="6.18701">
        <ele>244</ele>
        <time>2020-09-13T08:37:39Z</time>
      </trkpt>
      <trkpt lat="47.62227" lon="6.18708">
        <ele>245</ele>
        <time>2020-09-13T08:37:42Z</time>
      </trkpt>
      <trkpt lat="47.62223" lon="6.18711">
        <ele>245</ele>
        <time>2020-09-13T08:37:45Z</time>
      </trkpt>
      <trkpt lat="47.62218" lon="6.1871">
        <ele>245</ele>
        <time>2020-09-13T08:37:49Z</time>
      </trkpt>
      <trkpt lat="47.62213" lon="6.18713">
        <ele>245</ele>
        <time>2020-09-13T08:37:53Z</time>
      </trkpt>
      <trkpt lat="47.62208" lon="6.18714">
        <ele>245</ele>
        <time>2020-09-13T08:37:58Z</time>
      </trkpt>
      <trkpt lat="47.62204" lon="6.18711">
        <ele>245</ele>
        <time>2020-09-13T08:38:02Z</time>
      </trkpt>
      <trkpt lat="47.62198" lon="6.1871">
        <ele>245</ele>
        <time>2020-09-13T08:38:06Z</time>
      </trkpt>
      <trkpt lat="47.62193" lon="6.18708">
        <ele>245</ele>
        <time>2020-09-13T08:38:10Z</time>
      </trkpt>
      <trkpt lat="47.62187" lon="6.18704">
        <ele>245</ele>
        <time>2020-09-13T08:38:14Z</time>
      </trkpt>
      <trkpt lat="47.62183" lon="6.18701">
        <ele>245</ele>
        <time>2020-09-13T08:38:17Z</time>
      </trkpt>
      <trkpt lat="47.62178" lon="6.18698">
        <ele>245</ele>
        <time>2020-09-13T08:38:20Z</time>
      </trkpt>
      <trkpt lat="47.62173" lon="6.18695">
        <ele>246</ele>
        <time>2020-09-13T08:38:23Z</time>
      </trkpt>
      <trkpt lat="47.62168" lon="6.18693">
        <ele>246</ele>
        <time>2020-09-13T08:38:26Z</time>
      </trkpt>
      <trkpt lat="47.62164" lon="6.18691">
        <ele>246</ele>
        <time>2020-09-13T08:38:29Z</time>
      </trkpt>
      <trkpt lat="47.62158" lon="6.18692">
        <ele>246</ele>
        <time>2020-09-13T08:38:32Z</time>
      </trkpt>
      <trkpt lat="47.62153" lon="6.18693">
        <ele>246</ele>
        <time>2020-09-13T08:38:35Z</time>
      </trkpt>
      <trkpt lat="47.62149" lon="6.18696">
        <ele>246</ele>
        <time>2020-09-13T08:38:38Z</time>
      </trkpt>
      <trkpt lat="47.62144" lon="6.18699">
        <ele>246</ele>
        <time>2020-09-13T08:38:41Z</time>
      </trkpt>
      <trkpt lat="47.62139" lon="6.18704">
        <ele>246</ele>
        <time>2020-09-13T08:38:44Z</time>
      </trkpt>
      <trkpt lat="47.62134" lon="6.18709">
        <ele>246</ele>
        <time>2020-09-13T08:38:47Z</time>
      </trkpt>
      <trkpt lat="47.62128" lon="6.18712">
        <ele>246</ele>
        <time>2020-09-13T08:38:50Z</time>
      </trkpt>
      <trkpt lat="47.62123" lon="6.18716">
        <ele>246</ele>
        <time>2020-09-13T08:38:53Z</time>
      </trkpt>
      <trkpt lat="47.62117" lon="6.1872">
        <ele>246</ele>
        <time>2020-09-13T08:38:56Z</time>
      </trkpt>
      <trkpt lat="47.62111" lon="6.18724">
        <ele>246</ele>
        <time>2020-09-13T08:38:59Z</time>
      </trkpt>
      <trkpt lat="47.62106" lon="6.18728">
        <ele>246</ele>
        <time>2020-09-13T08:39:02Z</time>
      </trkpt>
      <trkpt lat="47.621" lon="6.18732">
        <ele>246</ele>
        <time>2020-09-13T08:39:05Z</time>
      </trkpt>
      <trkpt lat="47.62095" lon="6.18736">
        <ele>246</ele>
        <time>2020-09-13T08:39:08Z</time>
      </trkpt>
      <trkpt lat="47.62089" lon="6.1874">
        <ele>246</ele>
        <time>2020-09-13T08:39:11Z</time>
      </trkpt>
      <trkpt lat="47.62084" lon="6.18743">
        <ele>246</ele>
        <time>2020-09-13T08:39:13Z</time>
      </trkpt>
      <trkpt lat="47.62078" lon="6.18746">
        <ele>245</ele>
        <time>2020-09-13T08:39:15Z</time>
      </trkpt>
      <trkpt lat="47.62074" lon="6.1875">
        <ele>244</ele>
        <time>2020-09-13T08:39:18Z</time>
      </trkpt>
      <trkpt lat="47.62066" lon="6.18756">
        <ele>243</ele>
        <time>2020-09-13T08:39:20Z</time>
      </trkpt>
      <trkpt lat="47.62062" lon="6.1876">
        <ele>243</ele>
        <time>2020-09-13T08:39:22Z</time>
      </trkpt>
      <trkpt lat="47.62057" lon="6.18767">
        <ele>242</ele>
        <time>2020-09-13T08:39:24Z</time>
      </trkpt>
      <trkpt lat="47.62053" lon="6.18772">
        <ele>242</ele>
        <time>2020-09-13T08:39:26Z</time>
      </trkpt>
      <trkpt lat="47.6205" lon="6.1878">
        <ele>241</ele>
        <time>2020-09-13T08:39:28Z</time>
      </trkpt>
      <trkpt lat="47.62048" lon="6.18789">
        <ele>241</ele>
        <time>2020-09-13T08:39:30Z</time>
      </trkpt>
      <trkpt lat="47.62047" lon="6.18795">
        <ele>241</ele>
        <time>2020-09-13T08:39:32Z</time>
      </trkpt>
      <trkpt lat="47.62045" lon="6.18803">
        <ele>241</ele>
        <time>2020-09-13T08:39:34Z</time>
      </trkpt>
      <trkpt lat="47.62044" lon="6.1881">
        <ele>241</ele>
        <time>2020-09-13T08:39:36Z</time>
      </trkpt>
      <trkpt lat="47.62043" lon="6.18821">
        <ele>241</ele>
        <time>2020-09-13T08:39:38Z</time>
      </trkpt>
      <trkpt lat="47.62042" lon="6.1883">
        <ele>241</ele>
        <time>2020-09-13T08:39:41Z</time>
      </trkpt>
      <trkpt lat="47.62041" lon="6.18843">
        <ele>242</ele>
        <time>2020-09-13T08:39:42Z</time>
      </trkpt>
      <trkpt lat="47.62039" lon="6.18853">
        <ele>242</ele>
        <time>2020-09-13T08:39:44Z</time>
      </trkpt>
      <trkpt lat="47.62038" lon="6.18864">
        <ele>242</ele>
        <time>2020-09-13T08:39:47Z</time>
      </trkpt>
      <trkpt lat="47.62037" lon="6.18873">
        <ele>242</ele>
        <time>2020-09-13T08:39:49Z</time>
      </trkpt>
      <trkpt lat="47.62035" lon="6.18892">
        <ele>242</ele>
        <time>2020-09-13T08:39:52Z</time>
      </trkpt>
      <trkpt lat="47.62033" lon="6.18902">
        <ele>242</ele>
        <time>2020-09-13T08:39:54Z</time>
      </trkpt>
      <trkpt lat="47.62031" lon="6.18911">
        <ele>242</ele>
        <time>2020-09-13T08:39:56Z</time>
      </trkpt>
      <trkpt lat="47.62027" lon="6.18923">
        <ele>244</ele>
        <time>2020-09-13T08:39:58Z</time>
      </trkpt>
      <trkpt lat="47.62025" lon="6.18931">
        <ele>244</ele>
        <time>2020-09-13T08:40:01Z</time>
      </trkpt>
      <trkpt lat="47.62021" lon="6.18937">
        <ele>244</ele>
        <time>2020-09-13T08:40:04Z</time>
      </trkpt>
      <trkpt lat="47.62018" lon="6.18943">
        <ele>244</ele>
        <time>2020-09-13T08:40:07Z</time>
      </trkpt>
      <trkpt lat="47.62014" lon="6.18948">
        <ele>244</ele>
        <time>2020-09-13T08:40:10Z</time>
      </trkpt>
      <trkpt lat="47.6201" lon="6.18954">
        <ele>244</ele>
        <time>2020-09-13T08:40:13Z</time>
      </trkpt>
      <trkpt lat="47.62005" lon="6.18959">
        <ele>244</ele>
        <time>2020-09-13T08:40:16Z</time>
      </trkpt>
      <trkpt lat="47.61999" lon="6.18963">
        <ele>242</ele>
        <time>2020-09-13T08:40:19Z</time>
      </trkpt>
      <trkpt lat="47.61993" lon="6.18967">
        <ele>242</ele>
        <time>2020-09-13T08:40:22Z</time>
      </trkpt>
      <trkpt lat="47.61986" lon="6.18969">
        <ele>242</ele>
        <time>2020-09-13T08:40:25Z</time>
      </trkpt>
      <trkpt lat="47.61981" lon="6.1897">
        <ele>242</ele>
        <time>2020-09-13T08:40:27Z</time>
      </trkpt>
      <trkpt lat="47.61976" lon="6.18972">
        <ele>242</ele>
        <time>2020-09-13T08:40:29Z</time>
      </trkpt>
      <trkpt lat="47.6197" lon="6.18973">
        <ele>242</ele>
        <time>2020-09-13T08:40:31Z</time>
      </trkpt>
      <trkpt lat="47.61963" lon="6.18975">
        <ele>242</ele>
        <time>2020-09-13T08:40:34Z</time>
      </trkpt>
      <trkpt lat="47.61957" lon="6.18977">
        <ele>242</ele>
        <time>2020-09-13T08:40:37Z</time>
      </trkpt>
      <trkpt lat="47.61953" lon="6.18978">
        <ele>242</ele>
        <time>2020-09-13T08:40:38Z</time>
      </trkpt>
      <trkpt lat="47.61946" lon="6.1898">
        <ele>242</ele>
        <time>2020-09-13T08:40:40Z</time>
      </trkpt>
      <trkpt lat="47.61941" lon="6.18982">
        <ele>242</ele>
        <time>2020-09-13T08:40:42Z</time>
      </trkpt>
      <trkpt lat="47.61934" lon="6.18983">
        <ele>242</ele>
        <time>2020-09-13T08:40:44Z</time>
      </trkpt>
      <trkpt lat="47.61929" lon="6.18985">
        <ele>242</ele>
        <time>2020-09-13T08:40:46Z</time>
      </trkpt>
      <trkpt lat="47.61924" lon="6.18987">
        <ele>243</ele>
        <time>2020-09-13T08:40:48Z</time>
      </trkpt>
      <trkpt lat="47.61918" lon="6.1899">
        <ele>243</ele>
        <time>2020-09-13T08:40:50Z</time>
      </trkpt>
      <trkpt lat="47.61913" lon="6.18992">
        <ele>242</ele>
        <time>2020-09-13T08:40:52Z</time>
      </trkpt>
      <trkpt lat="47.61907" lon="6.18995">
        <ele>241</ele>
        <time>2020-09-13T08:40:54Z</time>
      </trkpt>
      <trkpt lat="47.61903" lon="6.18999">
        <ele>241</ele>
        <time>2020-09-13T08:40:56Z</time>
      </trkpt>
      <trkpt lat="47.61898" lon="6.19003">
        <ele>243</ele>
        <time>2020-09-13T08:40:58Z</time>
      </trkpt>
      <trkpt lat="47.61893" lon="6.19007">
        <ele>243</ele>
        <time>2020-09-13T08:41:00Z</time>
      </trkpt>
      <trkpt lat="47.61888" lon="6.1901">
        <ele>243</ele>
        <time>2020-09-13T08:41:02Z</time>
      </trkpt>
      <trkpt lat="47.61883" lon="6.19015">
        <ele>243</ele>
        <time>2020-09-13T08:41:05Z</time>
      </trkpt>
      <trkpt lat="47.61878" lon="6.19019">
        <ele>243</ele>
        <time>2020-09-13T08:41:08Z</time>
      </trkpt>
      <trkpt lat="47.61868" lon="6.19026">
        <ele>243</ele>
        <time>2020-09-13T08:41:09Z</time>
      </trkpt>
      <trkpt lat="47.61863" lon="6.19031">
        <ele>243</ele>
        <time>2020-09-13T08:41:12Z</time>
      </trkpt>
      <trkpt lat="47.61852" lon="6.1904">
        <ele>243</ele>
        <time>2020-09-13T08:41:14Z</time>
      </trkpt>
      <trkpt lat="47.61847" lon="6.19045">
        <ele>243</ele>
        <time>2020-09-13T08:41:16Z</time>
      </trkpt>
      <trkpt lat="47.61841" lon="6.19048">
        <ele>243</ele>
        <time>2020-09-13T08:41:18Z</time>
      </trkpt>
      <trkpt lat="47.61837" lon="6.19052">
        <ele>244</ele>
        <time>2020-09-13T08:41:22Z</time>
      </trkpt>
      <trkpt lat="47.61833" lon="6.19055">
        <ele>244</ele>
        <time>2020-09-13T08:41:24Z</time>
      </trkpt>
      <trkpt lat="47.61828" lon="6.19058">
        <ele>244</ele>
        <time>2020-09-13T08:41:27Z</time>
      </trkpt>
      <trkpt lat="47.61823" lon="6.19064">
        <ele>244</ele>
        <time>2020-09-13T08:41:29Z</time>
      </trkpt>
      <trkpt lat="47.61818" lon="6.19068">
        <ele>245</ele>
        <time>2020-09-13T08:41:32Z</time>
      </trkpt>
      <trkpt lat="47.61813" lon="6.19072">
        <ele>245</ele>
        <time>2020-09-13T08:41:34Z</time>
      </trkpt>
      <trkpt lat="47.61809" lon="6.19076">
        <ele>245</ele>
        <time>2020-09-13T08:41:37Z</time>
      </trkpt>
      <trkpt lat="47.61803" lon="6.1908">
        <ele>245</ele>
        <time>2020-09-13T08:41:38Z</time>
      </trkpt>
      <trkpt lat="47.61798" lon="6.19084">
        <ele>247</ele>
        <time>2020-09-13T08:41:40Z</time>
      </trkpt>
      <trkpt lat="47.61793" lon="6.19088">
        <ele>248</ele>
        <time>2020-09-13T08:41:42Z</time>
      </trkpt>
      <trkpt lat="47.61788" lon="6.19092">
        <ele>248</ele>
        <time>2020-09-13T08:41:44Z</time>
      </trkpt>
      <trkpt lat="47.61784" lon="6.19096">
        <ele>248</ele>
        <time>2020-09-13T08:41:46Z</time>
      </trkpt>
      <trkpt lat="47.61778" lon="6.191">
        <ele>248</ele>
        <time>2020-09-13T08:41:49Z</time>
      </trkpt>
      <trkpt lat="47.61774" lon="6.19104">
        <ele>248</ele>
        <time>2020-09-13T08:41:51Z</time>
      </trkpt>
      <trkpt lat="47.6177" lon="6.19108">
        <ele>248</ele>
        <time>2020-09-13T08:41:53Z</time>
      </trkpt>
      <trkpt lat="47.61764" lon="6.19113">
        <ele>248</ele>
        <time>2020-09-13T08:41:56Z</time>
      </trkpt>
      <trkpt lat="47.6176" lon="6.19116">
        <ele>248</ele>
        <time>2020-09-13T08:41:58Z</time>
      </trkpt>
      <trkpt lat="47.61756" lon="6.1912">
        <ele>248</ele>
        <time>2020-09-13T08:42:00Z</time>
      </trkpt>
      <trkpt lat="47.61751" lon="6.19124">
        <ele>248</ele>
        <time>2020-09-13T08:42:02Z</time>
      </trkpt>
      <trkpt lat="47.61747" lon="6.19128">
        <ele>249</ele>
        <time>2020-09-13T08:42:04Z</time>
      </trkpt>
      <trkpt lat="47.61741" lon="6.19133">
        <ele>249</ele>
        <time>2020-09-13T08:42:07Z</time>
      </trkpt>
      <trkpt lat="47.61737" lon="6.19137">
        <ele>249</ele>
        <time>2020-09-13T08:42:10Z</time>
      </trkpt>
      <trkpt lat="47.61731" lon="6.19141">
        <ele>249</ele>
        <time>2020-09-13T08:42:12Z</time>
      </trkpt>
      <trkpt lat="47.61727" lon="6.19145">
        <ele>249</ele>
        <time>2020-09-13T08:42:13Z</time>
      </trkpt>
      <trkpt lat="47.61721" lon="6.19149">
        <ele>249</ele>
        <time>2020-09-13T08:42:15Z</time>
      </trkpt>
      <trkpt lat="47.61715" lon="6.19153">
        <ele>249</ele>
        <time>2020-09-13T08:42:17Z</time>
      </trkpt>
      <trkpt lat="47.61711" lon="6.19157">
        <ele>249</ele>
        <time>2020-09-13T08:42:20Z</time>
      </trkpt>
      <trkpt lat="47.61707" lon="6.19161">
        <ele>248</ele>
        <time>2020-09-13T08:42:22Z</time>
      </trkpt>
      <trkpt lat="47.61701" lon="6.19166">
        <ele>248</ele>
        <time>2020-09-13T08:42:23Z</time>
      </trkpt>
      <trkpt lat="47.61695" lon="6.19171">
        <ele>249</ele>
        <time>2020-09-13T08:42:25Z</time>
      </trkpt>
      <trkpt lat="47.61689" lon="6.19177">
        <ele>249</ele>
        <time>2020-09-13T08:42:28Z</time>
      </trkpt>
      <trkpt lat="47.61683" lon="6.19181">
        <ele>249</ele>
        <time>2020-09-13T08:42:29Z</time>
      </trkpt>
      <trkpt lat="47.61677" lon="6.19186">
        <ele>248</ele>
        <time>2020-09-13T08:42:32Z</time>
      </trkpt>
      <trkpt lat="47.6167" lon="6.19193">
        <ele>248</ele>
        <time>2020-09-13T08:42:34Z</time>
      </trkpt>
      <trkpt lat="47.61663" lon="6.19197">
        <ele>245</ele>
        <time>2020-09-13T08:42:35Z</time>
      </trkpt>
      <trkpt lat="47.61657" lon="6.19203">
        <ele>244</ele>
        <time>2020-09-13T08:42:37Z</time>
      </trkpt>
      <trkpt lat="47.61648" lon="6.19211">
        <ele>244</ele>
        <time>2020-09-13T08:42:38Z</time>
      </trkpt>
      <trkpt lat="47.61644" lon="6.19214">
        <ele>243</ele>
        <time>2020-09-13T08:42:40Z</time>
      </trkpt>
      <trkpt lat="47.61622" lon="6.19223">
        <ele>242</ele>
        <time>2020-09-13T08:42:42Z</time>
      </trkpt>
      <trkpt lat="47.61615" lon="6.19221">
        <ele>241</ele>
        <time>2020-09-13T08:42:43Z</time>
      </trkpt>
      <trkpt lat="47.61608" lon="6.19217">
        <ele>241</ele>
        <time>2020-09-13T08:42:44Z</time>
      </trkpt>
      <trkpt lat="47.61602" lon="6.19212">
        <ele>241</ele>
        <time>2020-09-13T08:42:45Z</time>
      </trkpt>
      <trkpt lat="47.61597" lon="6.19206">
        <ele>241</ele>
        <time>2020-09-13T08:42:46Z</time>
      </trkpt>
      <trkpt lat="47.61592" lon="6.192">
        <ele>241</ele>
        <time>2020-09-13T08:42:47Z</time>
      </trkpt>
      <trkpt lat="47.61588" lon="6.19194">
        <ele>242</ele>
        <time>2020-09-13T08:42:48Z</time>
      </trkpt>
      <trkpt lat="47.61583" lon="6.19188">
        <ele>237</ele>
        <time>2020-09-13T08:42:49Z</time>
      </trkpt>
      <trkpt lat="47.61579" lon="6.19182">
        <ele>238</ele>
        <time>2020-09-13T08:42:50Z</time>
      </trkpt>
      <trkpt lat="47.61575" lon="6.19175">
        <ele>238</ele>
        <time>2020-09-13T08:42:51Z</time>
      </trkpt>
      <trkpt lat="47.61571" lon="6.19169">
        <ele>238</ele>
        <time>2020-09-13T08:42:52Z</time>
      </trkpt>
      <trkpt lat="47.61566" lon="6.19162">
        <ele>239</ele>
        <time>2020-09-13T08:42:53Z</time>
      </trkpt>
      <trkpt lat="47.61562" lon="6.19156">
        <ele>239</ele>
        <time>2020-09-13T08:42:54Z</time>
      </trkpt>
      <trkpt lat="47.61557" lon="6.19149">
        <ele>238</ele>
        <time>2020-09-13T08:42:55Z</time>
      </trkpt>
      <trkpt lat="47.61552" lon="6.19142">
        <ele>238</ele>
        <time>2020-09-13T08:42:56Z</time>
      </trkpt>
      <trkpt lat="47.61546" lon="6.19135">
        <ele>237</ele>
        <time>2020-09-13T08:42:57Z</time>
      </trkpt>
      <trkpt lat="47.61541" lon="6.19127">
        <ele>237</ele>
        <time>2020-09-13T08:42:58Z</time>
      </trkpt>
      <trkpt lat="47.61536" lon="6.1912">
        <ele>237</ele>
        <time>2020-09-13T08:42:59Z</time>
      </trkpt>
      <trkpt lat="47.61532" lon="6.19113">
        <ele>237</ele>
        <time>2020-09-13T08:43:00Z</time>
      </trkpt>
      <trkpt lat="47.61527" lon="6.19107">
        <ele>236</ele>
        <time>2020-09-13T08:43:01Z</time>
      </trkpt>
      <trkpt lat="47.61522" lon="6.19102">
        <ele>236</ele>
        <time>2020-09-13T08:43:02Z</time>
      </trkpt>
      <trkpt lat="47.61517" lon="6.19098">
        <ele>236</ele>
        <time>2020-09-13T08:43:03Z</time>
      </trkpt>
      <trkpt lat="47.61511" lon="6.19096">
        <ele>235</ele>
        <time>2020-09-13T08:43:04Z</time>
      </trkpt>
      <trkpt lat="47.61505" lon="6.19096">
        <ele>235</ele>
        <time>2020-09-13T08:43:05Z</time>
      </trkpt>
      <trkpt lat="47.615" lon="6.19099">
        <ele>230</ele>
        <time>2020-09-13T08:43:06Z</time>
      </trkpt>
      <trkpt lat="47.61494" lon="6.19103">
        <ele>230</ele>
        <time>2020-09-13T08:43:07Z</time>
      </trkpt>
      <trkpt lat="47.6149" lon="6.19109">
        <ele>229</ele>
        <time>2020-09-13T08:43:08Z</time>
      </trkpt>
      <trkpt lat="47.61486" lon="6.19114">
        <ele>229</ele>
        <time>2020-09-13T08:43:09Z</time>
      </trkpt>
      <trkpt lat="47.61483" lon="6.19118">
        <ele>228</ele>
        <time>2020-09-13T08:43:10Z</time>
      </trkpt>
      <trkpt lat="47.61476" lon="6.19119">
        <ele>228</ele>
        <time>2020-09-13T08:43:12Z</time>
      </trkpt>
      <trkpt lat="47.6147" lon="6.19117">
        <ele>228</ele>
        <time>2020-09-13T08:43:14Z</time>
      </trkpt>
      <trkpt lat="47.61469" lon="6.19109">
        <ele>228</ele>
        <time>2020-09-13T08:43:16Z</time>
      </trkpt>
      <trkpt lat="47.6147" lon="6.191">
        <ele>228</ele>
        <time>2020-09-13T08:43:18Z</time>
      </trkpt>
      <trkpt lat="47.61471" lon="6.19078">
        <ele>229</ele>
        <time>2020-09-13T08:43:21Z</time>
      </trkpt>
      <trkpt lat="47.61472" lon="6.19068">
        <ele>229</ele>
        <time>2020-09-13T08:43:22Z</time>
      </trkpt>
      <trkpt lat="47.61472" lon="6.19058">
        <ele>228</ele>
        <time>2020-09-13T08:43:23Z</time>
      </trkpt>
      <trkpt lat="47.61472" lon="6.19048">
        <ele>228</ele>
        <time>2020-09-13T08:43:24Z</time>
      </trkpt>
      <trkpt lat="47.61473" lon="6.19037">
        <ele>228</ele>
        <time>2020-09-13T08:43:25Z</time>
      </trkpt>
      <trkpt lat="47.61473" lon="6.19026">
        <ele>228</ele>
        <time>2020-09-13T08:43:26Z</time>
      </trkpt>
      <trkpt lat="47.61473" lon="6.19016">
        <ele>228</ele>
        <time>2020-09-13T08:43:27Z</time>
      </trkpt>
      <trkpt lat="47.61474" lon="6.19005">
        <ele>228</ele>
        <time>2020-09-13T08:43:28Z</time>
      </trkpt>
      <trkpt lat="47.61475" lon="6.18995">
        <ele>226</ele>
        <time>2020-09-13T08:43:29Z</time>
      </trkpt>
      <trkpt lat="47.61477" lon="6.18984">
        <ele>226</ele>
        <time>2020-09-13T08:43:30Z</time>
      </trkpt>
      <trkpt lat="47.61479" lon="6.18973">
        <ele>225</ele>
        <time>2020-09-13T08:43:31Z</time>
      </trkpt>
      <trkpt lat="47.61482" lon="6.18962">
        <ele>225</ele>
        <time>2020-09-13T08:43:32Z</time>
      </trkpt>
      <trkpt lat="47.61486" lon="6.18951">
        <ele>224</ele>
        <time>2020-09-13T08:43:33Z</time>
      </trkpt>
      <trkpt lat="47.61491" lon="6.18942">
        <ele>224</ele>
        <time>2020-09-13T08:43:34Z</time>
      </trkpt>
      <trkpt lat="47.61497" lon="6.18933">
        <ele>224</ele>
        <time>2020-09-13T08:43:35Z</time>
      </trkpt>
      <trkpt lat="47.61504" lon="6.18927">
        <ele>225</ele>
        <time>2020-09-13T08:43:36Z</time>
      </trkpt>
      <trkpt lat="47.61512" lon="6.18923">
        <ele>225</ele>
        <time>2020-09-13T08:43:37Z</time>
      </trkpt>
      <trkpt lat="47.6152" lon="6.18922">
        <ele>226</ele>
        <time>2020-09-13T08:43:38Z</time>
      </trkpt>
      <trkpt lat="47.61529" lon="6.18924">
        <ele>227</ele>
        <time>2020-09-13T08:43:39Z</time>
      </trkpt>
      <trkpt lat="47.61536" lon="6.18926">
        <ele>227</ele>
        <time>2020-09-13T08:43:40Z</time>
      </trkpt>
      <trkpt lat="47.61544" lon="6.1893">
        <ele>228</ele>
        <time>2020-09-13T08:43:41Z</time>
      </trkpt>
      <trkpt lat="47.61551" lon="6.18933">
        <ele>228</ele>
        <time>2020-09-13T08:43:42Z</time>
      </trkpt>
      <trkpt lat="47.61559" lon="6.18935">
        <ele>228</ele>
        <time>2020-09-13T08:43:43Z</time>
      </trkpt>
      <trkpt lat="47.61566" lon="6.18937">
        <ele>228</ele>
        <time>2020-09-13T08:43:44Z</time>
      </trkpt>
      <trkpt lat="47.61574" lon="6.18939">
        <ele>228</ele>
        <time>2020-09-13T08:43:45Z</time>
      </trkpt>
      <trkpt lat="47.61581" lon="6.18942">
        <ele>228</ele>
        <time>2020-09-13T08:43:46Z</time>
      </trkpt>
      <trkpt lat="47.61588" lon="6.18943">
        <ele>230</ele>
        <time>2020-09-13T08:43:47Z</time>
      </trkpt>
      <trkpt lat="47.61596" lon="6.18944">
        <ele>230</ele>
        <time>2020-09-13T08:43:48Z</time>
      </trkpt>
      <trkpt lat="47.61603" lon="6.18945">
        <ele>231</ele>
        <time>2020-09-13T08:43:49Z</time>
      </trkpt>
      <trkpt lat="47.6161" lon="6.18945">
        <ele>231</ele>
        <time>2020-09-13T08:43:50Z</time>
      </trkpt>
      <trkpt lat="47.61618" lon="6.18945">
        <ele>231</ele>
        <time>2020-09-13T08:43:51Z</time>
      </trkpt>
      <trkpt lat="47.61625" lon="6.18944">
        <ele>231</ele>
        <time>2020-09-13T08:43:52Z</time>
      </trkpt>
      <trkpt lat="47.61632" lon="6.18944">
        <ele>231</ele>
        <time>2020-09-13T08:43:53Z</time>
      </trkpt>
      <trkpt lat="47.61639" lon="6.18942">
        <ele>231</ele>
        <time>2020-09-13T08:43:54Z</time>
      </trkpt>
      <trkpt lat="47.61646" lon="6.18941">
        <ele>231</ele>
        <time>2020-09-13T08:43:55Z</time>
      </trkpt>
      <trkpt lat="47.61652" lon="6.18939">
        <ele>230</ele>
        <time>2020-09-13T08:43:56Z</time>
      </trkpt>
      <trkpt lat="47.61659" lon="6.18937">
        <ele>230</ele>
        <time>2020-09-13T08:43:57Z</time>
      </trkpt>
      <trkpt lat="47.61665" lon="6.18934">
        <ele>229</ele>
        <time>2020-09-13T08:43:58Z</time>
      </trkpt>
      <trkpt lat="47.61672" lon="6.18932">
        <ele>230</ele>
        <time>2020-09-13T08:43:59Z</time>
      </trkpt>
      <trkpt lat="47.61678" lon="6.1893">
        <ele>230</ele>
        <time>2020-09-13T08:44:00Z</time>
      </trkpt>
      <trkpt lat="47.61685" lon="6.18928">
        <ele>230</ele>
        <time>2020-09-13T08:44:01Z</time>
      </trkpt>
      <trkpt lat="47.61691" lon="6.18926">
        <ele>231</ele>
        <time>2020-09-13T08:44:02Z</time>
      </trkpt>
      <trkpt lat="47.61698" lon="6.18924">
        <ele>231</ele>
        <time>2020-09-13T08:44:03Z</time>
      </trkpt>
      <trkpt lat="47.61704" lon="6.18922">
        <ele>231</ele>
        <time>2020-09-13T08:44:04Z</time>
      </trkpt>
      <trkpt lat="47.6171" lon="6.18921">
        <ele>231</ele>
        <time>2020-09-13T08:44:05Z</time>
      </trkpt>
      <trkpt lat="47.61717" lon="6.18919">
        <ele>231</ele>
        <time>2020-09-13T08:44:06Z</time>
      </trkpt>
      <trkpt lat="47.61723" lon="6.18917">
        <ele>231</ele>
        <time>2020-09-13T08:44:07Z</time>
      </trkpt>
      <trkpt lat="47.61729" lon="6.18916">
        <ele>226</ele>
        <time>2020-09-13T08:44:08Z</time>
      </trkpt>
      <trkpt lat="47.61735" lon="6.18913">
        <ele>227</ele>
        <time>2020-09-13T08:44:09Z</time>
      </trkpt>
      <trkpt lat="47.61741" lon="6.18911">
        <ele>227</ele>
        <time>2020-09-13T08:44:10Z</time>
      </trkpt>
      <trkpt lat="47.61747" lon="6.1891">
        <ele>227</ele>
        <time>2020-09-13T08:44:11Z</time>
      </trkpt>
      <trkpt lat="47.61753" lon="6.18908">
        <ele>227</ele>
        <time>2020-09-13T08:44:12Z</time>
      </trkpt>
      <trkpt lat="47.61759" lon="6.18907">
        <ele>227</ele>
        <time>2020-09-13T08:44:13Z</time>
      </trkpt>
      <trkpt lat="47.61765" lon="6.18906">
        <ele>226</ele>
        <time>2020-09-13T08:44:14Z</time>
      </trkpt>
      <trkpt lat="47.61771" lon="6.18904">
        <ele>226</ele>
        <time>2020-09-13T08:44:15Z</time>
      </trkpt>
      <trkpt lat="47.61777" lon="6.18903">
        <ele>226</ele>
        <time>2020-09-13T08:44:16Z</time>
      </trkpt>
      <trkpt lat="47.61783" lon="6.18902">
        <ele>226</ele>
        <time>2020-09-13T08:44:17Z</time>
      </trkpt>
      <trkpt lat="47.61789" lon="6.189">
        <ele>226</ele>
        <time>2020-09-13T08:44:18Z</time>
      </trkpt>
      <trkpt lat="47.61795" lon="6.189">
        <ele>226</ele>
        <time>2020-09-13T08:44:19Z</time>
      </trkpt>
      <trkpt lat="47.61801" lon="6.18899">
        <ele>226</ele>
        <time>2020-09-13T08:44:20Z</time>
      </trkpt>
      <trkpt lat="47.61807" lon="6.18898">
        <ele>226</ele>
        <time>2020-09-13T08:44:21Z</time>
      </trkpt>
      <trkpt lat="47.61813" lon="6.18898">
        <ele>226</ele>
        <time>2020-09-13T08:44:22Z</time>
      </trkpt>
      <trkpt lat="47.61819" lon="6.18898">
        <ele>227</ele>
        <time>2020-09-13T08:44:23Z</time>
      </trkpt>
      <trkpt lat="47.61825" lon="6.18897">
        <ele>227</ele>
        <time>2020-09-13T08:44:24Z</time>
      </trkpt>
      <trkpt lat="47.61831" lon="6.18897">
        <ele>227</ele>
        <time>2020-09-13T08:44:25Z</time>
      </trkpt>
      <trkpt lat="47.61837" lon="6.18896">
        <ele>228</ele>
        <time>2020-09-13T08:44:26Z</time>
      </trkpt>
      <trkpt lat="47.61843" lon="6.18895">
        <ele>228</ele>
        <time>2020-09-13T08:44:27Z</time>
      </trkpt>
      <trkpt lat="47.61848" lon="6.18893">
        <ele>228</ele>
        <time>2020-09-13T08:44:28Z</time>
      </trkpt>
      <trkpt lat="47.61854" lon="6.18891">
        <ele>228</ele>
        <time>2020-09-13T08:44:29Z</time>
      </trkpt>
      <trkpt lat="47.61859" lon="6.18889">
        <ele>228</ele>
        <time>2020-09-13T08:44:30Z</time>
      </trkpt>
      <trkpt lat="47.61865" lon="6.18885">
        <ele>228</ele>
        <time>2020-09-13T08:44:31Z</time>
      </trkpt>
      <trkpt lat="47.6187" lon="6.18882">
        <ele>228</ele>
        <time>2020-09-13T08:44:32Z</time>
      </trkpt>
      <trkpt lat="47.61876" lon="6.18879">
        <ele>228</ele>
        <time>2020-09-13T08:44:33Z</time>
      </trkpt>
      <trkpt lat="47.61882" lon="6.18875">
        <ele>228</ele>
        <time>2020-09-13T08:44:34Z</time>
      </trkpt>
      <trkpt lat="47.61887" lon="6.18871">
        <ele>228</ele>
        <time>2020-09-13T08:44:35Z</time>
      </trkpt>
      <trkpt lat="47.61892" lon="6.18867">
        <ele>228</ele>
        <time>2020-09-13T08:44:36Z</time>
      </trkpt>
      <trkpt lat="47.61896" lon="6.18862">
        <ele>228</ele>
        <time>2020-09-13T08:44:37Z</time>
      </trkpt>
      <trkpt lat="47.619" lon="6.18857">
        <ele>228</ele>
        <time>2020-09-13T08:44:38Z</time>
      </trkpt>
      <trkpt lat="47.61905" lon="6.18851">
        <ele>228</ele>
        <time>2020-09-13T08:44:39Z</time>
      </trkpt>
      <trkpt lat="47.61908" lon="6.18846">
        <ele>228</ele>
        <time>2020-09-13T08:44:40Z</time>
      </trkpt>
      <trkpt lat="47.61912" lon="6.18841">
        <ele>227</ele>
        <time>2020-09-13T08:44:41Z</time>
      </trkpt>
      <trkpt lat="47.61915" lon="6.18835">
        <ele>227</ele>
        <time>2020-09-13T08:44:42Z</time>
      </trkpt>
      <trkpt lat="47.61918" lon="6.18829">
        <ele>227</ele>
        <time>2020-09-13T08:44:43Z</time>
      </trkpt>
      <trkpt lat="47.61922" lon="6.18822">
        <ele>228</ele>
        <time>2020-09-13T08:44:44Z</time>
      </trkpt>
      <trkpt lat="47.61925" lon="6.18816">
        <ele>228</ele>
        <time>2020-09-13T08:44:45Z</time>
      </trkpt>
      <trkpt lat="47.61928" lon="6.18809">
        <ele>228</ele>
        <time>2020-09-13T08:44:46Z</time>
      </trkpt>
      <trkpt lat="47.61931" lon="6.18802">
        <ele>228</ele>
        <time>2020-09-13T08:44:47Z</time>
      </trkpt>
      <trkpt lat="47.61934" lon="6.18795">
        <ele>228</ele>
        <time>2020-09-13T08:44:48Z</time>
      </trkpt>
      <trkpt lat="47.61936" lon="6.18789">
        <ele>228</ele>
        <time>2020-09-13T08:44:49Z</time>
      </trkpt>
      <trkpt lat="47.61939" lon="6.18783">
        <ele>228</ele>
        <time>2020-09-13T08:44:50Z</time>
      </trkpt>
      <trkpt lat="47.61941" lon="6.18777">
        <ele>228</ele>
        <time>2020-09-13T08:44:51Z</time>
      </trkpt>
      <trkpt lat="47.61944" lon="6.18771">
        <ele>228</ele>
        <time>2020-09-13T08:44:52Z</time>
      </trkpt>
      <trkpt lat="47.61946" lon="6.18765">
        <ele>228</ele>
        <time>2020-09-13T08:44:53Z</time>
      </trkpt>
      <trkpt lat="47.61949" lon="6.18759">
        <ele>228</ele>
        <time>2020-09-13T08:44:54Z</time>
      </trkpt>
      <trkpt lat="47.61952" lon="6.18753">
        <ele>228</ele>
        <time>2020-09-13T08:44:55Z</time>
      </trkpt>
      <trkpt lat="47.61953" lon="6.18746">
        <ele>227</ele>
        <time>2020-09-13T08:44:56Z</time>
      </trkpt>
      <trkpt lat="47.61955" lon="6.18739">
        <ele>227</ele>
        <time>2020-09-13T08:44:57Z</time>
      </trkpt>
      <trkpt lat="47.61958" lon="6.18733">
        <ele>227</ele>
        <time>2020-09-13T08:44:58Z</time>
      </trkpt>
      <trkpt lat="47.6196" lon="6.18725">
        <ele>228</ele>
        <time>2020-09-13T08:44:59Z</time>
      </trkpt>
      <trkpt lat="47.61962" lon="6.18718">
        <ele>228</ele>
        <time>2020-09-13T08:45:00Z</time>
      </trkpt>
      <trkpt lat="47.61964" lon="6.18712">
        <ele>228</ele>
        <time>2020-09-13T08:45:01Z</time>
      </trkpt>
      <trkpt lat="47.61967" lon="6.18705">
        <ele>228</ele>
        <time>2020-09-13T08:45:02Z</time>
      </trkpt>
      <trkpt lat="47.61969" lon="6.18698">
        <ele>228</ele>
        <time>2020-09-13T08:45:03Z</time>
      </trkpt>
      <trkpt lat="47.61971" lon="6.18692">
        <ele>228</ele>
        <time>2020-09-13T08:45:04Z</time>
      </trkpt>
      <trkpt lat="47.61973" lon="6.18685">
        <ele>229</ele>
        <time>2020-09-13T08:45:05Z</time>
      </trkpt>
      <trkpt lat="47.61974" lon="6.18679">
        <ele>229</ele>
        <time>2020-09-13T08:45:06Z</time>
      </trkpt>
      <trkpt lat="47.61976" lon="6.18672">
        <ele>229</ele>
        <time>2020-09-13T08:45:07Z</time>
      </trkpt>
      <trkpt lat="47.61977" lon="6.18666">
        <ele>228</ele>
        <time>2020-09-13T08:45:08Z</time>
      </trkpt>
      <trkpt lat="47.61978" lon="6.18658">
        <ele>228</ele>
        <time>2020-09-13T08:45:09Z</time>
      </trkpt>
      <trkpt lat="47.6198" lon="6.18651">
        <ele>227</ele>
        <time>2020-09-13T08:45:10Z</time>
      </trkpt>
      <trkpt lat="47.61981" lon="6.18643">
        <ele>227</ele>
        <time>2020-09-13T08:45:11Z</time>
      </trkpt>
      <trkpt lat="47.61983" lon="6.18636">
        <ele>226</ele>
        <time>2020-09-13T08:45:12Z</time>
      </trkpt>
      <trkpt lat="47.61984" lon="6.18629">
        <ele>226</ele>
        <time>2020-09-13T08:45:13Z</time>
      </trkpt>
      <trkpt lat="47.61986" lon="6.18622">
        <ele>226</ele>
        <time>2020-09-13T08:45:14Z</time>
      </trkpt>
      <trkpt lat="47.61987" lon="6.18615">
        <ele>225</ele>
        <time>2020-09-13T08:45:15Z</time>
      </trkpt>
      <trkpt lat="47.61989" lon="6.18607">
        <ele>225</ele>
        <time>2020-09-13T08:45:16Z</time>
      </trkpt>
      <trkpt lat="47.6199" lon="6.186">
        <ele>225</ele>
        <time>2020-09-13T08:45:17Z</time>
      </trkpt>
      <trkpt lat="47.61992" lon="6.18593">
        <ele>224</ele>
        <time>2020-09-13T08:45:18Z</time>
      </trkpt>
      <trkpt lat="47.61994" lon="6.18586">
        <ele>224</ele>
        <time>2020-09-13T08:45:19Z</time>
      </trkpt>
      <trkpt lat="47.61995" lon="6.18579">
        <ele>223</ele>
        <time>2020-09-13T08:45:20Z</time>
      </trkpt>
      <trkpt lat="47.61997" lon="6.18573">
        <ele>223</ele>
        <time>2020-09-13T08:45:21Z</time>
      </trkpt>
      <trkpt lat="47.61999" lon="6.18566">
        <ele>223</ele>
        <time>2020-09-13T08:45:22Z</time>
      </trkpt>
      <trkpt lat="47.62001" lon="6.1856">
        <ele>226</ele>
        <time>2020-09-13T08:45:23Z</time>
      </trkpt>
      <trkpt lat="47.62004" lon="6.18554">
        <ele>226</ele>
        <time>2020-09-13T08:45:24Z</time>
      </trkpt>
      <trkpt lat="47.62006" lon="6.18548">
        <ele>226</ele>
        <time>2020-09-13T08:45:25Z</time>
      </trkpt>
      <trkpt lat="47.62008" lon="6.18542">
        <ele>226</ele>
        <time>2020-09-13T08:45:26Z</time>
      </trkpt>
      <trkpt lat="47.62011" lon="6.18536">
        <ele>226</ele>
        <time>2020-09-13T08:45:27Z</time>
      </trkpt>
      <trkpt lat="47.62013" lon="6.1853">
        <ele>226</ele>
        <time>2020-09-13T08:45:28Z</time>
      </trkpt>
      <trkpt lat="47.62016" lon="6.18524">
        <ele>226</ele>
        <time>2020-09-13T08:45:29Z</time>
      </trkpt>
      <trkpt lat="47.62018" lon="6.18517">
        <ele>226</ele>
        <time>2020-09-13T08:45:30Z</time>
      </trkpt>
      <trkpt lat="47.62021" lon="6.18511">
        <ele>226</ele>
        <time>2020-09-13T08:45:31Z</time>
      </trkpt>
      <trkpt lat="47.62023" lon="6.18504">
        <ele>226</ele>
        <time>2020-09-13T08:45:32Z</time>
      </trkpt>
      <trkpt lat="47.62025" lon="6.18498">
        <ele>224</ele>
        <time>2020-09-13T08:45:33Z</time>
      </trkpt>
      <trkpt lat="47.62027" lon="6.18492">
        <ele>224</ele>
        <time>2020-09-13T08:45:34Z</time>
      </trkpt>
      <trkpt lat="47.62029" lon="6.18486">
        <ele>224</ele>
        <time>2020-09-13T08:45:35Z</time>
      </trkpt>
      <trkpt lat="47.62032" lon="6.18474">
        <ele>225</ele>
        <time>2020-09-13T08:45:37Z</time>
      </trkpt>
      <trkpt lat="47.62036" lon="6.18465">
        <ele>225</ele>
        <time>2020-09-13T08:45:39Z</time>
      </trkpt>
      <trkpt lat="47.62041" lon="6.1846">
        <ele>225</ele>
        <time>2020-09-13T08:45:41Z</time>
      </trkpt>
      <trkpt lat="47.62048" lon="6.18456">
        <ele>225</ele>
        <time>2020-09-13T08:45:43Z</time>
      </trkpt>
      <trkpt lat="47.62055" lon="6.18453">
        <ele>225</ele>
        <time>2020-09-13T08:45:45Z</time>
      </trkpt>
      <trkpt lat="47.6206" lon="6.18448">
        <ele>225</ele>
        <time>2020-09-13T08:45:48Z</time>
      </trkpt>
      <trkpt lat="47.62068" lon="6.18442">
        <ele>225</ele>
        <time>2020-09-13T08:45:49Z</time>
      </trkpt>
      <trkpt lat="47.62073" lon="6.18436">
        <ele>225</ele>
        <time>2020-09-13T08:45:51Z</time>
      </trkpt>
      <trkpt lat="47.62077" lon="6.18433">
        <ele>225</ele>
        <time>2020-09-13T08:45:53Z</time>
      </trkpt>
      <trkpt lat="47.62083" lon="6.18431">
        <ele>224</ele>
        <time>2020-09-13T08:45:55Z</time>
      </trkpt>
      <trkpt lat="47.62087" lon="6.18429">
        <ele>225</ele>
        <time>2020-09-13T08:45:57Z</time>
      </trkpt>
      <trkpt lat="47.62092" lon="6.18425">
        <ele>225</ele>
        <time>2020-09-13T08:45:59Z</time>
      </trkpt>
      <trkpt lat="47.62095" lon="6.18421">
        <ele>225</ele>
        <time>2020-09-13T08:46:01Z</time>
      </trkpt>
      <trkpt lat="47.62096" lon="6.18414">
        <ele>224</ele>
        <time>2020-09-13T08:46:04Z</time>
      </trkpt>
      <trkpt lat="47.62095" lon="6.18403">
        <ele>224</ele>
        <time>2020-09-13T08:46:06Z</time>
      </trkpt>
      <trkpt lat="47.62094" lon="6.1839">
        <ele>223</ele>
        <time>2020-09-13T08:46:07Z</time>
      </trkpt>
      <trkpt lat="47.62092" lon="6.18376">
        <ele>223</ele>
        <time>2020-09-13T08:46:09Z</time>
      </trkpt>
      <trkpt lat="47.62092" lon="6.18363">
        <ele>223</ele>
        <time>2020-09-13T08:46:12Z</time>
      </trkpt>
      <trkpt lat="47.62089" lon="6.18341">
        <ele>223</ele>
        <time>2020-09-13T08:46:15Z</time>
      </trkpt>
      <trkpt lat="47.62087" lon="6.18324">
        <ele>223</ele>
        <time>2020-09-13T08:46:16Z</time>
      </trkpt>
      <trkpt lat="47.62085" lon="6.18317">
        <ele>222</ele>
        <time>2020-09-13T08:46:17Z</time>
      </trkpt>
      <trkpt lat="47.62084" lon="6.18308">
        <ele>222</ele>
        <time>2020-09-13T08:46:19Z</time>
      </trkpt>
      <trkpt lat="47.62079" lon="6.18287">
        <ele>223</ele>
        <time>2020-09-13T08:46:20Z</time>
      </trkpt>
      <trkpt lat="47.62078" lon="6.18279">
        <ele>223</ele>
        <time>2020-09-13T08:46:21Z</time>
      </trkpt>
      <trkpt lat="47.62076" lon="6.18271">
        <ele>223</ele>
        <time>2020-09-13T08:46:22Z</time>
      </trkpt>
      <trkpt lat="47.62075" lon="6.18262">
        <ele>222</ele>
        <time>2020-09-13T08:46:23Z</time>
      </trkpt>
      <trkpt lat="47.62073" lon="6.18254">
        <ele>222</ele>
        <time>2020-09-13T08:46:24Z</time>
      </trkpt>
      <trkpt lat="47.62072" lon="6.18246">
        <ele>222</ele>
        <time>2020-09-13T08:46:25Z</time>
      </trkpt>
      <trkpt lat="47.62071" lon="6.18237">
        <ele>222</ele>
        <time>2020-09-13T08:46:26Z</time>
      </trkpt>
      <trkpt lat="47.62069" lon="6.18228">
        <ele>222</ele>
        <time>2020-09-13T08:46:27Z</time>
      </trkpt>
      <trkpt lat="47.62067" lon="6.18219">
        <ele>222</ele>
        <time>2020-09-13T08:46:28Z</time>
      </trkpt>
      <trkpt lat="47.62066" lon="6.18211">
        <ele>222</ele>
        <time>2020-09-13T08:46:29Z</time>
      </trkpt>
      <trkpt lat="47.62064" lon="6.18202">
        <ele>221</ele>
        <time>2020-09-13T08:46:30Z</time>
      </trkpt>
      <trkpt lat="47.62063" lon="6.18194">
        <ele>221</ele>
        <time>2020-09-13T08:46:31Z</time>
      </trkpt>
      <trkpt lat="47.62061" lon="6.18185">
        <ele>221</ele>
        <time>2020-09-13T08:46:32Z</time>
      </trkpt>
      <trkpt lat="47.6206" lon="6.18176">
        <ele>221</ele>
        <time>2020-09-13T08:46:33Z</time>
      </trkpt>
      <trkpt lat="47.62058" lon="6.18168">
        <ele>221</ele>
        <time>2020-09-13T08:46:34Z</time>
      </trkpt>
      <trkpt lat="47.62057" lon="6.1816">
        <ele>220</ele>
        <time>2020-09-13T08:46:35Z</time>
      </trkpt>
      <trkpt lat="47.62055" lon="6.18151">
        <ele>220</ele>
        <time>2020-09-13T08:46:36Z</time>
      </trkpt>
      <trkpt lat="47.62054" lon="6.18143">
        <ele>220</ele>
        <time>2020-09-13T08:46:37Z</time>
      </trkpt>
      <trkpt lat="47.62052" lon="6.18135">
        <ele>220</ele>
        <time>2020-09-13T08:46:38Z</time>
      </trkpt>
      <trkpt lat="47.62051" lon="6.18127">
        <ele>219</ele>
        <time>2020-09-13T08:46:39Z</time>
      </trkpt>
      <trkpt lat="47.62049" lon="6.18119">
        <ele>219</ele>
        <time>2020-09-13T08:46:40Z</time>
      </trkpt>
      <trkpt lat="47.62048" lon="6.1811">
        <ele>219</ele>
        <time>2020-09-13T08:46:41Z</time>
      </trkpt>
      <trkpt lat="47.62047" lon="6.18101">
        <ele>219</ele>
        <time>2020-09-13T08:46:42Z</time>
      </trkpt>
      <trkpt lat="47.62047" lon="6.18092">
        <ele>219</ele>
        <time>2020-09-13T08:46:43Z</time>
      </trkpt>
      <trkpt lat="47.62047" lon="6.18084">
        <ele>219</ele>
        <time>2020-09-13T08:46:44Z</time>
      </trkpt>
      <trkpt lat="47.62047" lon="6.18076">
        <ele>218</ele>
        <time>2020-09-13T08:46:45Z</time>
      </trkpt>
      <trkpt lat="47.62048" lon="6.18068">
        <ele>218</ele>
        <time>2020-09-13T08:46:46Z</time>
      </trkpt>
      <trkpt lat="47.62048" lon="6.1806">
        <ele>218</ele>
        <time>2020-09-13T08:46:47Z</time>
      </trkpt>
      <trkpt lat="47.62049" lon="6.18052">
        <ele>218</ele>
        <time>2020-09-13T08:46:48Z</time>
      </trkpt>
      <trkpt lat="47.62049" lon="6.18044">
        <ele>218</ele>
        <time>2020-09-13T08:46:49Z</time>
      </trkpt>
      <trkpt lat="47.6205" lon="6.18037">
        <ele>218</ele>
        <time>2020-09-13T08:46:50Z</time>
      </trkpt>
      <trkpt lat="47.62051" lon="6.1803">
        <ele>218</ele>
        <time>2020-09-13T08:46:51Z</time>
      </trkpt>
      <trkpt lat="47.62051" lon="6.18022">
        <ele>218</ele>
        <time>2020-09-13T08:46:52Z</time>
      </trkpt>
      <trkpt lat="47.62051" lon="6.18015">
        <ele>218</ele>
        <time>2020-09-13T08:46:53Z</time>
      </trkpt>
      <trkpt lat="47.62051" lon="6.18007">
        <ele>218</ele>
        <time>2020-09-13T08:46:54Z</time>
      </trkpt>
      <trkpt lat="47.62051" lon="6.17999">
        <ele>217</ele>
        <time>2020-09-13T08:46:55Z</time>
      </trkpt>
      <trkpt lat="47.62051" lon="6.17992">
        <ele>217</ele>
        <time>2020-09-13T08:46:56Z</time>
      </trkpt>
      <trkpt lat="47.62052" lon="6.17984">
        <ele>217</ele>
        <time>2020-09-13T08:46:57Z</time>
      </trkpt>
      <trkpt lat="47.62053" lon="6.17977">
        <ele>217</ele>
        <time>2020-09-13T08:46:58Z</time>
      </trkpt>
      <trkpt lat="47.62053" lon="6.17969">
        <ele>217</ele>
        <time>2020-09-13T08:46:59Z</time>
      </trkpt>
      <trkpt lat="47.62054" lon="6.17962">
        <ele>217</ele>
        <time>2020-09-13T08:47:00Z</time>
      </trkpt>
      <trkpt lat="47.62054" lon="6.17954">
        <ele>217</ele>
        <time>2020-09-13T08:47:01Z</time>
      </trkpt>
      <trkpt lat="47.62055" lon="6.17946">
        <ele>217</ele>
        <time>2020-09-13T08:47:02Z</time>
      </trkpt>
      <trkpt lat="47.62055" lon="6.17939">
        <ele>217</ele>
        <time>2020-09-13T08:47:03Z</time>
      </trkpt>
      <trkpt lat="47.62055" lon="6.17933">
        <ele>217</ele>
        <time>2020-09-13T08:47:04Z</time>
      </trkpt>
      <trkpt lat="47.62056" lon="6.17925">
        <ele>217</ele>
        <time>2020-09-13T08:47:05Z</time>
      </trkpt>
      <trkpt lat="47.62057" lon="6.17918">
        <ele>217</ele>
        <time>2020-09-13T08:47:06Z</time>
      </trkpt>
      <trkpt lat="47.62058" lon="6.1791">
        <ele>216</ele>
        <time>2020-09-13T08:47:07Z</time>
      </trkpt>
      <trkpt lat="47.62058" lon="6.17902">
        <ele>216</ele>
        <time>2020-09-13T08:47:08Z</time>
      </trkpt>
      <trkpt lat="47.62059" lon="6.17895">
        <ele>216</ele>
        <time>2020-09-13T08:47:09Z</time>
      </trkpt>
      <trkpt lat="47.6206" lon="6.17888">
        <ele>216</ele>
        <time>2020-09-13T08:47:10Z</time>
      </trkpt>
      <trkpt lat="47.6206" lon="6.17881">
        <ele>216</ele>
        <time>2020-09-13T08:47:11Z</time>
      </trkpt>
      <trkpt lat="47.62061" lon="6.17873">
        <ele>216</ele>
        <time>2020-09-13T08:47:12Z</time>
      </trkpt>
      <trkpt lat="47.62062" lon="6.17865">
        <ele>216</ele>
        <time>2020-09-13T08:47:13Z</time>
      </trkpt>
      <trkpt lat="47.62063" lon="6.17858">
        <ele>216</ele>
        <time>2020-09-13T08:47:14Z</time>
      </trkpt>
      <trkpt lat="47.62065" lon="6.17851">
        <ele>216</ele>
        <time>2020-09-13T08:47:15Z</time>
      </trkpt>
      <trkpt lat="47.62067" lon="6.17844">
        <ele>216</ele>
        <time>2020-09-13T08:47:16Z</time>
      </trkpt>
      <trkpt lat="47.62068" lon="6.17837">
        <ele>216</ele>
        <time>2020-09-13T08:47:17Z</time>
      </trkpt>
      <trkpt lat="47.62068" lon="6.17829">
        <ele>216</ele>
        <time>2020-09-13T08:47:18Z</time>
      </trkpt>
      <trkpt lat="47.62069" lon="6.17821">
        <ele>216</ele>
        <time>2020-09-13T08:47:19Z</time>
      </trkpt>
      <trkpt lat="47.62069" lon="6.17813">
        <ele>216</ele>
        <time>2020-09-13T08:47:20Z</time>
      </trkpt>
      <trkpt lat="47.6207" lon="6.17806">
        <ele>216</ele>
        <time>2020-09-13T08:47:21Z</time>
      </trkpt>
      <trkpt lat="47.62071" lon="6.17798">
        <ele>216</ele>
        <time>2020-09-13T08:47:22Z</time>
      </trkpt>
      <trkpt lat="47.62071" lon="6.1779">
        <ele>216</ele>
        <time>2020-09-13T08:47:23Z</time>
      </trkpt>
      <trkpt lat="47.62071" lon="6.17783">
        <ele>216</ele>
        <time>2020-09-13T08:47:24Z</time>
      </trkpt>
      <trkpt lat="47.62072" lon="6.17775">
        <ele>216</ele>
        <time>2020-09-13T08:47:25Z</time>
      </trkpt>
      <trkpt lat="47.62072" lon="6.17767">
        <ele>216</ele>
        <time>2020-09-13T08:47:26Z</time>
      </trkpt>
      <trkpt lat="47.62073" lon="6.1776">
        <ele>216</ele>
        <time>2020-09-13T08:47:27Z</time>
      </trkpt>
      <trkpt lat="47.62074" lon="6.17752">
        <ele>216</ele>
        <time>2020-09-13T08:47:28Z</time>
      </trkpt>
      <trkpt lat="47.62075" lon="6.17745">
        <ele>216</ele>
        <time>2020-09-13T08:47:29Z</time>
      </trkpt>
      <trkpt lat="47.62075" lon="6.17737">
        <ele>216</ele>
        <time>2020-09-13T08:47:30Z</time>
      </trkpt>
      <trkpt lat="47.62076" lon="6.1773">
        <ele>216</ele>
        <time>2020-09-13T08:47:31Z</time>
      </trkpt>
      <trkpt lat="47.62077" lon="6.17723">
        <ele>216</ele>
        <time>2020-09-13T08:47:32Z</time>
      </trkpt>
      <trkpt lat="47.62077" lon="6.17716">
        <ele>215</ele>
        <time>2020-09-13T08:47:33Z</time>
      </trkpt>
      <trkpt lat="47.62078" lon="6.17709">
        <ele>215</ele>
        <time>2020-09-13T08:47:34Z</time>
      </trkpt>
      <trkpt lat="47.62078" lon="6.17702">
        <ele>215</ele>
        <time>2020-09-13T08:47:35Z</time>
      </trkpt>
      <trkpt lat="47.62079" lon="6.17694">
        <ele>215</ele>
        <time>2020-09-13T08:47:36Z</time>
      </trkpt>
      <trkpt lat="47.6208" lon="6.17688">
        <ele>215</ele>
        <time>2020-09-13T08:47:37Z</time>
      </trkpt>
      <trkpt lat="47.6208" lon="6.17681">
        <ele>215</ele>
        <time>2020-09-13T08:47:38Z</time>
      </trkpt>
      <trkpt lat="47.62082" lon="6.17667">
        <ele>214</ele>
        <time>2020-09-13T08:47:40Z</time>
      </trkpt>
      <trkpt lat="47.62083" lon="6.17661">
        <ele>214</ele>
        <time>2020-09-13T08:47:41Z</time>
      </trkpt>
      <trkpt lat="47.62084" lon="6.17654">
        <ele>214</ele>
        <time>2020-09-13T08:47:42Z</time>
      </trkpt>
      <trkpt lat="47.62085" lon="6.17647">
        <ele>215</ele>
        <time>2020-09-13T08:47:43Z</time>
      </trkpt>
      <trkpt lat="47.62086" lon="6.17641">
        <ele>215</ele>
        <time>2020-09-13T08:47:44Z</time>
      </trkpt>
      <trkpt lat="47.62087" lon="6.17633">
        <ele>215</ele>
        <time>2020-09-13T08:47:45Z</time>
      </trkpt>
      <trkpt lat="47.62088" lon="6.17626">
        <ele>215</ele>
        <time>2020-09-13T08:47:46Z</time>
      </trkpt>
      <trkpt lat="47.62089" lon="6.1762">
        <ele>215</ele>
        <time>2020-09-13T08:47:47Z</time>
      </trkpt>
      <trkpt lat="47.6209" lon="6.17613">
        <ele>215</ele>
        <time>2020-09-13T08:47:48Z</time>
      </trkpt>
      <trkpt lat="47.62091" lon="6.17606">
        <ele>215</ele>
        <time>2020-09-13T08:47:49Z</time>
      </trkpt>
      <trkpt lat="47.62092" lon="6.17599">
        <ele>215</ele>
        <time>2020-09-13T08:47:50Z</time>
      </trkpt>
      <trkpt lat="47.62093" lon="6.17592">
        <ele>216</ele>
        <time>2020-09-13T08:47:51Z</time>
      </trkpt>
      <trkpt lat="47.62093" lon="6.17585">
        <ele>216</ele>
        <time>2020-09-13T08:47:52Z</time>
      </trkpt>
      <trkpt lat="47.62094" lon="6.17579">
        <ele>216</ele>
        <time>2020-09-13T08:47:52Z</time>
      </trkpt>
      <trkpt lat="47.62095" lon="6.17572">
        <ele>216</ele>
        <time>2020-09-13T08:47:53Z</time>
      </trkpt>
      <trkpt lat="47.62096" lon="6.17565">
        <ele>216</ele>
        <time>2020-09-13T08:47:54Z</time>
      </trkpt>
      <trkpt lat="47.62096" lon="6.17558">
        <ele>216</ele>
        <time>2020-09-13T08:47:55Z</time>
      </trkpt>
      <trkpt lat="47.62097" lon="6.17551">
        <ele>216</ele>
        <time>2020-09-13T08:47:56Z</time>
      </trkpt>
      <trkpt lat="47.62098" lon="6.17544">
        <ele>217</ele>
        <time>2020-09-13T08:47:57Z</time>
      </trkpt>
      <trkpt lat="47.62098" lon="6.17538">
        <ele>217</ele>
        <time>2020-09-13T08:47:58Z</time>
      </trkpt>
      <trkpt lat="47.62099" lon="6.17524">
        <ele>217</ele>
        <time>2020-09-13T08:48:00Z</time>
      </trkpt>
      <trkpt lat="47.621" lon="6.17517">
        <ele>217</ele>
        <time>2020-09-13T08:48:01Z</time>
      </trkpt>
      <trkpt lat="47.621" lon="6.1751">
        <ele>217</ele>
        <time>2020-09-13T08:48:02Z</time>
      </trkpt>
      <trkpt lat="47.62101" lon="6.17503">
        <ele>217</ele>
        <time>2020-09-13T08:48:03Z</time>
      </trkpt>
      <trkpt lat="47.62101" lon="6.17497">
        <ele>218</ele>
        <time>2020-09-13T08:48:04Z</time>
      </trkpt>
      <trkpt lat="47.62102" lon="6.1749">
        <ele>218</ele>
        <time>2020-09-13T08:48:05Z</time>
      </trkpt>
      <trkpt lat="47.62102" lon="6.17483">
        <ele>217</ele>
        <time>2020-09-13T08:48:06Z</time>
      </trkpt>
      <trkpt lat="47.62102" lon="6.17476">
        <ele>217</ele>
        <time>2020-09-13T08:48:07Z</time>
      </trkpt>
      <trkpt lat="47.62103" lon="6.1747">
        <ele>217</ele>
        <time>2020-09-13T08:48:08Z</time>
      </trkpt>
      <trkpt lat="47.62103" lon="6.17456">
        <ele>217</ele>
        <time>2020-09-13T08:48:10Z</time>
      </trkpt>
      <trkpt lat="47.62104" lon="6.17449">
        <ele>217</ele>
        <time>2020-09-13T08:48:11Z</time>
      </trkpt>
      <trkpt lat="47.62104" lon="6.17442">
        <ele>217</ele>
        <time>2020-09-13T08:48:12Z</time>
      </trkpt>
      <trkpt lat="47.62104" lon="6.17436">
        <ele>217</ele>
        <time>2020-09-13T08:48:13Z</time>
      </trkpt>
      <trkpt lat="47.62105" lon="6.17429">
        <ele>217</ele>
        <time>2020-09-13T08:48:14Z</time>
      </trkpt>
      <trkpt lat="47.62105" lon="6.17422">
        <ele>217</ele>
        <time>2020-09-13T08:48:15Z</time>
      </trkpt>
      <trkpt lat="47.62105" lon="6.17415">
        <ele>217</ele>
        <time>2020-09-13T08:48:16Z</time>
      </trkpt>
      <trkpt lat="47.62105" lon="6.17408">
        <ele>217</ele>
        <time>2020-09-13T08:48:17Z</time>
      </trkpt>
      <trkpt lat="47.62105" lon="6.17401">
        <ele>217</ele>
        <time>2020-09-13T08:48:18Z</time>
      </trkpt>
      <trkpt lat="47.62106" lon="6.17388">
        <ele>217</ele>
        <time>2020-09-13T08:48:20Z</time>
      </trkpt>
      <trkpt lat="47.62106" lon="6.17374">
        <ele>217</ele>
        <time>2020-09-13T08:48:22Z</time>
      </trkpt>
      <trkpt lat="47.62106" lon="6.17368">
        <ele>217</ele>
        <time>2020-09-13T08:48:23Z</time>
      </trkpt>
      <trkpt lat="47.62107" lon="6.17361">
        <ele>217</ele>
        <time>2020-09-13T08:48:24Z</time>
      </trkpt>
      <trkpt lat="47.62107" lon="6.17354">
        <ele>217</ele>
        <time>2020-09-13T08:48:25Z</time>
      </trkpt>
      <trkpt lat="47.62108" lon="6.17347">
        <ele>217</ele>
        <time>2020-09-13T08:48:26Z</time>
      </trkpt>
      <trkpt lat="47.62108" lon="6.1734">
        <ele>217</ele>
        <time>2020-09-13T08:48:27Z</time>
      </trkpt>
      <trkpt lat="47.62109" lon="6.17333">
        <ele>217</ele>
        <time>2020-09-13T08:48:28Z</time>
      </trkpt>
      <trkpt lat="47.6211" lon="6.1732">
        <ele>217</ele>
        <time>2020-09-13T08:48:30Z</time>
      </trkpt>
      <trkpt lat="47.62111" lon="6.17313">
        <ele>217</ele>
        <time>2020-09-13T08:48:31Z</time>
      </trkpt>
      <trkpt lat="47.62112" lon="6.17306">
        <ele>217</ele>
        <time>2020-09-13T08:48:32Z</time>
      </trkpt>
      <trkpt lat="47.62113" lon="6.173">
        <ele>217</ele>
        <time>2020-09-13T08:48:33Z</time>
      </trkpt>
      <trkpt lat="47.62115" lon="6.17287">
        <ele>217</ele>
        <time>2020-09-13T08:48:35Z</time>
      </trkpt>
      <trkpt lat="47.62117" lon="6.17275">
        <ele>217</ele>
        <time>2020-09-13T08:48:37Z</time>
      </trkpt>
      <trkpt lat="47.62119" lon="6.17265">
        <ele>217</ele>
        <time>2020-09-13T08:48:39Z</time>
      </trkpt>
      <trkpt lat="47.62121" lon="6.17255">
        <ele>217</ele>
        <time>2020-09-13T08:48:41Z</time>
      </trkpt>
      <trkpt lat="47.62124" lon="6.17243">
        <ele>216</ele>
        <time>2020-09-13T08:48:43Z</time>
      </trkpt>
      <trkpt lat="47.62129" lon="6.17235">
        <ele>216</ele>
        <time>2020-09-13T08:48:45Z</time>
      </trkpt>
      <trkpt lat="47.6213" lon="6.17225">
        <ele>216</ele>
        <time>2020-09-13T08:48:47Z</time>
      </trkpt>
      <trkpt lat="47.6213" lon="6.17218">
        <ele>216</ele>
        <time>2020-09-13T08:48:50Z</time>
      </trkpt>
      <trkpt lat="47.6213" lon="6.17208">
        <ele>216</ele>
        <time>2020-09-13T08:48:50Z</time>
      </trkpt>
      <trkpt lat="47.62132" lon="6.17198">
        <ele>216</ele>
        <time>2020-09-13T08:48:54Z</time>
      </trkpt>
      <trkpt lat="47.62134" lon="6.17187">
        <ele>216</ele>
        <time>2020-09-13T08:48:56Z</time>
      </trkpt>
      <trkpt lat="47.62138" lon="6.17168">
        <ele>216</ele>
        <time>2020-09-13T08:48:59Z</time>
      </trkpt>
      <trkpt lat="47.62141" lon="6.17148">
        <ele>216</ele>
        <time>2020-09-13T08:49:00Z</time>
      </trkpt>
      <trkpt lat="47.62143" lon="6.17139">
        <ele>216</ele>
        <time>2020-09-13T08:49:04Z</time>
      </trkpt>
      <trkpt lat="47.62146" lon="6.17119">
        <ele>216</ele>
        <time>2020-09-13T08:49:07Z</time>
      </trkpt>
      <trkpt lat="47.62148" lon="6.17103">
        <ele>217</ele>
        <time>2020-09-13T08:49:10Z</time>
      </trkpt>
      <trkpt lat="47.62151" lon="6.17088">
        <ele>217</ele>
        <time>2020-09-13T08:49:13Z</time>
      </trkpt>
      <trkpt lat="47.62153" lon="6.17079">
        <ele>217</ele>
        <time>2020-09-13T08:49:15Z</time>
      </trkpt>
      <trkpt lat="47.62156" lon="6.17063">
        <ele>218</ele>
        <time>2020-09-13T08:49:19Z</time>
      </trkpt>
      <trkpt lat="47.62157" lon="6.17055">
        <ele>218</ele>
        <time>2020-09-13T08:49:21Z</time>
      </trkpt>
      <trkpt lat="47.62156" lon="6.17045">
        <ele>218</ele>
        <time>2020-09-13T08:49:22Z</time>
      </trkpt>
      <trkpt lat="47.62157" lon="6.17037">
        <ele>218</ele>
        <time>2020-09-13T08:49:25Z</time>
      </trkpt>
      <trkpt lat="47.62158" lon="6.17028">
        <ele>218</ele>
        <time>2020-09-13T08:49:28Z</time>
      </trkpt>
      <trkpt lat="47.6216" lon="6.17021">
        <ele>218</ele>
        <time>2020-09-13T08:49:33Z</time>
      </trkpt>
      <trkpt lat="47.62162" lon="6.17013">
        <ele>218</ele>
        <time>2020-09-13T08:49:35Z</time>
      </trkpt>
      <trkpt lat="47.62164" lon="6.17005">
        <ele>218</ele>
        <time>2020-09-13T08:49:35Z</time>
      </trkpt>
      <trkpt lat="47.62167" lon="6.16996">
        <ele>218</ele>
        <time>2020-09-13T08:49:39Z</time>
      </trkpt>
      <trkpt lat="47.62173" lon="6.16994">
        <ele>218</ele>
        <time>2020-09-13T08:49:41Z</time>
      </trkpt>
      <trkpt lat="47.62177" lon="6.16999">
        <ele>218</ele>
        <time>2020-09-13T08:49:41Z</time>
      </trkpt>
      <trkpt lat="47.62182" lon="6.17002">
        <ele>218</ele>
        <time>2020-09-13T08:49:43Z</time>
      </trkpt>
      <trkpt lat="47.62187" lon="6.17005">
        <ele>218</ele>
        <time>2020-09-13T08:49:45Z</time>
      </trkpt>
      <trkpt lat="47.62193" lon="6.17009">
        <ele>218</ele>
        <time>2020-09-13T08:49:47Z</time>
      </trkpt>
      <trkpt lat="47.62198" lon="6.17013">
        <ele>218</ele>
        <time>2020-09-13T08:49:51Z</time>
      </trkpt>
      <trkpt lat="47.62203" lon="6.17017">
        <ele>218</ele>
        <time>2020-09-13T08:49:51Z</time>
      </trkpt>
      <trkpt lat="47.62208" lon="6.17021">
        <ele>218</ele>
        <time>2020-09-13T08:49:53Z</time>
      </trkpt>
      <trkpt lat="47.62213" lon="6.17026">
        <ele>218</ele>
        <time>2020-09-13T08:49:57Z</time>
      </trkpt>
      <trkpt lat="47.62225" lon="6.17037">
        <ele>218</ele>
        <time>2020-09-13T08:49:58Z</time>
      </trkpt>
      <trkpt lat="47.6223" lon="6.17041">
        <ele>218</ele>
        <time>2020-09-13T08:50:02Z</time>
      </trkpt>
      <trkpt lat="47.62239" lon="6.17047">
        <ele>217</ele>
        <time>2020-09-13T08:50:04Z</time>
      </trkpt>
      <trkpt lat="47.62247" lon="6.17051">
        <ele>217</ele>
        <time>2020-09-13T08:50:04Z</time>
      </trkpt>
      <trkpt lat="47.62254" lon="6.17055">
        <ele>218</ele>
        <time>2020-09-13T08:50:07Z</time>
      </trkpt>
      <trkpt lat="47.6226" lon="6.17058">
        <ele>218</ele>
        <time>2020-09-13T08:50:07Z</time>
      </trkpt>
      <trkpt lat="47.62269" lon="6.17063">
        <ele>218</ele>
        <time>2020-09-13T08:50:09Z</time>
      </trkpt>
      <trkpt lat="47.62276" lon="6.17066">
        <ele>218</ele>
        <time>2020-09-13T08:50:11Z</time>
      </trkpt>
      <trkpt lat="47.62284" lon="6.1707">
        <ele>218</ele>
        <time>2020-09-13T08:50:13Z</time>
      </trkpt>
      <trkpt lat="47.62291" lon="6.17074">
        <ele>218</ele>
        <time>2020-09-13T08:50:15Z</time>
      </trkpt>
      <trkpt lat="47.62296" lon="6.17077">
        <ele>219</ele>
        <time>2020-09-13T08:50:16Z</time>
      </trkpt>
      <trkpt lat="47.62304" lon="6.1708">
        <ele>219</ele>
        <time>2020-09-13T08:50:18Z</time>
      </trkpt>
      <trkpt lat="47.62311" lon="6.17084">
        <ele>218</ele>
        <time>2020-09-13T08:50:20Z</time>
      </trkpt>
      <trkpt lat="47.62319" lon="6.17087">
        <ele>218</ele>
        <time>2020-09-13T08:50:24Z</time>
      </trkpt>
      <trkpt lat="47.62327" lon="6.17091">
        <ele>219</ele>
        <time>2020-09-13T08:50:24Z</time>
      </trkpt>
      <trkpt lat="47.62334" lon="6.17094">
        <ele>219</ele>
        <time>2020-09-13T08:50:26Z</time>
      </trkpt>
      <trkpt lat="47.6234" lon="6.17097">
        <ele>219</ele>
        <time>2020-09-13T08:50:27Z</time>
      </trkpt>
      <trkpt lat="47.62347" lon="6.171">
        <ele>219</ele>
        <time>2020-09-13T08:50:31Z</time>
      </trkpt>
      <trkpt lat="47.62354" lon="6.17102">
        <ele>219</ele>
        <time>2020-09-13T08:50:33Z</time>
      </trkpt>
      <trkpt lat="47.62366" lon="6.17106">
        <ele>219</ele>
        <time>2020-09-13T08:50:36Z</time>
      </trkpt>
      <trkpt lat="47.62372" lon="6.17108">
        <ele>219</ele>
        <time>2020-09-13T08:50:37Z</time>
      </trkpt>
      <trkpt lat="47.62386" lon="6.17113">
        <ele>219</ele>
        <time>2020-09-13T08:50:40Z</time>
      </trkpt>
      <trkpt lat="47.62396" lon="6.17116">
        <ele>219</ele>
        <time>2020-09-13T08:50:40Z</time>
      </trkpt>
      <trkpt lat="47.62401" lon="6.17117">
        <ele>219</ele>
        <time>2020-09-13T08:50:41Z</time>
      </trkpt>
      <trkpt lat="47.62406" lon="6.17119">
        <ele>219</ele>
        <time>2020-09-13T08:50:42Z</time>
      </trkpt>
      <trkpt lat="47.62415" lon="6.17122">
        <ele>219</ele>
        <time>2020-09-13T08:50:44Z</time>
      </trkpt>
      <trkpt lat="47.62419" lon="6.17123">
        <ele>220</ele>
        <time>2020-09-13T08:50:45Z</time>
      </trkpt>
      <trkpt lat="47.62432" lon="6.17127">
        <ele>220</ele>
        <time>2020-09-13T08:50:47Z</time>
      </trkpt>
      <trkpt lat="47.62438" lon="6.17129">
        <ele>220</ele>
        <time>2020-09-13T08:50:48Z</time>
      </trkpt>
      <trkpt lat="47.62442" lon="6.17131">
        <ele>220</ele>
        <time>2020-09-13T08:50:49Z</time>
      </trkpt>
      <trkpt lat="47.62447" lon="6.17132">
        <ele>220</ele>
        <time>2020-09-13T08:50:50Z</time>
      </trkpt>
      <trkpt lat="47.62452" lon="6.17133">
        <ele>220</ele>
        <time>2020-09-13T08:50:51Z</time>
      </trkpt>
      <trkpt lat="47.62456" lon="6.17135">
        <ele>220</ele>
        <time>2020-09-13T08:50:52Z</time>
      </trkpt>
      <trkpt lat="47.62461" lon="6.17136">
        <ele>220</ele>
        <time>2020-09-13T08:50:53Z</time>
      </trkpt>
      <trkpt lat="47.62466" lon="6.17138">
        <ele>221</ele>
        <time>2020-09-13T08:50:54Z</time>
      </trkpt>
      <trkpt lat="47.6247" lon="6.17139">
        <ele>221</ele>
        <time>2020-09-13T08:50:55Z</time>
      </trkpt>
      <trkpt lat="47.62474" lon="6.1714">
        <ele>221</ele>
        <time>2020-09-13T08:50:56Z</time>
      </trkpt>
      <trkpt lat="47.62479" lon="6.17142">
        <ele>221</ele>
        <time>2020-09-13T08:50:57Z</time>
      </trkpt>
      <trkpt lat="47.62483" lon="6.17143">
        <ele>221</ele>
        <time>2020-09-13T08:50:58Z</time>
      </trkpt>
      <trkpt lat="47.62488" lon="6.17145">
        <ele>221</ele>
        <time>2020-09-13T08:50:59Z</time>
      </trkpt>
      <trkpt lat="47.62492" lon="6.17146">
        <ele>221</ele>
        <time>2020-09-13T08:51:00Z</time>
      </trkpt>
      <trkpt lat="47.62497" lon="6.17148">
        <ele>221</ele>
        <time>2020-09-13T08:51:01Z</time>
      </trkpt>
      <trkpt lat="47.62505" lon="6.17151">
        <ele>221</ele>
        <time>2020-09-13T08:51:03Z</time>
      </trkpt>
      <trkpt lat="47.62509" lon="6.17152">
        <ele>221</ele>
        <time>2020-09-13T08:51:04Z</time>
      </trkpt>
      <trkpt lat="47.62517" lon="6.17155">
        <ele>221</ele>
        <time>2020-09-13T08:51:06Z</time>
      </trkpt>
      <trkpt lat="47.62524" lon="6.17157">
        <ele>220</ele>
        <time>2020-09-13T08:51:08Z</time>
      </trkpt>
      <trkpt lat="47.62531" lon="6.17159">
        <ele>220</ele>
        <time>2020-09-13T08:51:09Z</time>
      </trkpt>
      <trkpt lat="47.62538" lon="6.17161">
        <ele>220</ele>
        <time>2020-09-13T08:51:11Z</time>
      </trkpt>
      <trkpt lat="47.62545" lon="6.17164">
        <ele>220</ele>
        <time>2020-09-13T08:51:13Z</time>
      </trkpt>
      <trkpt lat="47.62551" lon="6.17165">
        <ele>220</ele>
        <time>2020-09-13T08:51:16Z</time>
      </trkpt>
      <trkpt lat="47.62558" lon="6.17168">
        <ele>219</ele>
        <time>2020-09-13T08:51:16Z</time>
      </trkpt>
      <trkpt lat="47.62566" lon="6.1717">
        <ele>219</ele>
        <time>2020-09-13T08:51:18Z</time>
      </trkpt>
      <trkpt lat="47.62575" lon="6.17173">
        <ele>219</ele>
        <time>2020-09-13T08:51:20Z</time>
      </trkpt>
      <trkpt lat="47.62583" lon="6.17175">
        <ele>219</ele>
        <time>2020-09-13T08:51:22Z</time>
      </trkpt>
      <trkpt lat="47.62591" lon="6.17178">
        <ele>219</ele>
        <time>2020-09-13T08:51:24Z</time>
      </trkpt>
      <trkpt lat="47.62596" lon="6.1718">
        <ele>219</ele>
        <time>2020-09-13T08:51:25Z</time>
      </trkpt>
      <trkpt lat="47.62604" lon="6.17182">
        <ele>219</ele>
        <time>2020-09-13T08:51:29Z</time>
      </trkpt>
      <trkpt lat="47.62617" lon="6.17187">
        <ele>219</ele>
        <time>2020-09-13T08:51:30Z</time>
      </trkpt>
      <trkpt lat="47.62626" lon="6.1719">
        <ele>219</ele>
        <time>2020-09-13T08:51:32Z</time>
      </trkpt>
      <trkpt lat="47.6263" lon="6.17192">
        <ele>219</ele>
        <time>2020-09-13T08:51:33Z</time>
      </trkpt>
      <trkpt lat="47.62635" lon="6.17194">
        <ele>219</ele>
        <time>2020-09-13T08:51:34Z</time>
      </trkpt>
      <trkpt lat="47.62642" lon="6.17196">
        <ele>219</ele>
        <time>2020-09-13T08:51:36Z</time>
      </trkpt>
      <trkpt lat="47.62649" lon="6.17198">
        <ele>219</ele>
        <time>2020-09-13T08:51:40Z</time>
      </trkpt>
      <trkpt lat="47.62654" lon="6.17199">
        <ele>219</ele>
        <time>2020-09-13T08:51:41Z</time>
      </trkpt>
      <trkpt lat="47.62666" lon="6.17202">
        <ele>219</ele>
        <time>2020-09-13T08:51:42Z</time>
      </trkpt>
      <trkpt lat="47.62674" lon="6.17205">
        <ele>219</ele>
        <time>2020-09-13T08:51:44Z</time>
      </trkpt>
      <trkpt lat="47.62679" lon="6.17206">
        <ele>219</ele>
        <time>2020-09-13T08:51:46Z</time>
      </trkpt>
      <trkpt lat="47.62686" lon="6.17208">
        <ele>219</ele>
        <time>2020-09-13T08:51:48Z</time>
      </trkpt>
      <trkpt lat="47.62692" lon="6.1721">
        <ele>219</ele>
        <time>2020-09-13T08:51:50Z</time>
      </trkpt>
      <trkpt lat="47.62699" lon="6.17212">
        <ele>219</ele>
        <time>2020-09-13T08:51:52Z</time>
      </trkpt>
      <trkpt lat="47.62704" lon="6.17214">
        <ele>219</ele>
        <time>2020-09-13T08:51:56Z</time>
      </trkpt>
      <trkpt lat="47.62711" lon="6.17216">
        <ele>219</ele>
        <time>2020-09-13T08:51:56Z</time>
      </trkpt>
      <trkpt lat="47.62718" lon="6.17218">
        <ele>219</ele>
        <time>2020-09-13T08:52:00Z</time>
      </trkpt>
      <trkpt lat="47.62725" lon="6.1722">
        <ele>219</ele>
        <time>2020-09-13T08:52:00Z</time>
      </trkpt>
      <trkpt lat="47.62731" lon="6.17222">
        <ele>219</ele>
        <time>2020-09-13T08:52:04Z</time>
      </trkpt>
      <trkpt lat="47.62743" lon="6.17225">
        <ele>219</ele>
        <time>2020-09-13T08:52:05Z</time>
      </trkpt>
      <trkpt lat="47.62751" lon="6.17227">
        <ele>220</ele>
        <time>2020-09-13T08:52:07Z</time>
      </trkpt>
      <trkpt lat="47.62758" lon="6.17229">
        <ele>220</ele>
        <time>2020-09-13T08:52:11Z</time>
      </trkpt>
      <trkpt lat="47.6277" lon="6.17231">
        <ele>220</ele>
        <time>2020-09-13T08:52:12Z</time>
      </trkpt>
      <trkpt lat="47.6278" lon="6.17234">
        <ele>220</ele>
        <time>2020-09-13T08:52:14Z</time>
      </trkpt>
      <trkpt lat="47.62788" lon="6.17236">
        <ele>220</ele>
        <time>2020-09-13T08:52:16Z</time>
      </trkpt>
      <trkpt lat="47.62795" lon="6.17238">
        <ele>221</ele>
        <time>2020-09-13T08:52:18Z</time>
      </trkpt>
      <trkpt lat="47.62803" lon="6.1724">
        <ele>221</ele>
        <time>2020-09-13T08:52:20Z</time>
      </trkpt>
      <trkpt lat="47.6281" lon="6.17242">
        <ele>221</ele>
        <time>2020-09-13T08:52:22Z</time>
      </trkpt>
      <trkpt lat="47.62818" lon="6.17246">
        <ele>221</ele>
        <time>2020-09-13T08:52:24Z</time>
      </trkpt>
      <trkpt lat="47.62825" lon="6.17249">
        <ele>221</ele>
        <time>2020-09-13T08:52:26Z</time>
      </trkpt>
      <trkpt lat="47.62832" lon="6.17251">
        <ele>221</ele>
        <time>2020-09-13T08:52:30Z</time>
      </trkpt>
      <trkpt lat="47.62842" lon="6.17255">
        <ele>221</ele>
        <time>2020-09-13T08:52:33Z</time>
      </trkpt>
      <trkpt lat="47.62854" lon="6.17259">
        <ele>221</ele>
        <time>2020-09-13T08:52:34Z</time>
      </trkpt>
      <trkpt lat="47.62862" lon="6.1726">
        <ele>221</ele>
        <time>2020-09-13T08:52:36Z</time>
      </trkpt>
      <trkpt lat="47.62868" lon="6.17262">
        <ele>221</ele>
        <time>2020-09-13T08:52:40Z</time>
      </trkpt>
      <trkpt lat="47.62874" lon="6.17264">
        <ele>221</ele>
        <time>2020-09-13T08:52:40Z</time>
      </trkpt>
      <trkpt lat="47.62881" lon="6.17265">
        <ele>220</ele>
        <time>2020-09-13T08:52:42Z</time>
      </trkpt>
      <trkpt lat="47.62888" lon="6.17266">
        <ele>220</ele>
        <time>2020-09-13T08:52:44Z</time>
      </trkpt>
      <trkpt lat="47.62895" lon="6.17265">
        <ele>220</ele>
        <time>2020-09-13T08:52:46Z</time>
      </trkpt>
      <trkpt lat="47.62902" lon="6.17265">
        <ele>220</ele>
        <time>2020-09-13T08:52:48Z</time>
      </trkpt>
      <trkpt lat="47.62909" lon="6.17265">
        <ele>220</ele>
        <time>2020-09-13T08:52:50Z</time>
      </trkpt>
      <trkpt lat="47.62916" lon="6.17263">
        <ele>220</ele>
        <time>2020-09-13T08:52:52Z</time>
      </trkpt>
      <trkpt lat="47.62922" lon="6.17262">
        <ele>220</ele>
        <time>2020-09-13T08:52:56Z</time>
      </trkpt>
      <trkpt lat="47.62928" lon="6.17262">
        <ele>220</ele>
        <time>2020-09-13T08:52:58Z</time>
      </trkpt>
      <trkpt lat="47.62931" lon="6.17269">
        <ele>219</ele>
        <time>2020-09-13T08:52:58Z</time>
      </trkpt>
      <trkpt lat="47.62934" lon="6.17275">
        <ele>219</ele>
        <time>2020-09-13T08:53:00Z</time>
      </trkpt>
      <trkpt lat="47.62937" lon="6.1728">
        <ele>219</ele>
        <time>2020-09-13T08:53:02Z</time>
      </trkpt>
      <trkpt lat="47.62941" lon="6.17284">
        <ele>219</ele>
        <time>2020-09-13T08:53:06Z</time>
      </trkpt>
      <trkpt lat="47.62945" lon="6.17289">
        <ele>219</ele>
        <time>2020-09-13T08:53:06Z</time>
      </trkpt>
      <trkpt lat="47.6295" lon="6.17293">
        <ele>219</ele>
        <time>2020-09-13T08:53:08Z</time>
      </trkpt>
      <trkpt lat="47.62954" lon="6.17298">
        <ele>219</ele>
        <time>2020-09-13T08:53:12Z</time>
      </trkpt>
      <trkpt lat="47.62959" lon="6.17303">
        <ele>219</ele>
        <time>2020-09-13T08:53:14Z</time>
      </trkpt>
      <trkpt lat="47.62965" lon="6.17309">
        <ele>219</ele>
        <time>2020-09-13T08:53:16Z</time>
      </trkpt>
      <trkpt lat="47.62972" lon="6.17313">
        <ele>219</ele>
        <time>2020-09-13T08:53:18Z</time>
      </trkpt>
      <trkpt lat="47.62979" lon="6.17317">
        <ele>219</ele>
        <time>2020-09-13T08:53:19Z</time>
      </trkpt>
      <trkpt lat="47.62987" lon="6.17321">
        <ele>219</ele>
        <time>2020-09-13T08:53:19Z</time>
      </trkpt>
      <trkpt lat="47.62993" lon="6.17324">
        <ele>218</ele>
        <time>2020-09-13T08:53:23Z</time>
      </trkpt>
      <trkpt lat="47.63002" lon="6.17327">
        <ele>218</ele>
        <time>2020-09-13T08:53:25Z</time>
      </trkpt>
      <trkpt lat="47.63007" lon="6.1733">
        <ele>218</ele>
        <time>2020-09-13T08:53:26Z</time>
      </trkpt>
      <trkpt lat="47.63014" lon="6.17333">
        <ele>218</ele>
        <time>2020-09-13T08:53:27Z</time>
      </trkpt>
      <trkpt lat="47.6302" lon="6.17335">
        <ele>218</ele>
        <time>2020-09-13T08:53:32Z</time>
      </trkpt>
      <trkpt lat="47.63026" lon="6.17338">
        <ele>218</ele>
        <time>2020-09-13T08:53:34Z</time>
      </trkpt>
      <trkpt lat="47.63032" lon="6.17342">
        <ele>218</ele>
        <time>2020-09-13T08:53:36Z</time>
      </trkpt>
      <trkpt lat="47.63045" lon="6.17346">
        <ele>218</ele>
        <time>2020-09-13T08:53:39Z</time>
      </trkpt>
      <trkpt lat="47.63053" lon="6.1735">
        <ele>218</ele>
        <time>2020-09-13T08:53:41Z</time>
      </trkpt>
      <trkpt lat="47.63061" lon="6.17353">
        <ele>218</ele>
        <time>2020-09-13T08:53:43Z</time>
      </trkpt>
      <trkpt lat="47.63066" lon="6.17355">
        <ele>218</ele>
        <time>2020-09-13T08:53:44Z</time>
      </trkpt>
      <trkpt lat="47.63072" lon="6.17357">
        <ele>218</ele>
        <time>2020-09-13T08:53:45Z</time>
      </trkpt>
      <trkpt lat="47.6308" lon="6.17361">
        <ele>218</ele>
        <time>2020-09-13T08:53:47Z</time>
      </trkpt>
      <trkpt lat="47.63086" lon="6.17363">
        <ele>218</ele>
        <time>2020-09-13T08:53:48Z</time>
      </trkpt>
      <trkpt lat="47.63102" lon="6.17366">
        <ele>218</ele>
        <time>2020-09-13T08:53:48Z</time>
      </trkpt>
      <trkpt lat="47.63108" lon="6.17368">
        <ele>218</ele>
        <time>2020-09-13T08:53:49Z</time>
      </trkpt>
      <trkpt lat="47.63114" lon="6.17371">
        <ele>218</ele>
        <time>2020-09-13T08:53:50Z</time>
      </trkpt>
      <trkpt lat="47.6312" lon="6.17373">
        <ele>218</ele>
        <time>2020-09-13T08:53:51Z</time>
      </trkpt>
      <trkpt lat="47.63126" lon="6.17376">
        <ele>219</ele>
        <time>2020-09-13T08:53:52Z</time>
      </trkpt>
      <trkpt lat="47.63132" lon="6.17378">
        <ele>219</ele>
        <time>2020-09-13T08:53:53Z</time>
      </trkpt>
      <trkpt lat="47.63137" lon="6.17381">
        <ele>219</ele>
        <time>2020-09-13T08:53:54Z</time>
      </trkpt>
      <trkpt lat="47.63142" lon="6.17383">
        <ele>219</ele>
        <time>2020-09-13T08:53:55Z</time>
      </trkpt>
      <trkpt lat="47.63147" lon="6.17385">
        <ele>219</ele>
        <time>2020-09-13T08:53:56Z</time>
      </trkpt>
      <trkpt lat="47.63151" lon="6.17387">
        <ele>219</ele>
        <time>2020-09-13T08:53:57Z</time>
      </trkpt>
      <trkpt lat="47.63159" lon="6.17391">
        <ele>219</ele>
        <time>2020-09-13T08:53:59Z</time>
      </trkpt>
      <trkpt lat="47.63167" lon="6.17395">
        <ele>219</ele>
        <time>2020-09-13T08:54:01Z</time>
      </trkpt>
      <trkpt lat="47.63174" lon="6.17399">
        <ele>219</ele>
        <time>2020-09-13T08:54:03Z</time>
      </trkpt>
      <trkpt lat="47.63181" lon="6.17403">
        <ele>219</ele>
        <time>2020-09-13T08:54:05Z</time>
      </trkpt>
      <trkpt lat="47.63187" lon="6.17406">
        <ele>219</ele>
        <time>2020-09-13T08:54:07Z</time>
      </trkpt>
      <trkpt lat="47.63193" lon="6.1741">
        <ele>219</ele>
        <time>2020-09-13T08:54:09Z</time>
      </trkpt>
      <trkpt lat="47.63199" lon="6.17413">
        <ele>219</ele>
        <time>2020-09-13T08:54:11Z</time>
      </trkpt>
      <trkpt lat="47.63201" lon="6.1742">
        <ele>221</ele>
        <time>2020-09-13T08:54:14Z</time>
      </trkpt>
      <trkpt lat="47.63206" lon="6.1742">
        <ele>221</ele>
        <time>2020-09-13T08:54:14Z</time>
      </trkpt>
      <trkpt lat="47.63211" lon="6.17421">
        <ele>221</ele>
        <time>2020-09-13T08:54:18Z</time>
      </trkpt>
      <trkpt lat="47.63216" lon="6.17423">
        <ele>221</ele>
        <time>2020-09-13T08:54:20Z</time>
      </trkpt>
      <trkpt lat="47.63221" lon="6.17426">
        <ele>221</ele>
        <time>2020-09-13T08:54:22Z</time>
      </trkpt>
      <trkpt lat="47.63226" lon="6.1743">
        <ele>221</ele>
        <time>2020-09-13T08:54:25Z</time>
      </trkpt>
      <trkpt lat="47.63232" lon="6.17433">
        <ele>221</ele>
        <time>2020-09-13T08:54:28Z</time>
      </trkpt>
      <trkpt lat="47.63236" lon="6.17435">
        <ele>221</ele>
        <time>2020-09-13T08:54:28Z</time>
      </trkpt>
      <trkpt lat="47.63241" lon="6.17438">
        <ele>221</ele>
        <time>2020-09-13T08:54:30Z</time>
      </trkpt>
      <trkpt lat="47.63246" lon="6.1744">
        <ele>221</ele>
        <time>2020-09-13T08:54:35Z</time>
      </trkpt>
      <trkpt lat="47.63252" lon="6.17444">
        <ele>222</ele>
        <time>2020-09-13T08:54:37Z</time>
      </trkpt>
      <trkpt lat="47.63258" lon="6.17447">
        <ele>222</ele>
        <time>2020-09-13T08:54:37Z</time>
      </trkpt>
      <trkpt lat="47.63263" lon="6.1745">
        <ele>222</ele>
        <time>2020-09-13T08:54:41Z</time>
      </trkpt>
      <trkpt lat="47.63269" lon="6.17454">
        <ele>223</ele>
        <time>2020-09-13T08:54:43Z</time>
      </trkpt>
      <trkpt lat="47.63273" lon="6.17456">
        <ele>223</ele>
        <time>2020-09-13T08:54:46Z</time>
      </trkpt>
      <trkpt lat="47.63278" lon="6.17459">
        <ele>223</ele>
        <time>2020-09-13T08:54:49Z</time>
      </trkpt>
      <trkpt lat="47.63283" lon="6.17462">
        <ele>223</ele>
        <time>2020-09-13T08:54:52Z</time>
      </trkpt>
      <trkpt lat="47.63287" lon="6.17465">
        <ele>223</ele>
        <time>2020-09-13T08:54:55Z</time>
      </trkpt>
      <trkpt lat="47.63293" lon="6.17468">
        <ele>223</ele>
        <time>2020-09-13T08:54:57Z</time>
      </trkpt>
      <trkpt lat="47.63299" lon="6.17471">
        <ele>224</ele>
        <time>2020-09-13T08:55:00Z</time>
      </trkpt>
      <trkpt lat="47.63304" lon="6.17474">
        <ele>224</ele>
        <time>2020-09-13T08:55:02Z</time>
      </trkpt>
      <trkpt lat="47.63309" lon="6.17477">
        <ele>224</ele>
        <time>2020-09-13T08:55:04Z</time>
      </trkpt>
      <trkpt lat="47.63315" lon="6.1748">
        <ele>224</ele>
        <time>2020-09-13T08:55:06Z</time>
      </trkpt>
      <trkpt lat="47.63322" lon="6.17485">
        <ele>225</ele>
        <time>2020-09-13T08:55:07Z</time>
      </trkpt>
      <trkpt lat="47.63327" lon="6.17485">
        <ele>225</ele>
        <time>2020-09-13T08:55:11Z</time>
      </trkpt>
      <trkpt lat="47.63333" lon="6.17488">
        <ele>225</ele>
        <time>2020-09-13T08:55:11Z</time>
      </trkpt>
      <trkpt lat="47.63339" lon="6.1749">
        <ele>225</ele>
        <time>2020-09-13T08:55:15Z</time>
      </trkpt>
      <trkpt lat="47.63343" lon="6.17492">
        <ele>225</ele>
        <time>2020-09-13T08:55:15Z</time>
      </trkpt>
      <trkpt lat="47.63348" lon="6.17495">
        <ele>225</ele>
        <time>2020-09-13T08:55:19Z</time>
      </trkpt>
      <trkpt lat="47.63353" lon="6.17498">
        <ele>224</ele>
        <time>2020-09-13T08:55:21Z</time>
      </trkpt>
      <trkpt lat="47.63359" lon="6.17502">
        <ele>227</ele>
        <time>2020-09-13T08:55:23Z</time>
      </trkpt>
      <trkpt lat="47.63365" lon="6.17505">
        <ele>227</ele>
        <time>2020-09-13T08:55:23Z</time>
      </trkpt>
      <trkpt lat="47.6337" lon="6.17509">
        <ele>227</ele>
        <time>2020-09-13T08:55:25Z</time>
      </trkpt>
      <trkpt lat="47.63376" lon="6.17511">
        <ele>227</ele>
        <time>2020-09-13T08:55:27Z</time>
      </trkpt>
      <trkpt lat="47.63381" lon="6.17515">
        <ele>227</ele>
        <time>2020-09-13T08:55:31Z</time>
      </trkpt>
      <trkpt lat="47.63386" lon="6.17518">
        <ele>227</ele>
        <time>2020-09-13T08:55:33Z</time>
      </trkpt>
      <trkpt lat="47.63391" lon="6.17521">
        <ele>227</ele>
        <time>2020-09-13T08:55:35Z</time>
      </trkpt>
      <trkpt lat="47.63396" lon="6.17524">
        <ele>227</ele>
        <time>2020-09-13T08:55:37Z</time>
      </trkpt>
      <trkpt lat="47.63405" lon="6.17529">
        <ele>227</ele>
        <time>2020-09-13T08:55:40Z</time>
      </trkpt>
      <trkpt lat="47.63412" lon="6.17534">
        <ele>227</ele>
        <time>2020-09-13T08:55:40Z</time>
      </trkpt>
      <trkpt lat="47.63417" lon="6.17538">
        <ele>224</ele>
        <time>2020-09-13T08:55:44Z</time>
      </trkpt>
      <trkpt lat="47.63423" lon="6.17542">
        <ele>225</ele>
        <time>2020-09-13T08:55:46Z</time>
      </trkpt>
      <trkpt lat="47.63429" lon="6.17547">
        <ele>225</ele>
        <time>2020-09-13T08:55:48Z</time>
      </trkpt>
      <trkpt lat="47.63434" lon="6.17551">
        <ele>225</ele>
        <time>2020-09-13T08:55:50Z</time>
      </trkpt>
      <trkpt lat="47.63438" lon="6.17554">
        <ele>225</ele>
        <time>2020-09-13T08:55:51Z</time>
      </trkpt>
      <trkpt lat="47.63443" lon="6.17557">
        <ele>225</ele>
        <time>2020-09-13T08:55:52Z</time>
      </trkpt>
      <trkpt lat="47.63449" lon="6.17562">
        <ele>225</ele>
        <time>2020-09-13T08:55:54Z</time>
      </trkpt>
      <trkpt lat="47.63453" lon="6.17565">
        <ele>225</ele>
        <time>2020-09-13T08:55:55Z</time>
      </trkpt>
      <trkpt lat="47.63458" lon="6.17568">
        <ele>225</ele>
        <time>2020-09-13T08:55:56Z</time>
      </trkpt>
      <trkpt lat="47.63471" lon="6.17579">
        <ele>225</ele>
        <time>2020-09-13T08:55:59Z</time>
      </trkpt>
      <trkpt lat="47.63478" lon="6.17585">
        <ele>228</ele>
        <time>2020-09-13T08:56:01Z</time>
      </trkpt>
      <trkpt lat="47.63485" lon="6.1759">
        <ele>227</ele>
        <time>2020-09-13T08:56:03Z</time>
      </trkpt>
      <trkpt lat="47.63489" lon="6.17594">
        <ele>227</ele>
        <time>2020-09-13T08:56:04Z</time>
      </trkpt>
      <trkpt lat="47.63493" lon="6.17598">
        <ele>227</ele>
        <time>2020-09-13T08:56:05Z</time>
      </trkpt>
      <trkpt lat="47.63499" lon="6.17603">
        <ele>228</ele>
        <time>2020-09-13T08:56:07Z</time>
      </trkpt>
      <trkpt lat="47.63505" lon="6.17609">
        <ele>225</ele>
        <time>2020-09-13T08:56:08Z</time>
      </trkpt>
      <trkpt lat="47.63511" lon="6.17615">
        <ele>225</ele>
        <time>2020-09-13T08:56:10Z</time>
      </trkpt>
      <trkpt lat="47.63521" lon="6.17624">
        <ele>226</ele>
        <time>2020-09-13T08:56:13Z</time>
      </trkpt>
      <trkpt lat="47.63524" lon="6.17628">
        <ele>226</ele>
        <time>2020-09-13T08:56:14Z</time>
      </trkpt>
      <trkpt lat="47.63529" lon="6.17632">
        <ele>226</ele>
        <time>2020-09-13T08:56:15Z</time>
      </trkpt>
      <trkpt lat="47.63533" lon="6.17635">
        <ele>226</ele>
        <time>2020-09-13T08:56:16Z</time>
      </trkpt>
      <trkpt lat="47.63547" lon="6.17648">
        <ele>226</ele>
        <time>2020-09-13T08:56:16Z</time>
      </trkpt>
      <trkpt lat="47.63552" lon="6.17653">
        <ele>225</ele>
        <time>2020-09-13T08:56:17Z</time>
      </trkpt>
      <trkpt lat="47.63558" lon="6.17659">
        <ele>225</ele>
        <time>2020-09-13T08:56:18Z</time>
      </trkpt>
      <trkpt lat="47.63565" lon="6.17665">
        <ele>225</ele>
        <time>2020-09-13T08:56:19Z</time>
      </trkpt>
      <trkpt lat="47.63571" lon="6.17671">
        <ele>227</ele>
        <time>2020-09-13T08:56:20Z</time>
      </trkpt>
      <trkpt lat="47.63577" lon="6.17676">
        <ele>226</ele>
        <time>2020-09-13T08:56:21Z</time>
      </trkpt>
      <trkpt lat="47.63583" lon="6.17681">
        <ele>227</ele>
        <time>2020-09-13T08:56:22Z</time>
      </trkpt>
      <trkpt lat="47.63588" lon="6.17687">
        <ele>224</ele>
        <time>2020-09-13T08:56:23Z</time>
      </trkpt>
      <trkpt lat="47.63593" lon="6.17692">
        <ele>224</ele>
        <time>2020-09-13T08:56:24Z</time>
      </trkpt>
      <trkpt lat="47.63598" lon="6.17697">
        <ele>224</ele>
        <time>2020-09-13T08:56:25Z</time>
      </trkpt>
      <trkpt lat="47.63603" lon="6.17701">
        <ele>224</ele>
        <time>2020-09-13T08:56:26Z</time>
      </trkpt>
      <trkpt lat="47.63607" lon="6.17706">
        <ele>224</ele>
        <time>2020-09-13T08:56:27Z</time>
      </trkpt>
      <trkpt lat="47.63612" lon="6.1771">
        <ele>224</ele>
        <time>2020-09-13T08:56:28Z</time>
      </trkpt>
      <trkpt lat="47.63616" lon="6.17715">
        <ele>224</ele>
        <time>2020-09-13T08:56:29Z</time>
      </trkpt>
      <trkpt lat="47.6362" lon="6.1772">
        <ele>224</ele>
        <time>2020-09-13T08:56:30Z</time>
      </trkpt>
      <trkpt lat="47.63625" lon="6.17724">
        <ele>224</ele>
        <time>2020-09-13T08:56:31Z</time>
      </trkpt>
      <trkpt lat="47.63629" lon="6.17729">
        <ele>224</ele>
        <time>2020-09-13T08:56:32Z</time>
      </trkpt>
      <trkpt lat="47.63633" lon="6.17733">
        <ele>223</ele>
        <time>2020-09-13T08:56:33Z</time>
      </trkpt>
      <trkpt lat="47.63638" lon="6.17738">
        <ele>223</ele>
        <time>2020-09-13T08:56:34Z</time>
      </trkpt>
      <trkpt lat="47.63642" lon="6.17742">
        <ele>223</ele>
        <time>2020-09-13T08:56:35Z</time>
      </trkpt>
      <trkpt lat="47.63646" lon="6.17746">
        <ele>223</ele>
        <time>2020-09-13T08:56:36Z</time>
      </trkpt>
      <trkpt lat="47.6365" lon="6.17751">
        <ele>224</ele>
        <time>2020-09-13T08:56:37Z</time>
      </trkpt>
      <trkpt lat="47.63654" lon="6.17755">
        <ele>224</ele>
        <time>2020-09-13T08:56:38Z</time>
      </trkpt>
      <trkpt lat="47.63658" lon="6.17759">
        <ele>224</ele>
        <time>2020-09-13T08:56:39Z</time>
      </trkpt>
      <trkpt lat="47.63662" lon="6.17763">
        <ele>224</ele>
        <time>2020-09-13T08:56:40Z</time>
      </trkpt>
      <trkpt lat="47.63668" lon="6.17769">
        <ele>222</ele>
        <time>2020-09-13T08:56:42Z</time>
      </trkpt>
      <trkpt lat="47.63674" lon="6.17776">
        <ele>222</ele>
        <time>2020-09-13T08:56:44Z</time>
      </trkpt>
      <trkpt lat="47.63679" lon="6.17781">
        <ele>222</ele>
        <time>2020-09-13T08:56:46Z</time>
      </trkpt>
      <trkpt lat="47.63685" lon="6.17786">
        <ele>223</ele>
        <time>2020-09-13T08:56:48Z</time>
      </trkpt>
      <trkpt lat="47.63689" lon="6.17791">
        <ele>223</ele>
        <time>2020-09-13T08:56:52Z</time>
      </trkpt>
      <trkpt lat="47.63693" lon="6.17793">
        <ele>223</ele>
        <time>2020-09-13T08:56:53Z</time>
      </trkpt>
      <trkpt lat="47.637" lon="6.17799">
        <ele>223</ele>
        <time>2020-09-13T08:56:55Z</time>
      </trkpt>
      <trkpt lat="47.63706" lon="6.17806">
        <ele>223</ele>
        <time>2020-09-13T08:56:57Z</time>
      </trkpt>
      <trkpt lat="47.63711" lon="6.17812">
        <ele>223</ele>
        <time>2020-09-13T08:56:59Z</time>
      </trkpt>
      <trkpt lat="47.63717" lon="6.17819">
        <ele>223</ele>
        <time>2020-09-13T08:57:01Z</time>
      </trkpt>
      <trkpt lat="47.63721" lon="6.17825">
        <ele>223</ele>
        <time>2020-09-13T08:57:03Z</time>
      </trkpt>
      <trkpt lat="47.63725" lon="6.1783">
        <ele>223</ele>
        <time>2020-09-13T08:57:04Z</time>
      </trkpt>
      <trkpt lat="47.63729" lon="6.17834">
        <ele>226</ele>
        <time>2020-09-13T08:57:06Z</time>
      </trkpt>
      <trkpt lat="47.63735" lon="6.17841">
        <ele>225</ele>
        <time>2020-09-13T08:57:08Z</time>
      </trkpt>
      <trkpt lat="47.6374" lon="6.17847">
        <ele>225</ele>
        <time>2020-09-13T08:57:10Z</time>
      </trkpt>
      <trkpt lat="47.63744" lon="6.17852">
        <ele>226</ele>
        <time>2020-09-13T08:57:12Z</time>
      </trkpt>
      <trkpt lat="47.63749" lon="6.17858">
        <ele>226</ele>
        <time>2020-09-13T08:57:14Z</time>
      </trkpt>
      <trkpt lat="47.63754" lon="6.17865">
        <ele>224</ele>
        <time>2020-09-13T08:57:16Z</time>
      </trkpt>
      <trkpt lat="47.63758" lon="6.17871">
        <ele>224</ele>
        <time>2020-09-13T08:57:18Z</time>
      </trkpt>
      <trkpt lat="47.63763" lon="6.17878">
        <ele>224</ele>
        <time>2020-09-13T08:57:20Z</time>
      </trkpt>
      <trkpt lat="47.63769" lon="6.17885">
        <ele>224</ele>
        <time>2020-09-13T08:57:21Z</time>
      </trkpt>
      <trkpt lat="47.63774" lon="6.17892">
        <ele>224</ele>
        <time>2020-09-13T08:57:23Z</time>
      </trkpt>
      <trkpt lat="47.63779" lon="6.17898">
        <ele>224</ele>
        <time>2020-09-13T08:57:25Z</time>
      </trkpt>
      <trkpt lat="47.63786" lon="6.17905">
        <ele>224</ele>
        <time>2020-09-13T08:57:25Z</time>
      </trkpt>
      <trkpt lat="47.6379" lon="6.17911">
        <ele>224</ele>
        <time>2020-09-13T08:57:29Z</time>
      </trkpt>
      <trkpt lat="47.63799" lon="6.17923">
        <ele>227</ele>
        <time>2020-09-13T08:57:32Z</time>
      </trkpt>
      <trkpt lat="47.63803" lon="6.17928">
        <ele>227</ele>
        <time>2020-09-13T08:57:34Z</time>
      </trkpt>
      <trkpt lat="47.63808" lon="6.17935">
        <ele>226</ele>
        <time>2020-09-13T08:57:36Z</time>
      </trkpt>
      <trkpt lat="47.63812" lon="6.1794">
        <ele>226</ele>
        <time>2020-09-13T08:57:37Z</time>
      </trkpt>
      <trkpt lat="47.63817" lon="6.17946">
        <ele>227</ele>
        <time>2020-09-13T08:57:39Z</time>
      </trkpt>
      <trkpt lat="47.63827" lon="6.17961">
        <ele>227</ele>
        <time>2020-09-13T08:57:41Z</time>
      </trkpt>
      <trkpt lat="47.63833" lon="6.17969">
        <ele>227</ele>
        <time>2020-09-13T08:57:41Z</time>
      </trkpt>
      <trkpt lat="47.63843" lon="6.17984">
        <ele>223</ele>
        <time>2020-09-13T08:57:43Z</time>
      </trkpt>
      <trkpt lat="47.63848" lon="6.17991">
        <ele>224</ele>
        <time>2020-09-13T08:57:44Z</time>
      </trkpt>
      <trkpt lat="47.63852" lon="6.17998">
        <ele>223</ele>
        <time>2020-09-13T08:57:45Z</time>
      </trkpt>
      <trkpt lat="47.63857" lon="6.18005">
        <ele>225</ele>
        <time>2020-09-13T08:57:46Z</time>
      </trkpt>
      <trkpt lat="47.63862" lon="6.18012">
        <ele>224</ele>
        <time>2020-09-13T08:57:47Z</time>
      </trkpt>
      <trkpt lat="47.63867" lon="6.18019">
        <ele>224</ele>
        <time>2020-09-13T08:57:48Z</time>
      </trkpt>
      <trkpt lat="47.63871" lon="6.18025">
        <ele>224</ele>
        <time>2020-09-13T08:57:49Z</time>
      </trkpt>
      <trkpt lat="47.63876" lon="6.18032">
        <ele>224</ele>
        <time>2020-09-13T08:57:50Z</time>
      </trkpt>
      <trkpt lat="47.6388" lon="6.18039">
        <ele>224</ele>
        <time>2020-09-13T08:57:51Z</time>
      </trkpt>
      <trkpt lat="47.63885" lon="6.18045">
        <ele>224</ele>
        <time>2020-09-13T08:57:52Z</time>
      </trkpt>
      <trkpt lat="47.63889" lon="6.18052">
        <ele>224</ele>
        <time>2020-09-13T08:57:53Z</time>
      </trkpt>
      <trkpt lat="47.63893" lon="6.18058">
        <ele>224</ele>
        <time>2020-09-13T08:57:54Z</time>
      </trkpt>
      <trkpt lat="47.63897" lon="6.18064">
        <ele>224</ele>
        <time>2020-09-13T08:57:55Z</time>
      </trkpt>
      <trkpt lat="47.63901" lon="6.1807">
        <ele>223</ele>
        <time>2020-09-13T08:57:56Z</time>
      </trkpt>
      <trkpt lat="47.63906" lon="6.18077">
        <ele>223</ele>
        <time>2020-09-13T08:57:57Z</time>
      </trkpt>
      <trkpt lat="47.6391" lon="6.18083">
        <ele>223</ele>
        <time>2020-09-13T08:57:58Z</time>
      </trkpt>
      <trkpt lat="47.63915" lon="6.18089">
        <ele>224</ele>
        <time>2020-09-13T08:57:59Z</time>
      </trkpt>
      <trkpt lat="47.63919" lon="6.18095">
        <ele>222</ele>
        <time>2020-09-13T08:58:00Z</time>
      </trkpt>
      <trkpt lat="47.63924" lon="6.18101">
        <ele>223</ele>
        <time>2020-09-13T08:58:01Z</time>
      </trkpt>
      <trkpt lat="47.63928" lon="6.18107">
        <ele>223</ele>
        <time>2020-09-13T08:58:02Z</time>
      </trkpt>
      <trkpt lat="47.63933" lon="6.18113">
        <ele>223</ele>
        <time>2020-09-13T08:58:03Z</time>
      </trkpt>
      <trkpt lat="47.63937" lon="6.18119">
        <ele>223</ele>
        <time>2020-09-13T08:58:04Z</time>
      </trkpt>
      <trkpt lat="47.63942" lon="6.18125">
        <ele>223</ele>
        <time>2020-09-13T08:58:05Z</time>
      </trkpt>
      <trkpt lat="47.63946" lon="6.18131">
        <ele>223</ele>
        <time>2020-09-13T08:58:06Z</time>
      </trkpt>
      <trkpt lat="47.6395" lon="6.18137">
        <ele>223</ele>
        <time>2020-09-13T08:58:07Z</time>
      </trkpt>
      <trkpt lat="47.63954" lon="6.18143">
        <ele>223</ele>
        <time>2020-09-13T08:58:08Z</time>
      </trkpt>
      <trkpt lat="47.63958" lon="6.1815">
        <ele>223</ele>
        <time>2020-09-13T08:58:09Z</time>
      </trkpt>
      <trkpt lat="47.63962" lon="6.18156">
        <ele>223</ele>
        <time>2020-09-13T08:58:10Z</time>
      </trkpt>
      <trkpt lat="47.63966" lon="6.18162">
        <ele>223</ele>
        <time>2020-09-13T08:58:11Z</time>
      </trkpt>
      <trkpt lat="47.6397" lon="6.18166">
        <ele>223</ele>
        <time>2020-09-13T08:58:12Z</time>
      </trkpt>
      <trkpt lat="47.63975" lon="6.18171">
        <ele>226</ele>
        <time>2020-09-13T08:58:13Z</time>
      </trkpt>
      <trkpt lat="47.63979" lon="6.18175">
        <ele>225</ele>
        <time>2020-09-13T08:58:14Z</time>
      </trkpt>
      <trkpt lat="47.63984" lon="6.18178">
        <ele>225</ele>
        <time>2020-09-13T08:58:15Z</time>
      </trkpt>
      <trkpt lat="47.63988" lon="6.18181">
        <ele>225</ele>
        <time>2020-09-13T08:58:16Z</time>
      </trkpt>
      <trkpt lat="47.63993" lon="6.18184">
        <ele>225</ele>
        <time>2020-09-13T08:58:17Z</time>
      </trkpt>
      <trkpt lat="47.63997" lon="6.18186">
        <ele>225</ele>
        <time>2020-09-13T08:58:18Z</time>
      </trkpt>
      <trkpt lat="47.64002" lon="6.18189">
        <ele>223</ele>
        <time>2020-09-13T08:58:19Z</time>
      </trkpt>
      <trkpt lat="47.64006" lon="6.18192">
        <ele>223</ele>
        <time>2020-09-13T08:58:20Z</time>
      </trkpt>
      <trkpt lat="47.64011" lon="6.18195">
        <ele>223</ele>
        <time>2020-09-13T08:58:21Z</time>
      </trkpt>
      <trkpt lat="47.64015" lon="6.18198">
        <ele>223</ele>
        <time>2020-09-13T08:58:22Z</time>
      </trkpt>
      <trkpt lat="47.6402" lon="6.18201">
        <ele>223</ele>
        <time>2020-09-13T08:58:23Z</time>
      </trkpt>
      <trkpt lat="47.64025" lon="6.18204">
        <ele>223</ele>
        <time>2020-09-13T08:58:24Z</time>
      </trkpt>
      <trkpt lat="47.6403" lon="6.18207">
        <ele>223</ele>
        <time>2020-09-13T08:58:25Z</time>
      </trkpt>
      <trkpt lat="47.64034" lon="6.1821">
        <ele>223</ele>
        <time>2020-09-13T08:58:26Z</time>
      </trkpt>
      <trkpt lat="47.64039" lon="6.18214">
        <ele>223</ele>
        <time>2020-09-13T08:58:27Z</time>
      </trkpt>
      <trkpt lat="47.64044" lon="6.18217">
        <ele>223</ele>
        <time>2020-09-13T08:58:28Z</time>
      </trkpt>
      <trkpt lat="47.64048" lon="6.1822">
        <ele>223</ele>
        <time>2020-09-13T08:58:29Z</time>
      </trkpt>
      <trkpt lat="47.64053" lon="6.18223">
        <ele>223</ele>
        <time>2020-09-13T08:58:30Z</time>
      </trkpt>
      <trkpt lat="47.64057" lon="6.18226">
        <ele>223</ele>
        <time>2020-09-13T08:58:31Z</time>
      </trkpt>
      <trkpt lat="47.64064" lon="6.18223">
        <ele>223</ele>
        <time>2020-09-13T08:58:33Z</time>
      </trkpt>
      <trkpt lat="47.64067" lon="6.18218">
        <ele>223</ele>
        <time>2020-09-13T08:58:34Z</time>
      </trkpt>
      <trkpt lat="47.6407" lon="6.18211">
        <ele>223</ele>
        <time>2020-09-13T08:58:35Z</time>
      </trkpt>
      <trkpt lat="47.64072" lon="6.18203">
        <ele>223</ele>
        <time>2020-09-13T08:58:36Z</time>
      </trkpt>
      <trkpt lat="47.64074" lon="6.18195">
        <ele>222</ele>
        <time>2020-09-13T08:58:37Z</time>
      </trkpt>
      <trkpt lat="47.64077" lon="6.1819">
        <ele>222</ele>
        <time>2020-09-13T08:58:38Z</time>
      </trkpt>
      <trkpt lat="47.64085" lon="6.1819">
        <ele>222</ele>
        <time>2020-09-13T08:58:40Z</time>
      </trkpt>
      <trkpt lat="47.64089" lon="6.18194">
        <ele>222</ele>
        <time>2020-09-13T08:58:41Z</time>
      </trkpt>
      <trkpt lat="47.64095" lon="6.18199">
        <ele>222</ele>
        <time>2020-09-13T08:58:46Z</time>
      </trkpt>
      <trkpt lat="47.64101" lon="6.18209">
        <ele>222</ele>
        <time>2020-09-13T08:58:48Z</time>
      </trkpt>
      <trkpt lat="47.6411" lon="6.18219">
        <ele>222</ele>
        <time>2020-09-13T08:58:50Z</time>
      </trkpt>
      <trkpt lat="47.64115" lon="6.18223">
        <ele>222</ele>
        <time>2020-09-13T08:58:52Z</time>
      </trkpt>
      <trkpt lat="47.64122" lon="6.18229">
        <ele>222</ele>
        <time>2020-09-13T08:58:54Z</time>
      </trkpt>
      <trkpt lat="47.64128" lon="6.18234">
        <ele>222</ele>
        <time>2020-09-13T08:58:56Z</time>
      </trkpt>
      <trkpt lat="47.64135" lon="6.18239">
        <ele>222</ele>
        <time>2020-09-13T08:58:58Z</time>
      </trkpt>
      <trkpt lat="47.64143" lon="6.18245">
        <ele>222</ele>
        <time>2020-09-13T08:59:00Z</time>
      </trkpt>
      <trkpt lat="47.64149" lon="6.18248">
        <ele>222</ele>
        <time>2020-09-13T08:59:02Z</time>
      </trkpt>
      <trkpt lat="47.64156" lon="6.18251">
        <ele>224</ele>
        <time>2020-09-13T08:59:04Z</time>
      </trkpt>
      <trkpt lat="47.64162" lon="6.18253">
        <ele>224</ele>
        <time>2020-09-13T08:59:04Z</time>
      </trkpt>
      <trkpt lat="47.64167" lon="6.18256">
        <ele>223</ele>
        <time>2020-09-13T08:59:08Z</time>
      </trkpt>
      <trkpt lat="47.64173" lon="6.18257">
        <ele>224</ele>
        <time>2020-09-13T08:59:10Z</time>
      </trkpt>
      <trkpt lat="47.64178" lon="6.18258">
        <ele>224</ele>
        <time>2020-09-13T08:59:11Z</time>
      </trkpt>
      <trkpt lat="47.64185" lon="6.18261">
        <ele>224</ele>
        <time>2020-09-13T08:59:14Z</time>
      </trkpt>
      <trkpt lat="47.6419" lon="6.18262">
        <ele>224</ele>
        <time>2020-09-13T08:59:16Z</time>
      </trkpt>
      <trkpt lat="47.64196" lon="6.18264">
        <ele>224</ele>
        <time>2020-09-13T08:59:19Z</time>
      </trkpt>
      <trkpt lat="47.64202" lon="6.18265">
        <ele>224</ele>
        <time>2020-09-13T08:59:20Z</time>
      </trkpt>
      <trkpt lat="47.64207" lon="6.18264">
        <ele>224</ele>
        <time>2020-09-13T08:59:26Z</time>
      </trkpt>
      <trkpt lat="47.64212" lon="6.18262">
        <ele>224</ele>
        <time>2020-09-13T08:59:27Z</time>
      </trkpt>
      <trkpt lat="47.64217" lon="6.18264">
        <ele>224</ele>
        <time>2020-09-13T08:59:31Z</time>
      </trkpt>
      <trkpt lat="47.64221" lon="6.18267">
        <ele>224</ele>
        <time>2020-09-13T08:59:34Z</time>
      </trkpt>
      <trkpt lat="47.64225" lon="6.18272">
        <ele>224</ele>
        <time>2020-09-13T09:00:07Z</time>
      </trkpt>
      <trkpt lat="47.64232" lon="6.18274">
        <ele>224</ele>
        <time>2020-09-13T09:00:13Z</time>
      </trkpt>
      <trkpt lat="47.64237" lon="6.18274">
        <ele>223</ele>
        <time>2020-09-13T09:00:15Z</time>
      </trkpt>
      <trkpt lat="47.64244" lon="6.18277">
        <ele>223</ele>
        <time>2020-09-13T09:00:19Z</time>
      </trkpt>
      <trkpt lat="47.64256" lon="6.18281">
        <ele>222</ele>
        <time>2020-09-13T09:00:22Z</time>
      </trkpt>
      <trkpt lat="47.6426" lon="6.18283">
        <ele>222</ele>
        <time>2020-09-13T09:00:23Z</time>
      </trkpt>
      <trkpt lat="47.64266" lon="6.18287">
        <ele>222</ele>
        <time>2020-09-13T09:00:26Z</time>
      </trkpt>
      <trkpt lat="47.6427" lon="6.1829">
        <ele>222</ele>
        <time>2020-09-13T09:00:28Z</time>
      </trkpt>
      <trkpt lat="47.64275" lon="6.18294">
        <ele>222</ele>
        <time>2020-09-13T09:00:29Z</time>
      </trkpt>
      <trkpt lat="47.6428" lon="6.18297">
        <ele>222</ele>
        <time>2020-09-13T09:00:33Z</time>
      </trkpt>
      <trkpt lat="47.64285" lon="6.18301">
        <ele>222</ele>
        <time>2020-09-13T09:00:35Z</time>
      </trkpt>
      <trkpt lat="47.64289" lon="6.18306">
        <ele>222</ele>
        <time>2020-09-13T09:00:36Z</time>
      </trkpt>
      <trkpt lat="47.64294" lon="6.18311">
        <ele>221</ele>
        <time>2020-09-13T09:00:38Z</time>
      </trkpt>
      <trkpt lat="47.64298" lon="6.18316">
        <ele>221</ele>
        <time>2020-09-13T09:00:40Z</time>
      </trkpt>
      <trkpt lat="47.64302" lon="6.18322">
        <ele>221</ele>
        <time>2020-09-13T09:00:42Z</time>
      </trkpt>
      <trkpt lat="47.64307" lon="6.18327">
        <ele>221</ele>
        <time>2020-09-13T09:00:44Z</time>
      </trkpt>
      <trkpt lat="47.64311" lon="6.18333">
        <ele>222</ele>
        <time>2020-09-13T09:00:46Z</time>
      </trkpt>
      <trkpt lat="47.64316" lon="6.18339">
        <ele>222</ele>
        <time>2020-09-13T09:00:48Z</time>
      </trkpt>
      <trkpt lat="47.6432" lon="6.18344">
        <ele>222</ele>
        <time>2020-09-13T09:00:50Z</time>
      </trkpt>
      <trkpt lat="47.64324" lon="6.1835">
        <ele>222</ele>
        <time>2020-09-13T09:00:51Z</time>
      </trkpt>
      <trkpt lat="47.64329" lon="6.18356">
        <ele>222</ele>
        <time>2020-09-13T09:00:53Z</time>
      </trkpt>
      <trkpt lat="47.64333" lon="6.18361">
        <ele>225</ele>
        <time>2020-09-13T09:00:56Z</time>
      </trkpt>
      <trkpt lat="47.64337" lon="6.18366">
        <ele>225</ele>
        <time>2020-09-13T09:00:57Z</time>
      </trkpt>
      <trkpt lat="47.64343" lon="6.18373">
        <ele>225</ele>
        <time>2020-09-13T09:01:00Z</time>
      </trkpt>
      <trkpt lat="47.64347" lon="6.18379">
        <ele>226</ele>
        <time>2020-09-13T09:01:02Z</time>
      </trkpt>
      <trkpt lat="47.64351" lon="6.18383">
        <ele>226</ele>
        <time>2020-09-13T09:01:03Z</time>
      </trkpt>
      <trkpt lat="47.64354" lon="6.18389">
        <ele>226</ele>
        <time>2020-09-13T09:01:08Z</time>
      </trkpt>
      <trkpt lat="47.64358" lon="6.18385">
        <ele>226</ele>
        <time>2020-09-13T09:01:11Z</time>
      </trkpt>
      <trkpt lat="47.64362" lon="6.1838">
        <ele>226</ele>
        <time>2020-09-13T09:01:24Z</time>
      </trkpt>
      <trkpt lat="47.64367" lon="6.18378">
        <ele>227</ele>
        <time>2020-09-13T09:01:27Z</time>
      </trkpt>
      <trkpt lat="47.64372" lon="6.18372">
        <ele>227</ele>
        <time>2020-09-13T09:01:32Z</time>
      </trkpt>
      <trkpt lat="47.64378" lon="6.18364">
        <ele>227</ele>
        <time>2020-09-13T09:01:34Z</time>
      </trkpt>
      <trkpt lat="47.64383" lon="6.18358">
        <ele>227</ele>
        <time>2020-09-13T09:01:36Z</time>
      </trkpt>
      <trkpt lat="47.64388" lon="6.18354">
        <ele>227</ele>
        <time>2020-09-13T09:01:38Z</time>
      </trkpt>
      <trkpt lat="47.64393" lon="6.18347">
        <ele>227</ele>
        <time>2020-09-13T09:01:41Z</time>
      </trkpt>
      <trkpt lat="47.64398" lon="6.18342">
        <ele>228</ele>
        <time>2020-09-13T09:01:45Z</time>
      </trkpt>
      <trkpt lat="47.64402" lon="6.18337">
        <ele>228</ele>
        <time>2020-09-13T09:01:47Z</time>
      </trkpt>
      <trkpt lat="47.64407" lon="6.18332">
        <ele>226</ele>
        <time>2020-09-13T09:01:48Z</time>
      </trkpt>
      <trkpt lat="47.64412" lon="6.18326">
        <ele>226</ele>
        <time>2020-09-13T09:01:51Z</time>
      </trkpt>
      <trkpt lat="47.64416" lon="6.18322">
        <ele>226</ele>
        <time>2020-09-13T09:01:53Z</time>
      </trkpt>
      <trkpt lat="47.64422" lon="6.18317">
        <ele>229</ele>
        <time>2020-09-13T09:01:56Z</time>
      </trkpt>
      <trkpt lat="47.64426" lon="6.18313">
        <ele>230</ele>
        <time>2020-09-13T09:01:59Z</time>
      </trkpt>
      <trkpt lat="47.64428" lon="6.18306">
        <ele>230</ele>
        <time>2020-09-13T09:02:02Z</time>
      </trkpt>
      <trkpt lat="47.6443" lon="6.18299">
        <ele>230</ele>
        <time>2020-09-13T09:02:06Z</time>
      </trkpt>
      <trkpt lat="47.64434" lon="6.18304">
        <ele>230</ele>
        <time>2020-09-13T09:02:10Z</time>
      </trkpt>
    </trkseg>
  </trk>
</gpx>